<?xml version='1.0' encoding='UTF-8'?><gpx version="1.1" creator="JPX - https://github.com/jenetics/jpx" xmlns="http://www.topografix.com/GPX/1/1"><trk><trkseg><trkpt lat="41.95630080632238" lon="12.70522695630129"><ele>68.0</ele><time>2026-04-04T09:08:41Z</time></trkpt><trkpt lat="41.95637489548062" lon="12.705232397521664"><ele>68.0</ele><time>2026-04-04T09:08:43Z</time></trkpt><trkpt lat="41.95643180725569" lon="12.705177935959764"><ele>68.0</ele><time>2026-04-04T09:08:45Z</time></trkpt><trkpt lat="41.956443178774364" lon="12.705079406090361"><ele>68.0</ele><time>2026-04-04T09:08:48Z</time></trkpt><trkpt lat="41.95638272764954" lon="12.704967580169404"><ele>68.0</ele><time>2026-04-04T09:09:21Z</time></trkpt><trkpt lat="41.9562985088321" lon="12.704958476295547"><ele>68.0</ele><time>2026-04-04T09:09:22Z</time></trkpt><trkpt lat="41.956204062203895" lon="12.704981859156083"><ele>68.0</ele><time>2026-04-04T09:09:23Z</time></trkpt><trkpt lat="41.956089278606214" lon="12.705013873786665"><ele>68.0</ele><time>2026-04-04T09:09:24Z</time></trkpt><trkpt lat="41.95596526154039" lon="12.705026631746914"><ele>68.0</ele><time>2026-04-04T09:09:25Z</time></trkpt><trkpt lat="41.95584141655473" lon="12.705023773661111"><ele>68.0</ele><time>2026-04-04T09:09:26Z</time></trkpt><trkpt lat="41.95569924333276" lon="12.705024734272294"><ele>67.66666666666667</ele><time>2026-04-04T09:09:27Z</time></trkpt><trkpt lat="41.955554515555804" lon="12.705037988929384"><ele>67.33333333333333</ele><time>2026-04-04T09:09:28Z</time></trkpt><trkpt lat="41.95539880748232" lon="12.705048697742216"><ele>67.0</ele><time>2026-04-04T09:09:29Z</time></trkpt><trkpt lat="41.955230457102196" lon="12.705060342430817"><ele>67.0</ele><time>2026-04-04T09:09:30Z</time></trkpt><trkpt lat="41.95507117463952" lon="12.705067299772903"><ele>67.0</ele><time>2026-04-04T09:09:31Z</time></trkpt><trkpt lat="41.954915777651905" lon="12.70507508625816"><ele>67.0</ele><time>2026-04-04T09:09:32Z</time></trkpt><trkpt lat="41.95478056341652" lon="12.705083379755004"><ele>66.8</ele><time>2026-04-04T09:09:33Z</time></trkpt><trkpt lat="41.95466456222277" lon="12.705092309353454"><ele>66.6</ele><time>2026-04-04T09:09:34Z</time></trkpt><trkpt lat="41.95456718794324" lon="12.705100694766502"><ele>66.39999999999999</ele><time>2026-04-04T09:09:35Z</time></trkpt><trkpt lat="41.95449012053305" lon="12.705110360134046"><ele>66.2</ele><time>2026-04-04T09:09:36Z</time></trkpt><trkpt lat="41.954415077503384" lon="12.705130080271674"><ele>66.0</ele><time>2026-04-04T09:09:39Z</time></trkpt><trkpt lat="41.95438065072297" lon="12.705304737942"><ele>66.66666666666667</ele><time>2026-04-04T09:09:48Z</time></trkpt><trkpt lat="41.95440883476594" lon="12.705464743124784"><ele>67.33333333333334</ele><time>2026-04-04T09:09:49Z</time></trkpt><trkpt lat="41.954441037170184" lon="12.705674839378103"><ele>68.0</ele><time>2026-04-04T09:09:50Z</time></trkpt><trkpt lat="41.95447129588204" lon="12.705910807122113"><ele>68.0</ele><time>2026-04-04T09:09:51Z</time></trkpt><trkpt lat="41.95448705031092" lon="12.706146614700074"><ele>68.0</ele><time>2026-04-04T09:09:52Z</time></trkpt><trkpt lat="41.954485342439995" lon="12.706336178863952"><ele>68.0</ele><time>2026-04-04T09:09:53Z</time></trkpt><trkpt lat="41.95448002253207" lon="12.706509261359884"><ele>68.0</ele><time>2026-04-04T09:09:54Z</time></trkpt><trkpt lat="41.95447533354563" lon="12.706689555497233"><ele>68.0</ele><time>2026-04-04T09:09:55Z</time></trkpt><trkpt lat="41.95444720482045" lon="12.70686126285463"><ele>68.0</ele><time>2026-04-04T09:09:56Z</time></trkpt><trkpt lat="41.954431682496285" lon="12.707038202046425"><ele>68.0</ele><time>2026-04-04T09:09:57Z</time></trkpt><trkpt lat="41.954417055834796" lon="12.707204605113514"><ele>68.0</ele><time>2026-04-04T09:09:58Z</time></trkpt><trkpt lat="41.954402190464954" lon="12.707373723558733"><ele>68.0</ele><time>2026-04-04T09:09:59Z</time></trkpt><trkpt lat="41.95438926921067" lon="12.707521822423503"><ele>68.0</ele><time>2026-04-04T09:10:00Z</time></trkpt><trkpt lat="41.95439523710104" lon="12.707631249792612"><ele>68.0</ele><time>2026-04-04T09:10:01Z</time></trkpt><trkpt lat="41.95438822028387" lon="12.70772224927507"><ele>68.0</ele><time>2026-04-04T09:10:02Z</time></trkpt><trkpt lat="41.95437320158222" lon="12.707886267731457"><ele>68.0</ele><time>2026-04-04T09:10:04Z</time></trkpt><trkpt lat="41.95436817963599" lon="12.707971733699827"><ele>68.0</ele><time>2026-04-04T09:10:05Z</time></trkpt><trkpt lat="41.9543574788411" lon="12.708090184788764"><ele>68.0</ele><time>2026-04-04T09:10:06Z</time></trkpt><trkpt lat="41.95433470453622" lon="12.708254744949132"><ele>68.0</ele><time>2026-04-04T09:10:07Z</time></trkpt><trkpt lat="41.95431016392377" lon="12.708452275143689"><ele>68.0</ele><time>2026-04-04T09:10:08Z</time></trkpt><trkpt lat="41.954291749172924" lon="12.708667068903198"><ele>68.0</ele><time>2026-04-04T09:10:09Z</time></trkpt><trkpt lat="41.954276660446254" lon="12.708870814186007"><ele>68.0</ele><time>2026-04-04T09:10:10Z</time></trkpt><trkpt lat="41.954263574503166" lon="12.709049319047995"><ele>68.0</ele><time>2026-04-04T09:10:11Z</time></trkpt><trkpt lat="41.954249208402494" lon="12.709233975498874"><ele>68.0</ele><time>2026-04-04T09:10:12Z</time></trkpt><trkpt lat="41.9542366554318" lon="12.709439637079548"><ele>68.0</ele><time>2026-04-04T09:10:13Z</time></trkpt><trkpt lat="41.95422008629273" lon="12.709657306497798"><ele>68.25</ele><time>2026-04-04T09:10:14Z</time></trkpt><trkpt lat="41.95419044418511" lon="12.709835893214214"><ele>68.5</ele><time>2026-04-04T09:10:15Z</time></trkpt><trkpt lat="41.9541608960307" lon="12.709994530004424"><ele>68.75</ele><time>2026-04-04T09:10:16Z</time></trkpt><trkpt lat="41.954149815710565" lon="12.71016123023449"><ele>69.0</ele><time>2026-04-04T09:10:17Z</time></trkpt><trkpt lat="41.9541452913249" lon="12.710331606762793"><ele>69.0</ele><time>2026-04-04T09:10:18Z</time></trkpt><trkpt lat="41.95415213412126" lon="12.710508809898515"><ele>69.0</ele><time>2026-04-04T09:10:19Z</time></trkpt><trkpt lat="41.95412668940298" lon="12.710713247741602"><ele>69.0</ele><time>2026-04-04T09:10:20Z</time></trkpt><trkpt lat="41.954099152723494" lon="12.710973887724807"><ele>69.0</ele><time>2026-04-04T09:10:21Z</time></trkpt><trkpt lat="41.95406101151988" lon="12.711261977828133"><ele>69.0</ele><time>2026-04-04T09:10:22Z</time></trkpt><trkpt lat="41.954000555951474" lon="12.711552973038186"><ele>69.0</ele><time>2026-04-04T09:10:23Z</time></trkpt><trkpt lat="41.953932588971846" lon="12.711837993352914"><ele>68.5</ele><time>2026-04-04T09:10:23.999Z</time></trkpt><trkpt lat="41.95384444018242" lon="12.712118064344772"><ele>68.0</ele><time>2026-04-04T09:10:24.999Z</time></trkpt><trkpt lat="41.95373021696877" lon="12.712406287956773"><ele>68.0</ele><time>2026-04-04T09:10:25.999Z</time></trkpt><trkpt lat="41.95357509698467" lon="12.712682825543698"><ele>68.0</ele><time>2026-04-04T09:10:26.999Z</time></trkpt><trkpt lat="41.95345966063036" lon="12.712941663507792"><ele>67.66666666666667</ele><time>2026-04-04T09:10:27.999Z</time></trkpt><trkpt lat="41.953337789184886" lon="12.713163883630742"><ele>67.33333333333333</ele><time>2026-04-04T09:10:28.999Z</time></trkpt><trkpt lat="41.95322135504995" lon="12.713401339821289"><ele>67.0</ele><time>2026-04-04T09:10:29.999Z</time></trkpt><trkpt lat="41.95310212602036" lon="12.713672683447887"><ele>67.0</ele><time>2026-04-04T09:10:30.999Z</time></trkpt><trkpt lat="41.95299435640874" lon="12.713936261803944"><ele>67.0</ele><time>2026-04-04T09:10:31.999Z</time></trkpt><trkpt lat="41.952922431681884" lon="12.714144522530965"><ele>67.0</ele><time>2026-04-04T09:10:32.999Z</time></trkpt><trkpt lat="41.952871524148975" lon="12.714327044815636"><ele>68.0</ele><time>2026-04-04T09:10:33.999Z</time></trkpt><trkpt lat="41.95282488614816" lon="12.71451543081235"><ele>69.0</ele><time>2026-04-04T09:10:34.999Z</time></trkpt><trkpt lat="41.95277955844977" lon="12.714713866060862"><ele>70.0</ele><time>2026-04-04T09:10:35.999Z</time></trkpt><trkpt lat="41.952742850001265" lon="12.71490934676269"><ele>70.0</ele><time>2026-04-04T09:10:36.999Z</time></trkpt><trkpt lat="41.95270394031023" lon="12.715083876873537"><ele>70.0</ele><time>2026-04-04T09:10:37.999Z</time></trkpt><trkpt lat="41.952679381476365" lon="12.71525995351983"><ele>70.0</ele><time>2026-04-04T09:10:38.999Z</time></trkpt><trkpt lat="41.952652251159364" lon="12.71546557937707"><ele>70.0</ele><time>2026-04-04T09:10:40Z</time></trkpt><trkpt lat="41.95262579205464" lon="12.71567312822087"><ele>69.66666666666666</ele><time>2026-04-04T09:10:41Z</time></trkpt><trkpt lat="41.95259726479577" lon="12.715896899685145"><ele>69.33333333333333</ele><time>2026-04-04T09:10:42Z</time></trkpt><trkpt lat="41.95256780976813" lon="12.71611799848691"><ele>69.0</ele><time>2026-04-04T09:10:43Z</time></trkpt><trkpt lat="41.95256261099665" lon="12.716315723056635"><ele>69.0</ele><time>2026-04-04T09:10:44Z</time></trkpt><trkpt lat="41.952541460206106" lon="12.71650183672358"><ele>69.0</ele><time>2026-04-04T09:10:45Z</time></trkpt><trkpt lat="41.952518374502965" lon="12.716695065076243"><ele>69.0</ele><time>2026-04-04T09:10:46Z</time></trkpt><trkpt lat="41.95249020485732" lon="12.716888034192934"><ele>69.0</ele><time>2026-04-04T09:10:47Z</time></trkpt><trkpt lat="41.95246564561897" lon="12.717075362110203"><ele>69.0</ele><time>2026-04-04T09:10:48Z</time></trkpt><trkpt lat="41.952447395742794" lon="12.717232999183784"><ele>69.0</ele><time>2026-04-04T09:10:49Z</time></trkpt><trkpt lat="41.952433585105645" lon="12.717368684055918"><ele>69.0</ele><time>2026-04-04T09:10:50Z</time></trkpt><trkpt lat="41.952424084538244" lon="12.717504354169874"><ele>69.0</ele><time>2026-04-04T09:10:51Z</time></trkpt><trkpt lat="41.952419079639704" lon="12.717643440476035"><ele>69.0</ele><time>2026-04-04T09:10:52Z</time></trkpt><trkpt lat="41.952420381239016" lon="12.717765305695961"><ele>68.83333333333333</ele><time>2026-04-04T09:10:53Z</time></trkpt><trkpt lat="41.952415436915274" lon="12.717888050601115"><ele>68.66666666666667</ele><time>2026-04-04T09:10:54Z</time></trkpt><trkpt lat="41.952414228200176" lon="12.71801600202232"><ele>68.5</ele><time>2026-04-04T09:10:55Z</time></trkpt><trkpt lat="41.95239781637696" lon="12.718127191386376"><ele>68.33333333333334</ele><time>2026-04-04T09:10:56Z</time></trkpt><trkpt lat="41.952396788400655" lon="12.718228883953625"><ele>68.16666666666667</ele><time>2026-04-04T09:10:57Z</time></trkpt><trkpt lat="41.952408414485184" lon="12.718317279849792"><ele>68.0</ele><time>2026-04-04T09:10:59Z</time></trkpt><trkpt lat="41.95240909818079" lon="12.718472070524596"><ele>68.4</ele><time>2026-04-04T09:11:01Z</time></trkpt><trkpt lat="41.952394886730914" lon="12.718627224053446"><ele>68.8</ele><time>2026-04-04T09:11:03Z</time></trkpt><trkpt lat="41.95239451713118" lon="12.718781864232037"><ele>69.2</ele><time>2026-04-04T09:11:05Z</time></trkpt><trkpt lat="41.95239500141332" lon="12.718882138657243"><ele>69.6</ele><time>2026-04-04T09:11:06Z</time></trkpt><trkpt lat="41.95240979914586" lon="12.719006836285248"><ele>70.0</ele><time>2026-04-04T09:11:07Z</time></trkpt><trkpt lat="41.95240876568839" lon="12.719144168055006"><ele>70.0</ele><time>2026-04-04T09:11:08Z</time></trkpt><trkpt lat="41.95240964993906" lon="12.719289708764427"><ele>70.0</ele><time>2026-04-04T09:11:09Z</time></trkpt><trkpt lat="41.95240975016382" lon="12.719394438497815"><ele>70.0</ele><time>2026-04-04T09:11:10Z</time></trkpt><trkpt lat="41.9524093512566" lon="12.719512711830824"><ele>70.0</ele><time>2026-04-04T09:11:11Z</time></trkpt><trkpt lat="41.95240591269726" lon="12.719675474985252"><ele>70.0</ele><time>2026-04-04T09:11:12Z</time></trkpt><trkpt lat="41.952406611047884" lon="12.719876287889715"><ele>69.66666666666666</ele><time>2026-04-04T09:11:13Z</time></trkpt><trkpt lat="41.95240530146115" lon="12.720108872853936"><ele>69.33333333333333</ele><time>2026-04-04T09:11:14Z</time></trkpt><trkpt lat="41.952404156897835" lon="12.720310563447438"><ele>69.0</ele><time>2026-04-04T09:11:15Z</time></trkpt><trkpt lat="41.9524041518614" lon="12.720491797724183"><ele>69.0</ele><time>2026-04-04T09:11:16Z</time></trkpt><trkpt lat="41.95240095632444" lon="12.720656215138904"><ele>69.0</ele><time>2026-04-04T09:11:17Z</time></trkpt><trkpt lat="41.95240094102373" lon="12.720776527215875"><ele>69.0</ele><time>2026-04-04T09:11:18Z</time></trkpt><trkpt lat="41.95240173921821" lon="12.720935010231267"><ele>69.0</ele><time>2026-04-04T09:11:20Z</time></trkpt><trkpt lat="41.952401016592106" lon="12.721071865572409"><ele>69.0</ele><time>2026-04-04T09:11:22Z</time></trkpt><trkpt lat="41.95240084092223" lon="12.721212789875105"><ele>69.0</ele><time>2026-04-04T09:11:24Z</time></trkpt><trkpt lat="41.95239770763351" lon="12.721326601230254"><ele>69.0</ele><time>2026-04-04T09:11:25Z</time></trkpt><trkpt lat="41.95239427255695" lon="12.721496205173022"><ele>69.0</ele><time>2026-04-04T09:11:26Z</time></trkpt><trkpt lat="41.95239198694711" lon="12.721663410769338"><ele>69.0</ele><time>2026-04-04T09:11:27Z</time></trkpt><trkpt lat="41.952391163921156" lon="12.721803540048578"><ele>69.0</ele><time>2026-04-04T09:11:28Z</time></trkpt><trkpt lat="41.95238918779307" lon="12.721932814579862"><ele>69.0</ele><time>2026-04-04T09:11:29Z</time></trkpt><trkpt lat="41.95238656169082" lon="12.72206205804745"><ele>69.0</ele><time>2026-04-04T09:11:30Z</time></trkpt><trkpt lat="41.95238502975917" lon="12.722188267922348"><ele>69.0</ele><time>2026-04-04T09:11:31Z</time></trkpt><trkpt lat="41.952383663421365" lon="12.722314679200881"><ele>69.0</ele><time>2026-04-04T09:11:32Z</time></trkpt><trkpt lat="41.952383136217136" lon="12.722443072599365"><ele>69.0</ele><time>2026-04-04T09:11:33Z</time></trkpt><trkpt lat="41.95238217068842" lon="12.722570704818388"><ele>69.0</ele><time>2026-04-04T09:11:34Z</time></trkpt><trkpt lat="41.95237956548711" lon="12.722701924622802"><ele>69.0</ele><time>2026-04-04T09:11:35Z</time></trkpt><trkpt lat="41.95237646409375" lon="12.72279546470242"><ele>69.0</ele><time>2026-04-04T09:11:36Z</time></trkpt><trkpt lat="41.95237024650919" lon="12.722981981909905"><ele>69.0</ele><time>2026-04-04T09:11:38Z</time></trkpt><trkpt lat="41.95237231410853" lon="12.723126907637523"><ele>69.0</ele><time>2026-04-04T09:11:39Z</time></trkpt><trkpt lat="41.95237383815995" lon="12.723269939727297"><ele>69.0</ele><time>2026-04-04T09:11:40Z</time></trkpt><trkpt lat="41.952372675408235" lon="12.723422082050856"><ele>69.0</ele><time>2026-04-04T09:11:41Z</time></trkpt><trkpt lat="41.95237239915206" lon="12.723578812860236"><ele>69.0</ele><time>2026-04-04T09:11:42Z</time></trkpt><trkpt lat="41.95236878154978" lon="12.723730408941105"><ele>69.0</ele><time>2026-04-04T09:11:43Z</time></trkpt><trkpt lat="41.95236777481176" lon="12.723850586005135"><ele>69.0</ele><time>2026-04-04T09:11:44Z</time></trkpt><trkpt lat="41.95236517315488" lon="12.723966982847312"><ele>69.4</ele><time>2026-04-04T09:11:45Z</time></trkpt><trkpt lat="41.952361718423134" lon="12.7241104632593"><ele>69.80000000000001</ele><time>2026-04-04T09:11:46Z</time></trkpt><trkpt lat="41.952354316896766" lon="12.72423297958873"><ele>70.19999999999999</ele><time>2026-04-04T09:11:47Z</time></trkpt><trkpt lat="41.95235207182654" lon="12.724347070490811"><ele>70.6</ele><time>2026-04-04T09:11:48Z</time></trkpt><trkpt lat="41.9523518341575" lon="12.724497819124"><ele>71.0</ele><time>2026-04-04T09:11:49Z</time></trkpt><trkpt lat="41.95234601788822" lon="12.72463949320864"><ele>71.16666666666667</ele><time>2026-04-04T09:11:50Z</time></trkpt><trkpt lat="41.95234430592655" lon="12.724769744634333"><ele>71.33333333333334</ele><time>2026-04-04T09:11:51Z</time></trkpt><trkpt lat="41.95234163616056" lon="12.72488605205669"><ele>71.5</ele><time>2026-04-04T09:11:52Z</time></trkpt><trkpt lat="41.952335315142726" lon="12.724978943220458"><ele>71.66666666666667</ele><time>2026-04-04T09:11:53Z</time></trkpt><trkpt lat="41.95233080889995" lon="12.725085075764442"><ele>71.83333333333333</ele><time>2026-04-04T09:11:55Z</time></trkpt><trkpt lat="41.95232821679529" lon="12.725180102749396"><ele>72.0</ele><time>2026-04-04T09:11:58Z</time></trkpt><trkpt lat="41.95232324085672" lon="12.725326304767577"><ele>71.5</ele><time>2026-04-04T09:12:08Z</time></trkpt><trkpt lat="41.952320771478576" lon="12.725471966963363"><ele>71.0</ele><time>2026-04-04T09:12:10Z</time></trkpt><trkpt lat="41.952320036555946" lon="12.725561675322696"><ele>70.5</ele><time>2026-04-04T09:12:11Z</time></trkpt><trkpt lat="41.952315222030414" lon="12.725672581354528"><ele>70.0</ele><time>2026-04-04T09:12:13Z</time></trkpt><trkpt lat="41.952311572437566" lon="12.725771863865807"><ele>69.5</ele><time>2026-04-04T09:12:14Z</time></trkpt><trkpt lat="41.952310931707636" lon="12.725893456488006"><ele>69.0</ele><time>2026-04-04T09:12:15Z</time></trkpt><trkpt lat="41.952302708285835" lon="12.726055378319986"><ele>68.75</ele><time>2026-04-04T09:12:16Z</time></trkpt><trkpt lat="41.952296568842094" lon="12.726237886903577"><ele>68.5</ele><time>2026-04-04T09:12:17Z</time></trkpt><trkpt lat="41.95229203360185" lon="12.726424892895533"><ele>68.25</ele><time>2026-04-04T09:12:18Z</time></trkpt><trkpt lat="41.95228271878778" lon="12.726602633348397"><ele>68.0</ele><time>2026-04-04T09:12:19Z</time></trkpt><trkpt lat="41.95227769268196" lon="12.726748731953906"><ele>68.0</ele><time>2026-04-04T09:12:20Z</time></trkpt><trkpt lat="41.95226894736065" lon="12.726891571737578"><ele>68.0</ele><time>2026-04-04T09:12:21Z</time></trkpt><trkpt lat="41.95226357047017" lon="12.727053891746635"><ele>68.0</ele><time>2026-04-04T09:12:22Z</time></trkpt><trkpt lat="41.95226289489217" lon="12.727190318738845"><ele>68.0</ele><time>2026-04-04T09:12:23Z</time></trkpt><trkpt lat="41.95226121897861" lon="12.727315749578466"><ele>68.0</ele><time>2026-04-04T09:12:24Z</time></trkpt><trkpt lat="41.952254644016676" lon="12.727441366412014"><ele>68.0</ele><time>2026-04-04T09:12:25Z</time></trkpt><trkpt lat="41.952249928216894" lon="12.72756699011685"><ele>68.0</ele><time>2026-04-04T09:12:26Z</time></trkpt><trkpt lat="41.95224652585889" lon="12.727688351536186"><ele>68.0</ele><time>2026-04-04T09:12:27Z</time></trkpt><trkpt lat="41.952237366064466" lon="12.727841981063001"><ele>68.0</ele><time>2026-04-04T09:12:28Z</time></trkpt><trkpt lat="41.95222954557398" lon="12.728010274916489"><ele>68.0</ele><time>2026-04-04T09:12:29Z</time></trkpt><trkpt lat="41.952222856256064" lon="12.72814749894216"><ele>68.33333333333334</ele><time>2026-04-04T09:12:29.999Z</time></trkpt><trkpt lat="41.95222189251242" lon="12.72827211021097"><ele>68.66666666666667</ele><time>2026-04-04T09:12:30.999Z</time></trkpt><trkpt lat="41.95222065846256" lon="12.728364977913333"><ele>69.0</ele><time>2026-04-04T09:12:31.999Z</time></trkpt><trkpt lat="41.952228590883344" lon="12.72850086625625"><ele>69.33333333333333</ele><time>2026-04-04T09:12:33.999Z</time></trkpt><trkpt lat="41.952225842370034" lon="12.728607535981258"><ele>69.66666666666666</ele><time>2026-04-04T09:12:34.999Z</time></trkpt><trkpt lat="41.952215744673744" lon="12.728714347903205"><ele>70.0</ele><time>2026-04-04T09:12:35.999Z</time></trkpt><trkpt lat="41.95219282836261" lon="12.728933567324663"><ele>70.0</ele><time>2026-04-04T09:12:38Z</time></trkpt><trkpt lat="41.95218536140588" lon="12.729097963049284"><ele>70.0</ele><time>2026-04-04T09:12:39Z</time></trkpt><trkpt lat="41.95217936338408" lon="12.729277768626213"><ele>70.0</ele><time>2026-04-04T09:12:39.999Z</time></trkpt><trkpt lat="41.9521738463043" lon="12.72945901592432"><ele>70.0</ele><time>2026-04-04T09:12:41Z</time></trkpt><trkpt lat="41.95216563197891" lon="12.729568488001794"><ele>70.0</ele><time>2026-04-04T09:12:42Z</time></trkpt><trkpt lat="41.95216242217152" lon="12.729675089257212"><ele>70.0</ele><time>2026-04-04T09:12:43Z</time></trkpt><trkpt lat="41.95215936781767" lon="12.729772169851987"><ele>70.0</ele><time>2026-04-04T09:12:44Z</time></trkpt><trkpt lat="41.95215412296085" lon="12.729898930346803"><ele>70.0</ele><time>2026-04-04T09:12:45Z</time></trkpt><trkpt lat="41.952146021729966" lon="12.73006047370442"><ele>70.0</ele><time>2026-04-04T09:12:46Z</time></trkpt><trkpt lat="41.952136336272495" lon="12.730226089302368"><ele>69.33333333333333</ele><time>2026-04-04T09:12:47Z</time></trkpt><trkpt lat="41.9521315490837" lon="12.730411470861352"><ele>68.66666666666667</ele><time>2026-04-04T09:12:48Z</time></trkpt><trkpt lat="41.952127223198225" lon="12.730634483900435"><ele>68.0</ele><time>2026-04-04T09:12:49Z</time></trkpt><trkpt lat="41.952118497345836" lon="12.730872859406736"><ele>68.0</ele><time>2026-04-04T09:12:50Z</time></trkpt><trkpt lat="41.95210107170873" lon="12.731054595759854"><ele>68.0</ele><time>2026-04-04T09:12:51Z</time></trkpt><trkpt lat="41.95209103167884" lon="12.731282809478905"><ele>68.0</ele><time>2026-04-04T09:12:52Z</time></trkpt><trkpt lat="41.95207248026215" lon="12.731518531569536"><ele>67.66666666666667</ele><time>2026-04-04T09:12:53Z</time></trkpt><trkpt lat="41.952051828083874" lon="12.73175368985829"><ele>67.33333333333333</ele><time>2026-04-04T09:12:54Z</time></trkpt><trkpt lat="41.95203665170948" lon="12.731970322031342"><ele>67.0</ele><time>2026-04-04T09:12:55Z</time></trkpt><trkpt lat="41.95202811366016" lon="12.732183409012482"><ele>67.0</ele><time>2026-04-04T09:12:56Z</time></trkpt><trkpt lat="41.95202308152313" lon="12.732388593896644"><ele>67.0</ele><time>2026-04-04T09:12:57Z</time></trkpt><trkpt lat="41.952017329330495" lon="12.732586032175304"><ele>67.0</ele><time>2026-04-04T09:12:58Z</time></trkpt><trkpt lat="41.95200892219434" lon="12.732780619932004"><ele>67.0</ele><time>2026-04-04T09:12:59Z</time></trkpt><trkpt lat="41.95200136335694" lon="12.732974507553113"><ele>66.75</ele><time>2026-04-04T09:13:00Z</time></trkpt><trkpt lat="41.951997044275664" lon="12.73316016007415"><ele>66.5</ele><time>2026-04-04T09:13:01Z</time></trkpt><trkpt lat="41.95200015819481" lon="12.733350613457915"><ele>66.25</ele><time>2026-04-04T09:13:02Z</time></trkpt><trkpt lat="41.952011179587736" lon="12.733540065407235"><ele>66.0</ele><time>2026-04-04T09:13:03Z</time></trkpt><trkpt lat="41.95202265092106" lon="12.733727504528625"><ele>65.0</ele><time>2026-04-04T09:13:04Z</time></trkpt><trkpt lat="41.95204989990491" lon="12.73393416010003"><ele>64.0</ele><time>2026-04-04T09:13:05Z</time></trkpt><trkpt lat="41.95208955255453" lon="12.734131865144807"><ele>63.0</ele><time>2026-04-04T09:13:06Z</time></trkpt><trkpt lat="41.9521334809695" lon="12.734325933952103"><ele>63.66666666666667</ele><time>2026-04-04T09:13:07Z</time></trkpt><trkpt lat="41.95218137104586" lon="12.734514673277042"><ele>64.33333333333334</ele><time>2026-04-04T09:13:08Z</time></trkpt><trkpt lat="41.95222928344088" lon="12.734705748864608"><ele>65.0</ele><time>2026-04-04T09:13:09Z</time></trkpt><trkpt lat="41.95227566681315" lon="12.734911827464572"><ele>65.0</ele><time>2026-04-04T09:13:10Z</time></trkpt><trkpt lat="41.952321491574" lon="12.735140442821704"><ele>65.0</ele><time>2026-04-04T09:13:11Z</time></trkpt><trkpt lat="41.9523684071915" lon="12.735371879347268"><ele>65.0</ele><time>2026-04-04T09:13:12Z</time></trkpt><trkpt lat="41.95243216566329" lon="12.735635400935296"><ele>65.0</ele><time>2026-04-04T09:13:13Z</time></trkpt><trkpt lat="41.952471412867865" lon="12.735897557440156"><ele>65.0</ele><time>2026-04-04T09:13:14Z</time></trkpt><trkpt lat="41.95252627162391" lon="12.736163629054339"><ele>65.0</ele><time>2026-04-04T09:13:15Z</time></trkpt><trkpt lat="41.9525921476768" lon="12.736430909557756"><ele>65.0</ele><time>2026-04-04T09:13:16Z</time></trkpt><trkpt lat="41.952641398186906" lon="12.736723650870044"><ele>65.0</ele><time>2026-04-04T09:13:17Z</time></trkpt><trkpt lat="41.95269299006412" lon="12.737027027247766"><ele>64.5</ele><time>2026-04-04T09:13:18Z</time></trkpt><trkpt lat="41.9527574598111" lon="12.737330256095161"><ele>64.0</ele><time>2026-04-04T09:13:19Z</time></trkpt><trkpt lat="41.9528219994732" lon="12.737636678046423"><ele>63.5</ele><time>2026-04-04T09:13:20Z</time></trkpt><trkpt lat="41.95288971143047" lon="12.737938148128043"><ele>63.0</ele><time>2026-04-04T09:13:21Z</time></trkpt><trkpt lat="41.95294825204096" lon="12.738220048122995"><ele>63.0</ele><time>2026-04-04T09:13:22Z</time></trkpt><trkpt lat="41.95300328476101" lon="12.738509587111219"><ele>63.0</ele><time>2026-04-04T09:13:23Z</time></trkpt><trkpt lat="41.9530614989726" lon="12.738797535536484"><ele>63.0</ele><time>2026-04-04T09:13:24Z</time></trkpt><trkpt lat="41.953113253676044" lon="12.739102227337101"><ele>59.0</ele><time>2026-04-04T09:13:25Z</time></trkpt><trkpt lat="41.953163457314226" lon="12.739409322267575"><ele>55.0</ele><time>2026-04-04T09:13:26Z</time></trkpt><trkpt lat="41.9532262887193" lon="12.739706508665877"><ele>55.0</ele><time>2026-04-04T09:13:27Z</time></trkpt><trkpt lat="41.953274667510804" lon="12.739996151253637"><ele>55.0</ele><time>2026-04-04T09:13:28Z</time></trkpt><trkpt lat="41.953356929273355" lon="12.740298473293553"><ele>50.0</ele><time>2026-04-04T09:13:29Z</time></trkpt><trkpt lat="41.95344847611292" lon="12.740589736949751"><ele>45.0</ele><time>2026-04-04T09:13:30Z</time></trkpt><trkpt lat="41.95354720722175" lon="12.740870339228143"><ele>43.5</ele><time>2026-04-04T09:13:31Z</time></trkpt><trkpt lat="41.95366063246897" lon="12.74114524064917"><ele>42.0</ele><time>2026-04-04T09:13:32Z</time></trkpt><trkpt lat="41.953763484026965" lon="12.741418226636313"><ele>42.0</ele><time>2026-04-04T09:13:33Z</time></trkpt><trkpt lat="41.95385164208287" lon="12.741690279787635"><ele>42.0</ele><time>2026-04-04T09:13:34Z</time></trkpt><trkpt lat="41.953920981127304" lon="12.741954707370713"><ele>42.0</ele><time>2026-04-04T09:13:35Z</time></trkpt><trkpt lat="41.953984269833555" lon="12.742217032536104"><ele>45.33333333333333</ele><time>2026-04-04T09:13:36Z</time></trkpt><trkpt lat="41.95404302215405" lon="12.742466025632742"><ele>48.666666666666664</ele><time>2026-04-04T09:13:37Z</time></trkpt><trkpt lat="41.954101278819536" lon="12.742714634158938"><ele>52.0</ele><time>2026-04-04T09:13:38Z</time></trkpt><trkpt lat="41.95415792386473" lon="12.74294649993345"><ele>52.666666666666664</ele><time>2026-04-04T09:13:39Z</time></trkpt><trkpt lat="41.95421377207161" lon="12.743174550869025"><ele>53.33333333333333</ele><time>2026-04-04T09:13:40Z</time></trkpt><trkpt lat="41.95426314558703" lon="12.743390775426667"><ele>54.0</ele><time>2026-04-04T09:13:41Z</time></trkpt><trkpt lat="41.95432003457046" lon="12.743607447894155"><ele>54.0</ele><time>2026-04-04T09:13:42Z</time></trkpt><trkpt lat="41.95437497316225" lon="12.743825094220187"><ele>54.0</ele><time>2026-04-04T09:13:43Z</time></trkpt><trkpt lat="41.954432608010045" lon="12.744051905059075"><ele>54.0</ele><time>2026-04-04T09:13:44Z</time></trkpt><trkpt lat="41.95448080815398" lon="12.744246859172737"><ele>50.0</ele><time>2026-04-04T09:13:45Z</time></trkpt><trkpt lat="41.95453549116088" lon="12.744462355246869"><ele>46.0</ele><time>2026-04-04T09:13:46Z</time></trkpt><trkpt lat="41.95458999229407" lon="12.74469156576438"><ele>42.0</ele><time>2026-04-04T09:13:47Z</time></trkpt><trkpt lat="41.954639494830474" lon="12.74492501258019"><ele>42.0</ele><time>2026-04-04T09:13:48Z</time></trkpt><trkpt lat="41.954682063743924" lon="12.745126805536417"><ele>42.0</ele><time>2026-04-04T09:13:49Z</time></trkpt><trkpt lat="41.95472248289229" lon="12.745327504000647"><ele>42.0</ele><time>2026-04-04T09:13:50Z</time></trkpt><trkpt lat="41.954761407169386" lon="12.745560246951017"><ele>41.333333333333336</ele><time>2026-04-04T09:13:51Z</time></trkpt><trkpt lat="41.95479198252066" lon="12.745809930216323"><ele>40.66666666666667</ele><time>2026-04-04T09:13:52Z</time></trkpt><trkpt lat="41.95482277856699" lon="12.7460744605577"><ele>40.0</ele><time>2026-04-04T09:13:53Z</time></trkpt><trkpt lat="41.95484793487303" lon="12.746316081587372"><ele>41.0</ele><time>2026-04-04T09:13:54Z</time></trkpt><trkpt lat="41.95486821254533" lon="12.746540933745724"><ele>42.0</ele><time>2026-04-04T09:13:55Z</time></trkpt><trkpt lat="41.95488165443796" lon="12.746751269285562"><ele>43.0</ele><time>2026-04-04T09:13:56Z</time></trkpt><trkpt lat="41.95490007093172" lon="12.746990074551263"><ele>43.0</ele><time>2026-04-04T09:13:57Z</time></trkpt><trkpt lat="41.954925580879355" lon="12.747242927332849"><ele>43.0</ele><time>2026-04-04T09:13:58Z</time></trkpt><trkpt lat="41.95495593759249" lon="12.747526560232338"><ele>43.0</ele><time>2026-04-04T09:13:59Z</time></trkpt><trkpt lat="41.954986844475926" lon="12.747806710005111"><ele>44.0</ele><time>2026-04-04T09:14:00Z</time></trkpt><trkpt lat="41.95501579175416" lon="12.748078115503183"><ele>45.0</ele><time>2026-04-04T09:14:01Z</time></trkpt><trkpt lat="41.9550446846073" lon="12.748396746949151"><ele>46.0</ele><time>2026-04-04T09:14:02Z</time></trkpt><trkpt lat="41.95507566521964" lon="12.748712343396233"><ele>47.5</ele><time>2026-04-04T09:14:03Z</time></trkpt><trkpt lat="41.95511338287644" lon="12.7490450091852"><ele>49.0</ele><time>2026-04-04T09:14:04Z</time></trkpt><trkpt lat="41.95513574644222" lon="12.749395942234823"><ele>44.5</ele><time>2026-04-04T09:14:05Z</time></trkpt><trkpt lat="41.955205238273116" lon="12.749781293090775"><ele>40.0</ele><time>2026-04-04T09:14:06Z</time></trkpt><trkpt lat="41.955254521702905" lon="12.750185148798312"><ele>41.5</ele><time>2026-04-04T09:14:07Z</time></trkpt><trkpt lat="41.9553355804656" lon="12.750661410760541"><ele>43.0</ele><time>2026-04-04T09:14:08Z</time></trkpt><trkpt lat="41.955423671373595" lon="12.751093093498083"><ele>44.5</ele><time>2026-04-04T09:14:09Z</time></trkpt><trkpt lat="41.95549668194049" lon="12.75146328204585"><ele>46.0</ele><time>2026-04-04T09:14:10Z</time></trkpt><trkpt lat="41.955560672811686" lon="12.751789955325767"><ele>46.5</ele><time>2026-04-04T09:14:11Z</time></trkpt><trkpt lat="41.95561533243363" lon="12.752097947287757"><ele>47.0</ele><time>2026-04-04T09:14:12Z</time></trkpt><trkpt lat="41.95566606455902" lon="12.752381086556603"><ele>47.0</ele><time>2026-04-04T09:14:13Z</time></trkpt><trkpt lat="41.955708156273026" lon="12.75263578466046"><ele>47.0</ele><time>2026-04-04T09:14:14Z</time></trkpt><trkpt lat="41.95574822905737" lon="12.75287762639001"><ele>47.0</ele><time>2026-04-04T09:14:15Z</time></trkpt><trkpt lat="41.95579342834074" lon="12.753109220188973"><ele>47.33333333333333</ele><time>2026-04-04T09:14:16Z</time></trkpt><trkpt lat="41.955842097728045" lon="12.75333716392114"><ele>47.666666666666664</ele><time>2026-04-04T09:14:17Z</time></trkpt><trkpt lat="41.95587677150941" lon="12.753550843766627"><ele>48.0</ele><time>2026-04-04T09:14:18Z</time></trkpt><trkpt lat="41.955888476115206" lon="12.753730909291782"><ele>48.0</ele><time>2026-04-04T09:14:19Z</time></trkpt><trkpt lat="41.95587822397257" lon="12.75381912448135"><ele>48.0</ele><time>2026-04-04T09:14:20Z</time></trkpt><trkpt lat="41.955842992243774" lon="12.753892837505834"><ele>48.0</ele><time>2026-04-04T09:14:22Z</time></trkpt><trkpt lat="41.95577620732386" lon="12.754033735726845"><ele>48.0</ele><time>2026-04-04T09:14:24Z</time></trkpt><trkpt lat="41.95581855849077" lon="12.754193489299638"><ele>48.0</ele><time>2026-04-04T09:14:26Z</time></trkpt><trkpt lat="41.95589420828785" lon="12.754264264400788"><ele>48.0</ele><time>2026-04-04T09:14:27Z</time></trkpt><trkpt lat="41.955975478453766" lon="12.754345901107131"><ele>48.0</ele><time>2026-04-04T09:14:28Z</time></trkpt><trkpt lat="41.95602338987135" lon="12.754446708479648"><ele>48.0</ele><time>2026-04-04T09:14:29Z</time></trkpt><trkpt lat="41.95604866668688" lon="12.754574067189905"><ele>48.0</ele><time>2026-04-04T09:14:30Z</time></trkpt><trkpt lat="41.95606216370588" lon="12.754689442411486"><ele>48.0</ele><time>2026-04-04T09:14:31Z</time></trkpt><trkpt lat="41.95607806065041" lon="12.754773286487378"><ele>48.0</ele><time>2026-04-04T09:14:32Z</time></trkpt><trkpt lat="41.956111842626655" lon="12.75494384786892"><ele>48.599999999999994</ele><time>2026-04-04T09:14:34Z</time></trkpt><trkpt lat="41.95614637442147" lon="12.75507353619107"><ele>49.199999999999996</ele><time>2026-04-04T09:14:35Z</time></trkpt><trkpt lat="41.95617739804919" lon="12.755174990595236"><ele>49.8</ele><time>2026-04-04T09:14:35.999Z</time></trkpt><trkpt lat="41.956215887097535" lon="12.75524633096306"><ele>50.4</ele><time>2026-04-04T09:14:38.999Z</time></trkpt><trkpt lat="41.95629738749077" lon="12.755288261283756"><ele>51.0</ele><time>2026-04-04T09:14:40.999Z</time></trkpt><trkpt lat="41.956283749136745" lon="12.755082844979176"><ele>51.0</ele><time>2026-04-04T09:14:43.999Z</time></trkpt><trkpt lat="41.956238448251725" lon="12.755008549849467"><ele>51.0</ele><time>2026-04-04T09:14:45.999Z</time></trkpt><trkpt lat="41.956216744398205" lon="12.754909669397119"><ele>51.0</ele><time>2026-04-04T09:14:48.999Z</time></trkpt><trkpt lat="41.956195687952956" lon="12.754811377386543"><ele>51.0</ele><time>2026-04-04T09:16:12Z</time></trkpt><trkpt lat="41.95612140151557" lon="12.754850058893181"><ele>51.0</ele><time>2026-04-04T09:16:19Z</time></trkpt><trkpt lat="41.95613899506874" lon="12.755055951348167"><ele>52.66666666666667</ele><time>2026-04-04T09:16:21Z</time></trkpt><trkpt lat="41.95617105091138" lon="12.755244042938683"><ele>54.333333333333336</ele><time>2026-04-04T09:16:22Z</time></trkpt><trkpt lat="41.95621444257137" lon="12.755497368295657"><ele>56.0</ele><time>2026-04-04T09:16:23Z</time></trkpt><trkpt lat="41.95624009307623" lon="12.755661645487315"><ele>56.0</ele><time>2026-04-04T09:16:24Z</time></trkpt><trkpt lat="41.95625267317095" lon="12.755754027459057"><ele>55.99999999999999</ele><time>2026-04-04T09:16:26Z</time></trkpt><trkpt lat="41.95626777961929" lon="12.75585019064757"><ele>55.99999999999999</ele><time>2026-04-04T09:16:58Z</time></trkpt><trkpt lat="41.95628861534342" lon="12.755984713166743"><ele>56.0</ele><time>2026-04-04T09:16:59Z</time></trkpt><trkpt lat="41.95632551802859" lon="12.756199786465846"><ele>56.0</ele><time>2026-04-04T09:17:00Z</time></trkpt><trkpt lat="41.95635636334572" lon="12.756431718440407"><ele>56.0</ele><time>2026-04-04T09:17:01Z</time></trkpt><trkpt lat="41.956376642520404" lon="12.756604302333715"><ele>55.99999999999999</ele><time>2026-04-04T09:17:02Z</time></trkpt><trkpt lat="41.95638201669439" lon="12.756731866329496"><ele>55.99999999999999</ele><time>2026-04-04T09:17:03Z</time></trkpt><trkpt lat="41.956379589040104" lon="12.75684647379924"><ele>56.0</ele><time>2026-04-04T09:17:04Z</time></trkpt><trkpt lat="41.95635876841568" lon="12.756961930994294"><ele>56.0</ele><time>2026-04-04T09:17:05Z</time></trkpt><trkpt lat="41.95632846214774" lon="12.757060365604772"><ele>55.199999999999996</ele><time>2026-04-04T09:17:06Z</time></trkpt><trkpt lat="41.95638081418568" lon="12.75724676870348"><ele>54.39999999999999</ele><time>2026-04-04T09:17:08Z</time></trkpt><trkpt lat="41.95647535677337" lon="12.757334381015172"><ele>53.6</ele><time>2026-04-04T09:17:09Z</time></trkpt><trkpt lat="41.956553754758694" lon="12.757407510230701"><ele>52.8</ele><time>2026-04-04T09:17:10Z</time></trkpt><trkpt lat="41.956600743271366" lon="12.757510594823072"><ele>52.0</ele><time>2026-04-04T09:17:12Z</time></trkpt><trkpt lat="41.95663392310967" lon="12.757670833005628"><ele>52.2</ele><time>2026-04-04T09:17:14Z</time></trkpt><trkpt lat="41.95664491727724" lon="12.75775986299178"><ele>52.400000000000006</ele><time>2026-04-04T09:17:15Z</time></trkpt><trkpt lat="41.95666090268124" lon="12.75786190153879"><ele>52.599999999999994</ele><time>2026-04-04T09:17:17Z</time></trkpt><trkpt lat="41.95666109988893" lon="12.757984879159002"><ele>52.8</ele><time>2026-04-04T09:17:22Z</time></trkpt><trkpt lat="41.95667969729321" lon="12.758136510132017"><ele>53.0</ele><time>2026-04-04T09:17:23Z</time></trkpt><trkpt lat="41.956699694396235" lon="12.758353960514311"><ele>56.333333333333336</ele><time>2026-04-04T09:17:24Z</time></trkpt><trkpt lat="41.9567175228629" lon="12.758574774503307"><ele>59.66666666666667</ele><time>2026-04-04T09:17:25Z</time></trkpt><trkpt lat="41.95673443383299" lon="12.75879934175178"><ele>63.0</ele><time>2026-04-04T09:17:26Z</time></trkpt><trkpt lat="41.95674861050305" lon="12.759053286691616"><ele>63.0</ele><time>2026-04-04T09:17:27Z</time></trkpt><trkpt lat="41.95677507013379" lon="12.759333625225397"><ele>63.0</ele><time>2026-04-04T09:17:28Z</time></trkpt><trkpt lat="41.95678753581778" lon="12.759639297654514"><ele>63.0</ele><time>2026-04-04T09:17:29Z</time></trkpt><trkpt lat="41.95680742595709" lon="12.759955084045016"><ele>62.5</ele><time>2026-04-04T09:17:30Z</time></trkpt><trkpt lat="41.95682432820996" lon="12.760294087876302"><ele>62.0</ele><time>2026-04-04T09:17:31Z</time></trkpt><trkpt lat="41.95682674064505" lon="12.760593314968185"><ele>62.0</ele><time>2026-04-04T09:17:32Z</time></trkpt><trkpt lat="41.95680696443906" lon="12.760884659223873"><ele>62.0</ele><time>2026-04-04T09:17:33Z</time></trkpt><trkpt lat="41.95673258632607" lon="12.761173393462421"><ele>62.0</ele><time>2026-04-04T09:17:34Z</time></trkpt><trkpt lat="41.956637668922056" lon="12.761469019013798"><ele>60.0</ele><time>2026-04-04T09:17:35Z</time></trkpt><trkpt lat="41.95652586216472" lon="12.761716099412268"><ele>58.0</ele><time>2026-04-04T09:17:36Z</time></trkpt><trkpt lat="41.9564187833816" lon="12.761929908966854"><ele>56.0</ele><time>2026-04-04T09:17:37Z</time></trkpt><trkpt lat="41.956307626099075" lon="12.762139314928216"><ele>56.0</ele><time>2026-04-04T09:17:38Z</time></trkpt><trkpt lat="41.95619788575016" lon="12.762339351373198"><ele>56.0</ele><time>2026-04-04T09:17:39Z</time></trkpt><trkpt lat="41.95608867085456" lon="12.762537966818739"><ele>56.0</ele><time>2026-04-04T09:17:40Z</time></trkpt><trkpt lat="41.955963839671256" lon="12.76277139090099"><ele>55.333333333333336</ele><time>2026-04-04T09:17:41Z</time></trkpt><trkpt lat="41.95584175556213" lon="12.76300085772391"><ele>54.66666666666667</ele><time>2026-04-04T09:17:42Z</time></trkpt><trkpt lat="41.955729166841046" lon="12.763213505955312"><ele>54.0</ele><time>2026-04-04T09:17:43Z</time></trkpt><trkpt lat="41.95565279563703" lon="12.763387049735043"><ele>54.0</ele><time>2026-04-04T09:17:44Z</time></trkpt><trkpt lat="41.95555607276855" lon="12.763498475434893"><ele>54.0</ele><time>2026-04-04T09:17:45Z</time></trkpt><trkpt lat="41.95545231956454" lon="12.7635607977192"><ele>54.0</ele><time>2026-04-04T09:17:46Z</time></trkpt><trkpt lat="41.95534054307444" lon="12.763556223001912"><ele>54.0</ele><time>2026-04-04T09:17:47Z</time></trkpt><trkpt lat="41.95524615602024" lon="12.763484210442334"><ele>54.0</ele><time>2026-04-04T09:17:48Z</time></trkpt><trkpt lat="41.95518035599978" lon="12.763371445635517"><ele>54.0</ele><time>2026-04-04T09:17:49.001Z</time></trkpt><trkpt lat="41.95513407057115" lon="12.76326816781711"><ele>54.0</ele><time>2026-04-04T09:17:50.001Z</time></trkpt><trkpt lat="41.95508837696008" lon="12.763178538987868"><ele>54.0</ele><time>2026-04-04T09:17:51.001Z</time></trkpt><trkpt lat="41.95503232728781" lon="12.763114625948521"><ele>54.0</ele><time>2026-04-04T09:17:52.001Z</time></trkpt><trkpt lat="41.95496467107612" lon="12.763074966740888"><ele>54.0</ele><time>2026-04-04T09:17:53.001Z</time></trkpt><trkpt lat="41.95489685772963" lon="12.763056175968606"><ele>53.6</ele><time>2026-04-04T09:17:54.001Z</time></trkpt><trkpt lat="41.954831693634375" lon="12.763024052310287"><ele>53.2</ele><time>2026-04-04T09:17:55.001Z</time></trkpt><trkpt lat="41.95469940349612" lon="12.76293930275511"><ele>52.800000000000004</ele><time>2026-04-04T09:17:57.001Z</time></trkpt><trkpt lat="41.95461009644239" lon="12.76291301534486"><ele>52.400000000000006</ele><time>2026-04-04T09:17:58.001Z</time></trkpt><trkpt lat="41.95454183122162" lon="12.762865091207741"><ele>52.0</ele><time>2026-04-04T09:18:00.001Z</time></trkpt><trkpt lat="41.95442815134772" lon="12.763091652862853"><ele>52.0</ele><time>2026-04-04T09:18:02.001Z</time></trkpt><trkpt lat="41.95450727720832" lon="12.763319658322198"><ele>52.0</ele><time>2026-04-04T09:18:03.001Z</time></trkpt><trkpt lat="41.95456734703992" lon="12.76355328660462"><ele>52.0</ele><time>2026-04-04T09:18:04.001Z</time></trkpt><trkpt lat="41.954643132745566" lon="12.763833471484798"><ele>53.5</ele><time>2026-04-04T09:18:05.001Z</time></trkpt><trkpt lat="41.95471860759707" lon="12.76415341526588"><ele>55.0</ele><time>2026-04-04T09:18:06.001Z</time></trkpt><trkpt lat="41.95478033764513" lon="12.764498266493636"><ele>55.5</ele><time>2026-04-04T09:18:07.001Z</time></trkpt><trkpt lat="41.954865375618674" lon="12.764847179508216"><ele>56.0</ele><time>2026-04-04T09:18:08.001Z</time></trkpt><trkpt lat="41.954929382569134" lon="12.765214824779582"><ele>59.0</ele><time>2026-04-04T09:18:09.001Z</time></trkpt><trkpt lat="41.95498740643987" lon="12.765540353805354"><ele>62.0</ele><time>2026-04-04T09:18:10.001Z</time></trkpt><trkpt lat="41.955041831092004" lon="12.76585334841038"><ele>63.66666666666667</ele><time>2026-04-04T09:18:11.001Z</time></trkpt><trkpt lat="41.95508169186816" lon="12.7661453268101"><ele>65.33333333333333</ele><time>2026-04-04T09:18:12.001Z</time></trkpt><trkpt lat="41.95511943335327" lon="12.76640433827487"><ele>67.0</ele><time>2026-04-04T09:18:13.001Z</time></trkpt><trkpt lat="41.95515128238149" lon="12.76662235782937"><ele>67.0</ele><time>2026-04-04T09:18:14.001Z</time></trkpt><trkpt lat="41.95517577901469" lon="12.766809653720959"><ele>67.0</ele><time>2026-04-04T09:18:15.001Z</time></trkpt><trkpt lat="41.9551964443033" lon="12.766982124492424"><ele>67.0</ele><time>2026-04-04T09:18:16.001Z</time></trkpt><trkpt lat="41.955214929131834" lon="12.767158898165622"><ele>67.0</ele><time>2026-04-04T09:18:17.001Z</time></trkpt><trkpt lat="41.95523520446563" lon="12.767345632292932"><ele>67.0</ele><time>2026-04-04T09:18:18.001Z</time></trkpt><trkpt lat="41.955256331848474" lon="12.767547770973772"><ele>67.0</ele><time>2026-04-04T09:18:19.001Z</time></trkpt><trkpt lat="41.955278345937785" lon="12.76774940807329"><ele>67.0</ele><time>2026-04-04T09:18:20.001Z</time></trkpt><trkpt lat="41.95530328676253" lon="12.767930368301453"><ele>67.0</ele><time>2026-04-04T09:18:21.001Z</time></trkpt><trkpt lat="41.95533050297284" lon="12.768095020534393"><ele>66.5</ele><time>2026-04-04T09:18:22.001Z</time></trkpt><trkpt lat="41.95536441906702" lon="12.768256262225393"><ele>66.0</ele><time>2026-04-04T09:18:23.001Z</time></trkpt><trkpt lat="41.95539885382339" lon="12.768403057578183"><ele>65.5</ele><time>2026-04-04T09:18:24.001Z</time></trkpt><trkpt lat="41.95543804422872" lon="12.768546608716225"><ele>65.0</ele><time>2026-04-04T09:18:25.001Z</time></trkpt><trkpt lat="41.95548953823418" lon="12.768685842472333"><ele>64.8</ele><time>2026-04-04T09:18:26.001Z</time></trkpt><trkpt lat="41.955547691694356" lon="12.768817723951852"><ele>64.6</ele><time>2026-04-04T09:18:27.001Z</time></trkpt><trkpt lat="41.955609035552726" lon="12.76892760365427"><ele>64.4</ele><time>2026-04-04T09:18:28.001Z</time></trkpt><trkpt lat="41.95567099450864" lon="12.7690205398183"><ele>64.2</ele><time>2026-04-04T09:18:29.001Z</time></trkpt><trkpt lat="41.955735924734675" lon="12.769115336212082"><ele>64.0</ele><time>2026-04-04T09:18:30.001Z</time></trkpt><trkpt lat="41.955804640437286" lon="12.769223049831757"><ele>64.0</ele><time>2026-04-04T09:18:31.001Z</time></trkpt><trkpt lat="41.955874164311346" lon="12.769333089091965"><ele>64.0</ele><time>2026-04-04T09:18:32.001Z</time></trkpt><trkpt lat="41.95593227414733" lon="12.769431543527908"><ele>64.0</ele><time>2026-04-04T09:18:33.001Z</time></trkpt><trkpt lat="41.95597929577662" lon="12.769503009437663"><ele>64.0</ele><time>2026-04-04T09:18:34.001Z</time></trkpt><trkpt lat="41.95606183222209" lon="12.769631143796717"><ele>64.0</ele><time>2026-04-04T09:18:37.001Z</time></trkpt><trkpt lat="41.95612612203435" lon="12.76978092013791"><ele>64.5</ele><time>2026-04-04T09:18:38.001Z</time></trkpt><trkpt lat="41.956201809048686" lon="12.769995807871233"><ele>65.0</ele><time>2026-04-04T09:18:39.001Z</time></trkpt><trkpt lat="41.95626491011828" lon="12.770182701161573"><ele>65.5</ele><time>2026-04-04T09:18:40.001Z</time></trkpt><trkpt lat="41.95630046228989" lon="12.770303868766515"><ele>66.0</ele><time>2026-04-04T09:18:41.001Z</time></trkpt><trkpt lat="41.95632407745348" lon="12.770392263760082"><ele>66.2</ele><time>2026-04-04T09:18:42.001Z</time></trkpt><trkpt lat="41.956333516246474" lon="12.770517692390415"><ele>66.39999999999999</ele><time>2026-04-04T09:18:55Z</time></trkpt><trkpt lat="41.95634766558971" lon="12.770641103696308"><ele>66.6</ele><time>2026-04-04T09:18:56Z</time></trkpt><trkpt lat="41.95635005446665" lon="12.77079211037806"><ele>66.8</ele><time>2026-04-04T09:18:57Z</time></trkpt><trkpt lat="41.95634683601575" lon="12.77095443523224"><ele>67.0</ele><time>2026-04-04T09:18:58Z</time></trkpt><trkpt lat="41.95634129006293" lon="12.77111221672041"><ele>67.75</ele><time>2026-04-04T09:18:59Z</time></trkpt><trkpt lat="41.95633751651861" lon="12.771253866528404"><ele>68.5</ele><time>2026-04-04T09:19:00Z</time></trkpt><trkpt lat="41.956335793387375" lon="12.771414500304662"><ele>69.25</ele><time>2026-04-04T09:19:01Z</time></trkpt><trkpt lat="41.956338318028614" lon="12.77159068438653"><ele>70.0</ele><time>2026-04-04T09:19:02Z</time></trkpt><trkpt lat="41.956347167559926" lon="12.771736074720545"><ele>70.5</ele><time>2026-04-04T09:19:03Z</time></trkpt><trkpt lat="41.95636570117555" lon="12.77187953273429"><ele>71.0</ele><time>2026-04-04T09:19:04Z</time></trkpt><trkpt lat="41.95638914972285" lon="12.77203357853443"><ele>71.5</ele><time>2026-04-04T09:19:05Z</time></trkpt><trkpt lat="41.95641683685393" lon="12.772190267932146"><ele>72.0</ele><time>2026-04-04T09:19:06Z</time></trkpt><trkpt lat="41.95644520419267" lon="12.77235909429631"><ele>72.0</ele><time>2026-04-04T09:19:07Z</time></trkpt><trkpt lat="41.95647904257741" lon="12.772534068883676"><ele>72.0</ele><time>2026-04-04T09:19:08Z</time></trkpt><trkpt lat="41.956498448885476" lon="12.772706232160612"><ele>72.0</ele><time>2026-04-04T09:19:09Z</time></trkpt><trkpt lat="41.95652712503643" lon="12.77286300953504"><ele>72.0</ele><time>2026-04-04T09:19:10Z</time></trkpt><trkpt lat="41.956540901861004" lon="12.77300668773336"><ele>72.33333333333333</ele><time>2026-04-04T09:19:11Z</time></trkpt><trkpt lat="41.95659154222856" lon="12.773246216574371"><ele>72.66666666666666</ele><time>2026-04-04T09:19:12Z</time></trkpt><trkpt lat="41.956631716464635" lon="12.773477431639927"><ele>73.0</ele><time>2026-04-04T09:19:13Z</time></trkpt><trkpt lat="41.956659608514826" lon="12.773673744103178"><ele>73.0</ele><time>2026-04-04T09:19:14Z</time></trkpt><trkpt lat="41.956681290025166" lon="12.773871475845183"><ele>73.0</ele><time>2026-04-04T09:19:15Z</time></trkpt><trkpt lat="41.95671798215409" lon="12.774054458466903"><ele>73.0</ele><time>2026-04-04T09:19:16Z</time></trkpt><trkpt lat="41.956733319421176" lon="12.774182308695686"><ele>73.0</ele><time>2026-04-04T09:19:17Z</time></trkpt><trkpt lat="41.95674344904139" lon="12.774316847804272"><ele>73.0</ele><time>2026-04-04T09:19:18Z</time></trkpt><trkpt lat="41.956754963359415" lon="12.774480416821568"><ele>73.0</ele><time>2026-04-04T09:19:19Z</time></trkpt><trkpt lat="41.95675431660776" lon="12.774636818081188"><ele>73.0</ele><time>2026-04-04T09:19:20Z</time></trkpt><trkpt lat="41.95675734580294" lon="12.774766135471436"><ele>73.0</ele><time>2026-04-04T09:19:21Z</time></trkpt><trkpt lat="41.95675897788488" lon="12.774880094738508"><ele>73.0</ele><time>2026-04-04T09:19:22Z</time></trkpt><trkpt lat="41.956763038838425" lon="12.774979704107935"><ele>73.0</ele><time>2026-04-04T09:19:24Z</time></trkpt><trkpt lat="41.956766445751065" lon="12.775096785343893"><ele>73.0</ele><time>2026-04-04T09:19:29Z</time></trkpt><trkpt lat="41.95677965096047" lon="12.775256238628687"><ele>73.0</ele><time>2026-04-04T09:19:30Z</time></trkpt><trkpt lat="41.95675494630727" lon="12.775465264221612"><ele>73.0</ele><time>2026-04-04T09:19:31Z</time></trkpt><trkpt lat="41.95674493858893" lon="12.775710786979728"><ele>73.33333333333333</ele><time>2026-04-04T09:19:32Z</time></trkpt><trkpt lat="41.95674725139045" lon="12.775958832912167"><ele>73.66666666666667</ele><time>2026-04-04T09:19:33Z</time></trkpt><trkpt lat="41.95671923387174" lon="12.776222736111542"><ele>74.0</ele><time>2026-04-04T09:19:34Z</time></trkpt><trkpt lat="41.9567150439104" lon="12.776492825136913"><ele>74.33333333333334</ele><time>2026-04-04T09:19:35Z</time></trkpt><trkpt lat="41.95670866099741" lon="12.77677034218505"><ele>74.66666666666667</ele><time>2026-04-04T09:19:36Z</time></trkpt><trkpt lat="41.95668834356076" lon="12.777039307455789"><ele>75.0</ele><time>2026-04-04T09:19:37Z</time></trkpt><trkpt lat="41.956677780626485" lon="12.777322054682408"><ele>75.33333333333333</ele><time>2026-04-04T09:19:38Z</time></trkpt><trkpt lat="41.95666974445822" lon="12.777611699361113"><ele>75.66666666666666</ele><time>2026-04-04T09:19:39Z</time></trkpt><trkpt lat="41.95665989647787" lon="12.777890653445612"><ele>76.0</ele><time>2026-04-04T09:19:40.001Z</time></trkpt><trkpt lat="41.9566571400323" lon="12.778159255871387"><ele>76.0</ele><time>2026-04-04T09:19:41.001Z</time></trkpt><trkpt lat="41.9566508650624" lon="12.77843595505818"><ele>76.0</ele><time>2026-04-04T09:19:42.001Z</time></trkpt><trkpt lat="41.956638883946475" lon="12.778701529041356"><ele>76.0</ele><time>2026-04-04T09:19:43.001Z</time></trkpt><trkpt lat="41.95663795766488" lon="12.77893069269336"><ele>76.33333333333333</ele><time>2026-04-04T09:19:44.001Z</time></trkpt><trkpt lat="41.95661537805208" lon="12.779130443150118"><ele>76.66666666666667</ele><time>2026-04-04T09:19:45.001Z</time></trkpt><trkpt lat="41.956605038735624" lon="12.779338106743454"><ele>77.0</ele><time>2026-04-04T09:19:46.001Z</time></trkpt><trkpt lat="41.95659513787281" lon="12.779587808315513"><ele>78.5</ele><time>2026-04-04T09:19:47.001Z</time></trkpt><trkpt lat="41.956611271065995" lon="12.779930017325634"><ele>80.0</ele><time>2026-04-04T09:19:48.001Z</time></trkpt><trkpt lat="41.95658781917003" lon="12.780360559773822"><ele>81.5</ele><time>2026-04-04T09:19:49.001Z</time></trkpt><trkpt lat="41.95656651861511" lon="12.780817862292645"><ele>83.0</ele><time>2026-04-04T09:19:50.001Z</time></trkpt><trkpt lat="41.95654912044454" lon="12.781218595886477"><ele>84.0</ele><time>2026-04-04T09:19:51.001Z</time></trkpt><trkpt lat="41.956530036821334" lon="12.781627632519605"><ele>85.0</ele><time>2026-04-04T09:19:52.001Z</time></trkpt><trkpt lat="41.95650056643853" lon="12.782000253990615"><ele>86.5</ele><time>2026-04-04T09:19:53.001Z</time></trkpt><trkpt lat="41.95646622765698" lon="12.782323104883668"><ele>88.0</ele><time>2026-04-04T09:19:54.001Z</time></trkpt><trkpt lat="41.95640996000263" lon="12.782592011264555"><ele>88.5</ele><time>2026-04-04T09:19:55.001Z</time></trkpt><trkpt lat="41.95636428503027" lon="12.782798772179042"><ele>89.0</ele><time>2026-04-04T09:19:56.001Z</time></trkpt><trkpt lat="41.95631599014248" lon="12.782960667219161"><ele>89.5</ele><time>2026-04-04T09:19:57.001Z</time></trkpt><trkpt lat="41.95625684346495" lon="12.783121475598046"><ele>90.0</ele><time>2026-04-04T09:19:58.001Z</time></trkpt><trkpt lat="41.95616082951126" lon="12.783272318032536"><ele>90.0</ele><time>2026-04-04T09:19:59.001Z</time></trkpt><trkpt lat="41.956053870694205" lon="12.783390585006703"><ele>90.0</ele><time>2026-04-04T09:20:00.001Z</time></trkpt><trkpt lat="41.95593155852919" lon="12.783488386124064"><ele>90.0</ele><time>2026-04-04T09:20:01.001Z</time></trkpt><trkpt lat="41.955772298603556" lon="12.783559761093336"><ele>90.0</ele><time>2026-04-04T09:20:02.001Z</time></trkpt><trkpt lat="41.955563368964384" lon="12.783593446579406"><ele>94.0</ele><time>2026-04-04T09:20:03.001Z</time></trkpt><trkpt lat="41.955319958233126" lon="12.783585946037945"><ele>98.0</ele><time>2026-04-04T09:20:04.001Z</time></trkpt><trkpt lat="41.955053012311225" lon="12.783574044549377"><ele>101.5</ele><time>2026-04-04T09:20:05.001Z</time></trkpt><trkpt lat="41.95477689648738" lon="12.783577958851469"><ele>105.0</ele><time>2026-04-04T09:20:06.001Z</time></trkpt><trkpt lat="41.9545334066968" lon="12.783589041789181"><ele>105.0</ele><time>2026-04-04T09:20:07.001Z</time></trkpt><trkpt lat="41.95433683029314" lon="12.78366104701433"><ele>105.0</ele><time>2026-04-04T09:20:08.001Z</time></trkpt><trkpt lat="41.95418319276525" lon="12.78379453639783"><ele>105.0</ele><time>2026-04-04T09:20:09.001Z</time></trkpt><trkpt lat="41.95407939584049" lon="12.784007251002333"><ele>104.66666666666666</ele><time>2026-04-04T09:20:10.001Z</time></trkpt><trkpt lat="41.95401135876375" lon="12.784285441451779"><ele>104.33333333333333</ele><time>2026-04-04T09:20:11.001Z</time></trkpt><trkpt lat="41.95400622533234" lon="12.784561951764045"><ele>104.0</ele><time>2026-04-04T09:20:12.001Z</time></trkpt><trkpt lat="41.95407082516001" lon="12.784835756710462"><ele>106.0</ele><time>2026-04-04T09:20:13.001Z</time></trkpt><trkpt lat="41.954191842334005" lon="12.785144667262706"><ele>108.0</ele><time>2026-04-04T09:20:14.001Z</time></trkpt><trkpt lat="41.954317581235586" lon="12.785514151744147"><ele>111.5</ele><time>2026-04-04T09:20:15.001Z</time></trkpt><trkpt lat="41.95442639077198" lon="12.785862326656664"><ele>115.0</ele><time>2026-04-04T09:20:16.001Z</time></trkpt><trkpt lat="41.954483574892926" lon="12.786158711896483"><ele>117.0</ele><time>2026-04-04T09:20:17.001Z</time></trkpt><trkpt lat="41.9544965296512" lon="12.786447718545917"><ele>119.0</ele><time>2026-04-04T09:20:18.001Z</time></trkpt><trkpt lat="41.95445297875127" lon="12.78672358890125"><ele>121.0</ele><time>2026-04-04T09:20:19.001Z</time></trkpt><trkpt lat="41.954350881663274" lon="12.786951767990356"><ele>121.66666666666667</ele><time>2026-04-04T09:20:20.001Z</time></trkpt><trkpt lat="41.95419660849878" lon="12.787100203763977"><ele>122.33333333333334</ele><time>2026-04-04T09:20:21.001Z</time></trkpt><trkpt lat="41.95401938673377" lon="12.787165209761044"><ele>123.0</ele><time>2026-04-04T09:20:22.001Z</time></trkpt><trkpt lat="41.9538062759373" lon="12.78715721963013"><ele>123.0</ele><time>2026-04-04T09:20:23.001Z</time></trkpt><trkpt lat="41.95353505227257" lon="12.787127541203887"><ele>123.0</ele><time>2026-04-04T09:20:24.001Z</time></trkpt><trkpt lat="41.95325044423263" lon="12.78710331092077"><ele>123.5</ele><time>2026-04-04T09:20:25.001Z</time></trkpt><trkpt lat="41.9530017094454" lon="12.78708848650203"><ele>124.0</ele><time>2026-04-04T09:20:26.001Z</time></trkpt><trkpt lat="41.952759170833325" lon="12.787116572031378"><ele>126.0</ele><time>2026-04-04T09:20:27.001Z</time></trkpt><trkpt lat="41.952498467797604" lon="12.787206325002694"><ele>128.0</ele><time>2026-04-04T09:20:28.001Z</time></trkpt><trkpt lat="41.95228249232403" lon="12.787346824615389"><ele>128.0</ele><time>2026-04-04T09:20:29.001Z</time></trkpt><trkpt lat="41.952018301983735" lon="12.787510635087996"><ele>128.0</ele><time>2026-04-04T09:20:30.001Z</time></trkpt><trkpt lat="41.951695111776395" lon="12.787706929640759"><ele>132.0</ele><time>2026-04-04T09:20:31.001Z</time></trkpt><trkpt lat="41.951379006489184" lon="12.788039421756961"><ele>136.0</ele><time>2026-04-04T09:20:32.001Z</time></trkpt><trkpt lat="41.95102469619678" lon="12.78826114005326"><ele>143.0</ele><time>2026-04-04T09:20:33.001Z</time></trkpt><trkpt lat="41.9506502554785" lon="12.788509867314001"><ele>150.0</ele><time>2026-04-04T09:20:34.001Z</time></trkpt><trkpt lat="41.9503038225837" lon="12.788785522288705"><ele>147.5</ele><time>2026-04-04T09:20:35.001Z</time></trkpt><trkpt lat="41.95001754002146" lon="12.789042024203825"><ele>145.0</ele><time>2026-04-04T09:20:36.001Z</time></trkpt><trkpt lat="41.9498273042148" lon="12.789237373376583"><ele>149.5</ele><time>2026-04-04T09:20:37.001Z</time></trkpt><trkpt lat="41.94967542303322" lon="12.789362937394007"><ele>154.0</ele><time>2026-04-04T09:20:38.001Z</time></trkpt><trkpt lat="41.94955592081631" lon="12.789465239910445"><ele>158.5</ele><time>2026-04-04T09:20:39.001Z</time></trkpt><trkpt lat="41.949453878515236" lon="12.789563168793743"><ele>163.0</ele><time>2026-04-04T09:20:40.001Z</time></trkpt><trkpt lat="41.949330952155634" lon="12.789677356094682"><ele>164.0</ele><time>2026-04-04T09:20:41.001Z</time></trkpt><trkpt lat="41.94919999182959" lon="12.789825495688751"><ele>165.0</ele><time>2026-04-04T09:20:42.001Z</time></trkpt><trkpt lat="41.94902555366139" lon="12.790010784629397"><ele>166.0</ele><time>2026-04-04T09:20:43.001Z</time></trkpt><trkpt lat="41.94882471560516" lon="12.790226373198209"><ele>166.0</ele><time>2026-04-04T09:20:44.001Z</time></trkpt><trkpt lat="41.94863464225422" lon="12.790461804169562"><ele>166.0</ele><time>2026-04-04T09:20:45.001Z</time></trkpt><trkpt lat="41.94849496343468" lon="12.79072194568703"><ele>170.5</ele><time>2026-04-04T09:20:46.001Z</time></trkpt><trkpt lat="41.94841453896927" lon="12.791022028860175"><ele>175.0</ele><time>2026-04-04T09:20:47.001Z</time></trkpt><trkpt lat="41.94837904560708" lon="12.791369400549195"><ele>169.5</ele><time>2026-04-04T09:20:48.001Z</time></trkpt><trkpt lat="41.948355560400906" lon="12.791736720688798"><ele>164.0</ele><time>2026-04-04T09:20:49.001Z</time></trkpt><trkpt lat="41.94830210946825" lon="12.79202125426518"><ele>164.0</ele><time>2026-04-04T09:20:50.001Z</time></trkpt><trkpt lat="41.94818905083568" lon="12.79223239012403"><ele>164.0</ele><time>2026-04-04T09:20:51.001Z</time></trkpt><trkpt lat="41.94806258548674" lon="12.79240881628781"><ele>164.0</ele><time>2026-04-04T09:20:52.001Z</time></trkpt><trkpt lat="41.94795411602222" lon="12.792549274536604"><ele>165.83333333333331</ele><time>2026-04-04T09:20:53.001Z</time></trkpt><trkpt lat="41.947863467788885" lon="12.792676614167839"><ele>167.66666666666666</ele><time>2026-04-04T09:20:54Z</time></trkpt><trkpt lat="41.9478126254546" lon="12.792746265766139"><ele>169.5</ele><time>2026-04-04T09:20:55Z</time></trkpt><trkpt lat="41.94777127856222" lon="12.792813558465326"><ele>171.33333333333334</ele><time>2026-04-04T09:20:56Z</time></trkpt><trkpt lat="41.94775435476671" lon="12.792898071470994"><ele>173.16666666666669</ele><time>2026-04-04T09:20:57Z</time></trkpt><trkpt lat="41.94776836726226" lon="12.792998551262931"><ele>175.0</ele><time>2026-04-04T09:20:58Z</time></trkpt><trkpt lat="41.947814822603966" lon="12.793110768984814"><ele>175.0</ele><time>2026-04-04T09:20:59Z</time></trkpt><trkpt lat="41.947906586604034" lon="12.793202165820146"><ele>175.0</ele><time>2026-04-04T09:21:00Z</time></trkpt><trkpt lat="41.94804627609551" lon="12.79324108281637"><ele>175.0</ele><time>2026-04-04T09:21:01Z</time></trkpt><trkpt lat="41.94825464824452" lon="12.793236781369025"><ele>177.33333333333334</ele><time>2026-04-04T09:21:02Z</time></trkpt><trkpt lat="41.94848946990798" lon="12.793213498236877"><ele>179.66666666666666</ele><time>2026-04-04T09:21:03Z</time></trkpt><trkpt lat="41.9486662277928" lon="12.793179522838106"><ele>182.0</ele><time>2026-04-04T09:21:04Z</time></trkpt><trkpt lat="41.94880176349793" lon="12.793130641571373"><ele>182.0</ele><time>2026-04-04T09:21:05Z</time></trkpt><trkpt lat="41.948895053601404" lon="12.793048198713459"><ele>182.0</ele><time>2026-04-04T09:21:06Z</time></trkpt><trkpt lat="41.94895410078731" lon="12.792942316555548"><ele>182.0</ele><time>2026-04-04T09:21:07Z</time></trkpt><trkpt lat="41.94898221847687" lon="12.792819781140832"><ele>182.0</ele><time>2026-04-04T09:21:08Z</time></trkpt><trkpt lat="41.948996346706956" lon="12.792641456834604"><ele>182.0</ele><time>2026-04-04T09:21:09Z</time></trkpt><trkpt lat="41.94899483548378" lon="12.792403249621469"><ele>181.0</ele><time>2026-04-04T09:21:10Z</time></trkpt><trkpt lat="41.94898144832923" lon="12.792124807180393"><ele>180.0</ele><time>2026-04-04T09:21:11Z</time></trkpt><trkpt lat="41.94901122350823" lon="12.79188507038872"><ele>179.0</ele><time>2026-04-04T09:21:12Z</time></trkpt><trkpt lat="41.94909864751337" lon="12.791651826921683"><ele>184.66666666666666</ele><time>2026-04-04T09:21:13Z</time></trkpt><trkpt lat="41.94923805167664" lon="12.79146399171024"><ele>190.33333333333331</ele><time>2026-04-04T09:21:14Z</time></trkpt><trkpt lat="41.949430174654054" lon="12.791322150865998"><ele>196.0</ele><time>2026-04-04T09:21:15Z</time></trkpt><trkpt lat="41.94965605220364" lon="12.79123054872931"><ele>196.0</ele><time>2026-04-04T09:21:16Z</time></trkpt><trkpt lat="41.94989599338486" lon="12.791150601323361"><ele>196.0</ele><time>2026-04-04T09:21:17Z</time></trkpt><trkpt lat="41.95013555961328" lon="12.791071121089635"><ele>201.0</ele><time>2026-04-04T09:21:18Z</time></trkpt><trkpt lat="41.95038526990076" lon="12.7910185275697"><ele>206.0</ele><time>2026-04-04T09:21:19Z</time></trkpt><trkpt lat="41.950645668813344" lon="12.790999927932543"><ele>208.0</ele><time>2026-04-04T09:21:20Z</time></trkpt><trkpt lat="41.950920418626694" lon="12.790996164129666"><ele>210.0</ele><time>2026-04-04T09:21:21Z</time></trkpt><trkpt lat="41.95122193698639" lon="12.791010221447886"><ele>210.0</ele><time>2026-04-04T09:21:22Z</time></trkpt><trkpt lat="41.95153142319173" lon="12.791020040795072"><ele>210.0</ele><time>2026-04-04T09:21:23Z</time></trkpt><trkpt lat="41.95182735439846" lon="12.791040827624846"><ele>211.0</ele><time>2026-04-04T09:21:24Z</time></trkpt><trkpt lat="41.95207715323031" lon="12.791085501234136"><ele>212.0</ele><time>2026-04-04T09:21:25Z</time></trkpt><trkpt lat="41.95229392633842" lon="12.79113750064858"><ele>212.0</ele><time>2026-04-04T09:21:26Z</time></trkpt><trkpt lat="41.952508271309284" lon="12.791195135645307"><ele>212.0</ele><time>2026-04-04T09:21:27Z</time></trkpt><trkpt lat="41.952721230963036" lon="12.791244164453992"><ele>212.0</ele><time>2026-04-04T09:21:28Z</time></trkpt><trkpt lat="41.95295715762338" lon="12.79130870291255"><ele>211.5</ele><time>2026-04-04T09:21:29Z</time></trkpt><trkpt lat="41.95319428528268" lon="12.791379559327376"><ele>211.0</ele><time>2026-04-04T09:21:30Z</time></trkpt><trkpt lat="41.95341413709648" lon="12.791440376091074"><ele>211.0</ele><time>2026-04-04T09:21:31Z</time></trkpt><trkpt lat="41.95362011015733" lon="12.79148965879816"><ele>211.0</ele><time>2026-04-04T09:21:32Z</time></trkpt><trkpt lat="41.953808725679686" lon="12.791530430761743"><ele>211.0</ele><time>2026-04-04T09:21:33Z</time></trkpt><trkpt lat="41.95400834392712" lon="12.791590782167134"><ele>210.0</ele><time>2026-04-04T09:21:34Z</time></trkpt><trkpt lat="41.954215191993725" lon="12.79164600400427"><ele>209.0</ele><time>2026-04-04T09:21:35.001Z</time></trkpt><trkpt lat="41.95443935756641" lon="12.791702057118075"><ele>208.0</ele><time>2026-04-04T09:21:36.001Z</time></trkpt><trkpt lat="41.954670336413216" lon="12.79176211815132"><ele>208.0</ele><time>2026-04-04T09:21:37.001Z</time></trkpt><trkpt lat="41.95489178899977" lon="12.791821528914102"><ele>208.0</ele><time>2026-04-04T09:21:38.001Z</time></trkpt><trkpt lat="41.95509545456255" lon="12.791881852852514"><ele>208.0</ele><time>2026-04-04T09:21:39.001Z</time></trkpt><trkpt lat="41.95526758927464" lon="12.791936409151136"><ele>211.4</ele><time>2026-04-04T09:21:40.001Z</time></trkpt><trkpt lat="41.95540740381153" lon="12.791982251146239"><ele>214.8</ele><time>2026-04-04T09:21:41.001Z</time></trkpt><trkpt lat="41.95551713874659" lon="12.792017289273723"><ele>218.2</ele><time>2026-04-04T09:21:42.001Z</time></trkpt><trkpt lat="41.95560050973505" lon="12.792044141507182"><ele>221.6</ele><time>2026-04-04T09:21:43.001Z</time></trkpt><trkpt lat="41.95568937434078" lon="12.792071005488644"><ele>225.0</ele><time>2026-04-04T09:21:44.001Z</time></trkpt><trkpt lat="41.955823369546714" lon="12.792117443745498"><ele>223.66666666666669</ele><time>2026-04-04T09:21:45.001Z</time></trkpt><trkpt lat="41.955987063499144" lon="12.792196967502619"><ele>222.33333333333334</ele><time>2026-04-04T09:21:46.001Z</time></trkpt><trkpt lat="41.956175702692235" lon="12.792291310099449"><ele>221.0</ele><time>2026-04-04T09:21:47.001Z</time></trkpt><trkpt lat="41.95631990477906" lon="12.792371894161924"><ele>221.0</ele><time>2026-04-04T09:21:48.001Z</time></trkpt><trkpt lat="41.95644029698307" lon="12.792440578814343"><ele>221.0</ele><time>2026-04-04T09:21:49.001Z</time></trkpt><trkpt lat="41.95656000018858" lon="12.79251953973992"><ele>221.0</ele><time>2026-04-04T09:21:50.001Z</time></trkpt><trkpt lat="41.956708896023265" lon="12.792627142497182"><ele>221.0</ele><time>2026-04-04T09:21:51.001Z</time></trkpt><trkpt lat="41.956891653742524" lon="12.792746884671043"><ele>225.66666666666669</ele><time>2026-04-04T09:21:52.001Z</time></trkpt><trkpt lat="41.95705851165565" lon="12.792865851703752"><ele>230.33333333333331</ele><time>2026-04-04T09:21:53.001Z</time></trkpt><trkpt lat="41.957192537740575" lon="12.79296366949387"><ele>235.0</ele><time>2026-04-04T09:21:54.001Z</time></trkpt><trkpt lat="41.95729838499624" lon="12.793037897585906"><ele>235.0</ele><time>2026-04-04T09:21:55.001Z</time></trkpt><trkpt lat="41.957391876780335" lon="12.793090250763424"><ele>235.0</ele><time>2026-04-04T09:21:56.001Z</time></trkpt><trkpt lat="41.95748749724368" lon="12.793178201529997"><ele>235.0</ele><time>2026-04-04T09:21:57.001Z</time></trkpt><trkpt lat="41.95761780338351" lon="12.793244779960249"><ele>235.0</ele><time>2026-04-04T09:21:58.001Z</time></trkpt><trkpt lat="41.95774853614168" lon="12.793343069337594"><ele>233.8</ele><time>2026-04-04T09:21:59.001Z</time></trkpt><trkpt lat="41.95786658173281" lon="12.793435929591299"><ele>232.6</ele><time>2026-04-04T09:22:00.001Z</time></trkpt><trkpt lat="41.95795849842655" lon="12.793505116249397"><ele>231.39999999999998</ele><time>2026-04-04T09:22:01.001Z</time></trkpt><trkpt lat="41.958024423402144" lon="12.793549727382961"><ele>230.2</ele><time>2026-04-04T09:22:02.001Z</time></trkpt><trkpt lat="41.958098695741185" lon="12.79360304784059"><ele>229.0</ele><time>2026-04-04T09:22:03.001Z</time></trkpt><trkpt lat="41.958173597276094" lon="12.79366814593062"><ele>230.66666666666666</ele><time>2026-04-04T09:22:04.001Z</time></trkpt><trkpt lat="41.95827757360839" lon="12.79374808141391"><ele>232.33333333333331</ele><time>2026-04-04T09:22:05.001Z</time></trkpt><trkpt lat="41.95842886954163" lon="12.793855666073885"><ele>234.0</ele><time>2026-04-04T09:22:06.001Z</time></trkpt><trkpt lat="41.95859467921545" lon="12.793983706136485"><ele>234.0</ele><time>2026-04-04T09:22:07.001Z</time></trkpt><trkpt lat="41.95876572561023" lon="12.794133512947393"><ele>234.0</ele><time>2026-04-04T09:22:08.001Z</time></trkpt><trkpt lat="41.95894321966117" lon="12.794286962380415"><ele>234.0</ele><time>2026-04-04T09:22:09.001Z</time></trkpt><trkpt lat="41.9591111101358" lon="12.794421295384442"><ele>236.66666666666669</ele><time>2026-04-04T09:22:10.001Z</time></trkpt><trkpt lat="41.95925392836189" lon="12.794534694519111"><ele>239.33333333333334</ele><time>2026-04-04T09:22:11.001Z</time></trkpt><trkpt lat="41.95940143133271" lon="12.794659963437066"><ele>242.0</ele><time>2026-04-04T09:22:12.001Z</time></trkpt><trkpt lat="41.959537975584496" lon="12.794782366442172"><ele>242.0</ele><time>2026-04-04T09:22:13.001Z</time></trkpt><trkpt lat="41.95967549124953" lon="12.794895226555393"><ele>242.0</ele><time>2026-04-04T09:22:14.001Z</time></trkpt><trkpt lat="41.959819529065676" lon="12.79501426894719"><ele>242.0</ele><time>2026-04-04T09:22:15.001Z</time></trkpt><trkpt lat="41.9599555274487" lon="12.795135608340846"><ele>241.75</ele><time>2026-04-04T09:22:16.001Z</time></trkpt><trkpt lat="41.96007775339208" lon="12.795247220630092"><ele>241.5</ele><time>2026-04-04T09:22:17.001Z</time></trkpt><trkpt lat="41.96019004600754" lon="12.795356639896168"><ele>241.25</ele><time>2026-04-04T09:22:18.001Z</time></trkpt><trkpt lat="41.96028792966205" lon="12.795467966909813"><ele>241.0</ele><time>2026-04-04T09:22:19.001Z</time></trkpt><trkpt lat="41.96037040643638" lon="12.795596589470264"><ele>241.0</ele><time>2026-04-04T09:22:20.001Z</time></trkpt><trkpt lat="41.96044897332039" lon="12.795771578946146"><ele>241.0</ele><time>2026-04-04T09:22:21.001Z</time></trkpt><trkpt lat="41.96052570777489" lon="12.795963393286156"><ele>241.0</ele><time>2026-04-04T09:22:22.001Z</time></trkpt><trkpt lat="41.960583978975336" lon="12.796128107682467"><ele>241.49999999999997</ele><time>2026-04-04T09:22:23.001Z</time></trkpt><trkpt lat="41.960637068257896" lon="12.79627785506582"><ele>242.0</ele><time>2026-04-04T09:22:24.001Z</time></trkpt><trkpt lat="41.96066775910202" lon="12.796405625298796"><ele>242.5</ele><time>2026-04-04T09:22:25.001Z</time></trkpt><trkpt lat="41.96068154289485" lon="12.796517816371528"><ele>243.0</ele><time>2026-04-04T09:22:26.001Z</time></trkpt><trkpt lat="41.96067798337391" lon="12.796611430762079"><ele>243.49999999999997</ele><time>2026-04-04T09:22:27.001Z</time></trkpt><trkpt lat="41.96065842632335" lon="12.796695554453605"><ele>244.0</ele><time>2026-04-04T09:22:28.001Z</time></trkpt><trkpt lat="41.960621923655275" lon="12.796776328374586"><ele>244.39999999999998</ele><time>2026-04-04T09:22:29.001Z</time></trkpt><trkpt lat="41.960535677592354" lon="12.796874379018192"><ele>244.79999999999998</ele><time>2026-04-04T09:22:31.001Z</time></trkpt><trkpt lat="41.96044805760199" lon="12.796956940267115"><ele>245.20000000000002</ele><time>2026-04-04T09:22:33.001Z</time></trkpt><trkpt lat="41.96038810381204" lon="12.79701945655679"><ele>245.60000000000002</ele><time>2026-04-04T09:22:34.001Z</time></trkpt><trkpt lat="41.96032066638329" lon="12.79709108999309"><ele>246.0</ele><time>2026-04-04T09:22:35.001Z</time></trkpt><trkpt lat="41.960246321479254" lon="12.79716320756101"><ele>246.0</ele><time>2026-04-04T09:22:36.001Z</time></trkpt><trkpt lat="41.96012951845268" lon="12.797278759899324"><ele>246.0</ele><time>2026-04-04T09:22:37.001Z</time></trkpt><trkpt lat="41.96000325767741" lon="12.797441314059554"><ele>246.0</ele><time>2026-04-04T09:22:38.001Z</time></trkpt><trkpt lat="41.95989813629628" lon="12.79758284046673"><ele>246.25</ele><time>2026-04-04T09:22:39.001Z</time></trkpt><trkpt lat="41.95982110138283" lon="12.79771424151518"><ele>246.5</ele><time>2026-04-04T09:22:40.001Z</time></trkpt><trkpt lat="41.95976291079603" lon="12.797834423472175"><ele>246.75</ele><time>2026-04-04T09:22:41.001Z</time></trkpt><trkpt lat="41.95970062708325" lon="12.797942377186896"><ele>247.0</ele><time>2026-04-04T09:22:42.001Z</time></trkpt><trkpt lat="41.95961391290313" lon="12.798061305054915"><ele>247.0</ele><time>2026-04-04T09:22:43.001Z</time></trkpt><trkpt lat="41.959492937428216" lon="12.79818024399342"><ele>247.0</ele><time>2026-04-04T09:22:44.001Z</time></trkpt><trkpt lat="41.95938781400743" lon="12.798299275626658"><ele>247.0</ele><time>2026-04-04T09:22:45.001Z</time></trkpt><trkpt lat="41.95934356308276" lon="12.79844460586256"><ele>247.0</ele><time>2026-04-04T09:22:46.001Z</time></trkpt><trkpt lat="41.959232568001994" lon="12.798572086874831"><ele>248.33333333333331</ele><time>2026-04-04T09:22:47.001Z</time></trkpt><trkpt lat="41.95938961590681" lon="12.798830971996635"><ele>249.66666666666669</ele><time>2026-04-04T09:22:48.001Z</time></trkpt><trkpt lat="41.959416848972204" lon="12.799067591137185"><ele>251.0</ele><time>2026-04-04T09:22:49.001Z</time></trkpt><trkpt lat="41.959433704411204" lon="12.799320503796045"><ele>251.66666666666669</ele><time>2026-04-04T09:22:50.001Z</time></trkpt><trkpt lat="41.959442971512544" lon="12.799563856469435"><ele>252.33333333333331</ele><time>2026-04-04T09:22:51.001Z</time></trkpt><trkpt lat="41.95945826574191" lon="12.799800226646237"><ele>253.0</ele><time>2026-04-04T09:22:52.001Z</time></trkpt><trkpt lat="41.95946957023112" lon="12.80001809281506"><ele>252.25</ele><time>2026-04-04T09:22:53.001Z</time></trkpt><trkpt lat="41.959479981359216" lon="12.800213687782255"><ele>251.5</ele><time>2026-04-04T09:22:54.001Z</time></trkpt><trkpt lat="41.95948495201203" lon="12.800422698884804"><ele>250.75</ele><time>2026-04-04T09:22:55.001Z</time></trkpt><trkpt lat="41.95949637394445" lon="12.800602254726922"><ele>250.0</ele><time>2026-04-04T09:22:56.001Z</time></trkpt><trkpt lat="41.95950477994249" lon="12.800772609550615"><ele>250.0</ele><time>2026-04-04T09:22:57.001Z</time></trkpt><trkpt lat="41.95951531187982" lon="12.800908815075376"><ele>250.0</ele><time>2026-04-04T09:22:58.001Z</time></trkpt><trkpt lat="41.95952080515515" lon="12.801007031447273"><ele>250.0</ele><time>2026-04-04T09:22:59.001Z</time></trkpt><trkpt lat="41.95952839501324" lon="12.801107084947281"><ele>250.0</ele><time>2026-04-04T09:23:00Z</time></trkpt><trkpt lat="41.95953711003259" lon="12.801250002505839"><ele>250.0</ele><time>2026-04-04T09:23:01Z</time></trkpt><trkpt lat="41.95954037468501" lon="12.801392540250507"><ele>249.16666666666666</ele><time>2026-04-04T09:23:02Z</time></trkpt><trkpt lat="41.959546190032405" lon="12.801507983243805"><ele>248.33333333333331</ele><time>2026-04-04T09:23:03Z</time></trkpt><trkpt lat="41.95955390767005" lon="12.801607448291577"><ele>247.5</ele><time>2026-04-04T09:23:04Z</time></trkpt><trkpt lat="41.959562466922414" lon="12.801712457903898"><ele>246.66666666666669</ele><time>2026-04-04T09:23:06Z</time></trkpt><trkpt lat="41.95957093181721" lon="12.80181234041825"><ele>245.83333333333334</ele><time>2026-04-04T09:23:08Z</time></trkpt><trkpt lat="41.95958221343198" lon="12.801931789702481"><ele>245.0</ele><time>2026-04-04T09:23:11Z</time></trkpt><trkpt lat="41.95957952846175" lon="12.802034458936584"><ele>244.6</ele><time>2026-04-04T09:23:16Z</time></trkpt><trkpt lat="41.959600605876524" lon="12.802131225507342"><ele>244.2</ele><time>2026-04-04T09:23:18Z</time></trkpt><trkpt lat="41.959631585826905" lon="12.802245606710274"><ele>243.8</ele><time>2026-04-04T09:23:20Z</time></trkpt><trkpt lat="41.95966351184927" lon="12.802319442367772"><ele>243.4</ele><time>2026-04-04T09:23:21Z</time></trkpt><trkpt lat="41.95971118949218" lon="12.80248844070726"><ele>243.0</ele><time>2026-04-04T09:23:23Z</time></trkpt><trkpt lat="41.95973779176096" lon="12.802608149403856"><ele>240.60000000000002</ele><time>2026-04-04T09:23:24Z</time></trkpt><trkpt lat="41.95976405809758" lon="12.80271970269775"><ele>238.20000000000002</ele><time>2026-04-04T09:23:25Z</time></trkpt><trkpt lat="41.95979609926292" lon="12.802827360908356"><ele>235.8</ele><time>2026-04-04T09:23:26Z</time></trkpt><trkpt lat="41.95983685380255" lon="12.802953448437462"><ele>233.4</ele><time>2026-04-04T09:23:27Z</time></trkpt><trkpt lat="41.95989907030494" lon="12.803067452825958"><ele>231.0</ele><time>2026-04-04T09:23:28Z</time></trkpt><trkpt lat="41.96000160526465" lon="12.803150689831597"><ele>229.33333333333331</ele><time>2026-04-04T09:23:29Z</time></trkpt><trkpt lat="41.96012504070012" lon="12.803187601166913"><ele>227.66666666666666</ele><time>2026-04-04T09:23:30Z</time></trkpt><trkpt lat="41.96026532702356" lon="12.80316500972499"><ele>226.0</ele><time>2026-04-04T09:23:31Z</time></trkpt><trkpt lat="41.96045115115765" lon="12.803107612830667"><ele>226.0</ele><time>2026-04-04T09:23:32Z</time></trkpt><trkpt lat="41.960686772911195" lon="12.80305709396987"><ele>226.0</ele><time>2026-04-04T09:23:33Z</time></trkpt><trkpt lat="41.96088947947561" lon="12.802991697256154"><ele>226.0</ele><time>2026-04-04T09:23:34Z</time></trkpt><trkpt lat="41.96107111364499" lon="12.80295272792689"><ele>224.25</ele><time>2026-04-04T09:23:35Z</time></trkpt><trkpt lat="41.96122890731733" lon="12.802923090110616"><ele>222.5</ele><time>2026-04-04T09:23:36Z</time></trkpt><trkpt lat="41.961374978676986" lon="12.802885655887927"><ele>220.75</ele><time>2026-04-04T09:23:37Z</time></trkpt><trkpt lat="41.961508266832034" lon="12.80283747285627"><ele>219.0</ele><time>2026-04-04T09:23:38Z</time></trkpt><trkpt lat="41.961649190241424" lon="12.802778690959675"><ele>219.75</ele><time>2026-04-04T09:23:39Z</time></trkpt><trkpt lat="41.96177084967254" lon="12.802719569052645"><ele>220.5</ele><time>2026-04-04T09:23:40Z</time></trkpt><trkpt lat="41.96187614653837" lon="12.802664630131245"><ele>221.25</ele><time>2026-04-04T09:23:41Z</time></trkpt><trkpt lat="41.961974456804505" lon="12.802611187182473"><ele>222.0</ele><time>2026-04-04T09:23:42.001Z</time></trkpt><trkpt lat="41.96206943209773" lon="12.802554506520885"><ele>222.0</ele><time>2026-04-04T09:23:43.001Z</time></trkpt><trkpt lat="41.96215466471896" lon="12.802503990386386"><ele>222.0</ele><time>2026-04-04T09:23:44.001Z</time></trkpt><trkpt lat="41.96223855556621" lon="12.802455730113014"><ele>222.0</ele><time>2026-04-04T09:23:45.001Z</time></trkpt><trkpt lat="41.96231652812454" lon="12.802409003893377"><ele>222.0</ele><time>2026-04-04T09:23:46.001Z</time></trkpt><trkpt lat="41.96238508300297" lon="12.802365660500659"><ele>222.0</ele><time>2026-04-04T09:23:47.001Z</time></trkpt><trkpt lat="41.96245135788945" lon="12.802315244308554"><ele>222.0</ele><time>2026-04-04T09:23:48.001Z</time></trkpt><trkpt lat="41.962552275322075" lon="12.802243766762528"><ele>222.5</ele><time>2026-04-04T09:23:50.001Z</time></trkpt><trkpt lat="41.96267848367314" lon="12.802153379091797"><ele>223.0</ele><time>2026-04-04T09:23:52.001Z</time></trkpt><trkpt lat="41.962784630686535" lon="12.802089864995008"><ele>223.5</ele><time>2026-04-04T09:23:53.001Z</time></trkpt><trkpt lat="41.96293733637739" lon="12.802004080016768"><ele>224.0</ele><time>2026-04-04T09:23:54.001Z</time></trkpt><trkpt lat="41.96311777518648" lon="12.801916328751911"><ele>223.0</ele><time>2026-04-04T09:23:55.001Z</time></trkpt><trkpt lat="41.96326841379551" lon="12.80183168811593"><ele>222.0</ele><time>2026-04-04T09:23:56.001Z</time></trkpt><trkpt lat="41.96340355980174" lon="12.801754206501487"><ele>221.0</ele><time>2026-04-04T09:23:57.001Z</time></trkpt><trkpt lat="41.9635063225596" lon="12.801720487935713"><ele>220.0</ele><time>2026-04-04T09:23:59.001Z</time></trkpt><trkpt lat="41.96358195011984" lon="12.80169470213023"><ele>220.0</ele><time>2026-04-04T09:24:00.001Z</time></trkpt><trkpt lat="41.96365839034403" lon="12.801677862430473"><ele>220.0</ele><time>2026-04-04T09:24:01.001Z</time></trkpt><trkpt lat="41.96378629449961" lon="12.801658309809396"><ele>220.0</ele><time>2026-04-04T09:24:02.001Z</time></trkpt><trkpt lat="41.963947055468154" lon="12.8016680084518"><ele>220.0</ele><time>2026-04-04T09:24:03.001Z</time></trkpt><trkpt lat="41.96411963599031" lon="12.801701977174499"><ele>220.8</ele><time>2026-04-04T09:24:04.001Z</time></trkpt><trkpt lat="41.96426305747339" lon="12.801748949275991"><ele>221.6</ele><time>2026-04-04T09:24:05.001Z</time></trkpt><trkpt lat="41.964368527343936" lon="12.801794848485219"><ele>222.39999999999998</ele><time>2026-04-04T09:24:06.001Z</time></trkpt><trkpt lat="41.96445909340709" lon="12.801819037781424"><ele>223.2</ele><time>2026-04-04T09:24:07.001Z</time></trkpt><trkpt lat="41.96454053187904" lon="12.80179901103632"><ele>224.0</ele><time>2026-04-04T09:24:08.001Z</time></trkpt><trkpt lat="41.964619122132646" lon="12.801760918354262"><ele>224.0</ele><time>2026-04-04T09:24:09.001Z</time></trkpt><trkpt lat="41.96469785675684" lon="12.801719621696302"><ele>223.99999999999997</ele><time>2026-04-04T09:24:10.001Z</time></trkpt><trkpt lat="41.964782070710235" lon="12.801668423597112"><ele>223.99999999999997</ele><time>2026-04-04T09:24:11.001Z</time></trkpt><trkpt lat="41.96486001090812" lon="12.801622426288299"><ele>224.0</ele><time>2026-04-04T09:24:12.001Z</time></trkpt><trkpt lat="41.96493058390475" lon="12.801592118978245"><ele>224.0</ele><time>2026-04-04T09:24:13.001Z</time></trkpt><trkpt lat="41.96504838304723" lon="12.801608528880056"><ele>224.33333333333334</ele><time>2026-04-04T09:24:15.001Z</time></trkpt><trkpt lat="41.965106258576476" lon="12.80168662141353"><ele>224.66666666666669</ele><time>2026-04-04T09:24:16.001Z</time></trkpt><trkpt lat="41.9651254063862" lon="12.80178555503258"><ele>225.0</ele><time>2026-04-04T09:24:17.001Z</time></trkpt><trkpt lat="41.96510132165447" lon="12.801881718109438"><ele>225.33333333333331</ele><time>2026-04-04T09:24:18.001Z</time></trkpt><trkpt lat="41.96505318807294" lon="12.801954483123742"><ele>225.66666666666666</ele><time>2026-04-04T09:24:19.001Z</time></trkpt><trkpt lat="41.96498602327193" lon="12.802029651871282"><ele>226.0</ele><time>2026-04-04T09:24:20.001Z</time></trkpt><trkpt lat="41.964921146210955" lon="12.802110156796367"><ele>228.0</ele><time>2026-04-04T09:24:21.001Z</time></trkpt><trkpt lat="41.96480447487632" lon="12.802248998763183"><ele>230.0</ele><time>2026-04-04T09:24:22.001Z</time></trkpt><trkpt lat="41.96464967518419" lon="12.802451557724908"><ele>232.0</ele><time>2026-04-04T09:24:23.001Z</time></trkpt><trkpt lat="41.964504479143635" lon="12.80263120715247"><ele>234.25</ele><time>2026-04-04T09:24:24.001Z</time></trkpt><trkpt lat="41.96440507932785" lon="12.802756774259237"><ele>236.5</ele><time>2026-04-04T09:24:25.001Z</time></trkpt><trkpt lat="41.964321569385106" lon="12.802863211884523"><ele>238.75</ele><time>2026-04-04T09:24:26.001Z</time></trkpt><trkpt lat="41.96422274617277" lon="12.802982610800582"><ele>241.0</ele><time>2026-04-04T09:24:27.001Z</time></trkpt><trkpt lat="41.96410731951116" lon="12.803117868552093"><ele>241.0</ele><time>2026-04-04T09:24:28.001Z</time></trkpt><trkpt lat="41.964024414425026" lon="12.80323340537623"><ele>241.0</ele><time>2026-04-04T09:24:29.001Z</time></trkpt><trkpt lat="41.9639514430932" lon="12.803360417541583"><ele>241.0</ele><time>2026-04-04T09:24:30.001Z</time></trkpt><trkpt lat="41.96388891547319" lon="12.803493258675964"><ele>241.0</ele><time>2026-04-04T09:24:31.001Z</time></trkpt><trkpt lat="41.96383532197949" lon="12.803616345755637"><ele>245.25</ele><time>2026-04-04T09:24:32.001Z</time></trkpt><trkpt lat="41.963789189312614" lon="12.803728199782835"><ele>249.5</ele><time>2026-04-04T09:24:33.001Z</time></trkpt><trkpt lat="41.96372860388261" lon="12.80386733951496"><ele>253.75</ele><time>2026-04-04T09:24:34.001Z</time></trkpt><trkpt lat="41.96364850417526" lon="12.804052165656367"><ele>258.0</ele><time>2026-04-04T09:24:35.001Z</time></trkpt><trkpt lat="41.96355642061069" lon="12.804262052055178"><ele>255.25</ele><time>2026-04-04T09:24:36.001Z</time></trkpt><trkpt lat="41.96345869928179" lon="12.804444095764069"><ele>252.5</ele><time>2026-04-04T09:24:37.001Z</time></trkpt><trkpt lat="41.96336599147597" lon="12.80457754857352"><ele>249.75</ele><time>2026-04-04T09:24:38.001Z</time></trkpt><trkpt lat="41.963263703722006" lon="12.804701380582683"><ele>247.0</ele><time>2026-04-04T09:24:39.001Z</time></trkpt><trkpt lat="41.96313351270162" lon="12.804827105495908"><ele>247.0</ele><time>2026-04-04T09:24:40.001Z</time></trkpt><trkpt lat="41.96297684475704" lon="12.804964290953734"><ele>247.0</ele><time>2026-04-04T09:24:41.001Z</time></trkpt><trkpt lat="41.96282830270176" lon="12.80508274664935"><ele>247.0</ele><time>2026-04-04T09:24:42.001Z</time></trkpt><trkpt lat="41.96267502144679" lon="12.805184604546033"><ele>249.33333333333331</ele><time>2026-04-04T09:24:43.001Z</time></trkpt><trkpt lat="41.962518406153585" lon="12.80526314905362"><ele>251.66666666666669</ele><time>2026-04-04T09:24:44.001Z</time></trkpt><trkpt lat="41.96234022950971" lon="12.805338872933875"><ele>254.0</ele><time>2026-04-04T09:24:45.001Z</time></trkpt><trkpt lat="41.962145011171806" lon="12.805435989385447"><ele>254.0</ele><time>2026-04-04T09:24:46.001Z</time></trkpt><trkpt lat="41.961930933947905" lon="12.80554359197442"><ele>254.0</ele><time>2026-04-04T09:24:47.001Z</time></trkpt><trkpt lat="41.96168486922371" lon="12.805669575134145"><ele>249.33333333333334</ele><time>2026-04-04T09:24:48.001Z</time></trkpt><trkpt lat="41.96147350846826" lon="12.805762693408335"><ele>244.66666666666669</ele><time>2026-04-04T09:24:49.001Z</time></trkpt><trkpt lat="41.96127322699751" lon="12.805811317295548"><ele>240.0</ele><time>2026-04-04T09:24:50.001Z</time></trkpt><trkpt lat="41.961052542646854" lon="12.805834638123136"><ele>239.66666666666669</ele><time>2026-04-04T09:24:51.001Z</time></trkpt><trkpt lat="41.96084690392166" lon="12.80582561774868"><ele>239.33333333333334</ele><time>2026-04-04T09:24:52.001Z</time></trkpt><trkpt lat="41.96064735862577" lon="12.805813062872849"><ele>239.0</ele><time>2026-04-04T09:24:53.001Z</time></trkpt><trkpt lat="41.96044740985838" lon="12.805819941716237"><ele>239.0</ele><time>2026-04-04T09:24:54.001Z</time></trkpt><trkpt lat="41.96026712427416" lon="12.805844308532896"><ele>239.0</ele><time>2026-04-04T09:24:55.001Z</time></trkpt><trkpt lat="41.960107333076266" lon="12.80588446866191"><ele>239.0</ele><time>2026-04-04T09:24:56.001Z</time></trkpt><trkpt lat="41.95996254441295" lon="12.8059367825843"><ele>245.33333333333334</ele><time>2026-04-04T09:24:57.001Z</time></trkpt><trkpt lat="41.95981909812801" lon="12.806004598868535"><ele>251.66666666666669</ele><time>2026-04-04T09:24:58.001Z</time></trkpt><trkpt lat="41.95967325612018" lon="12.806107089855091"><ele>258.0</ele><time>2026-04-04T09:24:59.001Z</time></trkpt><trkpt lat="41.959548502333405" lon="12.806225981209513"><ele>258.0</ele><time>2026-04-04T09:25:00.001Z</time></trkpt><trkpt lat="41.95943651288069" lon="12.806349897467229"><ele>258.0</ele><time>2026-04-04T09:25:01.001Z</time></trkpt><trkpt lat="41.95933319094239" lon="12.80647220815607"><ele>258.0</ele><time>2026-04-04T09:25:02.001Z</time></trkpt><trkpt lat="41.959227607830606" lon="12.806614505603937"><ele>258.0</ele><time>2026-04-04T09:25:03.001Z</time></trkpt><trkpt lat="41.95913100722096" lon="12.806758307486275"><ele>257.25</ele><time>2026-04-04T09:25:04.001Z</time></trkpt><trkpt lat="41.95904966791722" lon="12.806892955129436"><ele>256.5</ele><time>2026-04-04T09:25:05Z</time></trkpt><trkpt lat="41.95897105129462" lon="12.807026715479651"><ele>255.75</ele><time>2026-04-04T09:25:06Z</time></trkpt><trkpt lat="41.958892144508226" lon="12.807155664203583"><ele>255.0</ele><time>2026-04-04T09:25:07Z</time></trkpt><trkpt lat="41.95880271604149" lon="12.807292842651366"><ele>255.0</ele><time>2026-04-04T09:25:08Z</time></trkpt><trkpt lat="41.95871346667056" lon="12.80742138966572"><ele>255.0</ele><time>2026-04-04T09:25:09Z</time></trkpt><trkpt lat="41.9586237756022" lon="12.807561611651469"><ele>255.0</ele><time>2026-04-04T09:25:10Z</time></trkpt><trkpt lat="41.95854149266122" lon="12.807697779423908"><ele>255.0</ele><time>2026-04-04T09:25:11Z</time></trkpt><trkpt lat="41.958461193312516" lon="12.807820746710888"><ele>253.25</ele><time>2026-04-04T09:25:12Z</time></trkpt><trkpt lat="41.95837975680759" lon="12.807943023630546"><ele>251.5</ele><time>2026-04-04T09:25:13Z</time></trkpt><trkpt lat="41.958287571832635" lon="12.808089226859147"><ele>249.75</ele><time>2026-04-04T09:25:14Z</time></trkpt><trkpt lat="41.958192817637105" lon="12.808239780350254"><ele>248.0</ele><time>2026-04-04T09:25:15Z</time></trkpt><trkpt lat="41.95810364791858" lon="12.808383587700234"><ele>251.5</ele><time>2026-04-04T09:25:16Z</time></trkpt><trkpt lat="41.95802394607087" lon="12.808508414110145"><ele>255.0</ele><time>2026-04-04T09:25:17Z</time></trkpt><trkpt lat="41.95794715320281" lon="12.808630256064896"><ele>258.5</ele><time>2026-04-04T09:25:18Z</time></trkpt><trkpt lat="41.95787375361671" lon="12.808762523719139"><ele>262.0</ele><time>2026-04-04T09:25:19Z</time></trkpt><trkpt lat="41.95779563619231" lon="12.808894781673557"><ele>262.0</ele><time>2026-04-04T09:25:20Z</time></trkpt><trkpt lat="41.95771752609598" lon="12.809027312948508"><ele>262.0</ele><time>2026-04-04T09:25:21Z</time></trkpt><trkpt lat="41.95763616430392" lon="12.809162700874989"><ele>262.0</ele><time>2026-04-04T09:25:22Z</time></trkpt><trkpt lat="41.95754940709285" lon="12.809305532937515"><ele>262.0</ele><time>2026-04-04T09:25:23Z</time></trkpt><trkpt lat="41.95746668435903" lon="12.809441839743185"><ele>259.5</ele><time>2026-04-04T09:25:24Z</time></trkpt><trkpt lat="41.95739097155525" lon="12.809573042347663"><ele>257.0</ele><time>2026-04-04T09:25:25Z</time></trkpt><trkpt lat="41.95731131471508" lon="12.80970904002002"><ele>254.5</ele><time>2026-04-04T09:25:26Z</time></trkpt><trkpt lat="41.957230516365556" lon="12.809845738026146"><ele>252.0</ele><time>2026-04-04T09:25:27Z</time></trkpt><trkpt lat="41.95714664173098" lon="12.80998599570165"><ele>252.0</ele><time>2026-04-04T09:25:28Z</time></trkpt><trkpt lat="41.95706463781506" lon="12.81011155290195"><ele>252.0</ele><time>2026-04-04T09:25:29Z</time></trkpt><trkpt lat="41.956983989609824" lon="12.810233657373063"><ele>252.0</ele><time>2026-04-04T09:25:30Z</time></trkpt><trkpt lat="41.95690700697187" lon="12.810355395545864"><ele>252.0</ele><time>2026-04-04T09:25:31Z</time></trkpt><trkpt lat="41.9568184301779" lon="12.810488678491035"><ele>251.75</ele><time>2026-04-04T09:25:32Z</time></trkpt><trkpt lat="41.95671961857243" lon="12.81062882824738"><ele>251.5</ele><time>2026-04-04T09:25:33Z</time></trkpt><trkpt lat="41.95662797628937" lon="12.810764134872631"><ele>251.25</ele><time>2026-04-04T09:25:34Z</time></trkpt><trkpt lat="41.95653657003523" lon="12.81090901460125"><ele>251.0</ele><time>2026-04-04T09:25:35Z</time></trkpt><trkpt lat="41.95646465086321" lon="12.811081896471975"><ele>256.0</ele><time>2026-04-04T09:25:36Z</time></trkpt><trkpt lat="41.956415645741444" lon="12.811281880749346"><ele>261.0</ele><time>2026-04-04T09:25:37Z</time></trkpt><trkpt lat="41.95636423557246" lon="12.811483279584705"><ele>266.0</ele><time>2026-04-04T09:25:38Z</time></trkpt><trkpt lat="41.95632113198245" lon="12.811676789000108"><ele>268.6666666666667</ele><time>2026-04-04T09:25:39Z</time></trkpt><trkpt lat="41.95627613831016" lon="12.811880006579877"><ele>271.3333333333333</ele><time>2026-04-04T09:25:40Z</time></trkpt><trkpt lat="41.95620346962042" lon="12.812114602454326"><ele>274.0</ele><time>2026-04-04T09:25:41Z</time></trkpt><trkpt lat="41.956146652960264" lon="12.812380477510755"><ele>274.0</ele><time>2026-04-04T09:25:42.001Z</time></trkpt><trkpt lat="41.95603923853291" lon="12.812604304534492"><ele>274.0</ele><time>2026-04-04T09:25:43.001Z</time></trkpt><trkpt lat="41.95593549416197" lon="12.812816842165667"><ele>274.0</ele><time>2026-04-04T09:25:44.001Z</time></trkpt><trkpt lat="41.95581957627843" lon="12.812994324655008"><ele>271.75</ele><time>2026-04-04T09:25:45.001Z</time></trkpt><trkpt lat="41.95574473873766" lon="12.813182824988166"><ele>269.5</ele><time>2026-04-04T09:25:46.001Z</time></trkpt><trkpt lat="41.95570268979503" lon="12.813364884297565"><ele>267.25</ele><time>2026-04-04T09:25:47.001Z</time></trkpt><trkpt lat="41.95569162889692" lon="12.813558827930132"><ele>265.0</ele><time>2026-04-04T09:25:48.001Z</time></trkpt><trkpt lat="41.95569099785322" lon="12.81378374888219"><ele>265.0</ele><time>2026-04-04T09:25:49.001Z</time></trkpt><trkpt lat="41.95564514984727" lon="12.81400259139834"><ele>265.0</ele><time>2026-04-04T09:25:50.001Z</time></trkpt><trkpt lat="41.955589695651526" lon="12.814251650811176"><ele>265.0</ele><time>2026-04-04T09:25:51.001Z</time></trkpt><trkpt lat="41.95553167729957" lon="12.814507903187296"><ele>265.0</ele><time>2026-04-04T09:25:52.001Z</time></trkpt><trkpt lat="41.9554706236301" lon="12.814784661763168"><ele>265.0</ele><time>2026-04-04T09:25:53.001Z</time></trkpt><trkpt lat="41.95540773251966" lon="12.81502391567995"><ele>265.0</ele><time>2026-04-04T09:25:54.001Z</time></trkpt><trkpt lat="41.955383246281166" lon="12.815248132202878"><ele>264.0</ele><time>2026-04-04T09:25:55.001Z</time></trkpt><trkpt lat="41.95539478083994" lon="12.815470877426593"><ele>263.0</ele><time>2026-04-04T09:25:56.001Z</time></trkpt><trkpt lat="41.95543533376141" lon="12.81570741037911"><ele>262.0</ele><time>2026-04-04T09:25:57.001Z</time></trkpt><trkpt lat="41.95548052828259" lon="12.815954197744908"><ele>262.0</ele><time>2026-04-04T09:25:58.001Z</time></trkpt><trkpt lat="41.955516236489544" lon="12.81619901056305"><ele>262.0</ele><time>2026-04-04T09:25:59.001Z</time></trkpt><trkpt lat="41.95556302182924" lon="12.816435542816965"><ele>262.0</ele><time>2026-04-04T09:26:00.001Z</time></trkpt><trkpt lat="41.95560722334681" lon="12.81661067551289"><ele>262.0</ele><time>2026-04-04T09:26:01.001Z</time></trkpt><trkpt lat="41.95563771666156" lon="12.816733476647405"><ele>262.0</ele><time>2026-04-04T09:26:02.001Z</time></trkpt><trkpt lat="41.95566294948511" lon="12.816834403707709"><ele>262.0</ele><time>2026-04-04T09:26:03.001Z</time></trkpt><trkpt lat="41.95571018818544" lon="12.816984970023695"><ele>262.0</ele><time>2026-04-04T09:26:04.001Z</time></trkpt><trkpt lat="41.95577974745225" lon="12.817193549122095"><ele>262.0</ele><time>2026-04-04T09:26:05.001Z</time></trkpt><trkpt lat="41.95586619263374" lon="12.817442436922931"><ele>262.0</ele><time>2026-04-04T09:26:06.001Z</time></trkpt><trkpt lat="41.95596028819742" lon="12.817698730568184"><ele>262.0</ele><time>2026-04-04T09:26:07.001Z</time></trkpt><trkpt lat="41.95608021531869" lon="12.817957045147558"><ele>262.0</ele><time>2026-04-04T09:26:08.001Z</time></trkpt><trkpt lat="41.9562167080652" lon="12.818173862013147"><ele>262.0</ele><time>2026-04-04T09:26:09.001Z</time></trkpt><trkpt lat="41.956363592067426" lon="12.818351034585188"><ele>262.0</ele><time>2026-04-04T09:26:10.001Z</time></trkpt><trkpt lat="41.95651596654549" lon="12.81852278440187"><ele>260.3333333333333</ele><time>2026-04-04T09:26:11.001Z</time></trkpt><trkpt lat="41.95665040328632" lon="12.8187018673737"><ele>258.6666666666667</ele><time>2026-04-04T09:26:12.001Z</time></trkpt><trkpt lat="41.95676442877402" lon="12.818895382999338"><ele>257.0</ele><time>2026-04-04T09:26:13.001Z</time></trkpt><trkpt lat="41.95687582768428" lon="12.819104176194719"><ele>258.0</ele><time>2026-04-04T09:26:14.001Z</time></trkpt><trkpt lat="41.9569818534383" lon="12.81931860698431"><ele>259.0</ele><time>2026-04-04T09:26:15.001Z</time></trkpt><trkpt lat="41.95708192505206" lon="12.819542572631613"><ele>260.0</ele><time>2026-04-04T09:26:16.001Z</time></trkpt><trkpt lat="41.957196510613024" lon="12.819772212473495"><ele>260.0</ele><time>2026-04-04T09:26:17.001Z</time></trkpt><trkpt lat="41.95733362375413" lon="12.820000921935629"><ele>260.0</ele><time>2026-04-04T09:26:18.001Z</time></trkpt><trkpt lat="41.95747606881282" lon="12.820218316290683"><ele>260.0</ele><time>2026-04-04T09:26:19.001Z</time></trkpt><trkpt lat="41.9576296872484" lon="12.820410475564886"><ele>260.33333333333337</ele><time>2026-04-04T09:26:20.001Z</time></trkpt><trkpt lat="41.95777875297152" lon="12.82055908214145"><ele>260.6666666666667</ele><time>2026-04-04T09:26:21.001Z</time></trkpt><trkpt lat="41.957921085673156" lon="12.82067755170576"><ele>261.0</ele><time>2026-04-04T09:26:22.001Z</time></trkpt><trkpt lat="41.958051919131556" lon="12.820771467659918"><ele>261.0</ele><time>2026-04-04T09:26:23.001Z</time></trkpt><trkpt lat="41.95817743036778" lon="12.820856566562858"><ele>261.0</ele><time>2026-04-04T09:26:24.001Z</time></trkpt><trkpt lat="41.958293397997814" lon="12.820931937211416"><ele>261.0</ele><time>2026-04-04T09:26:25.001Z</time></trkpt><trkpt lat="41.95841884728971" lon="12.821009132327625"><ele>261.0</ele><time>2026-04-04T09:26:26.001Z</time></trkpt><trkpt lat="41.95855583638935" lon="12.821095979751716"><ele>261.0</ele><time>2026-04-04T09:26:27.001Z</time></trkpt><trkpt lat="41.958696490589645" lon="12.821196613290013"><ele>261.0</ele><time>2026-04-04T09:26:28.001Z</time></trkpt><trkpt lat="41.95883340373708" lon="12.821295488023214"><ele>261.0</ele><time>2026-04-04T09:26:29.001Z</time></trkpt><trkpt lat="41.95899147372981" lon="12.82140701205246"><ele>261.0</ele><time>2026-04-04T09:26:30.001Z</time></trkpt><trkpt lat="41.95916473541429" lon="12.821521271382286"><ele>261.0</ele><time>2026-04-04T09:26:31.001Z</time></trkpt><trkpt lat="41.959347116542354" lon="12.82163452856018"><ele>261.0</ele><time>2026-04-04T09:26:32.001Z</time></trkpt><trkpt lat="41.959540002461296" lon="12.821747966307523"><ele>260.3333333333333</ele><time>2026-04-04T09:26:33.001Z</time></trkpt><trkpt lat="41.959729486220226" lon="12.821842067571348"><ele>259.66666666666663</ele><time>2026-04-04T09:26:34.001Z</time></trkpt><trkpt lat="41.95992966150226" lon="12.821944029287444"><ele>259.0</ele><time>2026-04-04T09:26:35.001Z</time></trkpt><trkpt lat="41.9601300076659" lon="12.822025481935672"><ele>259.0</ele><time>2026-04-04T09:26:36.001Z</time></trkpt><trkpt lat="41.96034524674902" lon="12.822102121158517"><ele>259.0</ele><time>2026-04-04T09:26:37.001Z</time></trkpt><trkpt lat="41.960557024278145" lon="12.82219911695078"><ele>259.0</ele><time>2026-04-04T09:26:38.001Z</time></trkpt><trkpt lat="41.96078557336818" lon="12.822273231979825"><ele>261.0</ele><time>2026-04-04T09:26:39.001Z</time></trkpt><trkpt lat="41.96101312732504" lon="12.822342936396659"><ele>263.0</ele><time>2026-04-04T09:26:40.001Z</time></trkpt><trkpt lat="41.96123488212315" lon="12.822418957615325"><ele>263.0</ele><time>2026-04-04T09:26:41.001Z</time></trkpt><trkpt lat="41.96146199565663" lon="12.822494701972287"><ele>263.0</ele><time>2026-04-04T09:26:42.001Z</time></trkpt><trkpt lat="41.96168673138064" lon="12.822578654186325"><ele>259.5</ele><time>2026-04-04T09:26:43.001Z</time></trkpt><trkpt lat="41.96191597574347" lon="12.822675162019147"><ele>256.0</ele><time>2026-04-04T09:26:44.001Z</time></trkpt><trkpt lat="41.962142754555536" lon="12.82277096083465"><ele>256.0</ele><time>2026-04-04T09:26:45.001Z</time></trkpt><trkpt lat="41.96237798825803" lon="12.822856943382748"><ele>256.0</ele><time>2026-04-04T09:26:46.001Z</time></trkpt><trkpt lat="41.96259896978259" lon="12.822951844068394"><ele>257.5</ele><time>2026-04-04T09:26:47.001Z</time></trkpt><trkpt lat="41.962811673753684" lon="12.82311181019502"><ele>259.0</ele><time>2026-04-04T09:26:48.001Z</time></trkpt><trkpt lat="41.96304066999824" lon="12.823264370590538"><ele>259.0</ele><time>2026-04-04T09:26:49.001Z</time></trkpt><trkpt lat="41.96324459405877" lon="12.823439888119843"><ele>259.0</ele><time>2026-04-04T09:26:50.001Z</time></trkpt><trkpt lat="41.96345274582645" lon="12.823624914749988"><ele>259.0</ele><time>2026-04-04T09:26:51.001Z</time></trkpt><trkpt lat="41.963664011403715" lon="12.8237959834483"><ele>259.0</ele><time>2026-04-04T09:26:52.001Z</time></trkpt><trkpt lat="41.96387467753161" lon="12.823947850063938"><ele>259.0</ele><time>2026-04-04T09:26:53.001Z</time></trkpt><trkpt lat="41.96409262921435" lon="12.82409034098157"><ele>259.0</ele><time>2026-04-04T09:26:54.001Z</time></trkpt><trkpt lat="41.96430722214416" lon="12.824218888420255"><ele>256.5</ele><time>2026-04-04T09:26:55.001Z</time></trkpt><trkpt lat="41.96453312894812" lon="12.824350150271746"><ele>254.0</ele><time>2026-04-04T09:26:56.001Z</time></trkpt><trkpt lat="41.96474693757505" lon="12.824470958415565"><ele>254.0</ele><time>2026-04-04T09:26:57.001Z</time></trkpt><trkpt lat="41.96496510870151" lon="12.824591024962952"><ele>254.0</ele><time>2026-04-04T09:26:58.001Z</time></trkpt><trkpt lat="41.96518819349239" lon="12.824712263516988"><ele>255.5</ele><time>2026-04-04T09:26:59.001Z</time></trkpt><trkpt lat="41.96540820938526" lon="12.824840705591644"><ele>257.0</ele><time>2026-04-04T09:27:00.001Z</time></trkpt><trkpt lat="41.96563725749478" lon="12.824975136862033"><ele>256.5</ele><time>2026-04-04T09:27:01.001Z</time></trkpt><trkpt lat="41.96586457743718" lon="12.825104133432966"><ele>256.0</ele><time>2026-04-04T09:27:02.001Z</time></trkpt><trkpt lat="41.96608494135801" lon="12.825230657016464"><ele>256.0</ele><time>2026-04-04T09:27:03.001Z</time></trkpt><trkpt lat="41.96628750866125" lon="12.825347323002733"><ele>256.0</ele><time>2026-04-04T09:27:04.001Z</time></trkpt><trkpt lat="41.96648473454396" lon="12.825454639738558"><ele>256.0</ele><time>2026-04-04T09:27:05.001Z</time></trkpt><trkpt lat="41.966703876460045" lon="12.825578556231152"><ele>257.5</ele><time>2026-04-04T09:27:06.001Z</time></trkpt><trkpt lat="41.96691681236343" lon="12.82571641158959"><ele>259.0</ele><time>2026-04-04T09:27:07.001Z</time></trkpt><trkpt lat="41.96711919661631" lon="12.825882787783836"><ele>258.0</ele><time>2026-04-04T09:27:08.001Z</time></trkpt><trkpt lat="41.967306475187094" lon="12.826059836694846"><ele>257.0</ele><time>2026-04-04T09:27:09.001Z</time></trkpt><trkpt lat="41.96748369698834" lon="12.826238156110643"><ele>260.0</ele><time>2026-04-04T09:27:10.001Z</time></trkpt><trkpt lat="41.96765883572033" lon="12.826439115609857"><ele>263.0</ele><time>2026-04-04T09:27:11.001Z</time></trkpt><trkpt lat="41.96781933185581" lon="12.826661281051937"><ele>262.0</ele><time>2026-04-04T09:27:12.001Z</time></trkpt><trkpt lat="41.96796184795393" lon="12.826889233525964"><ele>261.0</ele><time>2026-04-04T09:27:13.001Z</time></trkpt><trkpt lat="41.968101748440525" lon="12.82713764764547"><ele>261.0</ele><time>2026-04-04T09:27:14.001Z</time></trkpt><trkpt lat="41.968226603193145" lon="12.82738460046634"><ele>261.0</ele><time>2026-04-04T09:27:15.001Z</time></trkpt><trkpt lat="41.968337395380296" lon="12.82761768603965"><ele>261.0</ele><time>2026-04-04T09:27:16.001Z</time></trkpt><trkpt lat="41.968444062035715" lon="12.827867840772795"><ele>261.6666666666667</ele><time>2026-04-04T09:27:17.001Z</time></trkpt><trkpt lat="41.96855813823074" lon="12.828107745773016"><ele>262.33333333333337</ele><time>2026-04-04T09:27:18.001Z</time></trkpt><trkpt lat="41.96866938428799" lon="12.828332131417104"><ele>263.0</ele><time>2026-04-04T09:27:19.001Z</time></trkpt><trkpt lat="41.9687815268125" lon="12.828569120897264"><ele>263.0</ele><time>2026-04-04T09:27:20.001Z</time></trkpt><trkpt lat="41.968893715791324" lon="12.828816306830998"><ele>263.0</ele><time>2026-04-04T09:27:21.001Z</time></trkpt><trkpt lat="41.969021596783044" lon="12.829072125623105"><ele>263.0</ele><time>2026-04-04T09:27:22.001Z</time></trkpt><trkpt lat="41.96917448654798" lon="12.829320514134109"><ele>261.5</ele><time>2026-04-04T09:27:23.001Z</time></trkpt><trkpt lat="41.9693437348603" lon="12.829563285834002"><ele>260.0</ele><time>2026-04-04T09:27:24.001Z</time></trkpt><trkpt lat="41.9695264767438" lon="12.829805535356735"><ele>260.0</ele><time>2026-04-04T09:27:25.001Z</time></trkpt><trkpt lat="41.96971751575839" lon="12.830028951954239"><ele>260.0</ele><time>2026-04-04T09:27:26.001Z</time></trkpt><trkpt lat="41.969926555603905" lon="12.83022862928997"><ele>258.0</ele><time>2026-04-04T09:27:27.001Z</time></trkpt><trkpt lat="41.970143638402966" lon="12.830416935403559"><ele>256.0</ele><time>2026-04-04T09:27:28.001Z</time></trkpt><trkpt lat="41.9703606772311" lon="12.830599960478066"><ele>256.0</ele><time>2026-04-04T09:27:29.001Z</time></trkpt><trkpt lat="41.97057031183246" lon="12.830781979651626"><ele>256.0</ele><time>2026-04-04T09:27:30.001Z</time></trkpt><trkpt lat="41.970779032746854" lon="12.830965165236622"><ele>253.5</ele><time>2026-04-04T09:27:31.001Z</time></trkpt><trkpt lat="41.970986599603094" lon="12.83114267990491"><ele>251.0</ele><time>2026-04-04T09:27:32.001Z</time></trkpt><trkpt lat="41.971195525040685" lon="12.831322524884593"><ele>251.0</ele><time>2026-04-04T09:27:33.001Z</time></trkpt><trkpt lat="41.97139713908557" lon="12.831505224563852"><ele>251.0</ele><time>2026-04-04T09:27:34.001Z</time></trkpt><trkpt lat="41.971602312678485" lon="12.83168387731383"><ele>253.5</ele><time>2026-04-04T09:27:35.001Z</time></trkpt><trkpt lat="41.97181186800516" lon="12.831841662255293"><ele>256.0</ele><time>2026-04-04T09:27:36.001Z</time></trkpt><trkpt lat="41.97203107830838" lon="12.831972384198787"><ele>256.0</ele><time>2026-04-04T09:27:37.001Z</time></trkpt><trkpt lat="41.97225338407244" lon="12.832075573643378"><ele>256.0</ele><time>2026-04-04T09:27:38.001Z</time></trkpt><trkpt lat="41.97248414851813" lon="12.832164780144096"><ele>257.5</ele><time>2026-04-04T09:27:39.001Z</time></trkpt><trkpt lat="41.972710915172414" lon="12.832226476744808"><ele>259.0</ele><time>2026-04-04T09:27:40.001Z</time></trkpt><trkpt lat="41.972930054206586" lon="12.83226838581868"><ele>259.0</ele><time>2026-04-04T09:27:41.001Z</time></trkpt><trkpt lat="41.97314953098762" lon="12.832301762457593"><ele>259.0</ele><time>2026-04-04T09:27:42.001Z</time></trkpt><trkpt lat="41.97337400319976" lon="12.8323348860099"><ele>259.0</ele><time>2026-04-04T09:27:43.001Z</time></trkpt><trkpt lat="41.97360328964613" lon="12.83238012805802"><ele>261.0</ele><time>2026-04-04T09:27:44.001Z</time></trkpt><trkpt lat="41.97383891768683" lon="12.832436795871338"><ele>263.0</ele><time>2026-04-04T09:27:45.001Z</time></trkpt><trkpt lat="41.97407881499592" lon="12.832485613680182"><ele>263.5</ele><time>2026-04-04T09:27:46.001Z</time></trkpt><trkpt lat="41.97431219740107" lon="12.832529614645063"><ele>264.0</ele><time>2026-04-04T09:27:47.001Z</time></trkpt><trkpt lat="41.974546200834354" lon="12.832583513955944"><ele>261.0</ele><time>2026-04-04T09:27:48.001Z</time></trkpt><trkpt lat="41.97479505880055" lon="12.832643064093107"><ele>258.0</ele><time>2026-04-04T09:27:49.001Z</time></trkpt><trkpt lat="41.975069658811414" lon="12.832727129826583"><ele>257.5</ele><time>2026-04-04T09:27:50.001Z</time></trkpt><trkpt lat="41.97532803231435" lon="12.832827666724185"><ele>257.0</ele><time>2026-04-04T09:27:51.001Z</time></trkpt><trkpt lat="41.975584567897" lon="12.83294548799267"><ele>257.0</ele><time>2026-04-04T09:27:52.001Z</time></trkpt><trkpt lat="41.975846607941826" lon="12.833069602236797"><ele>257.0</ele><time>2026-04-04T09:27:53.001Z</time></trkpt><trkpt lat="41.97611016901686" lon="12.833176607125052"><ele>259.0</ele><time>2026-04-04T09:27:54.001Z</time></trkpt><trkpt lat="41.976361450399104" lon="12.833277743508585"><ele>261.0</ele><time>2026-04-04T09:27:55.001Z</time></trkpt><trkpt lat="41.97660360533242" lon="12.833383969490042"><ele>259.0</ele><time>2026-04-04T09:27:56.001Z</time></trkpt><trkpt lat="41.97684436655531" lon="12.83350270981117"><ele>257.0</ele><time>2026-04-04T09:27:57.001Z</time></trkpt><trkpt lat="41.977080778849995" lon="12.833645009514134"><ele>257.0</ele><time>2026-04-04T09:27:58.001Z</time></trkpt><trkpt lat="41.977304708399565" lon="12.833829197956193"><ele>257.0</ele><time>2026-04-04T09:27:59.001Z</time></trkpt><trkpt lat="41.97750886661475" lon="12.834048789490868"><ele>258.5</ele><time>2026-04-04T09:28:00.001Z</time></trkpt><trkpt lat="41.97769083777227" lon="12.834299695785582"><ele>260.0</ele><time>2026-04-04T09:28:01.001Z</time></trkpt><trkpt lat="41.97786061185638" lon="12.834597300212938"><ele>260.0</ele><time>2026-04-04T09:28:02.001Z</time></trkpt><trkpt lat="41.97801616656803" lon="12.834923520735147"><ele>260.0</ele><time>2026-04-04T09:28:03.001Z</time></trkpt><trkpt lat="41.97816423250923" lon="12.835253987858534"><ele>263.0</ele><time>2026-04-04T09:28:04.001Z</time></trkpt><trkpt lat="41.97831386584551" lon="12.835569421531586"><ele>266.0</ele><time>2026-04-04T09:28:05.001Z</time></trkpt><trkpt lat="41.97846794735309" lon="12.835870733417622"><ele>261.0</ele><time>2026-04-04T09:28:06.001Z</time></trkpt><trkpt lat="41.97864192476429" lon="12.836134160373547"><ele>256.0</ele><time>2026-04-04T09:28:07.001Z</time></trkpt><trkpt lat="41.978843493965094" lon="12.83635580816064"><ele>256.0</ele><time>2026-04-04T09:28:08.001Z</time></trkpt><trkpt lat="41.9790563839182" lon="12.836540088516509"><ele>256.0</ele><time>2026-04-04T09:28:09.001Z</time></trkpt><trkpt lat="41.97923743568454" lon="12.836747600973418"><ele>256.5</ele><time>2026-04-04T09:28:10.001Z</time></trkpt><trkpt lat="41.979353260806185" lon="12.837022623201182"><ele>257.0</ele><time>2026-04-04T09:28:11.001Z</time></trkpt><trkpt lat="41.97942754213133" lon="12.8373623794418"><ele>260.0</ele><time>2026-04-04T09:28:12.001Z</time></trkpt><trkpt lat="41.97946045875936" lon="12.837697772421695"><ele>263.0</ele><time>2026-04-04T09:28:13.001Z</time></trkpt><trkpt lat="41.979454497299834" lon="12.837984007714235"><ele>263.0</ele><time>2026-04-04T09:28:14.001Z</time></trkpt><trkpt lat="41.9794125726691" lon="12.838254021014553"><ele>263.0</ele><time>2026-04-04T09:28:15.001Z</time></trkpt><trkpt lat="41.97938063090578" lon="12.838557353779061"><ele>263.0</ele><time>2026-04-04T09:28:16.001Z</time></trkpt><trkpt lat="41.97919497974514" lon="12.838799488870972"><ele>258.5</ele><time>2026-04-04T09:28:17.001Z</time></trkpt><trkpt lat="41.97905830548744" lon="12.839063863804496"><ele>254.0</ele><time>2026-04-04T09:28:18.001Z</time></trkpt><trkpt lat="41.97894396373459" lon="12.839347977212778"><ele>254.0</ele><time>2026-04-04T09:28:19.001Z</time></trkpt><trkpt lat="41.978891130195606" lon="12.839670465516585"><ele>254.0</ele><time>2026-04-04T09:28:20.001Z</time></trkpt><trkpt lat="41.97891368693833" lon="12.839999217260317"><ele>253.0</ele><time>2026-04-04T09:28:21.001Z</time></trkpt><trkpt lat="41.97900402352849" lon="12.840319644269584"><ele>252.0</ele><time>2026-04-04T09:28:22.001Z</time></trkpt><trkpt lat="41.97914692599972" lon="12.840612607228206"><ele>252.5</ele><time>2026-04-04T09:28:23.001Z</time></trkpt><trkpt lat="41.979364576655534" lon="12.840834446183608"><ele>253.0</ele><time>2026-04-04T09:28:24.001Z</time></trkpt><trkpt lat="41.97962969103647" lon="12.841065063519757"><ele>253.0</ele><time>2026-04-04T09:28:25.001Z</time></trkpt><trkpt lat="41.97987670459459" lon="12.841358009230829"><ele>253.0</ele><time>2026-04-04T09:28:26.001Z</time></trkpt><trkpt lat="41.98009613404563" lon="12.841699138013132"><ele>255.5</ele><time>2026-04-04T09:28:27.001Z</time></trkpt><trkpt lat="41.980285406813024" lon="12.842083853495225"><ele>258.0</ele><time>2026-04-04T09:28:28.001Z</time></trkpt><trkpt lat="41.980435854325314" lon="12.842491642630417"><ele>256.5</ele><time>2026-04-04T09:28:29.001Z</time></trkpt><trkpt lat="41.980540772613764" lon="12.84287792926281"><ele>255.0</ele><time>2026-04-04T09:28:30.001Z</time></trkpt><trkpt lat="41.98062654523826" lon="12.843244517341716"><ele>255.5</ele><time>2026-04-04T09:28:31.001Z</time></trkpt><trkpt lat="41.98072740618373" lon="12.843579237472373"><ele>256.0</ele><time>2026-04-04T09:28:32.001Z</time></trkpt><trkpt lat="41.98089123682815" lon="12.843870973451125"><ele>256.0</ele><time>2026-04-04T09:28:33.001Z</time></trkpt><trkpt lat="41.98111009081606" lon="12.844099814649013"><ele>256.0</ele><time>2026-04-04T09:28:34.001Z</time></trkpt><trkpt lat="41.98137121537202" lon="12.844264189711671"><ele>249.0</ele><time>2026-04-04T09:28:35.001Z</time></trkpt><trkpt lat="41.9816791207007" lon="12.844373184198496"><ele>242.0</ele><time>2026-04-04T09:28:36.001Z</time></trkpt><trkpt lat="41.981969240168695" lon="12.84441207350386"><ele>240.0</ele><time>2026-04-04T09:28:37.001Z</time></trkpt><trkpt lat="41.98227664094191" lon="12.844377660946375"><ele>238.0</ele><time>2026-04-04T09:28:38.001Z</time></trkpt><trkpt lat="41.982629167828044" lon="12.844287540755268"><ele>246.0</ele><time>2026-04-04T09:28:39.001Z</time></trkpt><trkpt lat="41.983038357303954" lon="12.84418644378878"><ele>254.0</ele><time>2026-04-04T09:28:40.001Z</time></trkpt><trkpt lat="41.9834369992889" lon="12.844110592758959"><ele>254.0</ele><time>2026-04-04T09:28:41.001Z</time></trkpt><trkpt lat="41.983793583301605" lon="12.844064271162999"><ele>254.0</ele><time>2026-04-04T09:28:42.001Z</time></trkpt><trkpt lat="41.984114947140796" lon="12.8440744565977"><ele>255.5</ele><time>2026-04-04T09:28:43.001Z</time></trkpt><trkpt lat="41.98442537316294" lon="12.844188026693653"><ele>257.0</ele><time>2026-04-04T09:28:44.001Z</time></trkpt><trkpt lat="41.9847502038359" lon="12.844324486774745"><ele>256.5</ele><time>2026-04-04T09:28:45.001Z</time></trkpt><trkpt lat="41.985064317292895" lon="12.844522611598732"><ele>256.0</ele><time>2026-04-04T09:28:46.001Z</time></trkpt><trkpt lat="41.98534753232474" lon="12.844762654963773"><ele>256.0</ele><time>2026-04-04T09:28:47.001Z</time></trkpt><trkpt lat="41.98562002677231" lon="12.84505882454589"><ele>256.0</ele><time>2026-04-04T09:28:48.001Z</time></trkpt><trkpt lat="41.98584346130937" lon="12.845370474774228"><ele>256.5</ele><time>2026-04-04T09:28:49.001Z</time></trkpt><trkpt lat="41.986024986958654" lon="12.845713633041564"><ele>257.0</ele><time>2026-04-04T09:28:50.001Z</time></trkpt><trkpt lat="41.98621641789949" lon="12.846159125452788"><ele>257.0</ele><time>2026-04-04T09:28:51.001Z</time></trkpt><trkpt lat="41.98639619602004" lon="12.846627255845815"><ele>257.0</ele><time>2026-04-04T09:28:52.001Z</time></trkpt><trkpt lat="41.98653971910846" lon="12.847023805017006"><ele>257.5</ele><time>2026-04-04T09:28:53.001Z</time></trkpt><trkpt lat="41.98663140713892" lon="12.847359775254558"><ele>258.0</ele><time>2026-04-04T09:28:54.001Z</time></trkpt><trkpt lat="41.98666116086579" lon="12.84768236739698"><ele>257.0</ele><time>2026-04-04T09:28:55.001Z</time></trkpt><trkpt lat="41.98660943795145" lon="12.848008405016005"><ele>256.0</ele><time>2026-04-04T09:28:56.001Z</time></trkpt><trkpt lat="41.986498330038614" lon="12.84830088465982"><ele>258.5</ele><time>2026-04-04T09:28:57.001Z</time></trkpt><trkpt lat="41.9863562796261" lon="12.848550173856953"><ele>261.0</ele><time>2026-04-04T09:28:58.001Z</time></trkpt><trkpt lat="41.986119836002175" lon="12.848955222521075"><ele>261.0</ele><time>2026-04-04T09:28:59.001Z</time></trkpt><trkpt lat="41.98599666468037" lon="12.849283374933023"><ele>261.0</ele><time>2026-04-04T09:29:00.001Z</time></trkpt><trkpt lat="41.98598675765149" lon="12.849624778243923"><ele>261.5</ele><time>2026-04-04T09:29:01.001Z</time></trkpt><trkpt lat="41.98602246116188" lon="12.849995738427921"><ele>262.0</ele><time>2026-04-04T09:29:02.001Z</time></trkpt><trkpt lat="41.985975379470176" lon="12.850482314025175"><ele>262.5</ele><time>2026-04-04T09:29:03.001Z</time></trkpt><trkpt lat="41.98586916392142" lon="12.850871487731563"><ele>263.0</ele><time>2026-04-04T09:29:04.001Z</time></trkpt><trkpt lat="41.985710706921644" lon="12.85122004311822"><ele>263.0</ele><time>2026-04-04T09:29:05.001Z</time></trkpt><trkpt lat="41.985507337220625" lon="12.85156476655911"><ele>263.0</ele><time>2026-04-04T09:29:06.001Z</time></trkpt><trkpt lat="41.985252950665306" lon="12.8519086970038"><ele>261.0</ele><time>2026-04-04T09:29:07.001Z</time></trkpt><trkpt lat="41.98495950910187" lon="12.852280488846258"><ele>259.0</ele><time>2026-04-04T09:29:08.001Z</time></trkpt><trkpt lat="41.98464492279611" lon="12.852632216140451"><ele>256.5</ele><time>2026-04-04T09:29:09.001Z</time></trkpt><trkpt lat="41.984355654559714" lon="12.85296239100468"><ele>254.0</ele><time>2026-04-04T09:29:10.001Z</time></trkpt><trkpt lat="41.984119318401525" lon="12.853248548767038"><ele>254.5</ele><time>2026-04-04T09:29:11.001Z</time></trkpt><trkpt lat="41.98390710233736" lon="12.853578514857634"><ele>255.0</ele><time>2026-04-04T09:29:12.001Z</time></trkpt><trkpt lat="41.9838341501834" lon="12.853868480018319"><ele>255.0</ele><time>2026-04-04T09:29:13.001Z</time></trkpt><trkpt lat="41.983836470758646" lon="12.854195240680303"><ele>255.0</ele><time>2026-04-04T09:29:14.001Z</time></trkpt><trkpt lat="41.983828687417336" lon="12.85464512515335"><ele>256.5</ele><time>2026-04-04T09:29:15.001Z</time></trkpt><trkpt lat="41.98379652761793" lon="12.8550764620099"><ele>258.0</ele><time>2026-04-04T09:29:16.001Z</time></trkpt><trkpt lat="41.98375027305275" lon="12.855416269794285"><ele>257.75</ele><time>2026-04-04T09:29:17.001Z</time></trkpt><trkpt lat="41.9837655754996" lon="12.855631109020187"><ele>257.5</ele><time>2026-04-04T09:29:18.001Z</time></trkpt><trkpt lat="41.98379351525397" lon="12.855831018401746"><ele>257.25</ele><time>2026-04-04T09:29:19.001Z</time></trkpt><trkpt lat="41.983822485485824" lon="12.855956617710326"><ele>257.0</ele><time>2026-04-04T09:29:20.001Z</time></trkpt><trkpt lat="41.98390237931782" lon="12.856104813864166"><ele>257.0</ele><time>2026-04-04T09:29:21.001Z</time></trkpt><trkpt lat="41.98400979866454" lon="12.856260657613209"><ele>257.0</ele><time>2026-04-04T09:29:22.001Z</time></trkpt><trkpt lat="41.98417063059629" lon="12.856459727049563"><ele>257.0</ele><time>2026-04-04T09:29:23.001Z</time></trkpt><trkpt lat="41.9843736662322" lon="12.856644136964716"><ele>257.5</ele><time>2026-04-04T09:29:24.001Z</time></trkpt><trkpt lat="41.98462198255868" lon="12.856884382857299"><ele>258.0</ele><time>2026-04-04T09:29:25.001Z</time></trkpt><trkpt lat="41.98490962263837" lon="12.857188654580368"><ele>260.0</ele><time>2026-04-04T09:29:26.001Z</time></trkpt><trkpt lat="41.98519311660502" lon="12.857477972422908"><ele>262.0</ele><time>2026-04-04T09:29:27.001Z</time></trkpt><trkpt lat="41.9855594672585" lon="12.857859325654838"><ele>269.5</ele><time>2026-04-04T09:29:28.001Z</time></trkpt><trkpt lat="41.9858453954788" lon="12.858198390618945"><ele>277.0</ele><time>2026-04-04T09:29:29.001Z</time></trkpt><trkpt lat="41.98604773619962" lon="12.858503442434774"><ele>277.0</ele><time>2026-04-04T09:29:30.001Z</time></trkpt><trkpt lat="41.98623149410446" lon="12.858842065776045"><ele>277.0</ele><time>2026-04-04T09:29:31.001Z</time></trkpt><trkpt lat="41.98635231675742" lon="12.859200278844995"><ele>271.5</ele><time>2026-04-04T09:29:32.001Z</time></trkpt><trkpt lat="41.986503614815305" lon="12.859588851660217"><ele>266.0</ele><time>2026-04-04T09:29:33.001Z</time></trkpt><trkpt lat="41.986652559388" lon="12.859996644933977"><ele>274.0</ele><time>2026-04-04T09:29:34.001Z</time></trkpt><trkpt lat="41.98668994481954" lon="12.860418772551684"><ele>282.0</ele><time>2026-04-04T09:29:35.001Z</time></trkpt><trkpt lat="41.98668577930899" lon="12.860862931662481"><ele>279.5</ele><time>2026-04-04T09:29:36.001Z</time></trkpt><trkpt lat="41.98659699437667" lon="12.861292525328686"><ele>277.0</ele><time>2026-04-04T09:29:37.001Z</time></trkpt><trkpt lat="41.98643909914999" lon="12.861670634118832"><ele>278.5</ele><time>2026-04-04T09:29:38.001Z</time></trkpt><trkpt lat="41.98626951707435" lon="12.861964531692626"><ele>280.0</ele><time>2026-04-04T09:29:39.001Z</time></trkpt><trkpt lat="41.986191564203395" lon="12.86220968552757"><ele>280.0</ele><time>2026-04-04T09:29:40.001Z</time></trkpt><trkpt lat="41.986199200395646" lon="12.862543261099253"><ele>280.0</ele><time>2026-04-04T09:29:41.001Z</time></trkpt><trkpt lat="41.98628481917809" lon="12.862807309020333"><ele>272.5</ele><time>2026-04-04T09:29:42.001Z</time></trkpt><trkpt lat="41.98643464663921" lon="12.863003789547923"><ele>265.0</ele><time>2026-04-04T09:29:43.001Z</time></trkpt><trkpt lat="41.98664992580029" lon="12.863157983753958"><ele>272.5</ele><time>2026-04-04T09:29:44.001Z</time></trkpt><trkpt lat="41.98692194397728" lon="12.863235990526112"><ele>280.0</ele><time>2026-04-04T09:29:45.001Z</time></trkpt><trkpt lat="41.9872053233063" lon="12.863265062439366"><ele>287.0</ele><time>2026-04-04T09:29:46.001Z</time></trkpt><trkpt lat="41.987575537986764" lon="12.863293146139455"><ele>294.0</ele><time>2026-04-04T09:29:47.001Z</time></trkpt><trkpt lat="41.98783122259843" lon="12.86337992307395"><ele>283.5</ele><time>2026-04-04T09:29:48.001Z</time></trkpt><trkpt lat="41.988062035150584" lon="12.863598760438043"><ele>273.0</ele><time>2026-04-04T09:29:49.001Z</time></trkpt><trkpt lat="41.98829654906337" lon="12.86387639532288"><ele>277.5</ele><time>2026-04-04T09:29:50.001Z</time></trkpt><trkpt lat="41.98861510446608" lon="12.864193619128663"><ele>282.0</ele><time>2026-04-04T09:29:51.001Z</time></trkpt><trkpt lat="41.988870482212796" lon="12.86449276859565"><ele>282.0</ele><time>2026-04-04T09:29:52.001Z</time></trkpt><trkpt lat="41.989068583718556" lon="12.864811138970527"><ele>282.0</ele><time>2026-04-04T09:29:53.001Z</time></trkpt><trkpt lat="41.98919128395639" lon="12.86524030352133"><ele>286.0</ele><time>2026-04-04T09:29:54.001Z</time></trkpt><trkpt lat="41.98931502644778" lon="12.865723844410228"><ele>290.0</ele><time>2026-04-04T09:29:55.001Z</time></trkpt><trkpt lat="41.98946279882861" lon="12.866074028172376"><ele>280.5</ele><time>2026-04-04T09:29:56.001Z</time></trkpt><trkpt lat="41.98967868988824" lon="12.86639627332552"><ele>271.0</ele><time>2026-04-04T09:29:57.001Z</time></trkpt><trkpt lat="41.989933848188166" lon="12.866660685442692"><ele>266.0</ele><time>2026-04-04T09:29:58.001Z</time></trkpt><trkpt lat="41.990242630593215" lon="12.86690769100618"><ele>261.0</ele><time>2026-04-04T09:29:59.001Z</time></trkpt><trkpt lat="41.990526502183954" lon="12.867075993688438"><ele>262.0</ele><time>2026-04-04T09:30:00.001Z</time></trkpt><trkpt lat="41.99089225539629" lon="12.86715515168438"><ele>263.0</ele><time>2026-04-04T09:30:01.001Z</time></trkpt><trkpt lat="41.99125725715738" lon="12.867261727656393"><ele>274.0</ele><time>2026-04-04T09:30:02.001Z</time></trkpt><trkpt lat="41.991692740667084" lon="12.8674730576126"><ele>264.0</ele><time>2026-04-04T09:30:03.001Z</time></trkpt><trkpt lat="41.9921209965417" lon="12.867738135244414"><ele>264.0</ele><time>2026-04-04T09:30:04.001Z</time></trkpt><trkpt lat="41.99248098788044" lon="12.867986951804282"><ele>264.0</ele><time>2026-04-04T09:30:05.001Z</time></trkpt><trkpt lat="41.992776597429085" lon="12.868191213365261"><ele>264.5</ele><time>2026-04-04T09:30:06.001Z</time></trkpt><trkpt lat="41.99304353947799" lon="12.868396222329032"><ele>265.0</ele><time>2026-04-04T09:30:07.001Z</time></trkpt><trkpt lat="41.993263704373206" lon="12.868615690138927"><ele>268.5</ele><time>2026-04-04T09:30:08.001Z</time></trkpt><trkpt lat="41.99349780038339" lon="12.868854232919201"><ele>272.0</ele><time>2026-04-04T09:30:09.001Z</time></trkpt><trkpt lat="41.993675476984464" lon="12.869049458293253"><ele>270.0</ele><time>2026-04-04T09:30:10.001Z</time></trkpt><trkpt lat="41.99382631227755" lon="12.869315397449123"><ele>268.0</ele><time>2026-04-04T09:30:11.001Z</time></trkpt><trkpt lat="41.9939722633271" lon="12.869664595097358"><ele>268.0</ele><time>2026-04-04T09:30:12.001Z</time></trkpt><trkpt lat="41.994093562969454" lon="12.870030885095808"><ele>268.0</ele><time>2026-04-04T09:30:13.001Z</time></trkpt><trkpt lat="41.99419019024521" lon="12.87039862240594"><ele>276.0</ele><time>2026-04-04T09:30:14.001Z</time></trkpt><trkpt lat="41.99423786190646" lon="12.870758933191935"><ele>284.0</ele><time>2026-04-04T09:30:15.001Z</time></trkpt><trkpt lat="41.99422192717569" lon="12.871156416900009"><ele>279.0</ele><time>2026-04-04T09:30:16.001Z</time></trkpt><trkpt lat="41.99416340980924" lon="12.87157879317675"><ele>274.0</ele><time>2026-04-04T09:30:17.001Z</time></trkpt><trkpt lat="41.99410333893005" lon="12.871951053190548"><ele>270.5</ele><time>2026-04-04T09:30:18.001Z</time></trkpt><trkpt lat="41.994124852681196" lon="12.872284330851393"><ele>267.0</ele><time>2026-04-04T09:30:19.001Z</time></trkpt><trkpt lat="41.99423626356798" lon="12.872589628484624"><ele>271.5</ele><time>2026-04-04T09:30:20.001Z</time></trkpt><trkpt lat="41.99442425049277" lon="12.872949879725123"><ele>276.0</ele><time>2026-04-04T09:30:21.001Z</time></trkpt><trkpt lat="41.99458679003748" lon="12.873290314320718"><ele>272.0</ele><time>2026-04-04T09:30:22.001Z</time></trkpt><trkpt lat="41.9947881801524" lon="12.873548671855234"><ele>268.0</ele><time>2026-04-04T09:30:23.001Z</time></trkpt><trkpt lat="41.99502812017555" lon="12.873684154994155"><ele>268.0</ele><time>2026-04-04T09:30:24.001Z</time></trkpt><trkpt lat="41.99530824330611" lon="12.873783890209639"><ele>268.0</ele><time>2026-04-04T09:30:25.001Z</time></trkpt><trkpt lat="41.99557294276203" lon="12.873865903280404"><ele>268.0</ele><time>2026-04-04T09:30:26.001Z</time></trkpt><trkpt lat="41.995765707767376" lon="12.874055059875072"><ele>268.0</ele><time>2026-04-04T09:30:27.001Z</time></trkpt><trkpt lat="41.995944952312165" lon="12.874332129331005"><ele>269.5</ele><time>2026-04-04T09:30:28.001Z</time></trkpt><trkpt lat="41.99612334242985" lon="12.874589311981822"><ele>271.0</ele><time>2026-04-04T09:30:29.001Z</time></trkpt><trkpt lat="41.99646747032678" lon="12.875041171376937"><ele>269.0</ele><time>2026-04-04T09:30:30.001Z</time></trkpt><trkpt lat="41.99678820114628" lon="12.875375506431942"><ele>267.0</ele><time>2026-04-04T09:30:31.001Z</time></trkpt><trkpt lat="41.997056394222035" lon="12.875660279361421"><ele>267.0</ele><time>2026-04-04T09:30:32.001Z</time></trkpt><trkpt lat="41.99732851224134" lon="12.87593157037098"><ele>267.0</ele><time>2026-04-04T09:30:33.001Z</time></trkpt><trkpt lat="41.99757863753452" lon="12.876153535171312"><ele>265.0</ele><time>2026-04-04T09:30:34.001Z</time></trkpt><trkpt lat="41.99781186338053" lon="12.876328989297951"><ele>263.0</ele><time>2026-04-04T09:30:35.001Z</time></trkpt><trkpt lat="41.99804327843117" lon="12.876435209780226"><ele>268.0</ele><time>2026-04-04T09:30:36.001Z</time></trkpt><trkpt lat="41.998351453568624" lon="12.876580909733832"><ele>273.0</ele><time>2026-04-04T09:30:37.001Z</time></trkpt><trkpt lat="41.99866759438693" lon="12.876727060206806"><ele>268.0</ele><time>2026-04-04T09:30:38.001Z</time></trkpt><trkpt lat="41.99899548411567" lon="12.876892388399797"><ele>263.0</ele><time>2026-04-04T09:30:39.001Z</time></trkpt><trkpt lat="41.999257389233826" lon="12.877022831129892"><ele>263.0</ele><time>2026-04-04T09:30:40.001Z</time></trkpt><trkpt lat="41.99953240398659" lon="12.877065204967229"><ele>263.0</ele><time>2026-04-04T09:30:41.001Z</time></trkpt><trkpt lat="41.99982748688666" lon="12.877124899167715"><ele>263.0</ele><time>2026-04-04T09:30:42.001Z</time></trkpt><trkpt lat="42.00010500403027" lon="12.87717226244832"><ele>263.0</ele><time>2026-04-04T09:30:43.001Z</time></trkpt><trkpt lat="42.000330462885145" lon="12.877184146645883"><ele>263.0</ele><time>2026-04-04T09:30:44.001Z</time></trkpt><trkpt lat="42.00057453342513" lon="12.877184475315838"><ele>263.0</ele><time>2026-04-04T09:30:45.001Z</time></trkpt><trkpt lat="42.000793512961856" lon="12.877192167015663"><ele>263.0</ele><time>2026-04-04T09:30:46.001Z</time></trkpt><trkpt lat="42.00103593642018" lon="12.877150422147382"><ele>263.0</ele><time>2026-04-04T09:30:47.001Z</time></trkpt><trkpt lat="42.00125495475579" lon="12.877084367785708"><ele>263.0</ele><time>2026-04-04T09:30:48.001Z</time></trkpt><trkpt lat="42.00147916503957" lon="12.877080696634044"><ele>263.0</ele><time>2026-04-04T09:30:49.001Z</time></trkpt><trkpt lat="42.00167638474938" lon="12.87709782756477"><ele>263.0</ele><time>2026-04-04T09:30:50.001Z</time></trkpt><trkpt lat="42.00185722095638" lon="12.877137025071368"><ele>262.33333333333337</ele><time>2026-04-04T09:30:51.001Z</time></trkpt><trkpt lat="42.00201584655902" lon="12.877134971548738"><ele>261.6666666666667</ele><time>2026-04-04T09:30:52.001Z</time></trkpt><trkpt lat="42.00220347780017" lon="12.877127653759592"><ele>261.0</ele><time>2026-04-04T09:30:53.001Z</time></trkpt><trkpt lat="42.00240061299979" lon="12.87708158577816"><ele>261.0</ele><time>2026-04-04T09:30:54.001Z</time></trkpt><trkpt lat="42.00256466369885" lon="12.87697468341028"><ele>261.0</ele><time>2026-04-04T09:30:55.001Z</time></trkpt><trkpt lat="42.002706569513066" lon="12.876864673255252"><ele>261.0</ele><time>2026-04-04T09:30:56.001Z</time></trkpt><trkpt lat="42.00284849610588" lon="12.876763671788579"><ele>261.0</ele><time>2026-04-04T09:30:57.001Z</time></trkpt><trkpt lat="42.003150807455874" lon="12.876585143399282"><ele>261.0</ele><time>2026-04-04T09:30:59.001Z</time></trkpt><trkpt lat="42.00331154672767" lon="12.876545073310256"><ele>263.0</ele><time>2026-04-04T09:31:00.001Z</time></trkpt><trkpt lat="42.00347126165485" lon="12.876564643224652"><ele>265.0</ele><time>2026-04-04T09:31:01.001Z</time></trkpt><trkpt lat="42.00362280020615" lon="12.876620460396277"><ele>267.0</ele><time>2026-04-04T09:31:02.001Z</time></trkpt><trkpt lat="42.003775822566624" lon="12.876697704089127"><ele>266.8</ele><time>2026-04-04T09:31:03.001Z</time></trkpt><trkpt lat="42.00390199721933" lon="12.876800161684502"><ele>266.6</ele><time>2026-04-04T09:31:04.001Z</time></trkpt><trkpt lat="42.003994513064654" lon="12.876881673807393"><ele>266.40000000000003</ele><time>2026-04-04T09:31:05.001Z</time></trkpt><trkpt lat="42.00404792414894" lon="12.876930763606888"><ele>266.2</ele><time>2026-04-04T09:31:06.001Z</time></trkpt><trkpt lat="42.004126604104606" lon="12.876968728780087"><ele>266.0</ele><time>2026-04-04T09:31:29.001Z</time></trkpt><trkpt lat="42.00430264271659" lon="12.87703732585796"><ele>266.0</ele><time>2026-04-04T09:31:30.001Z</time></trkpt><trkpt lat="42.00453431461935" lon="12.877104184747196"><ele>266.0</ele><time>2026-04-04T09:31:31.001Z</time></trkpt><trkpt lat="42.00475358452034" lon="12.877122510369109"><ele>266.0</ele><time>2026-04-04T09:31:32.001Z</time></trkpt><trkpt lat="42.00492527599966" lon="12.877107827670102"><ele>266.0</ele><time>2026-04-04T09:31:33.001Z</time></trkpt><trkpt lat="42.005070635362664" lon="12.877092631707415"><ele>266.0</ele><time>2026-04-04T09:31:34.001Z</time></trkpt><trkpt lat="42.005201394571024" lon="12.877094943324321"><ele>266.0</ele><time>2026-04-04T09:31:35.001Z</time></trkpt><trkpt lat="42.00530968118037" lon="12.877154138635"><ele>265.6666666666667</ele><time>2026-04-04T09:31:36.001Z</time></trkpt><trkpt lat="42.00540072608003" lon="12.877270859621875"><ele>265.3333333333333</ele><time>2026-04-04T09:31:37.001Z</time></trkpt><trkpt lat="42.00543633857452" lon="12.877461574311317"><ele>265.0</ele><time>2026-04-04T09:31:38.001Z</time></trkpt><trkpt lat="42.00546082407095" lon="12.877700743331175"><ele>265.0</ele><time>2026-04-04T09:31:39.001Z</time></trkpt><trkpt lat="42.005545455672284" lon="12.878074426575852"><ele>265.0</ele><time>2026-04-04T09:31:40.001Z</time></trkpt><trkpt lat="42.005653077696074" lon="12.878445092533523"><ele>264.5</ele><time>2026-04-04T09:31:41.001Z</time></trkpt><trkpt lat="42.005816124441466" lon="12.878799032874998"><ele>264.0</ele><time>2026-04-04T09:31:42.001Z</time></trkpt><trkpt lat="42.006006090475935" lon="12.87927495479644"><ele>264.0</ele><time>2026-04-04T09:31:43.001Z</time></trkpt><trkpt lat="42.00612030677409" lon="12.879755492388254"><ele>264.0</ele><time>2026-04-04T09:31:44.001Z</time></trkpt><trkpt lat="42.00619004475816" lon="12.880144976459649"><ele>263.5</ele><time>2026-04-04T09:31:45.001Z</time></trkpt><trkpt lat="42.00628134936073" lon="12.880532665104619"><ele>263.0</ele><time>2026-04-04T09:31:46.001Z</time></trkpt><trkpt lat="42.00645307152059" lon="12.880837696643987"><ele>263.0</ele><time>2026-04-04T09:31:47.001Z</time></trkpt><trkpt lat="42.00669137637866" lon="12.88112835203098"><ele>263.0</ele><time>2026-04-04T09:31:48.001Z</time></trkpt><trkpt lat="42.00702584032558" lon="12.881491402169159"><ele>263.0</ele><time>2026-04-04T09:31:49.001Z</time></trkpt><trkpt lat="42.00731474122784" lon="12.881762018349159"><ele>263.0</ele><time>2026-04-04T09:31:50.001Z</time></trkpt><trkpt lat="42.00758211186122" lon="12.881871848857605"><ele>263.0</ele><time>2026-04-04T09:31:51.001Z</time></trkpt><trkpt lat="42.00784218374474" lon="12.88188863414498"><ele>263.0</ele><time>2026-04-04T09:31:52.001Z</time></trkpt><trkpt lat="42.00816079600885" lon="12.881888573000449"><ele>263.0</ele><time>2026-04-04T09:31:53.001Z</time></trkpt><trkpt lat="42.00846673004722" lon="12.881955823329283"><ele>263.0</ele><time>2026-04-04T09:31:54.001Z</time></trkpt><trkpt lat="42.00870274119601" lon="12.882056219421894"><ele>263.0</ele><time>2026-04-04T09:31:55.001Z</time></trkpt><trkpt lat="42.00888934656137" lon="12.882193867163643"><ele>263.0</ele><time>2026-04-04T09:31:56.001Z</time></trkpt><trkpt lat="42.00907899276425" lon="12.882362770791584"><ele>263.0</ele><time>2026-04-04T09:31:57.001Z</time></trkpt><trkpt lat="42.00929509062546" lon="12.882564190080839"><ele>264.0</ele><time>2026-04-04T09:31:58.001Z</time></trkpt><trkpt lat="42.009490154753784" lon="12.882746148711485"><ele>265.0</ele><time>2026-04-04T09:31:59.001Z</time></trkpt><trkpt lat="42.00966058361644" lon="12.882952952696707"><ele>265.0</ele><time>2026-04-04T09:32:00.001Z</time></trkpt><trkpt lat="42.009833927947355" lon="12.883161736583924"><ele>265.0</ele><time>2026-04-04T09:32:01.001Z</time></trkpt><trkpt lat="42.010007847051575" lon="12.883350662624366"><ele>265.0</ele><time>2026-04-04T09:32:02.001Z</time></trkpt><trkpt lat="42.01020443781978" lon="12.883564827379953"><ele>265.0</ele><time>2026-04-04T09:32:03.001Z</time></trkpt><trkpt lat="42.010408356543856" lon="12.883870101287291"><ele>265.0</ele><time>2026-04-04T09:32:04.001Z</time></trkpt><trkpt lat="42.010637050555246" lon="12.884233188921174"><ele>265.0</ele><time>2026-04-04T09:32:05.001Z</time></trkpt><trkpt lat="42.01088032300856" lon="12.884624347866298"><ele>265.5</ele><time>2026-04-04T09:32:06.001Z</time></trkpt><trkpt lat="42.01110141849631" lon="12.884984885693429"><ele>266.0</ele><time>2026-04-04T09:32:07.001Z</time></trkpt><trkpt lat="42.01129359083927" lon="12.885342537662446"><ele>266.0</ele><time>2026-04-04T09:32:08.001Z</time></trkpt><trkpt lat="42.011422786708515" lon="12.885705763474618"><ele>266.0</ele><time>2026-04-04T09:32:09.001Z</time></trkpt><trkpt lat="42.01155743069049" lon="12.886093408345852"><ele>271.0</ele><time>2026-04-04T09:32:10.001Z</time></trkpt><trkpt lat="42.01165770180209" lon="12.8864427080701"><ele>276.0</ele><time>2026-04-04T09:32:11.001Z</time></trkpt><trkpt lat="42.011761707679284" lon="12.886752570506902"><ele>273.0</ele><time>2026-04-04T09:32:12.001Z</time></trkpt><trkpt lat="42.011856975404996" lon="12.887045648278251"><ele>270.0</ele><time>2026-04-04T09:32:13.001Z</time></trkpt><trkpt lat="42.01200337437831" lon="12.88731963748048"><ele>269.5</ele><time>2026-04-04T09:32:14.001Z</time></trkpt><trkpt lat="42.01217694287481" lon="12.887630173413692"><ele>269.0</ele><time>2026-04-04T09:32:15.001Z</time></trkpt><trkpt lat="42.01230104499057" lon="12.887947683934772"><ele>269.0</ele><time>2026-04-04T09:32:16.001Z</time></trkpt><trkpt lat="42.01242718319982" lon="12.88823692085481"><ele>269.0</ele><time>2026-04-04T09:32:17.001Z</time></trkpt><trkpt lat="42.01255320840042" lon="12.888514317566576"><ele>269.33333333333337</ele><time>2026-04-04T09:32:18.001Z</time></trkpt><trkpt lat="42.01266823611309" lon="12.888762483509971"><ele>269.6666666666667</ele><time>2026-04-04T09:32:19.001Z</time></trkpt><trkpt lat="42.01279252659762" lon="12.888977275396348"><ele>270.0</ele><time>2026-04-04T09:32:20.001Z</time></trkpt><trkpt lat="42.01294468455686" lon="12.889171104227676"><ele>269.3333333333333</ele><time>2026-04-04T09:32:21.001Z</time></trkpt><trkpt lat="42.013115412518836" lon="12.88934963044744"><ele>268.66666666666663</ele><time>2026-04-04T09:32:22.001Z</time></trkpt><trkpt lat="42.013262419631765" lon="12.889499472066696"><ele>268.0</ele><time>2026-04-04T09:32:23.001Z</time></trkpt><trkpt lat="42.013371748142916" lon="12.889669695972309"><ele>270.0</ele><time>2026-04-04T09:32:24.001Z</time></trkpt><trkpt lat="42.01341562174776" lon="12.889899122352412"><ele>272.0</ele><time>2026-04-04T09:32:25.001Z</time></trkpt><trkpt lat="42.013441958567554" lon="12.890178580691199"><ele>274.0</ele><time>2026-04-04T09:32:26.001Z</time></trkpt><trkpt lat="42.01347251133257" lon="12.890505513177288"><ele>279.0</ele><time>2026-04-04T09:32:27.001Z</time></trkpt><trkpt lat="42.01344593106054" lon="12.890814563369068"><ele>284.0</ele><time>2026-04-04T09:32:28.001Z</time></trkpt><trkpt lat="42.01341683531054" lon="12.891124979518594"><ele>285.5</ele><time>2026-04-04T09:32:29.001Z</time></trkpt><trkpt lat="42.01336326168538" lon="12.891463235071589"><ele>287.0</ele><time>2026-04-04T09:32:30.001Z</time></trkpt><trkpt lat="42.01333904899537" lon="12.891798974412271"><ele>287.0</ele><time>2026-04-04T09:32:31.001Z</time></trkpt><trkpt lat="42.01334850936574" lon="12.892105615729553"><ele>287.0</ele><time>2026-04-04T09:32:32.001Z</time></trkpt><trkpt lat="42.013400049172006" lon="12.892352596952787"><ele>287.0</ele><time>2026-04-04T09:32:33.001Z</time></trkpt><trkpt lat="42.01347258713624" lon="12.89252504989894"><ele>283.5</ele><time>2026-04-04T09:32:34.001Z</time></trkpt><trkpt lat="42.01358665722318" lon="12.892647081007368"><ele>280.0</ele><time>2026-04-04T09:32:35.001Z</time></trkpt><trkpt lat="42.01368173363863" lon="12.89270401917473"><ele>276.5</ele><time>2026-04-04T09:32:36.001Z</time></trkpt><trkpt lat="42.013741502833135" lon="12.892733264619306"><ele>273.0</ele><time>2026-04-04T09:32:37.001Z</time></trkpt><trkpt lat="42.013886669688816" lon="12.89272843973751"><ele>273.0</ele><time>2026-04-04T09:32:39.001Z</time></trkpt><trkpt lat="42.014051321192575" lon="12.892729031413468"><ele>273.0</ele><time>2026-04-04T09:32:40.001Z</time></trkpt><trkpt lat="42.01424386855889" lon="12.892765633162396"><ele>273.0</ele><time>2026-04-04T09:32:41.001Z</time></trkpt><trkpt lat="42.01443700263596" lon="12.892817714755155"><ele>275.3333333333333</ele><time>2026-04-04T09:32:42.001Z</time></trkpt><trkpt lat="42.01463599540748" lon="12.892878073727728"><ele>277.66666666666663</ele><time>2026-04-04T09:32:43.001Z</time></trkpt><trkpt lat="42.014817390454525" lon="12.89296383187571"><ele>280.0</ele><time>2026-04-04T09:32:44.001Z</time></trkpt><trkpt lat="42.01497733794422" lon="12.893075620545915"><ele>279.66666666666663</ele><time>2026-04-04T09:32:45.001Z</time></trkpt><trkpt lat="42.01513403976352" lon="12.89323336070153"><ele>279.3333333333333</ele><time>2026-04-04T09:32:46.001Z</time></trkpt><trkpt lat="42.015296409172194" lon="12.893430747814554"><ele>279.0</ele><time>2026-04-04T09:32:47.001Z</time></trkpt><trkpt lat="42.01544062754128" lon="12.893685295085191"><ele>279.0</ele><time>2026-04-04T09:32:48.001Z</time></trkpt><trkpt lat="42.01557377596353" lon="12.893979594029531"><ele>279.0</ele><time>2026-04-04T09:32:49.001Z</time></trkpt><trkpt lat="42.01569476330038" lon="12.894265507521668"><ele>275.0</ele><time>2026-04-04T09:32:50.001Z</time></trkpt><trkpt lat="42.015813761155414" lon="12.894532847742191"><ele>271.0</ele><time>2026-04-04T09:32:51.001Z</time></trkpt><trkpt lat="42.015929484266664" lon="12.894790502394066"><ele>279.3333333333333</ele><time>2026-04-04T09:32:52.001Z</time></trkpt><trkpt lat="42.01602343506875" lon="12.895035742082438"><ele>287.6666666666667</ele><time>2026-04-04T09:32:53.001Z</time></trkpt><trkpt lat="42.01608141195836" lon="12.895285431462995"><ele>296.0</ele><time>2026-04-04T09:32:54.001Z</time></trkpt><trkpt lat="42.01610933129173" lon="12.895492773109154"><ele>296.0</ele><time>2026-04-04T09:32:55.001Z</time></trkpt><trkpt lat="42.01611946772617" lon="12.895631316227071"><ele>296.0</ele><time>2026-04-04T09:32:56.001Z</time></trkpt><trkpt lat="42.01612156286644" lon="12.895729498694132"><ele>296.0</ele><time>2026-04-04T09:32:57.001Z</time></trkpt><trkpt lat="42.01612502221508" lon="12.895865153660806"><ele>296.0</ele><time>2026-04-04T09:32:59.001Z</time></trkpt><trkpt lat="42.0161272827092" lon="12.89597698631141"><ele>296.0</ele><time>2026-04-04T09:33:01.001Z</time></trkpt><trkpt lat="42.016127203745626" lon="12.896120541344587"><ele>295.6666666666667</ele><time>2026-04-04T09:33:02.001Z</time></trkpt><trkpt lat="42.01611386504646" lon="12.896299936162082"><ele>295.3333333333333</ele><time>2026-04-04T09:33:03.001Z</time></trkpt><trkpt lat="42.01611283525511" lon="12.896552665894845"><ele>295.0</ele><time>2026-04-04T09:33:04.001Z</time></trkpt><trkpt lat="42.016141864207604" lon="12.896826902287705"><ele>295.0</ele><time>2026-04-04T09:33:05.001Z</time></trkpt><trkpt lat="42.01617370853992" lon="12.897127674678854"><ele>295.0</ele><time>2026-04-04T09:33:06.001Z</time></trkpt><trkpt lat="42.01620436874951" lon="12.89743262610584"><ele>293.0</ele><time>2026-04-04T09:33:07.001Z</time></trkpt><trkpt lat="42.01623346657474" lon="12.897753984280866"><ele>291.0</ele><time>2026-04-04T09:33:08.001Z</time></trkpt><trkpt lat="42.01626198185504" lon="12.898086557996214"><ele>291.0</ele><time>2026-04-04T09:33:09.001Z</time></trkpt><trkpt lat="42.01628355505198" lon="12.89838331355476"><ele>291.0</ele><time>2026-04-04T09:33:10.001Z</time></trkpt><trkpt lat="42.01630926525274" lon="12.898646094804098"><ele>291.0</ele><time>2026-04-04T09:33:11.001Z</time></trkpt><trkpt lat="42.01635636059533" lon="12.898899032559235"><ele>290.6666666666667</ele><time>2026-04-04T09:33:12.001Z</time></trkpt><trkpt lat="42.01645268565154" lon="12.899112726681809"><ele>290.33333333333337</ele><time>2026-04-04T09:33:13.001Z</time></trkpt><trkpt lat="42.016612958634646" lon="12.899267132122521"><ele>290.0</ele><time>2026-04-04T09:33:14.001Z</time></trkpt><trkpt lat="42.01681255886623" lon="12.899334128397802"><ele>290.0</ele><time>2026-04-04T09:33:15.001Z</time></trkpt><trkpt lat="42.017050630515115" lon="12.899325328161842"><ele>290.0</ele><time>2026-04-04T09:33:16.001Z</time></trkpt><trkpt lat="42.017346090015295" lon="12.89925509980263"><ele>300.5</ele><time>2026-04-04T09:33:17.001Z</time></trkpt><trkpt lat="42.01767537133409" lon="12.89917939316104"><ele>311.0</ele><time>2026-04-04T09:33:18.001Z</time></trkpt><trkpt lat="42.01803752573389" lon="12.899143372844527"><ele>311.5</ele><time>2026-04-04T09:33:19.001Z</time></trkpt><trkpt lat="42.01843363795296" lon="12.899101672011172"><ele>312.0</ele><time>2026-04-04T09:33:20.001Z</time></trkpt><trkpt lat="42.018814999916344" lon="12.899059616725472"><ele>312.0</ele><time>2026-04-04T09:33:21.001Z</time></trkpt><trkpt lat="42.01914151125472" lon="12.899028268377057"><ele>312.0</ele><time>2026-04-04T09:33:22.001Z</time></trkpt><trkpt lat="42.01941317393912" lon="12.899003103797714"><ele>311.6666666666667</ele><time>2026-04-04T09:33:23.001Z</time></trkpt><trkpt lat="42.01963990458642" lon="12.898979678482076"><ele>311.33333333333337</ele><time>2026-04-04T09:33:24.001Z</time></trkpt><trkpt lat="42.01982413836871" lon="12.898962195231762"><ele>311.0</ele><time>2026-04-04T09:33:25.001Z</time></trkpt><trkpt lat="42.01995476678144" lon="12.898958761090892"><ele>312.2</ele><time>2026-04-04T09:33:26Z</time></trkpt><trkpt lat="42.020044568902534" lon="12.899008835787804"><ele>313.40000000000003</ele><time>2026-04-04T09:33:27Z</time></trkpt><trkpt lat="42.02008241393324" lon="12.899147682404438"><ele>314.6</ele><time>2026-04-04T09:33:28Z</time></trkpt><trkpt lat="42.02004430113929" lon="12.89928751872658"><ele>315.8</ele><time>2026-04-04T09:33:29Z</time></trkpt><trkpt lat="42.01994052667976" lon="12.899389473485357"><ele>317.0</ele><time>2026-04-04T09:33:30Z</time></trkpt><trkpt lat="42.01977247941247" lon="12.899474098785383"><ele>317.5</ele><time>2026-04-04T09:33:31Z</time></trkpt><trkpt lat="42.019545589125755" lon="12.899558429594212"><ele>318.0</ele><time>2026-04-04T09:33:32Z</time></trkpt><trkpt lat="42.019329405546955" lon="12.899632697639433"><ele>313.6666666666667</ele><time>2026-04-04T09:33:33Z</time></trkpt><trkpt lat="42.019148172093075" lon="12.899727355433805"><ele>309.33333333333337</ele><time>2026-04-04T09:33:34Z</time></trkpt><trkpt lat="42.01901602657273" lon="12.899879171177336"><ele>305.0</ele><time>2026-04-04T09:33:35Z</time></trkpt><trkpt lat="42.01894794234524" lon="12.900065330642255"><ele>309.6666666666667</ele><time>2026-04-04T09:33:36Z</time></trkpt><trkpt lat="42.01891457699529" lon="12.900268148615282"><ele>314.3333333333333</ele><time>2026-04-04T09:33:37Z</time></trkpt><trkpt lat="42.01883438383181" lon="12.900543580701875"><ele>319.0</ele><time>2026-04-04T09:33:38Z</time></trkpt><trkpt lat="42.018704557160085" lon="12.900853510320516"><ele>316.0</ele><time>2026-04-04T09:33:39Z</time></trkpt><trkpt lat="42.01854201627432" lon="12.901029380150034"><ele>313.0</ele><time>2026-04-04T09:33:40Z</time></trkpt><trkpt lat="42.018370343686314" lon="12.901086659491774"><ele>310.0</ele><time>2026-04-04T09:33:41Z</time></trkpt><trkpt lat="42.01815227049266" lon="12.901122171521438"><ele>310.0</ele><time>2026-04-04T09:33:42Z</time></trkpt><trkpt lat="42.01792389126745" lon="12.901138209541042"><ele>310.0</ele><time>2026-04-04T09:33:43Z</time></trkpt><trkpt lat="42.01776673100157" lon="12.901177465720332"><ele>310.0</ele><time>2026-04-04T09:33:44Z</time></trkpt><trkpt lat="42.01766812127072" lon="12.901295997829182"><ele>310.0</ele><time>2026-04-04T09:33:45Z</time></trkpt><trkpt lat="42.01762736048994" lon="12.901476701786638"><ele>310.0</ele><time>2026-04-04T09:33:46Z</time></trkpt><trkpt lat="42.017672118928076" lon="12.901691223395776"><ele>310.0</ele><time>2026-04-04T09:33:47Z</time></trkpt><trkpt lat="42.01779467848341" lon="12.901882814315737"><ele>306.5</ele><time>2026-04-04T09:33:48Z</time></trkpt><trkpt lat="42.01799581291527" lon="12.902106500736078"><ele>303.0</ele><time>2026-04-04T09:33:49Z</time></trkpt><trkpt lat="42.01823132477508" lon="12.902363058844026"><ele>308.0</ele><time>2026-04-04T09:33:50Z</time></trkpt><trkpt lat="42.018436277114574" lon="12.902568864338434"><ele>313.0</ele><time>2026-04-04T09:33:51Z</time></trkpt><trkpt lat="42.01861642902325" lon="12.902632616282933"><ele>318.0</ele><time>2026-04-04T09:33:52Z</time></trkpt><trkpt lat="42.01880176522743" lon="12.902615087522642"><ele>323.0</ele><time>2026-04-04T09:33:53Z</time></trkpt><trkpt lat="42.01900939454814" lon="12.902523251200392"><ele>328.0</ele><time>2026-04-04T09:33:54.001Z</time></trkpt><trkpt lat="42.01925205387562" lon="12.902414641855021"><ele>330.0</ele><time>2026-04-04T09:33:55.001Z</time></trkpt><trkpt lat="42.01945558904588" lon="12.902359108797539"><ele>332.0</ele><time>2026-04-04T09:33:56.001Z</time></trkpt><trkpt lat="42.01963818720956" lon="12.902379953901022"><ele>334.0</ele><time>2026-04-04T09:33:57.001Z</time></trkpt><trkpt lat="42.01980458158987" lon="12.902510141265045"><ele>335.66666666666663</ele><time>2026-04-04T09:33:58.001Z</time></trkpt><trkpt lat="42.01996815502322" lon="12.902711682194054"><ele>337.3333333333333</ele><time>2026-04-04T09:33:59.001Z</time></trkpt><trkpt lat="42.020075584623974" lon="12.90291181307974"><ele>339.0</ele><time>2026-04-04T09:34:00.001Z</time></trkpt><trkpt lat="42.020079511335176" lon="12.903148001784672"><ele>339.0</ele><time>2026-04-04T09:34:01.001Z</time></trkpt><trkpt lat="42.02004215078005" lon="12.903375447359247"><ele>339.0</ele><time>2026-04-04T09:34:02.001Z</time></trkpt><trkpt lat="42.01993991314794" lon="12.903565353751318"><ele>339.0</ele><time>2026-04-04T09:34:03.001Z</time></trkpt><trkpt lat="42.01977880350101" lon="12.90378522895009"><ele>340.5</ele><time>2026-04-04T09:34:04.001Z</time></trkpt><trkpt lat="42.01960417118784" lon="12.904023496221393"><ele>342.0</ele><time>2026-04-04T09:34:05.001Z</time></trkpt><trkpt lat="42.01941909387554" lon="12.904316995942674"><ele>342.0</ele><time>2026-04-04T09:34:06.001Z</time></trkpt><trkpt lat="42.019232844390814" lon="12.904594250360079"><ele>342.0</ele><time>2026-04-04T09:34:07.001Z</time></trkpt><trkpt lat="42.019088566105765" lon="12.90487630831262"><ele>339.3333333333333</ele><time>2026-04-04T09:34:08.001Z</time></trkpt><trkpt lat="42.01897083061966" lon="12.905130952755673"><ele>336.66666666666663</ele><time>2026-04-04T09:34:09.001Z</time></trkpt><trkpt lat="42.01887046206098" lon="12.905339287462159"><ele>334.0</ele><time>2026-04-04T09:34:10.001Z</time></trkpt><trkpt lat="42.01877663945369" lon="12.90551859457992"><ele>334.0</ele><time>2026-04-04T09:34:11.001Z</time></trkpt><trkpt lat="42.01868938703955" lon="12.905691359965871"><ele>334.0</ele><time>2026-04-04T09:34:12.001Z</time></trkpt><trkpt lat="42.018607858203396" lon="12.905854656126932"><ele>334.0</ele><time>2026-04-04T09:34:13.001Z</time></trkpt><trkpt lat="42.01852186972739" lon="12.906031816027863"><ele>336.3333333333333</ele><time>2026-04-04T09:34:14.001Z</time></trkpt><trkpt lat="42.01843476543728" lon="12.906217896881666"><ele>338.6666666666667</ele><time>2026-04-04T09:34:15.001Z</time></trkpt><trkpt lat="42.01835008983214" lon="12.906402574410022"><ele>341.0</ele><time>2026-04-04T09:34:16.001Z</time></trkpt><trkpt lat="42.0182477572341" lon="12.906623120751307"><ele>340.33333333333337</ele><time>2026-04-04T09:34:17.001Z</time></trkpt><trkpt lat="42.018130122052305" lon="12.906842517307785"><ele>339.6666666666667</ele><time>2026-04-04T09:34:18.001Z</time></trkpt><trkpt lat="42.01802386724993" lon="12.907051533953204"><ele>339.0</ele><time>2026-04-04T09:34:19.001Z</time></trkpt><trkpt lat="42.017930577737566" lon="12.907235609858182"><ele>339.0</ele><time>2026-04-04T09:34:20.001Z</time></trkpt><trkpt lat="42.017837596296786" lon="12.907421422894892"><ele>339.0</ele><time>2026-04-04T09:34:21.001Z</time></trkpt><trkpt lat="42.017744639294015" lon="12.9076013356775"><ele>339.0</ele><time>2026-04-04T09:34:22.001Z</time></trkpt><trkpt lat="42.017638172120634" lon="12.907751838424456"><ele>340.0</ele><time>2026-04-04T09:34:23.001Z</time></trkpt><trkpt lat="42.017504484158735" lon="12.907880371135315"><ele>341.0</ele><time>2026-04-04T09:34:24.001Z</time></trkpt><trkpt lat="42.01736236968891" lon="12.907976761046475"><ele>342.0</ele><time>2026-04-04T09:34:25.001Z</time></trkpt><trkpt lat="42.0172379363218" lon="12.908038497458588"><ele>340.25</ele><time>2026-04-04T09:34:26.001Z</time></trkpt><trkpt lat="42.017114351073886" lon="12.908098914884945"><ele>338.5</ele><time>2026-04-04T09:34:27.001Z</time></trkpt><trkpt lat="42.017007479698066" lon="12.908152697722082"><ele>336.75</ele><time>2026-04-04T09:34:28.001Z</time></trkpt><trkpt lat="42.01690977438908" lon="12.90820589546512"><ele>335.0</ele><time>2026-04-04T09:34:29.001Z</time></trkpt><trkpt lat="42.01681070550012" lon="12.908267167960647"><ele>335.0</ele><time>2026-04-04T09:34:30.001Z</time></trkpt><trkpt lat="42.01673036506892" lon="12.90834307579055"><ele>335.0</ele><time>2026-04-04T09:34:31.001Z</time></trkpt><trkpt lat="42.01666547296398" lon="12.908410719570515"><ele>335.0</ele><time>2026-04-04T09:34:32.001Z</time></trkpt><trkpt lat="42.01660897303559" lon="12.908464236509309"><ele>335.0</ele><time>2026-04-04T09:34:33.001Z</time></trkpt><trkpt lat="42.0165603110808" lon="12.908521276494133"><ele>335.0</ele><time>2026-04-04T09:34:34.001Z</time></trkpt><trkpt lat="42.016516101055025" lon="12.90859923174231"><ele>335.0</ele><time>2026-04-04T09:34:36.001Z</time></trkpt><trkpt lat="42.016485293268985" lon="12.908702521355545"><ele>335.75</ele><time>2026-04-04T09:36:31.001Z</time></trkpt><trkpt lat="42.01643947478923" lon="12.908890157027951"><ele>336.5</ele><time>2026-04-04T09:36:33.001Z</time></trkpt><trkpt lat="42.016394192445475" lon="12.909022746058884"><ele>337.25</ele><time>2026-04-04T09:36:34.001Z</time></trkpt><trkpt lat="42.016323539855165" lon="12.909174138339635"><ele>338.0</ele><time>2026-04-04T09:36:35.001Z</time></trkpt><trkpt lat="42.01625301357329" lon="12.90935276320252"><ele>338.0</ele><time>2026-04-04T09:36:36.001Z</time></trkpt><trkpt lat="42.016186400088834" lon="12.90956187612327"><ele>338.0</ele><time>2026-04-04T09:36:37.001Z</time></trkpt><trkpt lat="42.01610348021807" lon="12.90976065785135"><ele>338.0</ele><time>2026-04-04T09:36:38.001Z</time></trkpt><trkpt lat="42.01602897153883" lon="12.90997181430801"><ele>338.0</ele><time>2026-04-04T09:36:39.001Z</time></trkpt><trkpt lat="42.01596070459544" lon="12.91019421715036"><ele>338.0</ele><time>2026-04-04T09:36:40.001Z</time></trkpt><trkpt lat="42.01589950338104" lon="12.910433738849324"><ele>338.0</ele><time>2026-04-04T09:36:41.001Z</time></trkpt><trkpt lat="42.01583927792329" lon="12.91068914103017"><ele>337.6666666666667</ele><time>2026-04-04T09:36:42.001Z</time></trkpt><trkpt lat="42.015776008820325" lon="12.91096523400102"><ele>337.3333333333333</ele><time>2026-04-04T09:36:43.001Z</time></trkpt><trkpt lat="42.01570804693158" lon="12.911252384037978"><ele>337.0</ele><time>2026-04-04T09:36:44.001Z</time></trkpt><trkpt lat="42.015639760539955" lon="12.911550466524663"><ele>336.5</ele><time>2026-04-04T09:36:45.001Z</time></trkpt><trkpt lat="42.0155530291657" lon="12.91185939953378"><ele>336.0</ele><time>2026-04-04T09:36:46.001Z</time></trkpt><trkpt lat="42.01546617496502" lon="12.912200823091602"><ele>336.0</ele><time>2026-04-04T09:36:47.001Z</time></trkpt><trkpt lat="42.015375771268886" lon="12.91256598864936"><ele>336.0</ele><time>2026-04-04T09:36:48.001Z</time></trkpt><trkpt lat="42.01528960728487" lon="12.91294672848251"><ele>334.0</ele><time>2026-04-04T09:36:49.001Z</time></trkpt><trkpt lat="42.015206710231666" lon="12.913336104793492"><ele>332.0</ele><time>2026-04-04T09:36:50.001Z</time></trkpt><trkpt lat="42.01513323512548" lon="12.913725613379206"><ele>330.0</ele><time>2026-04-04T09:36:51.001Z</time></trkpt><trkpt lat="42.01504611268247" lon="12.914126114975732"><ele>328.0</ele><time>2026-04-04T09:36:52.001Z</time></trkpt><trkpt lat="42.01510811869049" lon="12.91442812577808"><ele>325.5</ele><time>2026-04-04T09:36:54.001Z</time></trkpt><trkpt lat="42.015149183033614" lon="12.914767330421924"><ele>323.0</ele><time>2026-04-04T09:36:55.001Z</time></trkpt><trkpt lat="42.01522379337645" lon="12.915112076350507"><ele>317.5</ele><time>2026-04-04T09:36:56.001Z</time></trkpt><trkpt lat="42.01530869283251" lon="12.915466313842936"><ele>312.0</ele><time>2026-04-04T09:36:57.001Z</time></trkpt><trkpt lat="42.01539302290553" lon="12.91580262336531"><ele>309.5</ele><time>2026-04-04T09:36:58.001Z</time></trkpt><trkpt lat="42.01549041891627" lon="12.916142340628253"><ele>307.0</ele><time>2026-04-04T09:36:59.001Z</time></trkpt><trkpt lat="42.015589799735444" lon="12.916486165486182"><ele>304.5</ele><time>2026-04-04T09:37:00.001Z</time></trkpt><trkpt lat="42.01569018828129" lon="12.916840973458786"><ele>302.0</ele><time>2026-04-04T09:37:01.001Z</time></trkpt><trkpt lat="42.015789064457586" lon="12.917183311299612"><ele>307.0</ele><time>2026-04-04T09:37:02.001Z</time></trkpt><trkpt lat="42.01588049081447" lon="12.917516461001497"><ele>312.0</ele><time>2026-04-04T09:37:03.001Z</time></trkpt><trkpt lat="42.015971104760574" lon="12.917853770240546"><ele>312.0</ele><time>2026-04-04T09:37:04.001Z</time></trkpt><trkpt lat="42.01607217392717" lon="12.918199920800525"><ele>312.0</ele><time>2026-04-04T09:37:05.001Z</time></trkpt><trkpt lat="42.01616149161435" lon="12.918565294831291"><ele>309.5</ele><time>2026-04-04T09:37:06.001Z</time></trkpt><trkpt lat="42.016258008754484" lon="12.918923716555414"><ele>307.0</ele><time>2026-04-04T09:37:07.001Z</time></trkpt><trkpt lat="42.01636406242647" lon="12.919293950998794"><ele>305.0</ele><time>2026-04-04T09:37:08.001Z</time></trkpt><trkpt lat="42.01645544688994" lon="12.919671536795029"><ele>303.0</ele><time>2026-04-04T09:37:09.001Z</time></trkpt><trkpt lat="42.016549367584844" lon="12.920033652263625"><ele>302.5</ele><time>2026-04-04T09:37:10.001Z</time></trkpt><trkpt lat="42.01664567846488" lon="12.920379873169601"><ele>302.0</ele><time>2026-04-04T09:37:11.001Z</time></trkpt><trkpt lat="42.01672988638742" lon="12.920721184540426"><ele>304.0</ele><time>2026-04-04T09:37:12.001Z</time></trkpt><trkpt lat="42.01681087842557" lon="12.921048880059175"><ele>306.0</ele><time>2026-04-04T09:37:13.001Z</time></trkpt><trkpt lat="42.016898287342116" lon="12.921369426665095"><ele>306.0</ele><time>2026-04-04T09:37:14.001Z</time></trkpt><trkpt lat="42.01697868205445" lon="12.92169169434635"><ele>306.0</ele><time>2026-04-04T09:37:15.001Z</time></trkpt><trkpt lat="42.017070773972414" lon="12.922006820377613"><ele>304.5</ele><time>2026-04-04T09:37:16.001Z</time></trkpt><trkpt lat="42.01715998300669" lon="12.922330183572003"><ele>303.0</ele><time>2026-04-04T09:37:17.001Z</time></trkpt><trkpt lat="42.017240398238634" lon="12.922661793631242"><ele>302.0</ele><time>2026-04-04T09:37:18.001Z</time></trkpt><trkpt lat="42.017325984124525" lon="12.922972229069426"><ele>301.0</ele><time>2026-04-04T09:37:19.001Z</time></trkpt><trkpt lat="42.017403778746704" lon="12.923280963789512"><ele>300.0</ele><time>2026-04-04T09:37:20.001Z</time></trkpt><trkpt lat="42.01747246977447" lon="12.923590835080988"><ele>299.0</ele><time>2026-04-04T09:37:21.001Z</time></trkpt><trkpt lat="42.01755244306344" lon="12.923906799123058"><ele>299.0</ele><time>2026-04-04T09:37:22.001Z</time></trkpt><trkpt lat="42.01762871723428" lon="12.924205693800937"><ele>299.0</ele><time>2026-04-04T09:37:23.001Z</time></trkpt><trkpt lat="42.01770381644695" lon="12.92447854444948"><ele>299.0</ele><time>2026-04-04T09:37:24.001Z</time></trkpt><trkpt lat="42.01778025289314" lon="12.924738798993102"><ele>299.0</ele><time>2026-04-04T09:37:25.001Z</time></trkpt><trkpt lat="42.01786272639989" lon="12.925019688154418"><ele>299.0</ele><time>2026-04-04T09:37:26.001Z</time></trkpt><trkpt lat="42.01795996512089" lon="12.925286422252768"><ele>299.0</ele><time>2026-04-04T09:37:27.001Z</time></trkpt><trkpt lat="42.01812506084005" lon="12.925522834570486"><ele>299.0</ele><time>2026-04-04T09:37:28.001Z</time></trkpt><trkpt lat="42.018325417902716" lon="12.925758629632925"><ele>297.5</ele><time>2026-04-04T09:37:29.001Z</time></trkpt><trkpt lat="42.018540831386616" lon="12.926020959170279"><ele>296.0</ele><time>2026-04-04T09:37:30.001Z</time></trkpt><trkpt lat="42.01877005962539" lon="12.92627772622223"><ele>296.0</ele><time>2026-04-04T09:37:31.001Z</time></trkpt><trkpt lat="42.019028868156354" lon="12.92649845016605"><ele>296.0</ele><time>2026-04-04T09:37:32.001Z</time></trkpt><trkpt lat="42.019317604652315" lon="12.926723284359124"><ele>295.0</ele><time>2026-04-04T09:37:33.001Z</time></trkpt><trkpt lat="42.019623605929" lon="12.926967859070356"><ele>294.0</ele><time>2026-04-04T09:37:34.001Z</time></trkpt><trkpt lat="42.01992909301752" lon="12.927209918373567"><ele>296.0</ele><time>2026-04-04T09:37:35.001Z</time></trkpt><trkpt lat="42.02022709943197" lon="12.927440512443525"><ele>298.0</ele><time>2026-04-04T09:37:36.001Z</time></trkpt><trkpt lat="42.02051341592759" lon="12.927669379809002"><ele>298.0</ele><time>2026-04-04T09:37:37.001Z</time></trkpt><trkpt lat="42.020792317342206" lon="12.927894047325976"><ele>298.0</ele><time>2026-04-04T09:37:38Z</time></trkpt><trkpt lat="42.021077582725184" lon="12.928107878870843"><ele>297.0</ele><time>2026-04-04T09:37:39Z</time></trkpt><trkpt lat="42.021362422799484" lon="12.928337904774125"><ele>296.0</ele><time>2026-04-04T09:37:40Z</time></trkpt><trkpt lat="42.02164670428617" lon="12.928560295608722"><ele>297.0</ele><time>2026-04-04T09:37:41Z</time></trkpt><trkpt lat="42.02194092940228" lon="12.928755569775763"><ele>298.0</ele><time>2026-04-04T09:37:42Z</time></trkpt><trkpt lat="42.02222124792937" lon="12.928976031035843"><ele>297.0</ele><time>2026-04-04T09:37:43Z</time></trkpt><trkpt lat="42.0225000418417" lon="12.929203258615592"><ele>296.0</ele><time>2026-04-04T09:37:44Z</time></trkpt><trkpt lat="42.02277796712086" lon="12.929444403552656"><ele>296.0</ele><time>2026-04-04T09:37:45Z</time></trkpt><trkpt lat="42.02304153146792" lon="12.929694083098164"><ele>296.0</ele><time>2026-04-04T09:37:46Z</time></trkpt><trkpt lat="42.023295256200655" lon="12.929960141552163"><ele>297.5</ele><time>2026-04-04T09:37:47Z</time></trkpt><trkpt lat="42.023558068952006" lon="12.930249440244177"><ele>299.0</ele><time>2026-04-04T09:37:48Z</time></trkpt><trkpt lat="42.02382047088921" lon="12.930567181251384"><ele>300.5</ele><time>2026-04-04T09:37:49Z</time></trkpt><trkpt lat="42.024078984143806" lon="12.930906998647883"><ele>302.0</ele><time>2026-04-04T09:37:50Z</time></trkpt><trkpt lat="42.02432108317115" lon="12.931255347318196"><ele>302.0</ele><time>2026-04-04T09:37:51Z</time></trkpt><trkpt lat="42.02455267532518" lon="12.931615506669337"><ele>302.0</ele><time>2026-04-04T09:37:52Z</time></trkpt><trkpt lat="42.024778589171454" lon="12.931993172766985"><ele>302.5</ele><time>2026-04-04T09:37:53Z</time></trkpt><trkpt lat="42.02499629532785" lon="12.932379836058603"><ele>303.0</ele><time>2026-04-04T09:37:54Z</time></trkpt><trkpt lat="42.02521330072474" lon="12.932760421676408"><ele>303.0</ele><time>2026-04-04T09:37:55Z</time></trkpt><trkpt lat="42.02542433121825" lon="12.933135211318556"><ele>303.0</ele><time>2026-04-04T09:37:56Z</time></trkpt><trkpt lat="42.025626577842296" lon="12.933501066982272"><ele>304.5</ele><time>2026-04-04T09:37:57Z</time></trkpt><trkpt lat="42.02582720642249" lon="12.933864538173625"><ele>306.0</ele><time>2026-04-04T09:37:58Z</time></trkpt><trkpt lat="42.026031247082635" lon="12.934229365137522"><ele>306.0</ele><time>2026-04-04T09:37:59Z</time></trkpt><trkpt lat="42.0262422603868" lon="12.93460103284386"><ele>306.0</ele><time>2026-04-04T09:38:00Z</time></trkpt><trkpt lat="42.02644405006618" lon="12.934964385654721"><ele>305.5</ele><time>2026-04-04T09:38:01Z</time></trkpt><trkpt lat="42.02664189335936" lon="12.935324739960468"><ele>305.0</ele><time>2026-04-04T09:38:02Z</time></trkpt><trkpt lat="42.02683427570257" lon="12.935666088528661"><ele>304.5</ele><time>2026-04-04T09:38:03Z</time></trkpt><trkpt lat="42.0270090505975" lon="12.935977143895844"><ele>304.0</ele><time>2026-04-04T09:38:04Z</time></trkpt><trkpt lat="42.02717385856832" lon="12.936252158088505"><ele>304.0</ele><time>2026-04-04T09:38:05Z</time></trkpt><trkpt lat="42.02732222766237" lon="12.936509651838161"><ele>304.0</ele><time>2026-04-04T09:38:06Z</time></trkpt><trkpt lat="42.02745893849568" lon="12.936761065919542"><ele>304.0</ele><time>2026-04-04T09:38:07Z</time></trkpt><trkpt lat="42.02758011694998" lon="12.93700424254489"><ele>304.0</ele><time>2026-04-04T09:38:08Z</time></trkpt><trkpt lat="42.02769274082301" lon="12.937247692839684"><ele>304.0</ele><time>2026-04-04T09:38:09Z</time></trkpt><trkpt lat="42.02779332894991" lon="12.93748783253657"><ele>303.66666666666663</ele><time>2026-04-04T09:38:10Z</time></trkpt><trkpt lat="42.02787606238476" lon="12.937722120460544"><ele>303.3333333333333</ele><time>2026-04-04T09:38:11Z</time></trkpt><trkpt lat="42.02793184174306" lon="12.937966561405984"><ele>303.0</ele><time>2026-04-04T09:38:12Z</time></trkpt><trkpt lat="42.028006655082706" lon="12.938221352319708"><ele>302.3333333333333</ele><time>2026-04-04T09:38:13Z</time></trkpt><trkpt lat="42.0280755110642" lon="12.938489801118966"><ele>301.66666666666663</ele><time>2026-04-04T09:38:14Z</time></trkpt><trkpt lat="42.028140140275546" lon="12.938754477555046"><ele>301.0</ele><time>2026-04-04T09:38:15Z</time></trkpt><trkpt lat="42.02819579091461" lon="12.93902336122185"><ele>300.66666666666663</ele><time>2026-04-04T09:38:16Z</time></trkpt><trkpt lat="42.02824683017086" lon="12.939304695540695"><ele>300.3333333333333</ele><time>2026-04-04T09:38:17Z</time></trkpt><trkpt lat="42.02828343086837" lon="12.939593739830592"><ele>300.0</ele><time>2026-04-04T09:38:18Z</time></trkpt><trkpt lat="42.02830907270526" lon="12.939911138079063"><ele>300.5</ele><time>2026-04-04T09:38:19Z</time></trkpt><trkpt lat="42.028334840797214" lon="12.940294043354621"><ele>301.0</ele><time>2026-04-04T09:38:20Z</time></trkpt><trkpt lat="42.02837239101119" lon="12.940764249372567"><ele>300.5</ele><time>2026-04-04T09:38:21Z</time></trkpt><trkpt lat="42.02839339364374" lon="12.941298841140553"><ele>300.0</ele><time>2026-04-04T09:38:22Z</time></trkpt><trkpt lat="42.02842327126203" lon="12.941874353166334"><ele>301.0</ele><time>2026-04-04T09:38:23Z</time></trkpt><trkpt lat="42.028459160858695" lon="12.942406282557513"><ele>302.0</ele><time>2026-04-04T09:38:24Z</time></trkpt><trkpt lat="42.028515166245704" lon="12.94284563639385"><ele>304.0</ele><time>2026-04-04T09:38:25Z</time></trkpt><trkpt lat="42.02861851622148" lon="12.943225115097178"><ele>306.0</ele><time>2026-04-04T09:38:26Z</time></trkpt><trkpt lat="42.02878118631315" lon="12.943518443270408"><ele>306.5</ele><time>2026-04-04T09:38:27Z</time></trkpt><trkpt lat="42.029007760148694" lon="12.943758620776256"><ele>307.0</ele><time>2026-04-04T09:38:28Z</time></trkpt><trkpt lat="42.02929452689351" lon="12.943962293097995"><ele>307.0</ele><time>2026-04-04T09:38:29.001Z</time></trkpt><trkpt lat="42.02959912053094" lon="12.94414536823112"><ele>307.0</ele><time>2026-04-04T09:38:30.001Z</time></trkpt><trkpt lat="42.029856141631264" lon="12.944295178879079"><ele>307.5</ele><time>2026-04-04T09:38:31.001Z</time></trkpt><trkpt lat="42.03010773362019" lon="12.944419806027302"><ele>308.0</ele><time>2026-04-04T09:38:32.001Z</time></trkpt><trkpt lat="42.03037657603866" lon="12.944520943266815"><ele>308.0</ele><time>2026-04-04T09:38:33.001Z</time></trkpt><trkpt lat="42.030644448400146" lon="12.944608610350823"><ele>308.0</ele><time>2026-04-04T09:38:34.001Z</time></trkpt><trkpt lat="42.03089914834711" lon="12.944700402537395"><ele>309.5</ele><time>2026-04-04T09:38:35.001Z</time></trkpt><trkpt lat="42.03114458941365" lon="12.944797110939332"><ele>311.0</ele><time>2026-04-04T09:38:36.001Z</time></trkpt><trkpt lat="42.03136089740679" lon="12.944873192563824"><ele>311.0</ele><time>2026-04-04T09:38:37.001Z</time></trkpt><trkpt lat="42.03150565375997" lon="12.944937120376752"><ele>311.0</ele><time>2026-04-04T09:38:38.001Z</time></trkpt><trkpt lat="42.0316548119885" lon="12.945035481888672"><ele>311.0</ele><time>2026-04-04T09:38:39.001Z</time></trkpt><trkpt lat="42.03185356766747" lon="12.945238375601186"><ele>310.33333333333337</ele><time>2026-04-04T09:38:40.001Z</time></trkpt><trkpt lat="42.03203730459553" lon="12.945456684921115"><ele>309.6666666666667</ele><time>2026-04-04T09:38:41.001Z</time></trkpt><trkpt lat="42.03219574538084" lon="12.945618897720632"><ele>309.0</ele><time>2026-04-04T09:38:42.001Z</time></trkpt><trkpt lat="42.032347635563454" lon="12.945718304079854"><ele>309.0</ele><time>2026-04-04T09:38:43.001Z</time></trkpt><trkpt lat="42.032523536365794" lon="12.945771066587849"><ele>309.0</ele><time>2026-04-04T09:38:44.001Z</time></trkpt><trkpt lat="42.03276001294562" lon="12.945827423684312"><ele>309.0</ele><time>2026-04-04T09:38:45.001Z</time></trkpt><trkpt lat="42.033025489881275" lon="12.945904553163627"><ele>309.0</ele><time>2026-04-04T09:38:46.001Z</time></trkpt><trkpt lat="42.03327253479872" lon="12.945964635919152"><ele>309.0</ele><time>2026-04-04T09:38:47.001Z</time></trkpt><trkpt lat="42.0334940054099" lon="12.946040051064037"><ele>310.0</ele><time>2026-04-04T09:38:48.001Z</time></trkpt><trkpt lat="42.03368137768565" lon="12.946173356507927"><ele>311.0</ele><time>2026-04-04T09:38:49.001Z</time></trkpt><trkpt lat="42.03381443578443" lon="12.94637294503265"><ele>312.0</ele><time>2026-04-04T09:38:50.001Z</time></trkpt><trkpt lat="42.03393238643717" lon="12.946588312260534"><ele>311.3333333333333</ele><time>2026-04-04T09:38:51.001Z</time></trkpt><trkpt lat="42.03401870203576" lon="12.946846148791062"><ele>310.66666666666663</ele><time>2026-04-04T09:38:52.001Z</time></trkpt><trkpt lat="42.034061705642735" lon="12.947139754761544"><ele>310.0</ele><time>2026-04-04T09:38:53.001Z</time></trkpt><trkpt lat="42.034103904147614" lon="12.947434590391005"><ele>310.0</ele><time>2026-04-04T09:38:54.001Z</time></trkpt><trkpt lat="42.034136609831165" lon="12.947689202344236"><ele>310.0</ele><time>2026-04-04T09:38:55.001Z</time></trkpt><trkpt lat="42.03420694239066" lon="12.947888905343753"><ele>310.0</ele><time>2026-04-04T09:38:56.001Z</time></trkpt><trkpt lat="42.03428217038125" lon="12.948077177790115"><ele>311.66666666666663</ele><time>2026-04-04T09:38:57.001Z</time></trkpt><trkpt lat="42.03435097304721" lon="12.948299831878192"><ele>313.3333333333333</ele><time>2026-04-04T09:38:58.001Z</time></trkpt><trkpt lat="42.034412176179536" lon="12.948545449704664"><ele>315.0</ele><time>2026-04-04T09:38:59.001Z</time></trkpt><trkpt lat="42.03446340993778" lon="12.94878070335482"><ele>315.0</ele><time>2026-04-04T09:39:00.001Z</time></trkpt><trkpt lat="42.034496041600214" lon="12.949028224774707"><ele>315.0</ele><time>2026-04-04T09:39:01.001Z</time></trkpt><trkpt lat="42.034550863821885" lon="12.949327154321146"><ele>315.0</ele><time>2026-04-04T09:39:02.001Z</time></trkpt><trkpt lat="42.03461057777309" lon="12.949648981591405"><ele>315.0</ele><time>2026-04-04T09:39:03.001Z</time></trkpt><trkpt lat="42.03465712393603" lon="12.9499497733656"><ele>315.0</ele><time>2026-04-04T09:39:04.001Z</time></trkpt><trkpt lat="42.03473657822065" lon="12.950229010479953"><ele>314.0</ele><time>2026-04-04T09:39:05.001Z</time></trkpt><trkpt lat="42.03484974238958" lon="12.950485910376683"><ele>313.0</ele><time>2026-04-04T09:39:06.001Z</time></trkpt><trkpt lat="42.03498154759388" lon="12.950711716278578"><ele>312.0</ele><time>2026-04-04T09:39:07.001Z</time></trkpt><trkpt lat="42.035133427601544" lon="12.950951980090569"><ele>312.0</ele><time>2026-04-04T09:39:08.001Z</time></trkpt><trkpt lat="42.035286038888515" lon="12.951196007161853"><ele>312.0</ele><time>2026-04-04T09:39:09.001Z</time></trkpt><trkpt lat="42.03545532502612" lon="12.951481086083417"><ele>312.5</ele><time>2026-04-04T09:39:10.001Z</time></trkpt><trkpt lat="42.03562488753968" lon="12.951779287711531"><ele>313.0</ele><time>2026-04-04T09:39:11.001Z</time></trkpt><trkpt lat="42.03577914454405" lon="12.952075900874329"><ele>313.5</ele><time>2026-04-04T09:39:12.001Z</time></trkpt><trkpt lat="42.03594954739831" lon="12.952380414905969"><ele>314.0</ele><time>2026-04-04T09:39:13.001Z</time></trkpt><trkpt lat="42.036125397004696" lon="12.952682529414705"><ele>314.5</ele><time>2026-04-04T09:39:14.001Z</time></trkpt><trkpt lat="42.03629525233353" lon="12.953040960918022"><ele>315.0</ele><time>2026-04-04T09:39:15.001Z</time></trkpt><trkpt lat="42.03649599058267" lon="12.95345302975239"><ele>316.0</ele><time>2026-04-04T09:39:16.001Z</time></trkpt><trkpt lat="42.03673194042627" lon="12.953937045390347"><ele>317.0</ele><time>2026-04-04T09:39:17.001Z</time></trkpt><trkpt lat="42.037001415949554" lon="12.954416906119793"><ele>317.0</ele><time>2026-04-04T09:39:18.001Z</time></trkpt><trkpt lat="42.03719103430293" lon="12.95485804848415"><ele>317.0</ele><time>2026-04-04T09:39:19.001Z</time></trkpt><trkpt lat="42.03736732697592" lon="12.955244260821917"><ele>317.0</ele><time>2026-04-04T09:39:20.001Z</time></trkpt><trkpt lat="42.037531141848255" lon="12.955591265633316"><ele>317.0</ele><time>2026-04-04T09:39:21.001Z</time></trkpt><trkpt lat="42.03764881086479" lon="12.955915671194248"><ele>317.0</ele><time>2026-04-04T09:39:22.001Z</time></trkpt><trkpt lat="42.03775207675917" lon="12.956238417926155"><ele>317.0</ele><time>2026-04-04T09:39:23.001Z</time></trkpt><trkpt lat="42.037894154288196" lon="12.956568677208288"><ele>317.5</ele><time>2026-04-04T09:39:24.001Z</time></trkpt><trkpt lat="42.037993812353136" lon="12.95689318439003"><ele>318.0</ele><time>2026-04-04T09:39:25.001Z</time></trkpt><trkpt lat="42.038046794802945" lon="12.957246211089364"><ele>319.0</ele><time>2026-04-04T09:39:26.001Z</time></trkpt><trkpt lat="42.03804536019938" lon="12.957557855414144"><ele>320.0</ele><time>2026-04-04T09:39:27.001Z</time></trkpt><trkpt lat="42.03800177949084" lon="12.957872960405151"><ele>320.0</ele><time>2026-04-04T09:39:28.001Z</time></trkpt><trkpt lat="42.037841166851386" lon="12.958130900429806"><ele>320.0</ele><time>2026-04-04T09:39:29.001Z</time></trkpt><trkpt lat="42.03764280252354" lon="12.958373711324928"><ele>320.0</ele><time>2026-04-04T09:39:30.001Z</time></trkpt><trkpt lat="42.0373659926776" lon="12.958648144978884"><ele>320.0</ele><time>2026-04-04T09:39:31.001Z</time></trkpt><trkpt lat="42.03709753016159" lon="12.958909833985135"><ele>320.0</ele><time>2026-04-04T09:39:32.001Z</time></trkpt><trkpt lat="42.03686298641736" lon="12.959125415051611"><ele>320.0</ele><time>2026-04-04T09:39:33.001Z</time></trkpt><trkpt lat="42.03660312842517" lon="12.959257813394537"><ele>325.0</ele><time>2026-04-04T09:39:34.001Z</time></trkpt><trkpt lat="42.036275071529" lon="12.959399281910281"><ele>330.0</ele><time>2026-04-04T09:39:35.001Z</time></trkpt><trkpt lat="42.035954105857684" lon="12.959509123926669"><ele>325.5</ele><time>2026-04-04T09:39:36.001Z</time></trkpt><trkpt lat="42.035680866047386" lon="12.95961830808191"><ele>321.0</ele><time>2026-04-04T09:39:37.001Z</time></trkpt><trkpt lat="42.03545056350228" lon="12.95974751761751"><ele>321.0</ele><time>2026-04-04T09:39:38.001Z</time></trkpt><trkpt lat="42.035250012222086" lon="12.95993870512863"><ele>321.0</ele><time>2026-04-04T09:39:39.001Z</time></trkpt><trkpt lat="42.03508622465387" lon="12.960220534163216"><ele>321.0</ele><time>2026-04-04T09:39:40.001Z</time></trkpt><trkpt lat="42.034949091404414" lon="12.960610721366887"><ele>321.0</ele><time>2026-04-04T09:39:41.001Z</time></trkpt><trkpt lat="42.03475192474372" lon="12.961008242473817"><ele>321.0</ele><time>2026-04-04T09:39:42.001Z</time></trkpt><trkpt lat="42.03458057047134" lon="12.961354984423695"><ele>321.0</ele><time>2026-04-04T09:39:43.001Z</time></trkpt><trkpt lat="42.03445414414903" lon="12.961658724898134"><ele>320.0</ele><time>2026-04-04T09:39:44Z</time></trkpt><trkpt lat="42.034402686985004" lon="12.962013026996205"><ele>319.0</ele><time>2026-04-04T09:39:45Z</time></trkpt><trkpt lat="42.03443215801406" lon="12.962430773669926"><ele>320.5</ele><time>2026-04-04T09:39:46Z</time></trkpt><trkpt lat="42.034418273316916" lon="12.962868734446072"><ele>322.0</ele><time>2026-04-04T09:39:47Z</time></trkpt><trkpt lat="42.03432389199918" lon="12.963307960104784"><ele>322.5</ele><time>2026-04-04T09:39:48Z</time></trkpt><trkpt lat="42.03418845196275" lon="12.963831157344263"><ele>323.0</ele><time>2026-04-04T09:39:49Z</time></trkpt><trkpt lat="42.03405837104406" lon="12.9643301586588"><ele>323.0</ele><time>2026-04-04T09:39:50Z</time></trkpt><trkpt lat="42.03393767367881" lon="12.964801864937648"><ele>323.0</ele><time>2026-04-04T09:39:51Z</time></trkpt><trkpt lat="42.03376714854507" lon="12.965281789378011"><ele>323.0</ele><time>2026-04-04T09:39:52Z</time></trkpt><trkpt lat="42.033601720556405" lon="12.965719499575018"><ele>323.0</ele><time>2026-04-04T09:39:53Z</time></trkpt><trkpt lat="42.03348103408471" lon="12.966133011715527"><ele>323.0</ele><time>2026-04-04T09:39:54Z</time></trkpt><trkpt lat="42.033441280924556" lon="12.966543037663596"><ele>323.0</ele><time>2026-04-04T09:39:55Z</time></trkpt><trkpt lat="42.03343774897278" lon="12.96700371600086"><ele>322.5</ele><time>2026-04-04T09:39:56Z</time></trkpt><trkpt lat="42.033485960544155" lon="12.96746187560863"><ele>322.0</ele><time>2026-04-04T09:39:57Z</time></trkpt><trkpt lat="42.03362184831551" lon="12.96792936300451"><ele>320.5</ele><time>2026-04-04T09:39:58Z</time></trkpt><trkpt lat="42.033746169335515" lon="12.968409745992238"><ele>319.0</ele><time>2026-04-04T09:39:59Z</time></trkpt><trkpt lat="42.033815813150596" lon="12.968842023796833"><ele>319.5</ele><time>2026-04-04T09:40:00Z</time></trkpt><trkpt lat="42.03385805994116" lon="12.969207355589386"><ele>320.0</ele><time>2026-04-04T09:40:01Z</time></trkpt><trkpt lat="42.03383330556053" lon="12.969479999680859"><ele>320.0</ele><time>2026-04-04T09:40:02Z</time></trkpt><trkpt lat="42.033722932182386" lon="12.969734346938385"><ele>320.0</ele><time>2026-04-04T09:40:03Z</time></trkpt><trkpt lat="42.03353706401607" lon="12.969974138797259"><ele>319.0</ele><time>2026-04-04T09:40:04Z</time></trkpt><trkpt lat="42.033278659485724" lon="12.970183478293508"><ele>318.0</ele><time>2026-04-04T09:40:05Z</time></trkpt><trkpt lat="42.03297448507106" lon="12.970416844529227"><ele>318.0</ele><time>2026-04-04T09:40:06Z</time></trkpt><trkpt lat="42.032699032494044" lon="12.970613178955835"><ele>318.0</ele><time>2026-04-04T09:40:07Z</time></trkpt><trkpt lat="42.03246557740963" lon="12.97074951658438"><ele>317.6666666666667</ele><time>2026-04-04T09:40:08Z</time></trkpt><trkpt lat="42.03226471437227" lon="12.970849469116816"><ele>317.33333333333337</ele><time>2026-04-04T09:40:09Z</time></trkpt><trkpt lat="42.03211503160046" lon="12.9709692959829"><ele>317.0</ele><time>2026-04-04T09:40:10Z</time></trkpt><trkpt lat="42.03202003024146" lon="12.971139159941353"><ele>319.0</ele><time>2026-04-04T09:40:11Z</time></trkpt><trkpt lat="42.03194614717432" lon="12.971378808511586"><ele>321.0</ele><time>2026-04-04T09:40:12Z</time></trkpt><trkpt lat="42.031829734866086" lon="12.971715125960134"><ele>322.5</ele><time>2026-04-04T09:40:13Z</time></trkpt><trkpt lat="42.0316495022839" lon="12.97212894523586"><ele>324.0</ele><time>2026-04-04T09:40:14Z</time></trkpt><trkpt lat="42.03145481340041" lon="12.972537789138396"><ele>324.0</ele><time>2026-04-04T09:40:15Z</time></trkpt><trkpt lat="42.031269270353874" lon="12.972869371414477"><ele>324.0</ele><time>2026-04-04T09:40:16Z</time></trkpt><trkpt lat="42.031101725470286" lon="12.973121008224842"><ele>324.0</ele><time>2026-04-04T09:40:17Z</time></trkpt><trkpt lat="42.030956656394714" lon="12.973327383047932"><ele>324.0</ele><time>2026-04-04T09:40:18Z</time></trkpt><trkpt lat="42.03078316546748" lon="12.973553040418206"><ele>326.5</ele><time>2026-04-04T09:40:19Z</time></trkpt><trkpt lat="42.03051976939523" lon="12.97378329190608"><ele>329.0</ele><time>2026-04-04T09:40:20Z</time></trkpt><trkpt lat="42.030270242875226" lon="12.973963043180545"><ele>329.0</ele><time>2026-04-04T09:40:21Z</time></trkpt><trkpt lat="42.030049464783986" lon="12.974131611856363"><ele>329.0</ele><time>2026-04-04T09:40:22Z</time></trkpt><trkpt lat="42.02983294100555" lon="12.974296066803527"><ele>327.0</ele><time>2026-04-04T09:40:23Z</time></trkpt><trkpt lat="42.02966777105963" lon="12.974474764250003"><ele>325.0</ele><time>2026-04-04T09:40:24Z</time></trkpt><trkpt lat="42.0295743576375" lon="12.974707860039128"><ele>323.0</ele><time>2026-04-04T09:40:25Z</time></trkpt><trkpt lat="42.029479140741" lon="12.975025721433726"><ele>324.0</ele><time>2026-04-04T09:40:26Z</time></trkpt><trkpt lat="42.02935703867428" lon="12.97529438189533"><ele>325.0</ele><time>2026-04-04T09:40:27Z</time></trkpt><trkpt lat="42.02923795509113" lon="12.975492107053924"><ele>326.0</ele><time>2026-04-04T09:40:28Z</time></trkpt><trkpt lat="42.02910157793516" lon="12.975658938009458"><ele>326.0</ele><time>2026-04-04T09:40:29Z</time></trkpt><trkpt lat="42.02892068994815" lon="12.97579082213885"><ele>326.0</ele><time>2026-04-04T09:40:30Z</time></trkpt><trkpt lat="42.02869660999913" lon="12.975892815190626"><ele>326.0</ele><time>2026-04-04T09:40:31Z</time></trkpt><trkpt lat="42.028451404102896" lon="12.975972023382942"><ele>325.33333333333337</ele><time>2026-04-04T09:40:32Z</time></trkpt><trkpt lat="42.02822741607571" lon="12.97601458799576"><ele>324.6666666666667</ele><time>2026-04-04T09:40:33Z</time></trkpt><trkpt lat="42.02805296706929" lon="12.97608372138546"><ele>324.0</ele><time>2026-04-04T09:40:34Z</time></trkpt><trkpt lat="42.02791132969495" lon="12.976205162427375"><ele>324.0</ele><time>2026-04-04T09:40:35Z</time></trkpt><trkpt lat="42.02779187241569" lon="12.976350979293986"><ele>324.0</ele><time>2026-04-04T09:40:36Z</time></trkpt><trkpt lat="42.02768858944592" lon="12.97650600131734"><ele>324.0</ele><time>2026-04-04T09:40:37Z</time></trkpt><trkpt lat="42.027607503446106" lon="12.976665501970293"><ele>323.6666666666667</ele><time>2026-04-04T09:40:38Z</time></trkpt><trkpt lat="42.02755666568456" lon="12.976841885881855"><ele>323.33333333333337</ele><time>2026-04-04T09:40:39Z</time></trkpt><trkpt lat="42.027521246670396" lon="12.977122701159196"><ele>323.0</ele><time>2026-04-04T09:40:40Z</time></trkpt><trkpt lat="42.02749087346682" lon="12.977537421887652"><ele>321.5</ele><time>2026-04-04T09:40:41Z</time></trkpt><trkpt lat="42.02744382979719" lon="12.977993237286007"><ele>320.0</ele><time>2026-04-04T09:40:42Z</time></trkpt><trkpt lat="42.02738528047531" lon="12.978541267441901"><ele>320.0</ele><time>2026-04-04T09:40:43Z</time></trkpt><trkpt lat="42.02733394583717" lon="12.979130752445045"><ele>320.0</ele><time>2026-04-04T09:40:44Z</time></trkpt><trkpt lat="42.0272908800057" lon="12.979617662022495"><ele>321.0</ele><time>2026-04-04T09:40:45Z</time></trkpt><trkpt lat="42.027227625936405" lon="12.980027411465029"><ele>322.0</ele><time>2026-04-04T09:40:46Z</time></trkpt><trkpt lat="42.02712572102081" lon="12.980395064859307"><ele>322.0</ele><time>2026-04-04T09:40:47Z</time></trkpt><trkpt lat="42.02699822842007" lon="12.980703876758904"><ele>322.0</ele><time>2026-04-04T09:40:48Z</time></trkpt><trkpt lat="42.02686857476378" lon="12.980980786332275"><ele>322.0</ele><time>2026-04-04T09:40:49Z</time></trkpt><trkpt lat="42.02673263143916" lon="12.981242815285459"><ele>322.0</ele><time>2026-04-04T09:40:50Z</time></trkpt><trkpt lat="42.02656418990129" lon="12.981505653940928"><ele>322.5</ele><time>2026-04-04T09:40:51Z</time></trkpt><trkpt lat="42.02637348770398" lon="12.98176363173136"><ele>323.0</ele><time>2026-04-04T09:40:52Z</time></trkpt><trkpt lat="42.026168928632615" lon="12.982034454211687"><ele>323.0</ele><time>2026-04-04T09:40:53Z</time></trkpt><trkpt lat="42.026002886472995" lon="12.982271105721344"><ele>323.0</ele><time>2026-04-04T09:40:54.001Z</time></trkpt><trkpt lat="42.02585715297478" lon="12.982488670819333"><ele>323.33333333333337</ele><time>2026-04-04T09:40:55.001Z</time></trkpt><trkpt lat="42.02572812983485" lon="12.982689060535854"><ele>323.6666666666667</ele><time>2026-04-04T09:40:56.001Z</time></trkpt><trkpt lat="42.02557970650578" lon="12.982873026827757"><ele>324.0</ele><time>2026-04-04T09:40:57.001Z</time></trkpt><trkpt lat="42.02543223162975" lon="12.983115060281317"><ele>328.0</ele><time>2026-04-04T09:40:58.001Z</time></trkpt><trkpt lat="42.025255308979396" lon="12.983369083819651"><ele>332.0</ele><time>2026-04-04T09:40:59.001Z</time></trkpt><trkpt lat="42.02508452603146" lon="12.98362977535205"><ele>325.0</ele><time>2026-04-04T09:41:00.001Z</time></trkpt><trkpt lat="42.02492281265195" lon="12.983878674847578"><ele>318.0</ele><time>2026-04-04T09:41:01.001Z</time></trkpt><trkpt lat="42.024796388772415" lon="12.98412171631419"><ele>321.0</ele><time>2026-04-04T09:41:02.001Z</time></trkpt><trkpt lat="42.024687175491586" lon="12.98440114429444"><ele>324.0</ele><time>2026-04-04T09:41:03.001Z</time></trkpt><trkpt lat="42.02459209156248" lon="12.984707871652382"><ele>326.0</ele><time>2026-04-04T09:41:04.001Z</time></trkpt><trkpt lat="42.024508905354615" lon="12.985035039241511"><ele>328.0</ele><time>2026-04-04T09:41:05.001Z</time></trkpt><trkpt lat="42.02444646432398" lon="12.985351978626593"><ele>328.0</ele><time>2026-04-04T09:41:06.001Z</time></trkpt><trkpt lat="42.02440441904897" lon="12.985675457762062"><ele>328.0</ele><time>2026-04-04T09:41:07.001Z</time></trkpt><trkpt lat="42.02437430977115" lon="12.986012962688372"><ele>327.0</ele><time>2026-04-04T09:41:08.001Z</time></trkpt><trkpt lat="42.02435048119343" lon="12.986352436493972"><ele>326.0</ele><time>2026-04-04T09:41:09.001Z</time></trkpt><trkpt lat="42.024326273263654" lon="12.98665488188778"><ele>326.6666666666667</ele><time>2026-04-04T09:41:10.001Z</time></trkpt><trkpt lat="42.02430721897559" lon="12.986938902448495"><ele>327.3333333333333</ele><time>2026-04-04T09:41:11.001Z</time></trkpt><trkpt lat="42.024286746388185" lon="12.987187947961415"><ele>328.0</ele><time>2026-04-04T09:41:12.001Z</time></trkpt><trkpt lat="42.02426956355434" lon="12.987428271390156"><ele>330.0</ele><time>2026-04-04T09:41:13.001Z</time></trkpt><trkpt lat="42.024247365089565" lon="12.987668737768198"><ele>332.0</ele><time>2026-04-04T09:41:14.001Z</time></trkpt><trkpt lat="42.0242154154559" lon="12.987900958711919"><ele>334.0</ele><time>2026-04-04T09:41:15.001Z</time></trkpt><trkpt lat="42.02416699114793" lon="12.988138011607889"><ele>332.3333333333333</ele><time>2026-04-04T09:41:16.001Z</time></trkpt><trkpt lat="42.024080272452885" lon="12.988342732651928"><ele>330.6666666666667</ele><time>2026-04-04T09:41:17.001Z</time></trkpt><trkpt lat="42.02399163196162" lon="12.988540332010531"><ele>329.0</ele><time>2026-04-04T09:41:18.001Z</time></trkpt><trkpt lat="42.02388556393943" lon="12.988723118961094"><ele>329.0</ele><time>2026-04-04T09:41:19.001Z</time></trkpt><trkpt lat="42.02375872580538" lon="12.988899594790004"><ele>329.0</ele><time>2026-04-04T09:41:20.001Z</time></trkpt><trkpt lat="42.02363739100701" lon="12.989083859712093"><ele>329.0</ele><time>2026-04-04T09:41:21.001Z</time></trkpt><trkpt lat="42.02348986484336" lon="12.989232865115143"><ele>328.6666666666667</ele><time>2026-04-04T09:41:22.001Z</time></trkpt><trkpt lat="42.02334886823798" lon="12.989382643525772"><ele>328.3333333333333</ele><time>2026-04-04T09:41:23.001Z</time></trkpt><trkpt lat="42.0232058861371" lon="12.989553896365075"><ele>328.0</ele><time>2026-04-04T09:41:24.001Z</time></trkpt><trkpt lat="42.02305342393117" lon="12.989733697358561"><ele>328.0</ele><time>2026-04-04T09:41:25.001Z</time></trkpt><trkpt lat="42.022895008717796" lon="12.989923196308222"><ele>328.0</ele><time>2026-04-04T09:41:26.001Z</time></trkpt><trkpt lat="42.02274316917148" lon="12.990133059103488"><ele>328.0</ele><time>2026-04-04T09:41:27.001Z</time></trkpt><trkpt lat="42.02262088191944" lon="12.990375467087667"><ele>327.0</ele><time>2026-04-04T09:41:28.001Z</time></trkpt><trkpt lat="42.02251535703213" lon="12.990646242456695"><ele>326.0</ele><time>2026-04-04T09:41:29.001Z</time></trkpt><trkpt lat="42.022407944264884" lon="12.990897149433435"><ele>325.0</ele><time>2026-04-04T09:41:30.001Z</time></trkpt><trkpt lat="42.022296169770705" lon="12.991130662999568"><ele>325.0</ele><time>2026-04-04T09:41:31.001Z</time></trkpt><trkpt lat="42.02219728881009" lon="12.991332919139591"><ele>325.0</ele><time>2026-04-04T09:41:32.001Z</time></trkpt><trkpt lat="42.02211204535625" lon="12.99151961551943"><ele>325.0</ele><time>2026-04-04T09:41:33.001Z</time></trkpt><trkpt lat="42.022013853305154" lon="12.99168851177456"><ele>327.0</ele><time>2026-04-04T09:41:34.001Z</time></trkpt><trkpt lat="42.02191977562679" lon="12.991887786120559"><ele>329.0</ele><time>2026-04-04T09:41:35.001Z</time></trkpt><trkpt lat="42.021814722710694" lon="12.99211030772234"><ele>331.0</ele><time>2026-04-04T09:41:36.001Z</time></trkpt><trkpt lat="42.02170340031012" lon="12.992346109789572"><ele>327.5</ele><time>2026-04-04T09:41:37.001Z</time></trkpt><trkpt lat="42.02158663745311" lon="12.99259343619443"><ele>324.0</ele><time>2026-04-04T09:41:38.001Z</time></trkpt><trkpt lat="42.0214729815483" lon="12.992875363978584"><ele>324.0</ele><time>2026-04-04T09:41:39.001Z</time></trkpt><trkpt lat="42.02132354118367" lon="12.993150579665556"><ele>324.0</ele><time>2026-04-04T09:41:40.001Z</time></trkpt><trkpt lat="42.021187050808756" lon="12.993439590105785"><ele>327.0</ele><time>2026-04-04T09:41:41.001Z</time></trkpt><trkpt lat="42.02105310941008" lon="12.993723203300414"><ele>330.0</ele><time>2026-04-04T09:41:42.001Z</time></trkpt><trkpt lat="42.02092652503721" lon="12.993991237568801"><ele>328.6666666666667</ele><time>2026-04-04T09:41:43.001Z</time></trkpt><trkpt lat="42.02082474027139" lon="12.994258354032963"><ele>327.33333333333337</ele><time>2026-04-04T09:41:44.001Z</time></trkpt><trkpt lat="42.0207074072129" lon="12.994510648062048"><ele>326.0</ele><time>2026-04-04T09:41:45.001Z</time></trkpt><trkpt lat="42.02058395237193" lon="12.994771662588688"><ele>327.5</ele><time>2026-04-04T09:41:46.001Z</time></trkpt><trkpt lat="42.0204582293488" lon="12.995030421300344"><ele>329.0</ele><time>2026-04-04T09:41:47.001Z</time></trkpt><trkpt lat="42.02031966103147" lon="12.995264387267154"><ele>329.0</ele><time>2026-04-04T09:41:48.001Z</time></trkpt><trkpt lat="42.020219157786464" lon="12.995511681639307"><ele>329.0</ele><time>2026-04-04T09:41:49.001Z</time></trkpt><trkpt lat="42.02010920914433" lon="12.995761291134055"><ele>329.0</ele><time>2026-04-04T09:41:50Z</time></trkpt><trkpt lat="42.01999835750565" lon="12.995994535678424"><ele>329.0</ele><time>2026-04-04T09:41:51Z</time></trkpt><trkpt lat="42.01990113836002" lon="12.996243849645223"><ele>329.0</ele><time>2026-04-04T09:41:52Z</time></trkpt><trkpt lat="42.01980621258796" lon="12.996495985678608"><ele>329.0</ele><time>2026-04-04T09:41:53Z</time></trkpt><trkpt lat="42.01971353819334" lon="12.996756738180421"><ele>329.0</ele><time>2026-04-04T09:41:54Z</time></trkpt><trkpt lat="42.01962794439268" lon="12.99701823195395"><ele>329.0</ele><time>2026-04-04T09:41:55Z</time></trkpt><trkpt lat="42.019564953878664" lon="12.997284030251395"><ele>329.0</ele><time>2026-04-04T09:41:56Z</time></trkpt><trkpt lat="42.019475343669136" lon="12.997534106723615"><ele>330.0</ele><time>2026-04-04T09:41:57Z</time></trkpt><trkpt lat="42.01939885525911" lon="12.99781736419838"><ele>331.0</ele><time>2026-04-04T09:41:58Z</time></trkpt><trkpt lat="42.01932473111944" lon="12.99812259176146"><ele>331.5</ele><time>2026-04-04T09:41:59Z</time></trkpt><trkpt lat="42.01925126575505" lon="12.998445685248587"><ele>332.0</ele><time>2026-04-04T09:42:00Z</time></trkpt><trkpt lat="42.01917616014345" lon="12.99878265151948"><ele>330.0</ele><time>2026-04-04T09:42:01Z</time></trkpt><trkpt lat="42.0190975331229" lon="12.999126104367628"><ele>328.0</ele><time>2026-04-04T09:42:02Z</time></trkpt><trkpt lat="42.0190167137189" lon="12.99947913374974"><ele>328.0</ele><time>2026-04-04T09:42:03Z</time></trkpt><trkpt lat="42.0189441738666" lon="12.999827826846394"><ele>328.0</ele><time>2026-04-04T09:42:04Z</time></trkpt><trkpt lat="42.01886472543819" lon="13.000147672147946"><ele>328.0</ele><time>2026-04-04T09:42:05Z</time></trkpt><trkpt lat="42.01880130121686" lon="13.00043961496845"><ele>328.0</ele><time>2026-04-04T09:42:06Z</time></trkpt><trkpt lat="42.01873801509596" lon="13.000708641867025"><ele>328.0</ele><time>2026-04-04T09:42:07Z</time></trkpt><trkpt lat="42.01867821702774" lon="13.00096471621776"><ele>327.66666666666663</ele><time>2026-04-04T09:42:08Z</time></trkpt><trkpt lat="42.01862840864121" lon="13.001216182984026"><ele>327.3333333333333</ele><time>2026-04-04T09:42:09Z</time></trkpt><trkpt lat="42.0185985659902" lon="13.00147584773819"><ele>327.0</ele><time>2026-04-04T09:42:10Z</time></trkpt><trkpt lat="42.01858263185183" lon="13.00172379645883"><ele>327.0</ele><time>2026-04-04T09:42:11Z</time></trkpt><trkpt lat="42.018585666680586" lon="13.001981460503574"><ele>327.0</ele><time>2026-04-04T09:42:12Z</time></trkpt><trkpt lat="42.01862061303507" lon="13.002273721171575"><ele>327.0</ele><time>2026-04-04T09:42:13Z</time></trkpt><trkpt lat="42.01867661772363" lon="13.002564884063501"><ele>327.0</ele><time>2026-04-04T09:42:14Z</time></trkpt><trkpt lat="42.0187303208013" lon="13.00286846799915"><ele>327.0</ele><time>2026-04-04T09:42:15Z</time></trkpt><trkpt lat="42.0187811454595" lon="13.003164022621284"><ele>326.5</ele><time>2026-04-04T09:42:16Z</time></trkpt><trkpt lat="42.018838310769574" lon="13.003452410008556"><ele>326.0</ele><time>2026-04-04T09:42:17Z</time></trkpt><trkpt lat="42.01911139941319" lon="13.003667193604844"><ele>326.5</ele><time>2026-04-04T09:42:18Z</time></trkpt><trkpt lat="42.01925261281565" lon="13.003927909140831"><ele>327.0</ele><time>2026-04-04T09:42:19Z</time></trkpt><trkpt lat="42.019393994756655" lon="13.004203436331574"><ele>327.0</ele><time>2026-04-04T09:42:20Z</time></trkpt><trkpt lat="42.01953120821923" lon="13.004488715167183"><ele>327.0</ele><time>2026-04-04T09:42:21Z</time></trkpt><trkpt lat="42.0196807797075" lon="13.004786443799183"><ele>326.5</ele><time>2026-04-04T09:42:22Z</time></trkpt><trkpt lat="42.01982412629351" lon="13.005072074938983"><ele>326.0</ele><time>2026-04-04T09:42:23Z</time></trkpt><trkpt lat="42.019961204522495" lon="13.005351463384335"><ele>326.0</ele><time>2026-04-04T09:42:24Z</time></trkpt><trkpt lat="42.020097837226615" lon="13.00562470085647"><ele>326.0</ele><time>2026-04-04T09:42:25Z</time></trkpt><trkpt lat="42.02023930327033" lon="13.005894350187488"><ele>326.0</ele><time>2026-04-04T09:42:26Z</time></trkpt><trkpt lat="42.020386407849685" lon="13.006174180739922"><ele>326.0</ele><time>2026-04-04T09:42:27Z</time></trkpt><trkpt lat="42.020534128574724" lon="13.00646431100314"><ele>326.0</ele><time>2026-04-04T09:42:28Z</time></trkpt><trkpt lat="42.02067171237361" lon="13.006739826334465"><ele>326.0</ele><time>2026-04-04T09:42:29Z</time></trkpt><trkpt lat="42.02079530319691" lon="13.006987030947919"><ele>325.33333333333337</ele><time>2026-04-04T09:42:30Z</time></trkpt><trkpt lat="42.02092504878775" lon="13.007234285809677"><ele>324.6666666666667</ele><time>2026-04-04T09:42:31Z</time></trkpt><trkpt lat="42.02104739138391" lon="13.007472698665731"><ele>324.0</ele><time>2026-04-04T09:42:32Z</time></trkpt><trkpt lat="42.02116517354682" lon="13.007705028006352"><ele>324.0</ele><time>2026-04-04T09:42:33Z</time></trkpt><trkpt lat="42.02126931878889" lon="13.007918375451673"><ele>324.0</ele><time>2026-04-04T09:42:34Z</time></trkpt><trkpt lat="42.02136517105947" lon="13.008131079923551"><ele>324.0</ele><time>2026-04-04T09:42:35Z</time></trkpt><trkpt lat="42.02144851735236" lon="13.008358853848636"><ele>323.6666666666667</ele><time>2026-04-04T09:42:36Z</time></trkpt><trkpt lat="42.021496420160666" lon="13.008602965269374"><ele>323.33333333333337</ele><time>2026-04-04T09:42:37Z</time></trkpt><trkpt lat="42.02151432889883" lon="13.008846579886898"><ele>323.0</ele><time>2026-04-04T09:42:38Z</time></trkpt><trkpt lat="42.021523613828926" lon="13.00908598211168"><ele>323.0</ele><time>2026-04-04T09:42:39Z</time></trkpt><trkpt lat="42.02152722490729" lon="13.00931436446449"><ele>323.0</ele><time>2026-04-04T09:42:40Z</time></trkpt><trkpt lat="42.02155741990901" lon="13.009544578527308"><ele>323.0</ele><time>2026-04-04T09:42:41Z</time></trkpt><trkpt lat="42.02165622610099" lon="13.009770211226458"><ele>324.0</ele><time>2026-04-04T09:42:42Z</time></trkpt><trkpt lat="42.02181345494955" lon="13.009949995583796"><ele>325.0</ele><time>2026-04-04T09:42:43Z</time></trkpt><trkpt lat="42.021974394203376" lon="13.010167014925889"><ele>326.0</ele><time>2026-04-04T09:42:44Z</time></trkpt><trkpt lat="42.022178919264505" lon="13.010447144502352"><ele>326.0</ele><time>2026-04-04T09:42:45Z</time></trkpt><trkpt lat="42.02240484616038" lon="13.010790210336102"><ele>326.0</ele><time>2026-04-04T09:42:46Z</time></trkpt><trkpt lat="42.02262268164033" lon="13.011220210733779"><ele>328.5</ele><time>2026-04-04T09:42:47Z</time></trkpt><trkpt lat="42.022850334607924" lon="13.011720678672576"><ele>331.0</ele><time>2026-04-04T09:42:48Z</time></trkpt><trkpt lat="42.02305808133114" lon="13.012172261634147"><ele>331.0</ele><time>2026-04-04T09:42:49Z</time></trkpt><trkpt lat="42.023248585699896" lon="13.012521212491388"><ele>331.0</ele><time>2026-04-04T09:42:50Z</time></trkpt><trkpt lat="42.02344446246349" lon="13.01278903408435"><ele>335.0</ele><time>2026-04-04T09:42:51Z</time></trkpt><trkpt lat="42.023699930321094" lon="13.013017404500083"><ele>339.0</ele><time>2026-04-04T09:42:52Z</time></trkpt><trkpt lat="42.02395993627273" lon="13.013213063598043"><ele>338.5</ele><time>2026-04-04T09:42:53Z</time></trkpt><trkpt lat="42.02412214602509" lon="13.013481463142796"><ele>338.0</ele><time>2026-04-04T09:42:54Z</time></trkpt><trkpt lat="42.02428377564053" lon="13.013775432945977"><ele>342.5</ele><time>2026-04-04T09:42:55Z</time></trkpt><trkpt lat="42.02449448197755" lon="13.01403867133164"><ele>347.0</ele><time>2026-04-04T09:42:56Z</time></trkpt><trkpt lat="42.024748501556154" lon="13.014258826818269"><ele>347.0</ele><time>2026-04-04T09:42:57Z</time></trkpt><trkpt lat="42.02492177871607" lon="13.014489540497397"><ele>347.0</ele><time>2026-04-04T09:42:58Z</time></trkpt><trkpt lat="42.024938320254286" lon="13.01467135979021"><ele>347.0</ele><time>2026-04-04T09:42:59Z</time></trkpt><trkpt lat="42.02490804342371" lon="13.014958039227878"><ele>347.33333333333337</ele><time>2026-04-04T09:43:00Z</time></trkpt><trkpt lat="42.02483078670383" lon="13.01521191758205"><ele>347.6666666666667</ele><time>2026-04-04T09:43:01Z</time></trkpt><trkpt lat="42.02468242253831" lon="13.015425917660519"><ele>348.0</ele><time>2026-04-04T09:43:02Z</time></trkpt><trkpt lat="42.024509995338384" lon="13.015495946462337"><ele>348.0</ele><time>2026-04-04T09:43:03Z</time></trkpt><trkpt lat="42.02435344207621" lon="13.015545750105083"><ele>348.0</ele><time>2026-04-04T09:43:04Z</time></trkpt><trkpt lat="42.024266787865834" lon="13.015665339141647"><ele>348.0</ele><time>2026-04-04T09:43:05Z</time></trkpt><trkpt lat="42.024262249944336" lon="13.015837205094437"><ele>348.0</ele><time>2026-04-04T09:43:06Z</time></trkpt><trkpt lat="42.0243393795446" lon="13.015928820535906"><ele>349.3333333333333</ele><time>2026-04-04T09:43:07Z</time></trkpt><trkpt lat="42.0244757572352" lon="13.015948294521664"><ele>350.66666666666663</ele><time>2026-04-04T09:43:08.001Z</time></trkpt><trkpt lat="42.02459990813872" lon="13.015883944441935"><ele>352.0</ele><time>2026-04-04T09:43:09.001Z</time></trkpt><trkpt lat="42.02479943996054" lon="13.015843296191521"><ele>354.5</ele><time>2026-04-04T09:43:10.001Z</time></trkpt><trkpt lat="42.02513507827314" lon="13.0158170926746"><ele>357.0</ele><time>2026-04-04T09:43:11.001Z</time></trkpt><trkpt lat="42.0253728144857" lon="13.0157803305368"><ele>357.0</ele><time>2026-04-04T09:43:12.001Z</time></trkpt><trkpt lat="42.025557916284356" lon="13.015658304401024"><ele>357.0</ele><time>2026-04-04T09:43:13.001Z</time></trkpt><trkpt lat="42.02568724705657" lon="13.015449279676307"><ele>357.0</ele><time>2026-04-04T09:43:14.001Z</time></trkpt><trkpt lat="42.025834929106516" lon="13.015330394705183"><ele>360.6666666666667</ele><time>2026-04-04T09:43:15.001Z</time></trkpt><trkpt lat="42.0260180571359" lon="13.015375909822902"><ele>364.33333333333337</ele><time>2026-04-04T09:43:16.001Z</time></trkpt><trkpt lat="42.02616226800218" lon="13.015507391229937"><ele>368.0</ele><time>2026-04-04T09:43:17.001Z</time></trkpt><trkpt lat="42.026303888895924" lon="13.01569882092819"><ele>366.0</ele><time>2026-04-04T09:43:18.001Z</time></trkpt><trkpt lat="42.02653694341595" lon="13.016002970810415"><ele>364.0</ele><time>2026-04-04T09:43:19.001Z</time></trkpt><trkpt lat="42.02672678075893" lon="13.016194136353414"><ele>368.0</ele><time>2026-04-04T09:43:20.001Z</time></trkpt><trkpt lat="42.026921606052376" lon="13.016268297159659"><ele>372.0</ele><time>2026-04-04T09:43:21.001Z</time></trkpt><trkpt lat="42.02715039465577" lon="13.016305028692388"><ele>376.0</ele><time>2026-04-04T09:43:22.001Z</time></trkpt><trkpt lat="42.02737034184225" lon="13.016240096646696"><ele>378.5</ele><time>2026-04-04T09:43:23.001Z</time></trkpt><trkpt lat="42.027610074381464" lon="13.016078777117013"><ele>381.0</ele><time>2026-04-04T09:43:24.001Z</time></trkpt><trkpt lat="42.027848099311555" lon="13.01593354629382"><ele>381.0</ele><time>2026-04-04T09:43:25.001Z</time></trkpt><trkpt lat="42.028078940675655" lon="13.015936884615629"><ele>381.0</ele><time>2026-04-04T09:43:26.001Z</time></trkpt><trkpt lat="42.02830567236688" lon="13.016051512463541"><ele>385.5</ele><time>2026-04-04T09:43:27.001Z</time></trkpt><trkpt lat="42.02852837726206" lon="13.016254553582355"><ele>390.0</ele><time>2026-04-04T09:43:28.001Z</time></trkpt><trkpt lat="42.02871963222452" lon="13.016412818281673"><ele>390.0</ele><time>2026-04-04T09:43:29.001Z</time></trkpt><trkpt lat="42.02889232902912" lon="13.016439558383368"><ele>390.0</ele><time>2026-04-04T09:43:30.001Z</time></trkpt><trkpt lat="42.02906067798163" lon="13.01631247143927"><ele>390.0</ele><time>2026-04-04T09:43:31.001Z</time></trkpt><trkpt lat="42.02926034107528" lon="13.01608646815196"><ele>392.5</ele><time>2026-04-04T09:43:32.001Z</time></trkpt><trkpt lat="42.02945953270832" lon="13.015835598243408"><ele>395.0</ele><time>2026-04-04T09:43:33.001Z</time></trkpt><trkpt lat="42.02974940182164" lon="13.01553010653339"><ele>401.5</ele><time>2026-04-04T09:43:34.001Z</time></trkpt><trkpt lat="42.029954227380784" lon="13.015211703886017"><ele>408.0</ele><time>2026-04-04T09:43:35.001Z</time></trkpt><trkpt lat="42.03012534203723" lon="13.014882922863839"><ele>413.33333333333337</ele><time>2026-04-04T09:43:36.001Z</time></trkpt><trkpt lat="42.03032761568779" lon="13.014725401442238"><ele>418.6666666666667</ele><time>2026-04-04T09:43:37.001Z</time></trkpt><trkpt lat="42.03052756890524" lon="13.014687450307422"><ele>424.0</ele><time>2026-04-04T09:43:38.001Z</time></trkpt><trkpt lat="42.030714293590044" lon="13.014628348878368"><ele>420.5</ele><time>2026-04-04T09:43:39.001Z</time></trkpt><trkpt lat="42.03098678606387" lon="13.014480843080616"><ele>417.0</ele><time>2026-04-04T09:43:40.001Z</time></trkpt><trkpt lat="42.03124145550495" lon="13.014260155400402"><ele>421.5</ele><time>2026-04-04T09:43:41.001Z</time></trkpt><trkpt lat="42.03157799473695" lon="13.013983907175527"><ele>426.0</ele><time>2026-04-04T09:43:42.001Z</time></trkpt><trkpt lat="42.03191782680262" lon="13.01374068427221"><ele>426.0</ele><time>2026-04-04T09:43:43.001Z</time></trkpt><trkpt lat="42.032229919670634" lon="13.013581328798772"><ele>426.0</ele><time>2026-04-04T09:43:44.001Z</time></trkpt><trkpt lat="42.03249016931878" lon="13.01351101509116"><ele>422.5</ele><time>2026-04-04T09:43:45.001Z</time></trkpt><trkpt lat="42.03281425357163" lon="13.01345140175824"><ele>419.0</ele><time>2026-04-04T09:43:46.001Z</time></trkpt><trkpt lat="42.03313862613688" lon="13.013426172938706"><ele>419.0</ele><time>2026-04-04T09:43:47.001Z</time></trkpt><trkpt lat="42.03342399793623" lon="13.013342954168529"><ele>419.0</ele><time>2026-04-04T09:43:48.001Z</time></trkpt><trkpt lat="42.03366123930614" lon="13.01318616190907"><ele>424.66666666666663</ele><time>2026-04-04T09:43:49.001Z</time></trkpt><trkpt lat="42.033844255167445" lon="13.01299144191758"><ele>430.33333333333337</ele><time>2026-04-04T09:43:50.001Z</time></trkpt><trkpt lat="42.03397106117952" lon="13.012870723684292"><ele>436.0</ele><time>2026-04-04T09:43:51.001Z</time></trkpt><trkpt lat="42.03414984492597" lon="13.01287076457563"><ele>436.33333333333337</ele><time>2026-04-04T09:43:52.001Z</time></trkpt><trkpt lat="42.03423740809626" lon="13.012976030256501"><ele>436.66666666666663</ele><time>2026-04-04T09:43:53.001Z</time></trkpt><trkpt lat="42.034399866521404" lon="13.013105035685957"><ele>437.0</ele><time>2026-04-04T09:43:54.001Z</time></trkpt><trkpt lat="42.034658196564735" lon="13.013371469659244"><ele>437.5</ele><time>2026-04-04T09:43:55.001Z</time></trkpt><trkpt lat="42.03490021945123" lon="13.013612022502121"><ele>438.0</ele><time>2026-04-04T09:43:56Z</time></trkpt><trkpt lat="42.03507730898159" lon="13.013804867182431"><ele>438.0</ele><time>2026-04-04T09:43:57Z</time></trkpt><trkpt lat="42.035219637055604" lon="13.013994419831562"><ele>438.0</ele><time>2026-04-04T09:43:58Z</time></trkpt><trkpt lat="42.035332979472024" lon="13.014158409773849"><ele>438.0</ele><time>2026-04-04T09:43:59Z</time></trkpt><trkpt lat="42.035437218684294" lon="13.014190503067613"><ele>438.0</ele><time>2026-04-04T09:44:00Z</time></trkpt><trkpt lat="42.035572368461104" lon="13.01425614735044"><ele>438.0</ele><time>2026-04-04T09:44:01Z</time></trkpt><trkpt lat="42.03571643413571" lon="13.014325695713836"><ele>438.0</ele><time>2026-04-04T09:44:02Z</time></trkpt><trkpt lat="42.03585758948563" lon="13.014380783207367"><ele>438.0</ele><time>2026-04-04T09:44:03Z</time></trkpt><trkpt lat="42.03601473754059" lon="13.014401714063332"><ele>438.0</ele><time>2026-04-04T09:44:04Z</time></trkpt><trkpt lat="42.03617489438178" lon="13.014362010113262"><ele>438.0</ele><time>2026-04-04T09:44:05Z</time></trkpt><trkpt lat="42.036325602276705" lon="13.01428851169709"><ele>438.0</ele><time>2026-04-04T09:44:06Z</time></trkpt><trkpt lat="42.036470218196186" lon="13.01422190590082"><ele>438.0</ele><time>2026-04-04T09:44:07Z</time></trkpt><trkpt lat="42.03662051676244" lon="13.014176073128654"><ele>438.0</ele><time>2026-04-04T09:44:08Z</time></trkpt><trkpt lat="42.03677293647055" lon="13.014188355962158"><ele>438.0</ele><time>2026-04-04T09:44:09Z</time></trkpt><trkpt lat="42.03689325190636" lon="13.014308070512719"><ele>441.0</ele><time>2026-04-04T09:44:10Z</time></trkpt><trkpt lat="42.036961997236226" lon="13.014507160119337"><ele>444.0</ele><time>2026-04-04T09:44:11Z</time></trkpt><trkpt lat="42.037023325583846" lon="13.014662044399087"><ele>447.0</ele><time>2026-04-04T09:44:12Z</time></trkpt><trkpt lat="42.037090160360094" lon="13.01477803155138"><ele>450.0</ele><time>2026-04-04T09:44:13Z</time></trkpt><trkpt lat="42.037151035688304" lon="13.014900653587048"><ele>450.5</ele><time>2026-04-04T09:44:14Z</time></trkpt><trkpt lat="42.03722016304206" lon="13.015035829605655"><ele>451.0</ele><time>2026-04-04T09:44:15Z</time></trkpt><trkpt lat="42.037310864833906" lon="13.015174313797019"><ele>451.5</ele><time>2026-04-04T09:44:16Z</time></trkpt><trkpt lat="42.03748121745097" lon="13.01525892984859"><ele>452.0</ele><time>2026-04-04T09:44:17Z</time></trkpt><trkpt lat="42.037669827316414" lon="13.015257981393377"><ele>452.0</ele><time>2026-04-04T09:44:18Z</time></trkpt><trkpt lat="42.0378450701841" lon="13.015236664591772"><ele>452.0</ele><time>2026-04-04T09:44:19Z</time></trkpt><trkpt lat="42.03797178790506" lon="13.015284297412796"><ele>452.0</ele><time>2026-04-04T09:44:20Z</time></trkpt><trkpt lat="42.03805125959468" lon="13.015394951319742"><ele>452.0</ele><time>2026-04-04T09:44:21Z</time></trkpt><trkpt lat="42.038130284695086" lon="13.015466886311957"><ele>452.0</ele><time>2026-04-04T09:44:22Z</time></trkpt><trkpt lat="42.03819634657443" lon="13.015562403390469"><ele>452.00000000000006</ele><time>2026-04-04T09:44:23Z</time></trkpt><trkpt lat="42.03826261750413" lon="13.015649828985698"><ele>452.00000000000006</ele><time>2026-04-04T09:44:24Z</time></trkpt><trkpt lat="42.038321337852885" lon="13.015738437786741"><ele>452.0</ele><time>2026-04-04T09:44:25Z</time></trkpt><trkpt lat="42.03836069196292" lon="13.015846674612998"><ele>452.0</ele><time>2026-04-04T09:44:26Z</time></trkpt><trkpt lat="42.03838784274355" lon="13.015980072341472"><ele>452.8</ele><time>2026-04-04T09:44:27Z</time></trkpt><trkpt lat="42.03840403347645" lon="13.016102426806563"><ele>453.6</ele><time>2026-04-04T09:44:28Z</time></trkpt><trkpt lat="42.03843985533887" lon="13.01620472070269"><ele>454.40000000000003</ele><time>2026-04-04T09:44:29Z</time></trkpt><trkpt lat="42.038512021371574" lon="13.016297267175297"><ele>455.20000000000005</ele><time>2026-04-04T09:44:30Z</time></trkpt><trkpt lat="42.03862466023302" lon="13.016359340997544"><ele>456.0</ele><time>2026-04-04T09:44:31Z</time></trkpt><trkpt lat="42.03876791707429" lon="13.016401050680496"><ele>456.0</ele><time>2026-04-04T09:44:32Z</time></trkpt><trkpt lat="42.03890326570171" lon="13.016445120691438"><ele>456.0</ele><time>2026-04-04T09:44:33Z</time></trkpt><trkpt lat="42.03901397467398" lon="13.016494935098395"><ele>456.0</ele><time>2026-04-04T09:44:34Z</time></trkpt><trkpt lat="42.03911240134881" lon="13.016539255422456"><ele>456.0</ele><time>2026-04-04T09:44:35Z</time></trkpt><trkpt lat="42.0392109212944" lon="13.016584264978817"><ele>460.4</ele><time>2026-04-04T09:44:36Z</time></trkpt><trkpt lat="42.039310801467835" lon="13.016624176394469"><ele>464.8</ele><time>2026-04-04T09:44:37Z</time></trkpt><trkpt lat="42.03942251909991" lon="13.016630599970611"><ele>469.19999999999993</ele><time>2026-04-04T09:44:38Z</time></trkpt><trkpt lat="42.03953831364198" lon="13.016611707251075"><ele>473.59999999999997</ele><time>2026-04-04T09:44:39Z</time></trkpt><trkpt lat="42.039642751360944" lon="13.0165861043798"><ele>478.0</ele><time>2026-04-04T09:44:40Z</time></trkpt><trkpt lat="42.03974479289198" lon="13.016537379825216"><ele>478.0</ele><time>2026-04-04T09:44:41Z</time></trkpt><trkpt lat="42.03983999280371" lon="13.016478319554214"><ele>477.99999999999994</ele><time>2026-04-04T09:44:42Z</time></trkpt><trkpt lat="42.039933226292824" lon="13.01641460767131"><ele>477.99999999999994</ele><time>2026-04-04T09:44:43Z</time></trkpt><trkpt lat="42.04001911545132" lon="13.01635954296041"><ele>478.0</ele><time>2026-04-04T09:44:44Z</time></trkpt><trkpt lat="42.040106165506984" lon="13.016308456204428"><ele>478.0</ele><time>2026-04-04T09:44:45Z</time></trkpt><trkpt lat="42.040201438903274" lon="13.016253311718902"><ele>479.0</ele><time>2026-04-04T09:44:46Z</time></trkpt><trkpt lat="42.04030593454071" lon="13.016203910932447"><ele>479.99999999999994</ele><time>2026-04-04T09:44:47Z</time></trkpt><trkpt lat="42.04041311096564" lon="13.016169481743312"><ele>480.99999999999994</ele><time>2026-04-04T09:44:48Z</time></trkpt><trkpt lat="42.04050944988182" lon="13.016154570029531"><ele>482.0</ele><time>2026-04-04T09:44:49Z</time></trkpt><trkpt lat="42.04059791259894" lon="13.016150463864358"><ele>483.0</ele><time>2026-04-04T09:44:50Z</time></trkpt><trkpt lat="42.0406826940421" lon="13.016136290318451"><ele>483.0</ele><time>2026-04-04T09:44:51Z</time></trkpt><trkpt lat="42.04077459295014" lon="13.016114861448347"><ele>483.0</ele><time>2026-04-04T09:44:52Z</time></trkpt><trkpt lat="42.04087277592937" lon="13.016095801575563"><ele>483.0</ele><time>2026-04-04T09:44:53Z</time></trkpt><trkpt lat="42.040964925105605" lon="13.016084749383866"><ele>483.0</ele><time>2026-04-04T09:44:54Z</time></trkpt><trkpt lat="42.0410414415046" lon="13.01608541659634"><ele>483.0</ele><time>2026-04-04T09:44:55Z</time></trkpt><trkpt lat="42.04111138665148" lon="13.016090008932983"><ele>483.0</ele><time>2026-04-04T09:44:56Z</time></trkpt><trkpt lat="42.04118376754585" lon="13.016096934359444"><ele>482.57142857142856</ele><time>2026-04-04T09:44:57Z</time></trkpt><trkpt lat="42.04125319266846" lon="13.016073779015857"><ele>482.1428571428571</ele><time>2026-04-04T09:44:58Z</time></trkpt><trkpt lat="42.041309229929546" lon="13.015933528626451"><ele>481.7142857142857</ele><time>2026-04-04T09:45:00Z</time></trkpt><trkpt lat="42.04128112359135" lon="13.015852072685808"><ele>481.2857142857143</ele><time>2026-04-04T09:45:01Z</time></trkpt><trkpt lat="42.04123513726506" lon="13.015793783200753"><ele>480.85714285714283</ele><time>2026-04-04T09:45:02Z</time></trkpt><trkpt lat="42.04117731231834" lon="13.01575923155735"><ele>480.42857142857144</ele><time>2026-04-04T09:45:03Z</time></trkpt><trkpt lat="42.04112102431437" lon="13.015720211486046"><ele>480.0</ele><time>2026-04-04T09:45:05Z</time></trkpt><trkpt lat="42.04102285810166" lon="13.015734705507674"><ele>486.75</ele><time>2026-04-04T09:46:02Z</time></trkpt><trkpt lat="42.040912659243325" lon="13.015737634011725"><ele>493.5</ele><time>2026-04-04T09:46:03Z</time></trkpt><trkpt lat="42.040775390131515" lon="13.015744978246909"><ele>500.25</ele><time>2026-04-04T09:46:04Z</time></trkpt><trkpt lat="42.04065090461461" lon="13.015752795153873"><ele>507.0</ele><time>2026-04-04T09:46:05Z</time></trkpt><trkpt lat="42.04052776394238" lon="13.015762916765619"><ele>507.75</ele><time>2026-04-04T09:46:06Z</time></trkpt><trkpt lat="42.040406540263064" lon="13.015774054182039"><ele>508.5</ele><time>2026-04-04T09:46:07Z</time></trkpt><trkpt lat="42.040277249201644" lon="13.015803413271499"><ele>509.25</ele><time>2026-04-04T09:46:08Z</time></trkpt><trkpt lat="42.04016538982077" lon="13.015874360195326"><ele>510.0</ele><time>2026-04-04T09:46:09Z</time></trkpt><trkpt lat="42.04008007855227" lon="13.016009155283895"><ele>503.25</ele><time>2026-04-04T09:46:10Z</time></trkpt><trkpt lat="42.03997005826094" lon="13.016041104470466"><ele>496.5</ele><time>2026-04-04T09:46:11Z</time></trkpt><trkpt lat="42.03984930330752" lon="13.016045364983594"><ele>489.75</ele><time>2026-04-04T09:46:12Z</time></trkpt><trkpt lat="42.03970736102374" lon="13.016057948716702"><ele>483.0</ele><time>2026-04-04T09:46:13Z</time></trkpt><trkpt lat="42.039555199862946" lon="13.01605399743689"><ele>481.33333333333337</ele><time>2026-04-04T09:46:14Z</time></trkpt><trkpt lat="42.03943086423357" lon="13.01597415537664"><ele>479.6666666666667</ele><time>2026-04-04T09:46:15Z</time></trkpt><trkpt lat="42.039358484277" lon="13.015796572197564"><ele>478.0</ele><time>2026-04-04T09:46:16Z</time></trkpt><trkpt lat="42.039226519970235" lon="13.015524787860898"><ele>475.0</ele><time>2026-04-04T09:46:17Z</time></trkpt><trkpt lat="42.039083656173474" lon="13.01522720292671"><ele>472.0</ele><time>2026-04-04T09:46:18Z</time></trkpt><trkpt lat="42.038988251551416" lon="13.015017139030597"><ele>469.0</ele><time>2026-04-04T09:46:19Z</time></trkpt><trkpt lat="42.03893863888011" lon="13.014882199340462"><ele>473.4</ele><time>2026-04-04T09:46:20Z</time></trkpt><trkpt lat="42.038907070243354" lon="13.014787088974176"><ele>477.79999999999995</ele><time>2026-04-04T09:46:21Z</time></trkpt><trkpt lat="42.03895553763184" lon="13.014683980219388"><ele>482.20000000000005</ele><time>2026-04-04T09:46:22Z</time></trkpt><trkpt lat="42.03902077778622" lon="13.014675678241268"><ele>486.6</ele><time>2026-04-04T09:46:23Z</time></trkpt><trkpt lat="42.03912743062173" lon="13.014768790556767"><ele>491.0</ele><time>2026-04-04T09:46:24Z</time></trkpt><trkpt lat="42.03919245045318" lon="13.014965324987287"><ele>491.3333333333333</ele><time>2026-04-04T09:46:25Z</time></trkpt><trkpt lat="42.03929804620254" lon="13.015181144963023"><ele>491.66666666666663</ele><time>2026-04-04T09:46:26Z</time></trkpt><trkpt lat="42.039401220279316" lon="13.015363812457702"><ele>492.0</ele><time>2026-04-04T09:46:27Z</time></trkpt><trkpt lat="42.03949853445705" lon="13.015486980544985"><ele>492.0</ele><time>2026-04-04T09:46:28Z</time></trkpt><trkpt lat="42.039637659063764" lon="13.01558605010116"><ele>492.0</ele><time>2026-04-04T09:46:29Z</time></trkpt><trkpt lat="42.03980945768716" lon="13.015623974836686"><ele>492.0</ele><time>2026-04-04T09:46:30Z</time></trkpt><trkpt lat="42.039993606613365" lon="13.015560579081324"><ele>498.0</ele><time>2026-04-04T09:46:31Z</time></trkpt><trkpt lat="42.040162925311215" lon="13.015398658033412"><ele>504.0</ele><time>2026-04-04T09:46:32Z</time></trkpt><trkpt lat="42.04034283522904" lon="13.015194434642755"><ele>510.0</ele><time>2026-04-04T09:46:33Z</time></trkpt><trkpt lat="42.04058330982635" lon="13.015098106679414"><ele>508.5</ele><time>2026-04-04T09:46:34Z</time></trkpt><trkpt lat="42.04083586962503" lon="13.015027284981365"><ele>507.0</ele><time>2026-04-04T09:46:35Z</time></trkpt><trkpt lat="42.041017972824946" lon="13.01491280446012"><ele>519.0</ele><time>2026-04-04T09:46:36Z</time></trkpt><trkpt lat="42.04117571178562" lon="13.014664218881583"><ele>531.0</ele><time>2026-04-04T09:46:37Z</time></trkpt><trkpt lat="42.04132602981185" lon="13.014449101057421"><ele>531.0</ele><time>2026-04-04T09:46:38Z</time></trkpt><trkpt lat="42.04148989642771" lon="13.014352281792087"><ele>531.0</ele><time>2026-04-04T09:46:39Z</time></trkpt><trkpt lat="42.04170230279571" lon="13.014293288772475"><ele>531.0</ele><time>2026-04-04T09:46:40Z</time></trkpt><trkpt lat="42.041949717743634" lon="13.014231711845326"><ele>527.3333333333334</ele><time>2026-04-04T09:46:41Z</time></trkpt><trkpt lat="42.04216416449926" lon="13.014227453186814"><ele>523.6666666666667</ele><time>2026-04-04T09:46:42Z</time></trkpt><trkpt lat="42.042371671280634" lon="13.01430937839501"><ele>520.0</ele><time>2026-04-04T09:46:43Z</time></trkpt><trkpt lat="42.042572071639924" lon="13.014413911645985"><ele>520.0</ele><time>2026-04-04T09:46:44Z</time></trkpt><trkpt lat="42.04280246260327" lon="13.014403681163014"><ele>520.0</ele><time>2026-04-04T09:46:45Z</time></trkpt><trkpt lat="42.04302788912916" lon="13.014302793589918"><ele>520.0</ele><time>2026-04-04T09:46:46Z</time></trkpt><trkpt lat="42.043240009319554" lon="13.014315897664874"><ele>520.0</ele><time>2026-04-04T09:46:47Z</time></trkpt><trkpt lat="42.04346489958798" lon="13.014377820834184"><ele>520.0</ele><time>2026-04-04T09:46:48Z</time></trkpt><trkpt lat="42.04364192211065" lon="13.014458008873108"><ele>521.6666666666667</ele><time>2026-04-04T09:46:49Z</time></trkpt><trkpt lat="42.04381384829312" lon="13.014587789299405"><ele>523.3333333333334</ele><time>2026-04-04T09:46:50Z</time></trkpt><trkpt lat="42.043952774037834" lon="13.014761245266197"><ele>525.0</ele><time>2026-04-04T09:46:51Z</time></trkpt><trkpt lat="42.04410921444098" lon="13.014858032703561"><ele>527.0</ele><time>2026-04-04T09:46:52Z</time></trkpt><trkpt lat="42.04431634024684" lon="13.014874682097192"><ele>529.0</ele><time>2026-04-04T09:46:53Z</time></trkpt><trkpt lat="42.044556558951015" lon="13.01481672390862"><ele>529.0</ele><time>2026-04-04T09:46:54Z</time></trkpt><trkpt lat="42.044783823479264" lon="13.01477800201569"><ele>529.0</ele><time>2026-04-04T09:46:55Z</time></trkpt><trkpt lat="42.044979042085096" lon="13.014825272417369"><ele>529.0</ele><time>2026-04-04T09:46:56Z</time></trkpt><trkpt lat="42.04514222538834" lon="13.014971056422079"><ele>528.6666666666667</ele><time>2026-04-04T09:46:57Z</time></trkpt><trkpt lat="42.045308023180674" lon="13.01508607750503"><ele>528.3333333333334</ele><time>2026-04-04T09:46:58Z</time></trkpt><trkpt lat="42.04551202258373" lon="13.015150663649335"><ele>528.0</ele><time>2026-04-04T09:46:59Z</time></trkpt><trkpt lat="42.04571377689776" lon="13.015144340189922"><ele>528.6666666666666</ele><time>2026-04-04T09:47:00Z</time></trkpt><trkpt lat="42.045844181847045" lon="13.015096946736033"><ele>529.3333333333333</ele><time>2026-04-04T09:47:01Z</time></trkpt><trkpt lat="42.04593030588631" lon="13.014960410355037"><ele>530.0</ele><time>2026-04-04T09:47:02Z</time></trkpt><trkpt lat="42.04597548076389" lon="13.014721812090468"><ele>535.0</ele><time>2026-04-04T09:47:03Z</time></trkpt><trkpt lat="42.046001250656374" lon="13.01441229937439"><ele>540.0</ele><time>2026-04-04T09:47:04Z</time></trkpt><trkpt lat="42.04610245404219" lon="13.014134383327933"><ele>543.0</ele><time>2026-04-04T09:47:05Z</time></trkpt><trkpt lat="42.04621129223672" lon="13.013887252931438"><ele>546.0</ele><time>2026-04-04T09:47:06Z</time></trkpt><trkpt lat="42.046310387088724" lon="13.013699444250275"><ele>549.0</ele><time>2026-04-04T09:47:07Z</time></trkpt><trkpt lat="42.04641475181457" lon="13.01354874349601"><ele>549.0</ele><time>2026-04-04T09:47:08Z</time></trkpt><trkpt lat="42.046574001874696" lon="13.013546141698038"><ele>549.0</ele><time>2026-04-04T09:47:09Z</time></trkpt><trkpt lat="42.046716728672834" lon="13.013638404512605"><ele>549.0</ele><time>2026-04-04T09:47:10Z</time></trkpt><trkpt lat="42.046831307733505" lon="13.013823360978577"><ele>549.0</ele><time>2026-04-04T09:47:11Z</time></trkpt><trkpt lat="42.04694260114064" lon="13.014062753938202"><ele>549.0</ele><time>2026-04-04T09:47:12Z</time></trkpt><trkpt lat="42.047042300879134" lon="13.014291458151842"><ele>549.0</ele><time>2026-04-04T09:47:13Z</time></trkpt><trkpt lat="42.04713184137635" lon="13.014464889400271"><ele>548.5</ele><time>2026-04-04T09:47:14Z</time></trkpt><trkpt lat="42.04725174135665" lon="13.014534230948561"><ele>548.0</ele><time>2026-04-04T09:47:15Z</time></trkpt><trkpt lat="42.04738353066357" lon="13.014496669318246"><ele>547.5</ele><time>2026-04-04T09:47:16Z</time></trkpt><trkpt lat="42.047502759415096" lon="13.014356479440684"><ele>547.0</ele><time>2026-04-04T09:47:17Z</time></trkpt><trkpt lat="42.04763494687835" lon="13.014133063302454"><ele>551.5</ele><time>2026-04-04T09:47:18Z</time></trkpt><trkpt lat="42.04778996512415" lon="13.013881495263023"><ele>556.0</ele><time>2026-04-04T09:47:19Z</time></trkpt><trkpt lat="42.04794904642182" lon="13.013650334554756"><ele>556.0</ele><time>2026-04-04T09:47:20Z</time></trkpt><trkpt lat="42.048113041887575" lon="13.013472212770028"><ele>556.0</ele><time>2026-04-04T09:47:21Z</time></trkpt><trkpt lat="42.04833075983373" lon="13.013376253165694"><ele>556.0</ele><time>2026-04-04T09:47:22Z</time></trkpt><trkpt lat="42.04858979787593" lon="13.01327881292664"><ele>564.3333333333334</ele><time>2026-04-04T09:47:23Z</time></trkpt><trkpt lat="42.04881119539761" lon="13.013221087228562"><ele>572.6666666666666</ele><time>2026-04-04T09:47:24Z</time></trkpt><trkpt lat="42.04900007206596" lon="13.013118222824508"><ele>581.0</ele><time>2026-04-04T09:47:25Z</time></trkpt><trkpt lat="42.04915910814539" lon="13.01298132966998"><ele>581.0</ele><time>2026-04-04T09:47:26Z</time></trkpt><trkpt lat="42.049282301718975" lon="13.012844198241122"><ele>581.0</ele><time>2026-04-04T09:47:27Z</time></trkpt><trkpt lat="42.049413402025635" lon="13.012712569107572"><ele>581.0</ele><time>2026-04-04T09:47:28Z</time></trkpt><trkpt lat="42.04959034763222" lon="13.012615755977171"><ele>581.0</ele><time>2026-04-04T09:47:29Z</time></trkpt><trkpt lat="42.04979127588454" lon="13.012580767007844"><ele>581.0</ele><time>2026-04-04T09:47:30Z</time></trkpt><trkpt lat="42.049967312591114" lon="13.01260372110786"><ele>581.0</ele><time>2026-04-04T09:47:31Z</time></trkpt><trkpt lat="42.05015880191872" lon="13.0126337022627"><ele>580.75</ele><time>2026-04-04T09:47:32Z</time></trkpt><trkpt lat="42.0503195864756" lon="13.012648030979452"><ele>580.5</ele><time>2026-04-04T09:47:33Z</time></trkpt><trkpt lat="42.05040758640281" lon="13.012674876659814"><ele>580.25</ele><time>2026-04-04T09:47:34Z</time></trkpt><trkpt lat="42.0505128093008" lon="13.012745804077284"><ele>580.0</ele><time>2026-04-04T09:47:35Z</time></trkpt><trkpt lat="42.05068326689444" lon="13.01281986136842"><ele>581.5</ele><time>2026-04-04T09:47:36Z</time></trkpt><trkpt lat="42.05085504409921" lon="13.012888895792361"><ele>583.0</ele><time>2026-04-04T09:47:37Z</time></trkpt><trkpt lat="42.05098826943435" lon="13.012935285995374"><ele>584.5</ele><time>2026-04-04T09:47:38Z</time></trkpt><trkpt lat="42.05108565819658" lon="13.013011853333667"><ele>586.0</ele><time>2026-04-04T09:47:39Z</time></trkpt><trkpt lat="42.05117230806599" lon="13.013071094738955"><ele>586.0</ele><time>2026-04-04T09:47:40Z</time></trkpt><trkpt lat="42.05124901424877" lon="13.013146284165616"><ele>586.0</ele><time>2026-04-04T09:47:41Z</time></trkpt><trkpt lat="42.05132897273887" lon="13.01320854265075"><ele>586.0</ele><time>2026-04-04T09:47:42Z</time></trkpt><trkpt lat="42.05142105086953" lon="13.01327791245734"><ele>586.0</ele><time>2026-04-04T09:47:43Z</time></trkpt><trkpt lat="42.05148599133952" lon="13.013354607167997"><ele>586.0</ele><time>2026-04-04T09:47:44Z</time></trkpt><trkpt lat="42.05155611536156" lon="13.013448484241453"><ele>583.75</ele><time>2026-04-04T09:47:45Z</time></trkpt><trkpt lat="42.05161302339248" lon="13.013559302730158"><ele>581.5</ele><time>2026-04-04T09:47:46Z</time></trkpt><trkpt lat="42.05168768555152" lon="13.013674571366082"><ele>579.25</ele><time>2026-04-04T09:47:47Z</time></trkpt><trkpt lat="42.051837133401776" lon="13.013848931037858"><ele>577.0</ele><time>2026-04-04T09:47:48Z</time></trkpt><trkpt lat="42.052042534496415" lon="13.014041575988571"><ele>571.5</ele><time>2026-04-04T09:47:49.001Z</time></trkpt><trkpt lat="42.05231182969542" lon="13.014224648017306"><ele>566.0</ele><time>2026-04-04T09:47:50.001Z</time></trkpt><trkpt lat="42.052634939730176" lon="13.014413134091775"><ele>566.0</ele><time>2026-04-04T09:47:51.001Z</time></trkpt><trkpt lat="42.05302757151397" lon="13.014610794684078"><ele>566.0</ele><time>2026-04-04T09:47:52.001Z</time></trkpt><trkpt lat="42.05345024245462" lon="13.014831680094954"><ele>565.5</ele><time>2026-04-04T09:47:53.001Z</time></trkpt><trkpt lat="42.05384311849472" lon="13.015039862875811"><ele>565.0</ele><time>2026-04-04T09:47:54.001Z</time></trkpt><trkpt lat="42.054204384495954" lon="13.015248341427279"><ele>568.0</ele><time>2026-04-04T09:47:55.001Z</time></trkpt><trkpt lat="42.054518469590874" lon="13.015404047968987"><ele>571.0</ele><time>2026-04-04T09:47:56.001Z</time></trkpt><trkpt lat="42.054830287544064" lon="13.015512822919447"><ele>570.5</ele><time>2026-04-04T09:47:57.001Z</time></trkpt><trkpt lat="42.05512003742644" lon="13.015576208356256"><ele>570.0</ele><time>2026-04-04T09:47:58.001Z</time></trkpt><trkpt lat="42.05542551562871" lon="13.015603839524301"><ele>570.5</ele><time>2026-04-04T09:47:59.001Z</time></trkpt><trkpt lat="42.055799237618345" lon="13.015590609769752"><ele>571.0</ele><time>2026-04-04T09:48:00.001Z</time></trkpt><trkpt lat="42.056237766265106" lon="13.015550340365449"><ele>575.0</ele><time>2026-04-04T09:48:01.001Z</time></trkpt><trkpt lat="42.056722715901344" lon="13.015489795456299"><ele>575.0</ele><time>2026-04-04T09:48:02.001Z</time></trkpt><trkpt lat="42.057220437784885" lon="13.01543487872773"><ele>578.5</ele><time>2026-04-04T09:48:03.001Z</time></trkpt><trkpt lat="42.057644230372155" lon="13.015383177306909"><ele>582.0</ele><time>2026-04-04T09:48:04.001Z</time></trkpt><trkpt lat="42.05801218647336" lon="13.01533435116848"><ele>587.5</ele><time>2026-04-04T09:48:05.001Z</time></trkpt><trkpt lat="42.0583277739605" lon="13.015297122191287"><ele>593.0</ele><time>2026-04-04T09:48:06.001Z</time></trkpt><trkpt lat="42.05863133125633" lon="13.01527095470476"><ele>593.0</ele><time>2026-04-04T09:48:07.001Z</time></trkpt><trkpt lat="42.05892388778337" lon="13.015276409458966"><ele>593.0</ele><time>2026-04-04T09:48:08Z</time></trkpt><trkpt lat="42.05917684192557" lon="13.015356462272855"><ele>594.5</ele><time>2026-04-04T09:48:09Z</time></trkpt><trkpt lat="42.05940678819209" lon="13.015502178110635"><ele>596.0</ele><time>2026-04-04T09:48:10Z</time></trkpt><trkpt lat="42.059576669125335" lon="13.015731620733895"><ele>602.0</ele><time>2026-04-04T09:48:11Z</time></trkpt><trkpt lat="42.05972046623083" lon="13.016002314887078"><ele>608.0</ele><time>2026-04-04T09:48:12Z</time></trkpt><trkpt lat="42.059853802663795" lon="13.016332464415996"><ele>617.0</ele><time>2026-04-04T09:48:13Z</time></trkpt><trkpt lat="42.05989301838466" lon="13.016695256640851"><ele>626.0</ele><time>2026-04-04T09:48:14Z</time></trkpt><trkpt lat="42.059881292398416" lon="13.017077959383213"><ele>624.5</ele><time>2026-04-04T09:48:15Z</time></trkpt><trkpt lat="42.059838290559135" lon="13.017515357544607"><ele>623.0</ele><time>2026-04-04T09:48:16Z</time></trkpt><trkpt lat="42.05978798980708" lon="13.018019932246137"><ele>616.5</ele><time>2026-04-04T09:48:17Z</time></trkpt><trkpt lat="42.05973025561703" lon="13.018609204210621"><ele>610.0</ele><time>2026-04-04T09:48:18Z</time></trkpt><trkpt lat="42.05967205258763" lon="13.019221861038424"><ele>608.0</ele><time>2026-04-04T09:48:19Z</time></trkpt><trkpt lat="42.05961452216018" lon="13.019849812477794"><ele>606.0</ele><time>2026-04-04T09:48:20Z</time></trkpt><trkpt lat="42.05957232072329" lon="13.02048645132456"><ele>606.0</ele><time>2026-04-04T09:48:21Z</time></trkpt><trkpt lat="42.05955560187697" lon="13.02117670090669"><ele>605.0</ele><time>2026-04-04T09:48:22Z</time></trkpt><trkpt lat="42.059566641639805" lon="13.02180824534948"><ele>605.0</ele><time>2026-04-04T09:48:23Z</time></trkpt><trkpt lat="42.059580520124534" lon="13.022343036305202"><ele>605.0</ele><time>2026-04-04T09:48:24Z</time></trkpt><trkpt lat="42.05960932684624" lon="13.022841789041628"><ele>610.0</ele><time>2026-04-04T09:48:25Z</time></trkpt><trkpt lat="42.059673614381516" lon="13.023324365130968"><ele>615.0</ele><time>2026-04-04T09:48:26Z</time></trkpt><trkpt lat="42.059802680219" lon="13.023835014945162"><ele>614.0</ele><time>2026-04-04T09:48:27Z</time></trkpt><trkpt lat="42.05994803354366" lon="13.02439338844748"><ele>613.0</ele><time>2026-04-04T09:48:28Z</time></trkpt><trkpt lat="42.060092097046734" lon="13.024987552746582"><ele>613.0</ele><time>2026-04-04T09:48:29Z</time></trkpt><trkpt lat="42.06024891192653" lon="13.02565492485525"><ele>614.0</ele><time>2026-04-04T09:48:30Z</time></trkpt><trkpt lat="42.060416564713535" lon="13.02638375225942"><ele>621.0</ele><time>2026-04-04T09:48:31Z</time></trkpt><trkpt lat="42.06055570387171" lon="13.027039896715918"><ele>626.0</ele><time>2026-04-04T09:48:32Z</time></trkpt><trkpt lat="42.06066791647812" lon="13.027588498941538"><ele>631.0</ele><time>2026-04-04T09:48:33Z</time></trkpt><trkpt lat="42.06077939392268" lon="13.028055979146323"><ele>621.5</ele><time>2026-04-04T09:48:34Z</time></trkpt><trkpt lat="42.060889222796" lon="13.028530086820851"><ele>612.0</ele><time>2026-04-04T09:48:35Z</time></trkpt><trkpt lat="42.06096628568117" lon="13.029031234014083"><ele>613.5</ele><time>2026-04-04T09:48:36Z</time></trkpt><trkpt lat="42.060979082288995" lon="13.029492756765746"><ele>615.0</ele><time>2026-04-04T09:48:37Z</time></trkpt><trkpt lat="42.06090295806961" lon="13.029996935158076"><ele>615.0</ele><time>2026-04-04T09:48:38Z</time></trkpt><trkpt lat="42.06086020922174" lon="13.030564003739967"><ele>615.0</ele><time>2026-04-04T09:48:39Z</time></trkpt><trkpt lat="42.06080515860521" lon="13.031071436023444"><ele>622.5</ele><time>2026-04-04T09:48:40Z</time></trkpt><trkpt lat="42.060768676741375" lon="13.031459786209783"><ele>630.0</ele><time>2026-04-04T09:48:41Z</time></trkpt><trkpt lat="42.06074251015265" lon="13.03179964572193"><ele>630.0</ele><time>2026-04-04T09:48:42Z</time></trkpt><trkpt lat="42.06071954502168" lon="13.032126991844327"><ele>630.0</ele><time>2026-04-04T09:48:43Z</time></trkpt><trkpt lat="42.06070584394186" lon="13.032439765534402"><ele>628.0</ele><time>2026-04-04T09:48:44Z</time></trkpt><trkpt lat="42.0607079972734" lon="13.032746656664015"><ele>626.0</ele><time>2026-04-04T09:48:45Z</time></trkpt><trkpt lat="42.06073276774435" lon="13.033069272215123"><ele>625.0</ele><time>2026-04-04T09:48:46Z</time></trkpt><trkpt lat="42.060781640681" lon="13.033401365467771"><ele>624.0</ele><time>2026-04-04T09:48:47Z</time></trkpt><trkpt lat="42.06085742898792" lon="13.033759664361172"><ele>618.0</ele><time>2026-04-04T09:48:48Z</time></trkpt><trkpt lat="42.06093956858397" lon="13.034143879326379"><ele>612.0</ele><time>2026-04-04T09:48:49Z</time></trkpt><trkpt lat="42.06103023438706" lon="13.034602006305503"><ele>611.0</ele><time>2026-04-04T09:48:50Z</time></trkpt><trkpt lat="42.06112905536601" lon="13.035148778381018"><ele>610.0</ele><time>2026-04-04T09:48:51Z</time></trkpt><trkpt lat="42.06122872674812" lon="13.035754058499224"><ele>610.0</ele><time>2026-04-04T09:48:52Z</time></trkpt><trkpt lat="42.06128212196091" lon="13.036350427740024"><ele>610.0</ele><time>2026-04-04T09:48:53Z</time></trkpt><trkpt lat="42.061280252259486" lon="13.036929871528324"><ele>610.0</ele><time>2026-04-04T09:48:54Z</time></trkpt><trkpt lat="42.06128754206717" lon="13.037468108741283"><ele>610.0</ele><time>2026-04-04T09:48:55Z</time></trkpt><trkpt lat="42.061310589403554" lon="13.037951855735013"><ele>611.0</ele><time>2026-04-04T09:48:56Z</time></trkpt><trkpt lat="42.06134429119176" lon="13.038390675967571"><ele>612.0</ele><time>2026-04-04T09:48:57Z</time></trkpt><trkpt lat="42.061384106899524" lon="13.038797567245796"><ele>613.0</ele><time>2026-04-04T09:48:58Z</time></trkpt><trkpt lat="42.06144661727612" lon="13.039181423985939"><ele>614.0</ele><time>2026-04-04T09:48:59Z</time></trkpt><trkpt lat="42.06153475490824" lon="13.03953095203707"><ele>617.5</ele><time>2026-04-04T09:49:00Z</time></trkpt><trkpt lat="42.06164507665059" lon="13.039834932313234"><ele>621.0</ele><time>2026-04-04T09:49:01Z</time></trkpt><trkpt lat="42.06176627702019" lon="13.040097827890957"><ele>621.6666666666666</ele><time>2026-04-04T09:49:02Z</time></trkpt><trkpt lat="42.06188625008566" lon="13.040333389477587"><ele>622.3333333333333</ele><time>2026-04-04T09:49:03Z</time></trkpt><trkpt lat="42.06201810113485" lon="13.04056273074118"><ele>623.0</ele><time>2026-04-04T09:49:04Z</time></trkpt><trkpt lat="42.06217680931317" lon="13.0407987800406"><ele>624.5</ele><time>2026-04-04T09:49:05Z</time></trkpt><trkpt lat="42.062353468348" lon="13.04102867277533"><ele>626.0</ele><time>2026-04-04T09:49:06Z</time></trkpt><trkpt lat="42.06254292374505" lon="13.041242994686392"><ele>626.0</ele><time>2026-04-04T09:49:07Z</time></trkpt><trkpt lat="42.06274412031706" lon="13.041434448873598"><ele>626.0</ele><time>2026-04-04T09:49:08Z</time></trkpt><trkpt lat="42.06295873797041" lon="13.04161312513676"><ele>626.0</ele><time>2026-04-04T09:49:09Z</time></trkpt><trkpt lat="42.06317133434921" lon="13.04178640802367"><ele>626.0</ele><time>2026-04-04T09:49:10Z</time></trkpt><trkpt lat="42.063379125223136" lon="13.041970100786454"><ele>626.0</ele><time>2026-04-04T09:49:11Z</time></trkpt><trkpt lat="42.06356840539757" lon="13.042146465377401"><ele>626.0</ele><time>2026-04-04T09:49:12Z</time></trkpt><trkpt lat="42.063738921694124" lon="13.042301047170072"><ele>626.0</ele><time>2026-04-04T09:49:13Z</time></trkpt><trkpt lat="42.06390943816029" lon="13.042448254481245"><ele>625.5</ele><time>2026-04-04T09:49:14Z</time></trkpt><trkpt lat="42.06405276347382" lon="13.042576661981661"><ele>625.0</ele><time>2026-04-04T09:49:15Z</time></trkpt><trkpt lat="42.06416486684844" lon="13.042685418456923"><ele>624.5</ele><time>2026-04-04T09:49:16Z</time></trkpt><trkpt lat="42.06424528902702" lon="13.042778846622229"><ele>624.0</ele><time>2026-04-04T09:49:17Z</time></trkpt><trkpt lat="42.06429820924237" lon="13.042868034485853"><ele>623.8333333333334</ele><time>2026-04-04T09:49:18Z</time></trkpt><trkpt lat="42.06433032174671" lon="13.04296398766582"><ele>623.6666666666666</ele><time>2026-04-04T09:49:19Z</time></trkpt><trkpt lat="42.064346787412305" lon="13.043066092984715"><ele>623.5</ele><time>2026-04-04T09:49:20Z</time></trkpt><trkpt lat="42.064376761632815" lon="13.043153698930833"><ele>623.3333333333333</ele><time>2026-04-04T09:49:21Z</time></trkpt><trkpt lat="42.06444422069682" lon="13.043234047048267"><ele>623.1666666666666</ele><time>2026-04-04T09:49:22Z</time></trkpt><trkpt lat="42.06452927270511" lon="13.043291896904048"><ele>623.0</ele><time>2026-04-04T09:49:23Z</time></trkpt><trkpt lat="42.06463567901534" lon="13.043360526672538"><ele>623.0</ele><time>2026-04-04T09:49:24Z</time></trkpt><trkpt lat="42.064748152926654" lon="13.043420676972058"><ele>623.0</ele><time>2026-04-04T09:49:25Z</time></trkpt><trkpt lat="42.06481981586676" lon="13.043638091324247"><ele>623.0</ele><time>2026-04-04T09:49:26Z</time></trkpt><trkpt lat="42.064892630607375" lon="13.04381606402435"><ele>623.0</ele><time>2026-04-04T09:49:27Z</time></trkpt><trkpt lat="42.064978664267315" lon="13.044006747529002"><ele>622.5</ele><time>2026-04-04T09:49:28Z</time></trkpt><trkpt lat="42.06510692959928" lon="13.044259169286997"><ele>622.0</ele><time>2026-04-04T09:49:29Z</time></trkpt><trkpt lat="42.065238094408755" lon="13.044550522053553"><ele>622.0</ele><time>2026-04-04T09:49:30Z</time></trkpt><trkpt lat="42.06537744149047" lon="13.044809299475142"><ele>622.0</ele><time>2026-04-04T09:49:31Z</time></trkpt><trkpt lat="42.06553915067941" lon="13.045042522896726"><ele>620.5</ele><time>2026-04-04T09:49:32Z</time></trkpt><trkpt lat="42.06571660625208" lon="13.045236539588366"><ele>619.0</ele><time>2026-04-04T09:49:33Z</time></trkpt><trkpt lat="42.06595002021027" lon="13.04541143861732"><ele>619.0</ele><time>2026-04-04T09:49:34Z</time></trkpt><trkpt lat="42.06623394693807" lon="13.045561074067315"><ele>619.0</ele><time>2026-04-04T09:49:35Z</time></trkpt><trkpt lat="42.06653270765736" lon="13.045723492030701"><ele>617.0</ele><time>2026-04-04T09:49:36Z</time></trkpt><trkpt lat="42.06682578214857" lon="13.045901488203327"><ele>615.0</ele><time>2026-04-04T09:49:37Z</time></trkpt><trkpt lat="42.067133542992956" lon="13.046099214408715"><ele>615.0</ele><time>2026-04-04T09:49:38Z</time></trkpt><trkpt lat="42.06744350580208" lon="13.046317612770894"><ele>615.0</ele><time>2026-04-04T09:49:39Z</time></trkpt><trkpt lat="42.0677410728396" lon="13.046566185631034"><ele>613.0</ele><time>2026-04-04T09:49:40Z</time></trkpt><trkpt lat="42.06804557250228" lon="13.046851522685817"><ele>611.0</ele><time>2026-04-04T09:49:41Z</time></trkpt><trkpt lat="42.06833629848761" lon="13.04714818387935"><ele>611.0</ele><time>2026-04-04T09:49:42Z</time></trkpt><trkpt lat="42.0686231450335" lon="13.047428515669976"><ele>611.0</ele><time>2026-04-04T09:49:43Z</time></trkpt><trkpt lat="42.068875729353195" lon="13.04767202607536"><ele>612.5</ele><time>2026-04-04T09:49:44Z</time></trkpt><trkpt lat="42.069113743499834" lon="13.047895010008025"><ele>614.0</ele><time>2026-04-04T09:49:45Z</time></trkpt><trkpt lat="42.06933046752759" lon="13.048102045742343"><ele>612.0</ele><time>2026-04-04T09:49:46Z</time></trkpt><trkpt lat="42.06953073217247" lon="13.048295178607466"><ele>610.0</ele><time>2026-04-04T09:49:47Z</time></trkpt><trkpt lat="42.06972586070097" lon="13.048484830066782"><ele>610.0</ele><time>2026-04-04T09:49:48Z</time></trkpt><trkpt lat="42.069892973622395" lon="13.048641276096102"><ele>610.0</ele><time>2026-04-04T09:49:49Z</time></trkpt><trkpt lat="42.07004573627684" lon="13.048784720399647"><ele>610.0</ele><time>2026-04-04T09:49:50Z</time></trkpt><trkpt lat="42.070189806984274" lon="13.0489258752771"><ele>609.3333333333334</ele><time>2026-04-04T09:49:51Z</time></trkpt><trkpt lat="42.070334340179784" lon="13.049060416141062"><ele>608.6666666666666</ele><time>2026-04-04T09:49:52Z</time></trkpt><trkpt lat="42.07046788610687" lon="13.049188745261032"><ele>608.0</ele><time>2026-04-04T09:49:53Z</time></trkpt><trkpt lat="42.07058501836481" lon="13.049307584260497"><ele>608.0</ele><time>2026-04-04T09:49:54Z</time></trkpt><trkpt lat="42.070675042523675" lon="13.049433982510115"><ele>608.0</ele><time>2026-04-04T09:49:55Z</time></trkpt><trkpt lat="42.070731981928425" lon="13.049582317961908"><ele>608.0</ele><time>2026-04-04T09:49:56Z</time></trkpt><trkpt lat="42.070774570934084" lon="13.04971616775316"><ele>608.0</ele><time>2026-04-04T09:49:57Z</time></trkpt><trkpt lat="42.070856199696486" lon="13.049779105343218"><ele>608.25</ele><time>2026-04-04T09:49:58Z</time></trkpt><trkpt lat="42.070956178648494" lon="13.049771895766112"><ele>608.5</ele><time>2026-04-04T09:49:59Z</time></trkpt><trkpt lat="42.0710962797385" lon="13.049791479055134"><ele>608.75</ele><time>2026-04-04T09:50:00Z</time></trkpt><trkpt lat="42.07124474537398" lon="13.049909908185679"><ele>609.0</ele><time>2026-04-04T09:50:01Z</time></trkpt><trkpt lat="42.071466406487346" lon="13.049952145943982"><ele>608.6666666666666</ele><time>2026-04-04T09:50:02Z</time></trkpt><trkpt lat="42.071642094748924" lon="13.050121806149587"><ele>608.3333333333333</ele><time>2026-04-04T09:50:03Z</time></trkpt><trkpt lat="42.07182140729837" lon="13.050295231728109"><ele>608.0</ele><time>2026-04-04T09:50:04Z</time></trkpt><trkpt lat="42.07200612912569" lon="13.050471448302291"><ele>608.0</ele><time>2026-04-04T09:50:05Z</time></trkpt><trkpt lat="42.072196331686875" lon="13.050648054669916"><ele>608.0</ele><time>2026-04-04T09:50:06Z</time></trkpt><trkpt lat="42.072398945851695" lon="13.050841330131908"><ele>607.0</ele><time>2026-04-04T09:50:07Z</time></trkpt><trkpt lat="42.07259919915153" lon="13.051032689011135"><ele>606.0</ele><time>2026-04-04T09:50:08.001Z</time></trkpt><trkpt lat="42.07281546741453" lon="13.051238145932421"><ele>606.0</ele><time>2026-04-04T09:50:09.001Z</time></trkpt><trkpt lat="42.07302357156306" lon="13.05143244927864"><ele>606.0</ele><time>2026-04-04T09:50:10.001Z</time></trkpt><trkpt lat="42.07324178621452" lon="13.051638442109294"><ele>606.5</ele><time>2026-04-04T09:50:11.001Z</time></trkpt><trkpt lat="42.07346345378253" lon="13.05184822911185"><ele>607.0</ele><time>2026-04-04T09:50:12.001Z</time></trkpt><trkpt lat="42.073701316059065" lon="13.052073336544254"><ele>607.0</ele><time>2026-04-04T09:50:13Z</time></trkpt><trkpt lat="42.07392153616429" lon="13.052292818289791"><ele>607.0</ele><time>2026-04-04T09:50:14Z</time></trkpt><trkpt lat="42.074083279060076" lon="13.052657247507177"><ele>606.0</ele><time>2026-04-04T09:50:15Z</time></trkpt><trkpt lat="42.074319655697565" lon="13.05288429059579"><ele>605.0</ele><time>2026-04-04T09:50:16Z</time></trkpt><trkpt lat="42.074550382581826" lon="13.053104565929914"><ele>604.5</ele><time>2026-04-04T09:50:17Z</time></trkpt><trkpt lat="42.07478956993787" lon="13.053327090202597"><ele>604.0</ele><time>2026-04-04T09:50:18Z</time></trkpt><trkpt lat="42.075031102247124" lon="13.053556678474411"><ele>604.0</ele><time>2026-04-04T09:50:19Z</time></trkpt><trkpt lat="42.07529005830352" lon="13.053801394236261"><ele>604.0</ele><time>2026-04-04T09:50:20Z</time></trkpt><trkpt lat="42.075544625130625" lon="13.05404333072097"><ele>604.0</ele><time>2026-04-04T09:50:21Z</time></trkpt><trkpt lat="42.07579732750973" lon="13.054282644498654"><ele>604.0</ele><time>2026-04-04T09:50:22Z</time></trkpt><trkpt lat="42.07604431560756" lon="13.054514257451755"><ele>604.0</ele><time>2026-04-04T09:50:23Z</time></trkpt><trkpt lat="42.07628539127497" lon="13.054745876864644"><ele>604.0</ele><time>2026-04-04T09:50:24Z</time></trkpt><trkpt lat="42.07652757803875" lon="13.054976245268882"><ele>601.5</ele><time>2026-04-04T09:50:25Z</time></trkpt><trkpt lat="42.076776986943656" lon="13.055214498461226"><ele>599.0</ele><time>2026-04-04T09:50:26Z</time></trkpt><trkpt lat="42.077019385301355" lon="13.055439353196396"><ele>599.0</ele><time>2026-04-04T09:50:27Z</time></trkpt><trkpt lat="42.07726365072744" lon="13.055670893190909"><ele>599.0</ele><time>2026-04-04T09:50:28Z</time></trkpt><trkpt lat="42.07749774835127" lon="13.055895412092573"><ele>599.5</ele><time>2026-04-04T09:50:29Z</time></trkpt><trkpt lat="42.077740052156564" lon="13.056127947956554"><ele>600.0</ele><time>2026-04-04T09:50:30Z</time></trkpt><trkpt lat="42.07795470140639" lon="13.056336662003783"><ele>600.0</ele><time>2026-04-04T09:50:31Z</time></trkpt><trkpt lat="42.078155914984634" lon="13.05653303889537"><ele>600.0</ele><time>2026-04-04T09:50:32Z</time></trkpt><trkpt lat="42.07833912044906" lon="13.056707166083845"><ele>599.3333333333334</ele><time>2026-04-04T09:50:33Z</time></trkpt><trkpt lat="42.07850124337241" lon="13.056851090464852"><ele>598.6666666666667</ele><time>2026-04-04T09:50:34Z</time></trkpt><trkpt lat="42.07867845158096" lon="13.056967666473671"><ele>598.0</ele><time>2026-04-04T09:50:35Z</time></trkpt><trkpt lat="42.07888486924793" lon="13.057017062992541"><ele>598.0</ele><time>2026-04-04T09:50:36Z</time></trkpt><trkpt lat="42.079085407257324" lon="13.057020675866456"><ele>598.0</ele><time>2026-04-04T09:50:37Z</time></trkpt><trkpt lat="42.07926296793037" lon="13.057036919352754"><ele>598.0</ele><time>2026-04-04T09:50:38Z</time></trkpt><trkpt lat="42.079425992256446" lon="13.057118079358096"><ele>598.0</ele><time>2026-04-04T09:50:39Z</time></trkpt><trkpt lat="42.079559500176835" lon="13.057235520814253"><ele>598.0</ele><time>2026-04-04T09:50:40Z</time></trkpt><trkpt lat="42.07964492686445" lon="13.057395427681552"><ele>598.0</ele><time>2026-04-04T09:50:41Z</time></trkpt><trkpt lat="42.07966522899587" lon="13.057579820749304"><ele>598.0</ele><time>2026-04-04T09:50:42Z</time></trkpt><trkpt lat="42.079682748523474" lon="13.05777018976227"><ele>598.3333333333334</ele><time>2026-04-04T09:50:43Z</time></trkpt><trkpt lat="42.07975969508375" lon="13.057939325549697"><ele>598.6666666666666</ele><time>2026-04-04T09:50:44Z</time></trkpt><trkpt lat="42.07988638364911" lon="13.05807495606856"><ele>599.0</ele><time>2026-04-04T09:50:45Z</time></trkpt><trkpt lat="42.08004406201177" lon="13.05819551336336"><ele>598.3333333333333</ele><time>2026-04-04T09:50:46Z</time></trkpt><trkpt lat="42.08023006699073" lon="13.058340482941562"><ele>597.6666666666666</ele><time>2026-04-04T09:50:47Z</time></trkpt><trkpt lat="42.080408526712944" lon="13.058503804113915"><ele>597.0</ele><time>2026-04-04T09:50:48Z</time></trkpt><trkpt lat="42.080563732472086" lon="13.058653896712807"><ele>597.0</ele><time>2026-04-04T09:50:49Z</time></trkpt><trkpt lat="42.08072070606593" lon="13.05880469769827"><ele>597.0</ele><time>2026-04-04T09:50:50Z</time></trkpt><trkpt lat="42.080888968848186" lon="13.058963998735406"><ele>597.0</ele><time>2026-04-04T09:50:51Z</time></trkpt><trkpt lat="42.08105810451696" lon="13.059129734726845"><ele>597.0</ele><time>2026-04-04T09:50:52Z</time></trkpt><trkpt lat="42.08123466064532" lon="13.059301874458464"><ele>597.0</ele><time>2026-04-04T09:50:53Z</time></trkpt><trkpt lat="42.0813983910353" lon="13.059456575717924"><ele>597.0</ele><time>2026-04-04T09:50:54Z</time></trkpt><trkpt lat="42.081542343999104" lon="13.059596094589928"><ele>597.0</ele><time>2026-04-04T09:50:55Z</time></trkpt><trkpt lat="42.08167387426996" lon="13.059721854458264"><ele>597.0</ele><time>2026-04-04T09:50:56Z</time></trkpt><trkpt lat="42.0817919265499" lon="13.059832423500138"><ele>597.0</ele><time>2026-04-04T09:50:57Z</time></trkpt><trkpt lat="42.08189643187224" lon="13.05993156448226"><ele>597.0</ele><time>2026-04-04T09:50:58Z</time></trkpt><trkpt lat="42.08198528875694" lon="13.060011394035355"><ele>597.0</ele><time>2026-04-04T09:50:59Z</time></trkpt><trkpt lat="42.082085653383025" lon="13.060099611746779"><ele>597.0</ele><time>2026-04-04T09:51:00Z</time></trkpt><trkpt lat="42.082210179414766" lon="13.060213209863292"><ele>597.0</ele><time>2026-04-04T09:51:01Z</time></trkpt><trkpt lat="42.08234111574945" lon="13.060335789864615"><ele>597.0</ele><time>2026-04-04T09:51:02Z</time></trkpt><trkpt lat="42.08247741591627" lon="13.060467274533027"><ele>597.3333333333334</ele><time>2026-04-04T09:51:03Z</time></trkpt><trkpt lat="42.082620236724395" lon="13.060602973688708"><ele>597.6666666666667</ele><time>2026-04-04T09:51:04Z</time></trkpt><trkpt lat="42.08276757007474" lon="13.060742692462151"><ele>598.0</ele><time>2026-04-04T09:51:05Z</time></trkpt><trkpt lat="42.08290898899195" lon="13.060869929089943"><ele>598.0</ele><time>2026-04-04T09:51:06Z</time></trkpt><trkpt lat="42.08303373552896" lon="13.060985405365194"><ele>598.0</ele><time>2026-04-04T09:51:07Z</time></trkpt><trkpt lat="42.08314426341556" lon="13.061086833669483"><ele>598.0</ele><time>2026-04-04T09:51:08Z</time></trkpt><trkpt lat="42.08324501182395" lon="13.061178433453776"><ele>598.0</ele><time>2026-04-04T09:51:09Z</time></trkpt><trkpt lat="42.08335691165973" lon="13.06128213044045"><ele>596.0</ele><time>2026-04-04T09:51:10Z</time></trkpt><trkpt lat="42.083494920385974" lon="13.061409425466492"><ele>594.0</ele><time>2026-04-04T09:51:11Z</time></trkpt><trkpt lat="42.08363785457033" lon="13.061541227189087"><ele>592.0</ele><time>2026-04-04T09:51:12Z</time></trkpt><trkpt lat="42.08378666395158" lon="13.061681397351286"><ele>592.0</ele><time>2026-04-04T09:51:13Z</time></trkpt><trkpt lat="42.08393590725014" lon="13.061823881417885"><ele>592.0</ele><time>2026-04-04T09:51:14Z</time></trkpt><trkpt lat="42.08408109766479" lon="13.061961282140697"><ele>592.0</ele><time>2026-04-04T09:51:15Z</time></trkpt><trkpt lat="42.08422377533414" lon="13.062098292846326"><ele>591.6666666666667</ele><time>2026-04-04T09:51:16Z</time></trkpt><trkpt lat="42.08436668755773" lon="13.062235087155718"><ele>591.3333333333334</ele><time>2026-04-04T09:51:17Z</time></trkpt><trkpt lat="42.084516037185544" lon="13.062375187177595"><ele>591.0</ele><time>2026-04-04T09:51:18Z</time></trkpt><trkpt lat="42.084661611104444" lon="13.062510750969773"><ele>591.0</ele><time>2026-04-04T09:51:19Z</time></trkpt><trkpt lat="42.084806697127966" lon="13.062647504367062"><ele>591.0</ele><time>2026-04-04T09:51:20Z</time></trkpt><trkpt lat="42.084950994959776" lon="13.062786642579034"><ele>591.0</ele><time>2026-04-04T09:51:21Z</time></trkpt><trkpt lat="42.08508614471635" lon="13.062920514616268"><ele>591.0</ele><time>2026-04-04T09:51:22Z</time></trkpt><trkpt lat="42.08522249188714" lon="13.063051857899518"><ele>591.0</ele><time>2026-04-04T09:51:23Z</time></trkpt><trkpt lat="42.08535822226687" lon="13.063175174980973"><ele>591.0</ele><time>2026-04-04T09:51:24Z</time></trkpt><trkpt lat="42.08548440833575" lon="13.063286696001839"><ele>591.0</ele><time>2026-04-04T09:51:25Z</time></trkpt><trkpt lat="42.08560715564807" lon="13.063396115532337"><ele>591.0</ele><time>2026-04-04T09:51:26Z</time></trkpt><trkpt lat="42.08572685505197" lon="13.063508103407656"><ele>591.0</ele><time>2026-04-04T09:51:27Z</time></trkpt><trkpt lat="42.08585261865837" lon="13.063634345449948"><ele>591.0</ele><time>2026-04-04T09:51:28Z</time></trkpt><trkpt lat="42.08598504482708" lon="13.063758331568582"><ele>591.0</ele><time>2026-04-04T09:51:29Z</time></trkpt><trkpt lat="42.08612104789182" lon="13.063880551905253"><ele>591.0</ele><time>2026-04-04T09:51:30Z</time></trkpt><trkpt lat="42.086244994744995" lon="13.063995832092543"><ele>591.0</ele><time>2026-04-04T09:51:31Z</time></trkpt><trkpt lat="42.086345390999725" lon="13.06409401660892"><ele>591.0</ele><time>2026-04-04T09:51:32Z</time></trkpt><trkpt lat="42.08642557485631" lon="13.064170667697612"><ele>591.0</ele><time>2026-04-04T09:51:33Z</time></trkpt><trkpt lat="42.08648799251784" lon="13.064227843033173"><ele>591.0</ele><time>2026-04-04T09:51:34Z</time></trkpt><trkpt lat="42.08654100356115" lon="13.064278590276553"><ele>591.0</ele><time>2026-04-04T09:51:36Z</time></trkpt><trkpt lat="42.08665968628037" lon="13.06438600099722"><ele>590.6666666666666</ele><time>2026-04-04T09:51:38Z</time></trkpt><trkpt lat="42.08679964050692" lon="13.064524728842576"><ele>590.3333333333333</ele><time>2026-04-04T09:51:39Z</time></trkpt><trkpt lat="42.08693392775641" lon="13.064648112115234"><ele>590.0</ele><time>2026-04-04T09:51:40Z</time></trkpt><trkpt lat="42.087099551640556" lon="13.064795820000073"><ele>589.6666666666666</ele><time>2026-04-04T09:51:41Z</time></trkpt><trkpt lat="42.08727459466028" lon="13.064965963747417"><ele>589.3333333333334</ele><time>2026-04-04T09:51:42Z</time></trkpt><trkpt lat="42.08746775630867" lon="13.065139620177847"><ele>589.0</ele><time>2026-04-04T09:51:43Z</time></trkpt><trkpt lat="42.0876709182765" lon="13.06528359056127"><ele>588.5</ele><time>2026-04-04T09:51:44Z</time></trkpt><trkpt lat="42.087881560121666" lon="13.065421985218087"><ele>588.0</ele><time>2026-04-04T09:51:45Z</time></trkpt><trkpt lat="42.08808163816537" lon="13.065560567634543"><ele>587.3333333333334</ele><time>2026-04-04T09:51:46Z</time></trkpt><trkpt lat="42.08826205144299" lon="13.065684384838304"><ele>586.6666666666667</ele><time>2026-04-04T09:51:47Z</time></trkpt><trkpt lat="42.088438983667075" lon="13.065802604458966"><ele>586.0</ele><time>2026-04-04T09:51:48Z</time></trkpt><trkpt lat="42.088605752242096" lon="13.065912110452327"><ele>585.6666666666667</ele><time>2026-04-04T09:51:49Z</time></trkpt><trkpt lat="42.08876360122623" lon="13.066013107135669"><ele>585.3333333333334</ele><time>2026-04-04T09:51:50Z</time></trkpt><trkpt lat="42.088941570505106" lon="13.066117408262091"><ele>585.0</ele><time>2026-04-04T09:51:51Z</time></trkpt><trkpt lat="42.08913982675775" lon="13.066254252303526"><ele>584.0</ele><time>2026-04-04T09:51:52Z</time></trkpt><trkpt lat="42.089346949546716" lon="13.066413553607301"><ele>583.0</ele><time>2026-04-04T09:51:53Z</time></trkpt><trkpt lat="42.08954266943514" lon="13.06654466871746"><ele>583.6666666666667</ele><time>2026-04-04T09:51:54Z</time></trkpt><trkpt lat="42.089728568804" lon="13.066673948871435"><ele>584.3333333333334</ele><time>2026-04-04T09:51:55Z</time></trkpt><trkpt lat="42.08993939021802" lon="13.066808296312937"><ele>585.0</ele><time>2026-04-04T09:51:56Z</time></trkpt><trkpt lat="42.090172959101494" lon="13.066956370391651"><ele>585.0</ele><time>2026-04-04T09:51:57Z</time></trkpt><trkpt lat="42.09037024939487" lon="13.06710368390785"><ele>585.0</ele><time>2026-04-04T09:51:58Z</time></trkpt><trkpt lat="42.09056222575116" lon="13.067235384389491"><ele>585.0</ele><time>2026-04-04T09:51:59Z</time></trkpt><trkpt lat="42.090722146259154" lon="13.067362871377444"><ele>586.0</ele><time>2026-04-04T09:52:00Z</time></trkpt><trkpt lat="42.09091731374291" lon="13.067474483863924"><ele>587.0</ele><time>2026-04-04T09:52:01Z</time></trkpt><trkpt lat="42.091024228320634" lon="13.067784651821595"><ele>587.0</ele><time>2026-04-04T09:52:02Z</time></trkpt><trkpt lat="42.09116032133395" lon="13.068063432238064"><ele>587.0</ele><time>2026-04-04T09:52:03Z</time></trkpt><trkpt lat="42.09129864300955" lon="13.068350307392333"><ele>587.0</ele><time>2026-04-04T09:52:04Z</time></trkpt><trkpt lat="42.09145134290279" lon="13.068634720902203"><ele>587.0</ele><time>2026-04-04T09:52:05Z</time></trkpt><trkpt lat="42.09160418817004" lon="13.06892026587373"><ele>588.0</ele><time>2026-04-04T09:52:06Z</time></trkpt><trkpt lat="42.09174905551836" lon="13.069191479934165"><ele>589.0</ele><time>2026-04-04T09:52:07Z</time></trkpt><trkpt lat="42.09187094000389" lon="13.069438171618188"><ele>589.0</ele><time>2026-04-04T09:52:08Z</time></trkpt><trkpt lat="42.09195877005374" lon="13.06966386223745"><ele>589.0</ele><time>2026-04-04T09:52:09Z</time></trkpt><trkpt lat="42.09202753622502" lon="13.069883929045028"><ele>589.0</ele><time>2026-04-04T09:52:10Z</time></trkpt><trkpt lat="42.092097953405656" lon="13.070098154784018"><ele>588.75</ele><time>2026-04-04T09:52:11Z</time></trkpt><trkpt lat="42.09213630662893" lon="13.070292531458534"><ele>588.5</ele><time>2026-04-04T09:52:12Z</time></trkpt><trkpt lat="42.09214236281862" lon="13.07045947728265"><ele>588.25</ele><time>2026-04-04T09:52:13Z</time></trkpt><trkpt lat="42.09217048257177" lon="13.070578931321728"><ele>588.0</ele><time>2026-04-04T09:52:14Z</time></trkpt><trkpt lat="42.0921769629942" lon="13.070709990710187"><ele>588.0</ele><time>2026-04-04T09:52:15Z</time></trkpt><trkpt lat="42.09235713002352" lon="13.07064682131599"><ele>588.0</ele><time>2026-04-04T09:52:16Z</time></trkpt><trkpt lat="42.09248558737773" lon="13.070626529004358"><ele>588.0</ele><time>2026-04-04T09:52:17Z</time></trkpt><trkpt lat="42.092608896698955" lon="13.070691857401677"><ele>588.0</ele><time>2026-04-04T09:52:18Z</time></trkpt><trkpt lat="42.09273399197005" lon="13.070858337658963"><ele>589.3333333333334</ele><time>2026-04-04T09:52:19Z</time></trkpt><trkpt lat="42.092866933753356" lon="13.071076317085723"><ele>590.6666666666667</ele><time>2026-04-04T09:52:20Z</time></trkpt><trkpt lat="42.0930064038466" lon="13.071304097206696"><ele>592.0</ele><time>2026-04-04T09:52:21Z</time></trkpt><trkpt lat="42.093157910099336" lon="13.071533573880856"><ele>593.6666666666667</ele><time>2026-04-04T09:52:22Z</time></trkpt><trkpt lat="42.09329396016112" lon="13.071754884238826"><ele>595.3333333333334</ele><time>2026-04-04T09:52:23Z</time></trkpt><trkpt lat="42.09341873168427" lon="13.071967341927557"><ele>597.0</ele><time>2026-04-04T09:52:24Z</time></trkpt><trkpt lat="42.09352443699463" lon="13.072177460244832"><ele>597.0</ele><time>2026-04-04T09:52:25Z</time></trkpt><trkpt lat="42.09360621998871" lon="13.072392262520662"><ele>597.0</ele><time>2026-04-04T09:52:26Z</time></trkpt><trkpt lat="42.09366996439732" lon="13.072628821169259"><ele>597.0</ele><time>2026-04-04T09:52:27Z</time></trkpt><trkpt lat="42.09369774232508" lon="13.072883157893644"><ele>597.0</ele><time>2026-04-04T09:52:28Z</time></trkpt><trkpt lat="42.09372106558424" lon="13.073140077936626"><ele>597.0</ele><time>2026-04-04T09:52:29Z</time></trkpt><trkpt lat="42.093731316256346" lon="13.073405924412986"><ele>597.0</ele><time>2026-04-04T09:52:30Z</time></trkpt><trkpt lat="42.09371459409201" lon="13.073678367943776"><ele>597.0</ele><time>2026-04-04T09:52:31Z</time></trkpt><trkpt lat="42.093700366623644" lon="13.073962590452767"><ele>597.0</ele><time>2026-04-04T09:52:32Z</time></trkpt><trkpt lat="42.093696869510296" lon="13.074240631169813"><ele>597.0</ele><time>2026-04-04T09:52:33Z</time></trkpt><trkpt lat="42.093677980257965" lon="13.07450368205961"><ele>597.6666666666666</ele><time>2026-04-04T09:52:34Z</time></trkpt><trkpt lat="42.09366492308546" lon="13.074751061290392"><ele>598.3333333333333</ele><time>2026-04-04T09:52:35Z</time></trkpt><trkpt lat="42.09365795286686" lon="13.075018448489352"><ele>599.0</ele><time>2026-04-04T09:52:36Z</time></trkpt><trkpt lat="42.093643615171246" lon="13.075291893337086"><ele>599.0</ele><time>2026-04-04T09:52:37Z</time></trkpt><trkpt lat="42.09362141353663" lon="13.075573825319186"><ele>599.0</ele><time>2026-04-04T09:52:38Z</time></trkpt><trkpt lat="42.0935989810599" lon="13.07587003097536"><ele>599.0</ele><time>2026-04-04T09:52:39Z</time></trkpt><trkpt lat="42.09359778740471" lon="13.07617073209119"><ele>600.0</ele><time>2026-04-04T09:52:40Z</time></trkpt><trkpt lat="42.09362425211516" lon="13.076484289380872"><ele>601.0</ele><time>2026-04-04T09:52:41Z</time></trkpt><trkpt lat="42.09368085665759" lon="13.076799070256364"><ele>601.5</ele><time>2026-04-04T09:52:42Z</time></trkpt><trkpt lat="42.09376964794429" lon="13.077091532036505"><ele>602.0</ele><time>2026-04-04T09:52:43Z</time></trkpt><trkpt lat="42.09389733166441" lon="13.077392862217678"><ele>601.5</ele><time>2026-04-04T09:52:44Z</time></trkpt><trkpt lat="42.094040285666985" lon="13.077660676368245"><ele>601.0</ele><time>2026-04-04T09:52:45Z</time></trkpt><trkpt lat="42.09420709677499" lon="13.077929705258414"><ele>602.5</ele><time>2026-04-04T09:52:46Z</time></trkpt><trkpt lat="42.0943875579581" lon="13.078157850302796"><ele>604.0</ele><time>2026-04-04T09:52:47Z</time></trkpt><trkpt lat="42.09458779900229" lon="13.078361615439443"><ele>604.0</ele><time>2026-04-04T09:52:48Z</time></trkpt><trkpt lat="42.094797439340184" lon="13.078537477534233"><ele>604.0</ele><time>2026-04-04T09:52:49Z</time></trkpt><trkpt lat="42.094999376104056" lon="13.078683098708936"><ele>605.6666666666667</ele><time>2026-04-04T09:52:50Z</time></trkpt><trkpt lat="42.09519301034407" lon="13.07881685993542"><ele>607.3333333333334</ele><time>2026-04-04T09:52:51Z</time></trkpt><trkpt lat="42.09538009648846" lon="13.078957943632613"><ele>609.0</ele><time>2026-04-04T09:52:52Z</time></trkpt><trkpt lat="42.09554969693407" lon="13.079092432206007"><ele>608.6666666666666</ele><time>2026-04-04T09:52:53Z</time></trkpt><trkpt lat="42.09570927956182" lon="13.079233383391266"><ele>608.3333333333333</ele><time>2026-04-04T09:52:54Z</time></trkpt><trkpt lat="42.0958537169883" lon="13.079367268759134"><ele>608.0</ele><time>2026-04-04T09:52:55Z</time></trkpt><trkpt lat="42.095985497773576" lon="13.079505172617454"><ele>608.0</ele><time>2026-04-04T09:52:56Z</time></trkpt><trkpt lat="42.09611027232764" lon="13.07965187110334"><ele>608.0</ele><time>2026-04-04T09:52:57Z</time></trkpt><trkpt lat="42.096226786153764" lon="13.07980120900728"><ele>608.0</ele><time>2026-04-04T09:52:58Z</time></trkpt><trkpt lat="42.09634038460488" lon="13.079963904135438"><ele>607.6666666666666</ele><time>2026-04-04T09:52:59Z</time></trkpt><trkpt lat="42.0964445099283" lon="13.080145585277625"><ele>607.3333333333334</ele><time>2026-04-04T09:53:00Z</time></trkpt><trkpt lat="42.09654038308429" lon="13.080324764455888"><ele>607.0</ele><time>2026-04-04T09:53:01Z</time></trkpt><trkpt lat="42.0966365301041" lon="13.08049745039826"><ele>607.0</ele><time>2026-04-04T09:53:02Z</time></trkpt><trkpt lat="42.09673837770513" lon="13.080676064883919"><ele>607.0</ele><time>2026-04-04T09:53:03Z</time></trkpt><trkpt lat="42.09683767726341" lon="13.080859888322548"><ele>607.0</ele><time>2026-04-04T09:53:04Z</time></trkpt><trkpt lat="42.09694075414846" lon="13.081047297074795"><ele>605.3333333333334</ele><time>2026-04-04T09:53:05Z</time></trkpt><trkpt lat="42.09705232119852" lon="13.081225208461053"><ele>603.6666666666666</ele><time>2026-04-04T09:53:06Z</time></trkpt><trkpt lat="42.09717896554464" lon="13.081391688195056"><ele>602.0</ele><time>2026-04-04T09:53:07Z</time></trkpt><trkpt lat="42.097318071185796" lon="13.081544154194662"><ele>602.0</ele><time>2026-04-04T09:53:08Z</time></trkpt><trkpt lat="42.0974533788627" lon="13.081677593770753"><ele>602.0</ele><time>2026-04-04T09:53:09Z</time></trkpt><trkpt lat="42.09755990784142" lon="13.081842380576136"><ele>602.0</ele><time>2026-04-04T09:53:10Z</time></trkpt><trkpt lat="42.09771777119627" lon="13.081931057107381"><ele>602.0</ele><time>2026-04-04T09:53:11Z</time></trkpt><trkpt lat="42.09784957991115" lon="13.082057148757112"><ele>602.0</ele><time>2026-04-04T09:53:12Z</time></trkpt><trkpt lat="42.09798295959877" lon="13.082188239019114"><ele>602.0</ele><time>2026-04-04T09:53:13Z</time></trkpt><trkpt lat="42.09812308266117" lon="13.082326737494848"><ele>603.3333333333333</ele><time>2026-04-04T09:53:14Z</time></trkpt><trkpt lat="42.098263483055334" lon="13.082471751673555"><ele>604.6666666666666</ele><time>2026-04-04T09:53:15Z</time></trkpt><trkpt lat="42.098399759298545" lon="13.082619637024433"><ele>606.0</ele><time>2026-04-04T09:53:16Z</time></trkpt><trkpt lat="42.09853045911865" lon="13.082753411127998"><ele>606.0</ele><time>2026-04-04T09:53:17Z</time></trkpt><trkpt lat="42.098666093610774" lon="13.082886597955707"><ele>606.0</ele><time>2026-04-04T09:53:18Z</time></trkpt><trkpt lat="42.09880749401648" lon="13.083030823639573"><ele>606.0</ele><time>2026-04-04T09:53:19Z</time></trkpt><trkpt lat="42.09895182327542" lon="13.083181371173358"><ele>607.0</ele><time>2026-04-04T09:53:20Z</time></trkpt><trkpt lat="42.09910571370219" lon="13.083339670259969"><ele>608.0</ele><time>2026-04-04T09:53:21Z</time></trkpt><trkpt lat="42.0992499863431" lon="13.08350488242805"><ele>609.0</ele><time>2026-04-04T09:53:22Z</time></trkpt><trkpt lat="42.09938882543204" lon="13.083666829252097"><ele>609.0</ele><time>2026-04-04T09:53:23Z</time></trkpt><trkpt lat="42.09954360729235" lon="13.083804055218286"><ele>609.0</ele><time>2026-04-04T09:53:24Z</time></trkpt><trkpt lat="42.09970851881916" lon="13.083916172225841"><ele>609.0</ele><time>2026-04-04T09:53:25Z</time></trkpt><trkpt lat="42.09987864044297" lon="13.084002594468673"><ele>612.0</ele><time>2026-04-04T09:53:26Z</time></trkpt><trkpt lat="42.10004142557198" lon="13.084058035353245"><ele>615.0</ele><time>2026-04-04T09:53:27Z</time></trkpt><trkpt lat="42.10021072329151" lon="13.084088450601042"><ele>618.0</ele><time>2026-04-04T09:53:28Z</time></trkpt><trkpt lat="42.10038086398129" lon="13.084090723950142"><ele>618.0</ele><time>2026-04-04T09:53:29Z</time></trkpt><trkpt lat="42.10054670540534" lon="13.084075501166172"><ele>618.0</ele><time>2026-04-04T09:53:30Z</time></trkpt><trkpt lat="42.10071932651735" lon="13.084061140224678"><ele>618.0</ele><time>2026-04-04T09:53:31Z</time></trkpt><trkpt lat="42.10088924839669" lon="13.084053797223707"><ele>618.6666666666666</ele><time>2026-04-04T09:53:32Z</time></trkpt><trkpt lat="42.10105024059631" lon="13.08404754590524"><ele>619.3333333333333</ele><time>2026-04-04T09:53:33Z</time></trkpt><trkpt lat="42.10122079834435" lon="13.084051240317391"><ele>620.0</ele><time>2026-04-04T09:53:34Z</time></trkpt><trkpt lat="42.10140381265148" lon="13.084058606927117"><ele>619.6666666666666</ele><time>2026-04-04T09:53:35Z</time></trkpt><trkpt lat="42.10159712687047" lon="13.084079339403567"><ele>619.3333333333334</ele><time>2026-04-04T09:53:36Z</time></trkpt><trkpt lat="42.10179132416872" lon="13.084135485249604"><ele>619.0</ele><time>2026-04-04T09:53:37Z</time></trkpt><trkpt lat="42.10198163656658" lon="13.084227932866652"><ele>619.0</ele><time>2026-04-04T09:53:38Z</time></trkpt><trkpt lat="42.10216036620582" lon="13.084327910161317"><ele>619.0</ele><time>2026-04-04T09:53:39Z</time></trkpt><trkpt lat="42.102336339668675" lon="13.084426326813796"><ele>619.0</ele><time>2026-04-04T09:53:40Z</time></trkpt><trkpt lat="42.1025096140024" lon="13.084527468849876"><ele>619.0</ele><time>2026-04-04T09:53:41Z</time></trkpt><trkpt lat="42.102678343418525" lon="13.084612115055778"><ele>619.0</ele><time>2026-04-04T09:53:42Z</time></trkpt><trkpt lat="42.102859816757594" lon="13.084682225925025"><ele>619.0</ele><time>2026-04-04T09:53:43Z</time></trkpt><trkpt lat="42.10304658755174" lon="13.08473028969764"><ele>619.0</ele><time>2026-04-04T09:53:44Z</time></trkpt><trkpt lat="42.103230328204226" lon="13.08474743354346"><ele>619.0</ele><time>2026-04-04T09:53:45Z</time></trkpt><trkpt lat="42.10340757998803" lon="13.084742844335125"><ele>619.0</ele><time>2026-04-04T09:53:46Z</time></trkpt><trkpt lat="42.10358552304238" lon="13.084728951415878"><ele>620.6666666666667</ele><time>2026-04-04T09:53:47Z</time></trkpt><trkpt lat="42.10376302539944" lon="13.084693450004028"><ele>622.3333333333334</ele><time>2026-04-04T09:53:48Z</time></trkpt><trkpt lat="42.10394085490305" lon="13.084644402359691"><ele>624.0</ele><time>2026-04-04T09:53:49Z</time></trkpt><trkpt lat="42.10411763069485" lon="13.084582163363397"><ele>624.0</ele><time>2026-04-04T09:53:50Z</time></trkpt><trkpt lat="42.104268664214686" lon="13.084519066188458"><ele>624.0</ele><time>2026-04-04T09:53:51Z</time></trkpt><trkpt lat="42.10440463303421" lon="13.084454676835405"><ele>624.0</ele><time>2026-04-04T09:53:52Z</time></trkpt><trkpt lat="42.10452173155488" lon="13.084389673828001"><ele>624.0</ele><time>2026-04-04T09:53:53Z</time></trkpt><trkpt lat="42.104625006482614" lon="13.084332039065966"><ele>624.0</ele><time>2026-04-04T09:53:54Z</time></trkpt><trkpt lat="42.104717733886595" lon="13.084279646342633"><ele>624.0</ele><time>2026-04-04T09:53:55Z</time></trkpt><trkpt lat="42.10479401304281" lon="13.084216476096802"><ele>624.0</ele><time>2026-04-04T09:53:56Z</time></trkpt><trkpt lat="42.104870399566316" lon="13.084158929621964"><ele>624.0</ele><time>2026-04-04T09:53:58Z</time></trkpt><trkpt lat="42.10497494667173" lon="13.084045454549932"><ele>624.0</ele><time>2026-04-04T09:55:09Z</time></trkpt><trkpt lat="42.10511717399451" lon="13.083930364142375"><ele>629.0</ele><time>2026-04-04T09:55:10Z</time></trkpt><trkpt lat="42.10529619337797" lon="13.083800325426358"><ele>634.0</ele><time>2026-04-04T09:55:11Z</time></trkpt><trkpt lat="42.10556361888713" lon="13.083655168255238"><ele>628.0</ele><time>2026-04-04T09:55:12Z</time></trkpt><trkpt lat="42.105900491267995" lon="13.083526282057452"><ele>622.0</ele><time>2026-04-04T09:55:13Z</time></trkpt><trkpt lat="42.10627266894161" lon="13.08343607896637"><ele>620.5</ele><time>2026-04-04T09:55:14Z</time></trkpt><trkpt lat="42.106685420575126" lon="13.083374773133757"><ele>619.0</ele><time>2026-04-04T09:55:15Z</time></trkpt><trkpt lat="42.10709736630212" lon="13.083350139716558"><ele>620.0</ele><time>2026-04-04T09:55:16Z</time></trkpt><trkpt lat="42.10750687670001" lon="13.083376982577352"><ele>621.0</ele><time>2026-04-04T09:55:17Z</time></trkpt><trkpt lat="42.107903617071386" lon="13.083484892068302"><ele>621.5</ele><time>2026-04-04T09:55:18Z</time></trkpt><trkpt lat="42.1082804104826" lon="13.083598871666224"><ele>622.0</ele><time>2026-04-04T09:55:19Z</time></trkpt><trkpt lat="42.10866434968766" lon="13.083618744586296"><ele>621.0</ele><time>2026-04-04T09:55:20Z</time></trkpt><trkpt lat="42.109081635324976" lon="13.083566341913905"><ele>620.0</ele><time>2026-04-04T09:55:21Z</time></trkpt><trkpt lat="42.10954485825709" lon="13.083481638454414"><ele>626.0</ele><time>2026-04-04T09:55:22Z</time></trkpt><trkpt lat="42.110059230519056" lon="13.083410859848183"><ele>626.0</ele><time>2026-04-04T09:55:23Z</time></trkpt><trkpt lat="42.110590347373396" lon="13.083375507498797"><ele>626.0</ele><time>2026-04-04T09:55:24Z</time></trkpt><trkpt lat="42.11113652408378" lon="13.083371502423292"><ele>623.0</ele><time>2026-04-04T09:55:25Z</time></trkpt><trkpt lat="42.11170553760899" lon="13.083360194471654"><ele>623.0</ele><time>2026-04-04T09:55:26Z</time></trkpt><trkpt lat="42.112259716218624" lon="13.083328649559862"><ele>622.0</ele><time>2026-04-04T09:55:27Z</time></trkpt><trkpt lat="42.11272484319075" lon="13.083300110052349"><ele>622.0</ele><time>2026-04-04T09:55:28Z</time></trkpt><trkpt lat="42.113122515441816" lon="13.08328807594679"><ele>622.0</ele><time>2026-04-04T09:55:29Z</time></trkpt><trkpt lat="42.11348034149246" lon="13.083330329777723"><ele>621.0</ele><time>2026-04-04T09:55:30Z</time></trkpt><trkpt lat="42.11381927674222" lon="13.083445419353849"><ele>620.0</ele><time>2026-04-04T09:55:31Z</time></trkpt><trkpt lat="42.11414905935357" lon="13.083607881680015"><ele>620.0</ele><time>2026-04-04T09:55:32Z</time></trkpt><trkpt lat="42.114500304291084" lon="13.083848438587522"><ele>620.0</ele><time>2026-04-04T09:55:33Z</time></trkpt><trkpt lat="42.114851671392074" lon="13.084115573698611"><ele>621.0</ele><time>2026-04-04T09:55:34Z</time></trkpt><trkpt lat="42.11516920187288" lon="13.084361208856441"><ele>622.0</ele><time>2026-04-04T09:55:35Z</time></trkpt><trkpt lat="42.115465449549" lon="13.084651947024915"><ele>620.5</ele><time>2026-04-04T09:55:36Z</time></trkpt><trkpt lat="42.11570300089114" lon="13.084978844133593"><ele>619.0</ele><time>2026-04-04T09:55:37Z</time></trkpt><trkpt lat="42.11594198179179" lon="13.085349121075934"><ele>620.5</ele><time>2026-04-04T09:55:38Z</time></trkpt><trkpt lat="42.11610947184525" lon="13.085808124399097"><ele>622.0</ele><time>2026-04-04T09:55:39Z</time></trkpt><trkpt lat="42.11631840404981" lon="13.08631051630369"><ele>618.0</ele><time>2026-04-04T09:55:40Z</time></trkpt><trkpt lat="42.116532904221096" lon="13.086908255283298"><ele>621.0</ele><time>2026-04-04T09:55:41Z</time></trkpt><trkpt lat="42.11677953982129" lon="13.087544631648273"><ele>621.0</ele><time>2026-04-04T09:55:42Z</time></trkpt><trkpt lat="42.11700804341292" lon="13.0881193514509"><ele>620.5</ele><time>2026-04-04T09:55:43Z</time></trkpt><trkpt lat="42.11720711809371" lon="13.088640225800313"><ele>620.0</ele><time>2026-04-04T09:55:44Z</time></trkpt><trkpt lat="42.11739393665458" lon="13.089134766231917"><ele>620.0</ele><time>2026-04-04T09:55:45Z</time></trkpt><trkpt lat="42.1175928311217" lon="13.089653608780342"><ele>620.0</ele><time>2026-04-04T09:55:46Z</time></trkpt><trkpt lat="42.117778463171426" lon="13.090139572553852"><ele>620.0</ele><time>2026-04-04T09:55:47Z</time></trkpt><trkpt lat="42.11793479985719" lon="13.090583705932511"><ele>620.0</ele><time>2026-04-04T09:55:48Z</time></trkpt><trkpt lat="42.118046053326616" lon="13.090997590025468"><ele>620.5</ele><time>2026-04-04T09:55:49Z</time></trkpt><trkpt lat="42.118115090337035" lon="13.091392241221634"><ele>621.0</ele><time>2026-04-04T09:55:50Z</time></trkpt><trkpt lat="42.11817264662686" lon="13.091806680316013"><ele>626.5</ele><time>2026-04-04T09:55:51Z</time></trkpt><trkpt lat="42.1182470516081" lon="13.092198557623329"><ele>632.0</ele><time>2026-04-04T09:55:52Z</time></trkpt><trkpt lat="42.118331927679186" lon="13.09258519144917"><ele>632.0</ele><time>2026-04-04T09:55:53Z</time></trkpt><trkpt lat="42.11839649723734" lon="13.092964582024626"><ele>632.0</ele><time>2026-04-04T09:55:54Z</time></trkpt><trkpt lat="42.11847319796101" lon="13.093372564497484"><ele>631.5</ele><time>2026-04-04T09:55:55Z</time></trkpt><trkpt lat="42.118569253505434" lon="13.093858163545084"><ele>631.0</ele><time>2026-04-04T09:55:56Z</time></trkpt><trkpt lat="42.118659769097896" lon="13.094340299768925"><ele>629.5</ele><time>2026-04-04T09:55:57Z</time></trkpt><trkpt lat="42.118744165982065" lon="13.094784855925475"><ele>628.0</ele><time>2026-04-04T09:55:58Z</time></trkpt><trkpt lat="42.11882405200055" lon="13.095243632459038"><ele>626.5</ele><time>2026-04-04T09:55:59Z</time></trkpt><trkpt lat="42.118840132215915" lon="13.09572955511105"><ele>625.0</ele><time>2026-04-04T09:56:00Z</time></trkpt><trkpt lat="42.11882923391114" lon="13.096240520174243"><ele>624.0</ele><time>2026-04-04T09:56:01Z</time></trkpt><trkpt lat="42.11880677052263" lon="13.096742483523197"><ele>623.0</ele><time>2026-04-04T09:56:02Z</time></trkpt><trkpt lat="42.11878524848001" lon="13.097191460933331"><ele>623.5</ele><time>2026-04-04T09:56:03Z</time></trkpt><trkpt lat="42.11875041504745" lon="13.09760195797594"><ele>624.0</ele><time>2026-04-04T09:56:04Z</time></trkpt><trkpt lat="42.11867659438365" lon="13.098009945745428"><ele>624.5</ele><time>2026-04-04T09:56:05Z</time></trkpt><trkpt lat="42.11856946662188" lon="13.098412405788624"><ele>625.0</ele><time>2026-04-04T09:56:06Z</time></trkpt><trkpt lat="42.1184254025208" lon="13.098792911355515"><ele>626.5</ele><time>2026-04-04T09:56:07Z</time></trkpt><trkpt lat="42.11824532916637" lon="13.099157886907431"><ele>628.0</ele><time>2026-04-04T09:56:08Z</time></trkpt><trkpt lat="42.118058687690194" lon="13.099498819975414"><ele>628.0</ele><time>2026-04-04T09:56:09Z</time></trkpt><trkpt lat="42.11788501673058" lon="13.099825958782226"><ele>628.0</ele><time>2026-04-04T09:56:10Z</time></trkpt><trkpt lat="42.117702677592504" lon="13.100146212711586"><ele>629.0</ele><time>2026-04-04T09:56:11Z</time></trkpt><trkpt lat="42.117567394111305" lon="13.100492950781247"><ele>630.0</ele><time>2026-04-04T09:56:12Z</time></trkpt><trkpt lat="42.1174813792795" lon="13.100855539177594"><ele>631.0</ele><time>2026-04-04T09:56:13Z</time></trkpt><trkpt lat="42.11743128149051" lon="13.10123549457001"><ele>632.0</ele><time>2026-04-04T09:56:14Z</time></trkpt><trkpt lat="42.11741012424434" lon="13.101627231074458"><ele>633.5</ele><time>2026-04-04T09:56:15Z</time></trkpt><trkpt lat="42.11743584454529" lon="13.10206825573408"><ele>635.0</ele><time>2026-04-04T09:56:16Z</time></trkpt><trkpt lat="42.117464025360334" lon="13.102539132465857"><ele>635.0</ele><time>2026-04-04T09:56:17Z</time></trkpt><trkpt lat="42.11747932854388" lon="13.103017272554398"><ele>635.0</ele><time>2026-04-04T09:56:18Z</time></trkpt><trkpt lat="42.11749058386673" lon="13.103487832366442"><ele>635.0</ele><time>2026-04-04T09:56:19Z</time></trkpt><trkpt lat="42.11749435807807" lon="13.103897878991871"><ele>635.0</ele><time>2026-04-04T09:56:20Z</time></trkpt><trkpt lat="42.11742843028539" lon="13.104311470242939"><ele>636.0</ele><time>2026-04-04T09:56:21Z</time></trkpt><trkpt lat="42.117359101159515" lon="13.104740647305178"><ele>637.0</ele><time>2026-04-04T09:56:22Z</time></trkpt><trkpt lat="42.117296678346335" lon="13.105174944349262"><ele>637.0</ele><time>2026-04-04T09:56:23Z</time></trkpt><trkpt lat="42.11721705242628" lon="13.10560845541165"><ele>637.0</ele><time>2026-04-04T09:56:24Z</time></trkpt><trkpt lat="42.11714173959029" lon="13.106068730985822"><ele>637.0</ele><time>2026-04-04T09:56:25Z</time></trkpt><trkpt lat="42.1171037348229" lon="13.106561349302313"><ele>637.0</ele><time>2026-04-04T09:56:26Z</time></trkpt><trkpt lat="42.11708297483563" lon="13.10709757913731"><ele>638.0</ele><time>2026-04-04T09:56:27Z</time></trkpt><trkpt lat="42.11705489800335" lon="13.107607090423636"><ele>639.0</ele><time>2026-04-04T09:56:28Z</time></trkpt><trkpt lat="42.11713447461138" lon="13.108063812443948"><ele>639.5</ele><time>2026-04-04T09:56:29Z</time></trkpt><trkpt lat="42.11719891247741" lon="13.10846113988133"><ele>640.0</ele><time>2026-04-04T09:56:30Z</time></trkpt><trkpt lat="42.117336524170646" lon="13.10887685192275"><ele>650.0</ele><time>2026-04-04T09:56:31Z</time></trkpt><trkpt lat="42.11750588217318" lon="13.109340603712852"><ele>660.0</ele><time>2026-04-04T09:56:32Z</time></trkpt><trkpt lat="42.117638676566294" lon="13.109798513449034"><ele>657.0</ele><time>2026-04-04T09:56:33Z</time></trkpt><trkpt lat="42.11776484636801" lon="13.110230017815937"><ele>654.0</ele><time>2026-04-04T09:56:34Z</time></trkpt><trkpt lat="42.11788442685651" lon="13.110607660988919"><ele>652.5</ele><time>2026-04-04T09:56:35Z</time></trkpt><trkpt lat="42.11801566099516" lon="13.110931023602017"><ele>651.0</ele><time>2026-04-04T09:56:36Z</time></trkpt><trkpt lat="42.11816607701906" lon="13.111203318861689"><ele>665.0</ele><time>2026-04-04T09:56:37Z</time></trkpt><trkpt lat="42.118328027229396" lon="13.111417228351522"><ele>679.0</ele><time>2026-04-04T09:56:38Z</time></trkpt><trkpt lat="42.1185247243075" lon="13.111573622177266"><ele>668.5</ele><time>2026-04-04T09:56:39Z</time></trkpt><trkpt lat="42.11875768383688" lon="13.111672302791806"><ele>658.0</ele><time>2026-04-04T09:56:40Z</time></trkpt><trkpt lat="42.11905484103195" lon="13.11177690715122"><ele>665.5</ele><time>2026-04-04T09:56:41Z</time></trkpt><trkpt lat="42.11939649435164" lon="13.1119288432926"><ele>673.0</ele><time>2026-04-04T09:56:42Z</time></trkpt><trkpt lat="42.11971506178667" lon="13.112069339232328"><ele>680.5</ele><time>2026-04-04T09:56:43Z</time></trkpt><trkpt lat="42.120048301035695" lon="13.112133586161669"><ele>688.0</ele><time>2026-04-04T09:56:44Z</time></trkpt><trkpt lat="42.120452426730196" lon="13.112123238644825"><ele>691.0</ele><time>2026-04-04T09:56:45Z</time></trkpt><trkpt lat="42.12089899592347" lon="13.112076402767954"><ele>694.0</ele><time>2026-04-04T09:56:46Z</time></trkpt><trkpt lat="42.12131344360029" lon="13.112023672060232"><ele>692.5</ele><time>2026-04-04T09:56:47Z</time></trkpt><trkpt lat="42.12166179627917" lon="13.11191129464808"><ele>691.0</ele><time>2026-04-04T09:56:48Z</time></trkpt><trkpt lat="42.12199599207102" lon="13.111671281682723"><ele>695.5</ele><time>2026-04-04T09:56:49Z</time></trkpt><trkpt lat="42.12235076158257" lon="13.111372835290602"><ele>700.0</ele><time>2026-04-04T09:56:50Z</time></trkpt><trkpt lat="42.12268993243353" lon="13.11117241267396"><ele>700.0</ele><time>2026-04-04T09:56:51Z</time></trkpt><trkpt lat="42.123037766662904" lon="13.111068122790869"><ele>700.0</ele><time>2026-04-04T09:56:52Z</time></trkpt><trkpt lat="42.1234206999915" lon="13.11102848157633"><ele>694.0</ele><time>2026-04-04T09:56:53Z</time></trkpt><trkpt lat="42.12388060655086" lon="13.111041363711838"><ele>696.0</ele><time>2026-04-04T09:56:54Z</time></trkpt><trkpt lat="42.12438958083312" lon="13.11106414957187"><ele>708.0</ele><time>2026-04-04T09:56:55Z</time></trkpt><trkpt lat="42.124931963108715" lon="13.111069345979935"><ele>708.0</ele><time>2026-04-04T09:56:56Z</time></trkpt><trkpt lat="42.12548743479895" lon="13.111067172278721"><ele>707.0</ele><time>2026-04-04T09:56:57Z</time></trkpt><trkpt lat="42.126040390169564" lon="13.111068232941768"><ele>706.0</ele><time>2026-04-04T09:56:58Z</time></trkpt><trkpt lat="42.12657685963953" lon="13.111063919888577"><ele>706.0</ele><time>2026-04-04T09:56:59Z</time></trkpt><trkpt lat="42.12705521388004" lon="13.111066426726797"><ele>711.0</ele><time>2026-04-04T09:57:00Z</time></trkpt><trkpt lat="42.12750747115017" lon="13.111060457194927"><ele>711.0</ele><time>2026-04-04T09:57:01Z</time></trkpt><trkpt lat="42.127919979807054" lon="13.111053080969004"><ele>711.0</ele><time>2026-04-04T09:57:02Z</time></trkpt><trkpt lat="42.12830119579658" lon="13.111031653154695"><ele>712.5</ele><time>2026-04-04T09:57:03Z</time></trkpt><trkpt lat="42.128690629429066" lon="13.110982079171285"><ele>714.0</ele><time>2026-04-04T09:57:04Z</time></trkpt><trkpt lat="42.12907653955292" lon="13.110899249500397"><ele>714.0</ele><time>2026-04-04T09:57:05Z</time></trkpt><trkpt lat="42.129408608902935" lon="13.110806301007962"><ele>714.0</ele><time>2026-04-04T09:57:06Z</time></trkpt><trkpt lat="42.129694566614084" lon="13.11074058781804"><ele>717.0</ele><time>2026-04-04T09:57:07Z</time></trkpt><trkpt lat="42.129948153820834" lon="13.110758805567977"><ele>720.0</ele><time>2026-04-04T09:57:08Z</time></trkpt><trkpt lat="42.130157449388044" lon="13.11089095859686"><ele>720.0</ele><time>2026-04-04T09:57:09Z</time></trkpt><trkpt lat="42.130315986793185" lon="13.11110732895249"><ele>720.0</ele><time>2026-04-04T09:57:10Z</time></trkpt><trkpt lat="42.13042185167497" lon="13.11138691755165"><ele>717.0</ele><time>2026-04-04T09:57:11Z</time></trkpt><trkpt lat="42.13046087216488" lon="13.111722590742886"><ele>714.0</ele><time>2026-04-04T09:57:12Z</time></trkpt><trkpt lat="42.13042541012749" lon="13.112085005343705"><ele>714.0</ele><time>2026-04-04T09:57:13Z</time></trkpt><trkpt lat="42.130401561189124" lon="13.112443456059648"><ele>714.0</ele><time>2026-04-04T09:57:14Z</time></trkpt><trkpt lat="42.130481643433065" lon="13.112762492118513"><ele>714.0</ele><time>2026-04-04T09:57:15Z</time></trkpt><trkpt lat="42.130655387237674" lon="13.113035021924686"><ele>714.0</ele><time>2026-04-04T09:57:16Z</time></trkpt><trkpt lat="42.1309028511614" lon="13.11327275274128"><ele>721.0</ele><time>2026-04-04T09:57:17Z</time></trkpt><trkpt lat="42.13117312988054" lon="13.113491207697965"><ele>728.0</ele><time>2026-04-04T09:57:18Z</time></trkpt><trkpt lat="42.131359566680686" lon="13.113726124326723"><ele>728.0</ele><time>2026-04-04T09:57:19Z</time></trkpt><trkpt lat="42.131478670552724" lon="13.114037571135011"><ele>728.0</ele><time>2026-04-04T09:57:20Z</time></trkpt><trkpt lat="42.131512481215935" lon="13.114450183087234"><ele>720.5</ele><time>2026-04-04T09:57:21Z</time></trkpt><trkpt lat="42.13153535432748" lon="13.114950814761281"><ele>713.0</ele><time>2026-04-04T09:57:22Z</time></trkpt><trkpt lat="42.13157641406072" lon="13.1154594499745"><ele>730.5</ele><time>2026-04-04T09:57:23Z</time></trkpt><trkpt lat="42.131684097820475" lon="13.115935831821181"><ele>748.0</ele><time>2026-04-04T09:57:24Z</time></trkpt><trkpt lat="42.13183477383518" lon="13.116332286768477"><ele>743.5</ele><time>2026-04-04T09:57:25Z</time></trkpt><trkpt lat="42.13191970819956" lon="13.116704291746174"><ele>739.0</ele><time>2026-04-04T09:57:26Z</time></trkpt><trkpt lat="42.13193368519386" lon="13.117155877123926"><ele>740.0</ele><time>2026-04-04T09:57:27Z</time></trkpt><trkpt lat="42.13186840332644" lon="13.117640580062947"><ele>741.0</ele><time>2026-04-04T09:57:28Z</time></trkpt><trkpt lat="42.13183936171834" lon="13.118110919035422"><ele>741.5</ele><time>2026-04-04T09:57:29Z</time></trkpt><trkpt lat="42.13188079118499" lon="13.118584913491395"><ele>742.0</ele><time>2026-04-04T09:57:30Z</time></trkpt><trkpt lat="42.13199106089942" lon="13.119107220055795"><ele>739.0</ele><time>2026-04-04T09:57:31Z</time></trkpt><trkpt lat="42.13210700310285" lon="13.11967718840448"><ele>736.0</ele><time>2026-04-04T09:57:32Z</time></trkpt><trkpt lat="42.13218556379987" lon="13.12020218963741"><ele>736.0</ele><time>2026-04-04T09:57:33Z</time></trkpt><trkpt lat="42.1322433780222" lon="13.120657485469916"><ele>736.0</ele><time>2026-04-04T09:57:34Z</time></trkpt><trkpt lat="42.13231567637766" lon="13.121033391155121"><ele>747.5</ele><time>2026-04-04T09:57:35Z</time></trkpt><trkpt lat="42.132439044154935" lon="13.121363622810641"><ele>759.0</ele><time>2026-04-04T09:57:36Z</time></trkpt><trkpt lat="42.13264235816918" lon="13.121652141591646"><ele>759.0</ele><time>2026-04-04T09:57:37Z</time></trkpt><trkpt lat="42.13285218397776" lon="13.121912634729352"><ele>759.0</ele><time>2026-04-04T09:57:38Z</time></trkpt><trkpt lat="42.13296007002977" lon="13.122174286433196"><ele>754.0</ele><time>2026-04-04T09:57:39Z</time></trkpt><trkpt lat="42.133024199512946" lon="13.122468965536912"><ele>749.0</ele><time>2026-04-04T09:57:40Z</time></trkpt><trkpt lat="42.13303093328017" lon="13.122809967581322"><ele>749.0</ele><time>2026-04-04T09:57:41Z</time></trkpt><trkpt lat="42.13296022036916" lon="13.123124095483401"><ele>749.0</ele><time>2026-04-04T09:57:42Z</time></trkpt><trkpt lat="42.1328213880215" lon="13.12346443887803"><ele>758.0</ele><time>2026-04-04T09:57:43Z</time></trkpt><trkpt lat="42.1326422938939" lon="13.123882722120646"><ele>767.0</ele><time>2026-04-04T09:57:44Z</time></trkpt><trkpt lat="42.13245600854248" lon="13.124243239202961"><ele>764.5</ele><time>2026-04-04T09:57:45Z</time></trkpt><trkpt lat="42.13224059483751" lon="13.124509463200702"><ele>762.0</ele><time>2026-04-04T09:57:46Z</time></trkpt><trkpt lat="42.131990930053945" lon="13.124716949893584"><ele>762.0</ele><time>2026-04-04T09:57:47Z</time></trkpt><trkpt lat="42.13171416350683" lon="13.124863562853804"><ele>762.0</ele><time>2026-04-04T09:57:48Z</time></trkpt><trkpt lat="42.13141410368054" lon="13.124934369020862"><ele>767.0</ele><time>2026-04-04T09:57:49Z</time></trkpt><trkpt lat="42.131103209442315" lon="13.12491734053776"><ele>772.0</ele><time>2026-04-04T09:57:50Z</time></trkpt><trkpt lat="42.13079325940689" lon="13.124810366956767"><ele>781.5</ele><time>2026-04-04T09:57:51Z</time></trkpt><trkpt lat="42.13045270851829" lon="13.124641711994279"><ele>791.0</ele><time>2026-04-04T09:57:52Z</time></trkpt><trkpt lat="42.13002467182765" lon="13.124445870781207"><ele>797.0</ele><time>2026-04-04T09:57:53Z</time></trkpt><trkpt lat="42.12955824724544" lon="13.124271726993555"><ele>797.0</ele><time>2026-04-04T09:57:54Z</time></trkpt><trkpt lat="42.12915667577836" lon="13.124107092764326"><ele>797.0</ele><time>2026-04-04T09:57:55Z</time></trkpt><trkpt lat="42.1287806697832" lon="13.123963182385982"><ele>802.0</ele><time>2026-04-04T09:57:56Z</time></trkpt><trkpt lat="42.128440743649854" lon="13.123773339683446"><ele>807.0</ele><time>2026-04-04T09:57:57Z</time></trkpt><trkpt lat="42.1281452947407" lon="13.123605826983056"><ele>807.0</ele><time>2026-04-04T09:57:58Z</time></trkpt><trkpt lat="42.127920342935475" lon="13.123378165903318"><ele>807.0</ele><time>2026-04-04T09:57:59Z</time></trkpt><trkpt lat="42.127702188220226" lon="13.123076112993816"><ele>806.0</ele><time>2026-04-04T09:58:00Z</time></trkpt><trkpt lat="42.12744712645133" lon="13.12268996582317"><ele>805.0</ele><time>2026-04-04T09:58:01Z</time></trkpt><trkpt lat="42.12719668222207" lon="13.12233149900051"><ele>805.0</ele><time>2026-04-04T09:58:02Z</time></trkpt><trkpt lat="42.12699325752687" lon="13.122015216284424"><ele>805.0</ele><time>2026-04-04T09:58:03Z</time></trkpt><trkpt lat="42.12681140034526" lon="13.121741666565958"><ele>803.3333333333333</ele><time>2026-04-04T09:58:04Z</time></trkpt><trkpt lat="42.12664396290835" lon="13.121500801321256"><ele>801.6666666666667</ele><time>2026-04-04T09:58:05Z</time></trkpt><trkpt lat="42.126479373406646" lon="13.1213456936423"><ele>800.0</ele><time>2026-04-04T09:58:06Z</time></trkpt><trkpt lat="42.126279415025465" lon="13.12127111487625"><ele>800.0</ele><time>2026-04-04T09:58:07Z</time></trkpt><trkpt lat="42.12605518419305" lon="13.121282683771481"><ele>800.0</ele><time>2026-04-04T09:58:08Z</time></trkpt><trkpt lat="42.12585702472138" lon="13.12138096483878"><ele>800.0</ele><time>2026-04-04T09:58:09Z</time></trkpt><trkpt lat="42.125696027096026" lon="13.121562875040183"><ele>816.5</ele><time>2026-04-04T09:58:10Z</time></trkpt><trkpt lat="42.12558536082017" lon="13.121833065002653"><ele>833.0</ele><time>2026-04-04T09:58:11Z</time></trkpt><trkpt lat="42.12553495218074" lon="13.1221336066171"><ele>843.0</ele><time>2026-04-04T09:58:12Z</time></trkpt><trkpt lat="42.12554555765077" lon="13.122439484592917"><ele>853.0</ele><time>2026-04-04T09:58:13Z</time></trkpt><trkpt lat="42.12562055706754" lon="13.122730580205857"><ele>843.0</ele><time>2026-04-04T09:58:14Z</time></trkpt><trkpt lat="42.12576265798908" lon="13.123016183608524"><ele>833.0</ele><time>2026-04-04T09:58:15Z</time></trkpt><trkpt lat="42.12595734559349" lon="13.123353699210334"><ele>833.0</ele><time>2026-04-04T09:58:16Z</time></trkpt><trkpt lat="42.126180189115914" lon="13.123777446301238"><ele>833.0</ele><time>2026-04-04T09:58:17Z</time></trkpt><trkpt lat="42.126421784563945" lon="13.124276431657682"><ele>826.0</ele><time>2026-04-04T09:58:18Z</time></trkpt><trkpt lat="42.12667940217278" lon="13.12483288376685"><ele>838.0</ele><time>2026-04-04T09:58:19Z</time></trkpt><trkpt lat="42.12694512663247" lon="13.125416390867546"><ele>851.0</ele><time>2026-04-04T09:58:20Z</time></trkpt><trkpt lat="42.12718395298764" lon="13.125961520713592"><ele>843.5</ele><time>2026-04-04T09:58:21Z</time></trkpt><trkpt lat="42.12739414874337" lon="13.126430225132017"><ele>836.0</ele><time>2026-04-04T09:58:22Z</time></trkpt><trkpt lat="42.127582252443915" lon="13.126837513977561"><ele>836.0</ele><time>2026-04-04T09:58:23Z</time></trkpt><trkpt lat="42.12776033174707" lon="13.127192638817862"><ele>836.0</ele><time>2026-04-04T09:58:24Z</time></trkpt><trkpt lat="42.12796901695235" lon="13.127495517740327"><ele>835.0</ele><time>2026-04-04T09:58:25Z</time></trkpt><trkpt lat="42.1282421822989" lon="13.127751719481754"><ele>834.0</ele><time>2026-04-04T09:58:26Z</time></trkpt><trkpt lat="42.128552946751995" lon="13.127958997956139"><ele>834.0</ele><time>2026-04-04T09:58:27Z</time></trkpt><trkpt lat="42.12890749743161" lon="13.128124138862486"><ele>834.0</ele><time>2026-04-04T09:58:28Z</time></trkpt><trkpt lat="42.129335595579164" lon="13.128239718979499"><ele>842.5</ele><time>2026-04-04T09:58:29Z</time></trkpt><trkpt lat="42.12976933502486" lon="13.128367808140673"><ele>851.0</ele><time>2026-04-04T09:58:30Z</time></trkpt><trkpt lat="42.130165252601785" lon="13.128500250474072"><ele>851.5</ele><time>2026-04-04T09:58:31Z</time></trkpt><trkpt lat="42.13052981959836" lon="13.128636341662853"><ele>852.0</ele><time>2026-04-04T09:58:32Z</time></trkpt><trkpt lat="42.13086302848612" lon="13.128762623234733"><ele>848.5</ele><time>2026-04-04T09:58:33Z</time></trkpt><trkpt lat="42.13117539556858" lon="13.128904669285708"><ele>845.0</ele><time>2026-04-04T09:58:34Z</time></trkpt><trkpt lat="42.13146136863798" lon="13.129147718264234"><ele>849.5</ele><time>2026-04-04T09:58:35Z</time></trkpt><trkpt lat="42.1317388018762" lon="13.12946163060523"><ele>854.0</ele><time>2026-04-04T09:58:36Z</time></trkpt><trkpt lat="42.13205800368256" lon="13.12984524601251"><ele>865.0</ele><time>2026-04-04T09:58:37Z</time></trkpt><trkpt lat="42.13239900497543" lon="13.130296763029532"><ele>865.0</ele><time>2026-04-04T09:58:38Z</time></trkpt><trkpt lat="42.13272823503675" lon="13.130698481107945"><ele>865.0</ele><time>2026-04-04T09:58:39Z</time></trkpt><trkpt lat="42.13301152690549" lon="13.131038303823532"><ele>862.5</ele><time>2026-04-04T09:58:40Z</time></trkpt><trkpt lat="42.13325023835739" lon="13.131335884135282"><ele>860.0</ele><time>2026-04-04T09:58:41Z</time></trkpt><trkpt lat="42.13344112215699" lon="13.131647080821391"><ele>866.5</ele><time>2026-04-04T09:58:42Z</time></trkpt><trkpt lat="42.13364616636911" lon="13.132018465391601"><ele>873.0</ele><time>2026-04-04T09:58:43Z</time></trkpt><trkpt lat="42.13386211356797" lon="13.13250145377152"><ele>874.5</ele><time>2026-04-04T09:58:44Z</time></trkpt><trkpt lat="42.13410010784332" lon="13.132996932946089"><ele>876.0</ele><time>2026-04-04T09:58:45Z</time></trkpt><trkpt lat="42.13430645785485" lon="13.133414987052209"><ele>880.0</ele><time>2026-04-04T09:58:46Z</time></trkpt><trkpt lat="42.134478650108214" lon="13.13376494804256"><ele>884.0</ele><time>2026-04-04T09:58:47Z</time></trkpt><trkpt lat="42.134631875405226" lon="13.134107636126323"><ele>889.5</ele><time>2026-04-04T09:58:48Z</time></trkpt><trkpt lat="42.13470061854897" lon="13.134487875180538"><ele>895.0</ele><time>2026-04-04T09:58:49Z</time></trkpt><trkpt lat="42.13474426204842" lon="13.134892712222374"><ele>899.0</ele><time>2026-04-04T09:58:50Z</time></trkpt><trkpt lat="42.13472107746131" lon="13.135316300014985"><ele>903.0</ele><time>2026-04-04T09:58:51Z</time></trkpt><trkpt lat="42.13462253996209" lon="13.13573332523416"><ele>903.0</ele><time>2026-04-04T09:58:52Z</time></trkpt><trkpt lat="42.13452700213584" lon="13.136164068543192"><ele>903.0</ele><time>2026-04-04T09:58:53Z</time></trkpt><trkpt lat="42.13431139568056" lon="13.136583145264062"><ele>900.5</ele><time>2026-04-04T09:58:54Z</time></trkpt><trkpt lat="42.13413854532223" lon="13.137094988678525"><ele>898.0</ele><time>2026-04-04T09:58:55Z</time></trkpt><trkpt lat="42.13396256511397" lon="13.137535949770372"><ele>908.0</ele><time>2026-04-04T09:58:56Z</time></trkpt><trkpt lat="42.13380524925146" lon="13.137910556905902"><ele>918.0</ele><time>2026-04-04T09:58:57Z</time></trkpt><trkpt lat="42.133613370770156" lon="13.13820610116128"><ele>922.0</ele><time>2026-04-04T09:58:58Z</time></trkpt><trkpt lat="42.13336033981415" lon="13.138500780136543"><ele>926.0</ele><time>2026-04-04T09:58:59Z</time></trkpt><trkpt lat="42.13308347320403" lon="13.138824681502326"><ele>917.0</ele><time>2026-04-04T09:59:00Z</time></trkpt><trkpt lat="42.13279286704482" lon="13.13916442092226"><ele>908.0</ele><time>2026-04-04T09:59:01Z</time></trkpt><trkpt lat="42.132472437537025" lon="13.139561340299654"><ele>909.0</ele><time>2026-04-04T09:59:02Z</time></trkpt><trkpt lat="42.13215204047372" lon="13.139931043344541"><ele>910.0</ele><time>2026-04-04T09:59:03Z</time></trkpt><trkpt lat="42.13189923162598" lon="13.140224256837634"><ele>910.0</ele><time>2026-04-04T09:59:04Z</time></trkpt><trkpt lat="42.131708969030754" lon="13.140487654496152"><ele>910.0</ele><time>2026-04-04T09:59:05Z</time></trkpt><trkpt lat="42.13154230454189" lon="13.14078718230859"><ele>911.0</ele><time>2026-04-04T09:59:06Z</time></trkpt><trkpt lat="42.13142872528596" lon="13.141160457004657"><ele>912.0</ele><time>2026-04-04T09:59:07Z</time></trkpt><trkpt lat="42.131352780118284" lon="13.141571710911483"><ele>912.0</ele><time>2026-04-04T09:59:08Z</time></trkpt><trkpt lat="42.131288575151125" lon="13.14196425030728"><ele>912.0</ele><time>2026-04-04T09:59:09Z</time></trkpt><trkpt lat="42.13121360978878" lon="13.142344371494774"><ele>910.5</ele><time>2026-04-04T09:59:10Z</time></trkpt><trkpt lat="42.13109881973747" lon="13.142707540242787"><ele>909.0</ele><time>2026-04-04T09:59:11Z</time></trkpt><trkpt lat="42.13091738392893" lon="13.143017115516447"><ele>911.5</ele><time>2026-04-04T09:59:12Z</time></trkpt><trkpt lat="42.13067290257273" lon="13.143268080638695"><ele>914.0</ele><time>2026-04-04T09:59:13Z</time></trkpt><trkpt lat="42.13035974410964" lon="13.143470912796753"><ele>914.0</ele><time>2026-04-04T09:59:14Z</time></trkpt><trkpt lat="42.12999541278574" lon="13.14370105060173"><ele>914.0</ele><time>2026-04-04T09:59:15Z</time></trkpt><trkpt lat="42.12966106081241" lon="13.143933290733262"><ele>912.5</ele><time>2026-04-04T09:59:16Z</time></trkpt><trkpt lat="42.1293728190689" lon="13.14412709107049"><ele>911.0</ele><time>2026-04-04T09:59:17Z</time></trkpt><trkpt lat="42.1291192901404" lon="13.144309832002529"><ele>926.0</ele><time>2026-04-04T09:59:18Z</time></trkpt><trkpt lat="42.12891395676089" lon="13.144481698294683"><ele>941.0</ele><time>2026-04-04T09:59:19Z</time></trkpt><trkpt lat="42.128741774054795" lon="13.144692733281206"><ele>931.0</ele><time>2026-04-04T09:59:20Z</time></trkpt><trkpt lat="42.12861398568935" lon="13.144942139263868"><ele>921.0</ele><time>2026-04-04T09:59:21Z</time></trkpt><trkpt lat="42.1284711350802" lon="13.145310770501693"><ele>915.0</ele><time>2026-04-04T09:59:22Z</time></trkpt><trkpt lat="42.12830812147446" lon="13.145790367880606"><ele>909.0</ele><time>2026-04-04T09:59:23Z</time></trkpt><trkpt lat="42.12813137496145" lon="13.146318141977414"><ele>921.0</ele><time>2026-04-04T09:59:24Z</time></trkpt><trkpt lat="42.127985037459425" lon="13.146749657097164"><ele>933.0</ele><time>2026-04-04T09:59:25Z</time></trkpt><trkpt lat="42.12782066461051" lon="13.14711245488097"><ele>927.0</ele><time>2026-04-04T09:59:26Z</time></trkpt><trkpt lat="42.12757917280196" lon="13.147480618277054"><ele>921.0</ele><time>2026-04-04T09:59:27Z</time></trkpt><trkpt lat="42.12726937821142" lon="13.147920097202745"><ele>928.0</ele><time>2026-04-04T09:59:28Z</time></trkpt><trkpt lat="42.12698517384305" lon="13.148337772765139"><ele>935.0</ele><time>2026-04-04T09:59:29Z</time></trkpt><trkpt lat="42.126747893129334" lon="13.148691355842686"><ele>935.0</ele><time>2026-04-04T09:59:30Z</time></trkpt><trkpt lat="42.12649957361046" lon="13.14900640098331"><ele>935.0</ele><time>2026-04-04T09:59:31Z</time></trkpt><trkpt lat="42.12620028234455" lon="13.14925701895552"><ele>935.0</ele><time>2026-04-04T09:59:32Z</time></trkpt><trkpt lat="42.12592207964918" lon="13.149478980203588"><ele>935.0</ele><time>2026-04-04T09:59:33Z</time></trkpt><trkpt lat="42.12564134840776" lon="13.149829008672166"><ele>943.0</ele><time>2026-04-04T09:59:34Z</time></trkpt><trkpt lat="42.12536867845987" lon="13.150244346703076"><ele>951.0</ele><time>2026-04-04T09:59:35Z</time></trkpt><trkpt lat="42.12510055478427" lon="13.150691121497408"><ele>962.0</ele><time>2026-04-04T09:59:36Z</time></trkpt><trkpt lat="42.12483782727071" lon="13.151217462704548"><ele>938.0</ele><time>2026-04-04T09:59:37Z</time></trkpt><trkpt lat="42.1245614162588" lon="13.151799789283041"><ele>923.0</ele><time>2026-04-04T09:59:38Z</time></trkpt><trkpt lat="42.1242665508776" lon="13.152393563062775"><ele>937.0</ele><time>2026-04-04T09:59:39Z</time></trkpt><trkpt lat="42.12396929661939" lon="13.152949289446827"><ele>918.0</ele><time>2026-04-04T09:59:40Z</time></trkpt><trkpt lat="42.12370386399684" lon="13.153441587075493"><ele>918.0</ele><time>2026-04-04T09:59:41Z</time></trkpt><trkpt lat="42.12346571733438" lon="13.153884650755696"><ele>918.0</ele><time>2026-04-04T09:59:42Z</time></trkpt><trkpt lat="42.123241527244225" lon="13.154325347996467"><ele>917.0</ele><time>2026-04-04T09:59:43Z</time></trkpt><trkpt lat="42.12301580905316" lon="13.154782817580866"><ele>916.0</ele><time>2026-04-04T09:59:44Z</time></trkpt><trkpt lat="42.12281247026796" lon="13.155224455749089"><ele>914.5</ele><time>2026-04-04T09:59:45Z</time></trkpt><trkpt lat="42.12264992044295" lon="13.155649646309987"><ele>913.0</ele><time>2026-04-04T09:59:46Z</time></trkpt><trkpt lat="42.122514763893335" lon="13.156042349219042"><ele>912.0</ele><time>2026-04-04T09:59:47Z</time></trkpt><trkpt lat="42.12238935521401" lon="13.156408988664996"><ele>911.0</ele><time>2026-04-04T09:59:48Z</time></trkpt><trkpt lat="42.12230436626638" lon="13.156764886276397"><ele>908.5</ele><time>2026-04-04T09:59:49Z</time></trkpt><trkpt lat="42.12228608464009" lon="13.157145335125215"><ele>906.0</ele><time>2026-04-04T09:59:50Z</time></trkpt><trkpt lat="42.122333986844296" lon="13.157592933999403"><ele>907.0</ele><time>2026-04-04T09:59:51Z</time></trkpt><trkpt lat="42.122411572053124" lon="13.158141338330577"><ele>908.0</ele><time>2026-04-04T09:59:52Z</time></trkpt><trkpt lat="42.122487711333896" lon="13.158766927021164"><ele>907.0</ele><time>2026-04-04T09:59:53Z</time></trkpt><trkpt lat="42.122562516916" lon="13.159462759078027"><ele>906.0</ele><time>2026-04-04T09:59:54Z</time></trkpt><trkpt lat="42.12263100859254" lon="13.160125183505743"><ele>906.0</ele><time>2026-04-04T09:59:55Z</time></trkpt><trkpt lat="42.12268178458905" lon="13.160694523775682"><ele>906.0</ele><time>2026-04-04T09:59:56Z</time></trkpt><trkpt lat="42.12272228586292" lon="13.161240381607412"><ele>906.0</ele><time>2026-04-04T09:59:57Z</time></trkpt><trkpt lat="42.122765719205404" lon="13.161747553069285"><ele>906.0</ele><time>2026-04-04T09:59:58Z</time></trkpt><trkpt lat="42.12280165244111" lon="13.162200039405011"><ele>906.0</ele><time>2026-04-04T09:59:59Z</time></trkpt><trkpt lat="42.12281622832857" lon="13.162605132458214"><ele>906.0</ele><time>2026-04-04T10:00:00Z</time></trkpt><trkpt lat="42.122780860932686" lon="13.163016751894729"><ele>907.0</ele><time>2026-04-04T10:00:01Z</time></trkpt><trkpt lat="42.12265964933155" lon="13.163482012021678"><ele>908.0</ele><time>2026-04-04T10:00:02Z</time></trkpt><trkpt lat="42.12254157850949" lon="13.163929109509715"><ele>908.0</ele><time>2026-04-04T10:00:03Z</time></trkpt><trkpt lat="42.12243403436208" lon="13.16442258296068"><ele>908.0</ele><time>2026-04-04T10:00:04Z</time></trkpt><trkpt lat="42.12231646458378" lon="13.164978969270088"><ele>908.0</ele><time>2026-04-04T10:00:05Z</time></trkpt><trkpt lat="42.12219552532123" lon="13.165476054104342"><ele>908.0</ele><time>2026-04-04T10:00:06Z</time></trkpt><trkpt lat="42.122104589298836" lon="13.16591238739782"><ele>908.0</ele><time>2026-04-04T10:00:07Z</time></trkpt><trkpt lat="42.12205867852728" lon="13.166343348693557"><ele>908.0</ele><time>2026-04-04T10:00:08Z</time></trkpt><trkpt lat="42.122057838003904" lon="13.16681926116891"><ele>908.5</ele><time>2026-04-04T10:00:09Z</time></trkpt><trkpt lat="42.12207030359018" lon="13.167407602746174"><ele>909.0</ele><time>2026-04-04T10:00:10Z</time></trkpt><trkpt lat="42.122090777211326" lon="13.167993529793355"><ele>909.5</ele><time>2026-04-04T10:00:11Z</time></trkpt><trkpt lat="42.12210986696692" lon="13.168486006321379"><ele>910.0</ele><time>2026-04-04T10:00:12Z</time></trkpt><trkpt lat="42.122138591061926" lon="13.168930177371104"><ele>910.0</ele><time>2026-04-04T10:00:13Z</time></trkpt><trkpt lat="42.12219605321333" lon="13.169353080046859"><ele>910.0</ele><time>2026-04-04T10:00:14Z</time></trkpt><trkpt lat="42.122303169400915" lon="13.169791125977678"><ele>915.0</ele><time>2026-04-04T10:00:15Z</time></trkpt><trkpt lat="42.122474766592006" lon="13.170240831741323"><ele>920.0</ele><time>2026-04-04T10:00:16Z</time></trkpt><trkpt lat="42.12269220089686" lon="13.170771475807182"><ele>920.0</ele><time>2026-04-04T10:00:17Z</time></trkpt><trkpt lat="42.1229095941546" lon="13.17135894382147"><ele>917.0</ele><time>2026-04-04T10:00:18Z</time></trkpt><trkpt lat="42.12309745280594" lon="13.171989399245422"><ele>925.0</ele><time>2026-04-04T10:00:19Z</time></trkpt><trkpt lat="42.123293958667595" lon="13.172651980283295"><ele>917.0</ele><time>2026-04-04T10:00:20Z</time></trkpt><trkpt lat="42.12344482380251" lon="13.173312657052415"><ele>917.0</ele><time>2026-04-04T10:00:21Z</time></trkpt><trkpt lat="42.12359951539137" lon="13.173891229987927"><ele>917.5</ele><time>2026-04-04T10:00:22Z</time></trkpt><trkpt lat="42.123745202480556" lon="13.174396254047936"><ele>918.0</ele><time>2026-04-04T10:00:23Z</time></trkpt><trkpt lat="42.12387120986851" lon="13.174842675585152"><ele>918.5</ele><time>2026-04-04T10:00:24Z</time></trkpt><trkpt lat="42.12398371941119" lon="13.17524883110904"><ele>919.0</ele><time>2026-04-04T10:00:25Z</time></trkpt><trkpt lat="42.12406421583929" lon="13.175625844528485"><ele>920.0</ele><time>2026-04-04T10:00:26Z</time></trkpt><trkpt lat="42.124100839012115" lon="13.175992685325227"><ele>921.0</ele><time>2026-04-04T10:00:27Z</time></trkpt><trkpt lat="42.124054429532706" lon="13.17636240650076"><ele>919.5</ele><time>2026-04-04T10:00:28Z</time></trkpt><trkpt lat="42.12393600836029" lon="13.176751401532902"><ele>918.0</ele><time>2026-04-04T10:00:29Z</time></trkpt><trkpt lat="42.123747670934335" lon="13.177182910112524"><ele>920.5</ele><time>2026-04-04T10:00:30Z</time></trkpt><trkpt lat="42.12353974785346" lon="13.177709005336153"><ele>923.0</ele><time>2026-04-04T10:00:31Z</time></trkpt><trkpt lat="42.12332200065369" lon="13.178283432185552"><ele>925.0</ele><time>2026-04-04T10:00:32Z</time></trkpt><trkpt lat="42.12310534391843" lon="13.178894015582214"><ele>923.0</ele><time>2026-04-04T10:00:33Z</time></trkpt><trkpt lat="42.12288367949053" lon="13.179511151438062"><ele>923.0</ele><time>2026-04-04T10:00:34Z</time></trkpt><trkpt lat="42.12268404127799" lon="13.180047407079293"><ele>923.0</ele><time>2026-04-04T10:00:35Z</time></trkpt><trkpt lat="42.12251368635801" lon="13.180521786234216"><ele>924.0</ele><time>2026-04-04T10:00:36Z</time></trkpt><trkpt lat="42.122349943773095" lon="13.180976227399112"><ele>925.0</ele><time>2026-04-04T10:00:37Z</time></trkpt><trkpt lat="42.1222022273354" lon="13.181393519152072"><ele>925.0</ele><time>2026-04-04T10:00:38Z</time></trkpt><trkpt lat="42.12206311827469" lon="13.181788469247781"><ele>925.0</ele><time>2026-04-04T10:00:39Z</time></trkpt><trkpt lat="42.12196932709254" lon="13.182127882406883"><ele>925.5</ele><time>2026-04-04T10:00:40Z</time></trkpt><trkpt lat="42.1219336592949" lon="13.182466619797914"><ele>926.0</ele><time>2026-04-04T10:00:41Z</time></trkpt><trkpt lat="42.1219831477342" lon="13.182808922944606"><ele>926.0</ele><time>2026-04-04T10:00:42Z</time></trkpt><trkpt lat="42.1220890116344" lon="13.183174090311358"><ele>926.0</ele><time>2026-04-04T10:00:43Z</time></trkpt><trkpt lat="42.1222568697546" lon="13.18359353933519"><ele>930.0</ele><time>2026-04-04T10:00:44Z</time></trkpt><trkpt lat="42.122432152688035" lon="13.184030602440655"><ele>934.0</ele><time>2026-04-04T10:00:45Z</time></trkpt><trkpt lat="42.12256381439505" lon="13.1844128000309"><ele>934.0</ele><time>2026-04-04T10:00:46Z</time></trkpt><trkpt lat="42.12266652561109" lon="13.184787778744306"><ele>934.0</ele><time>2026-04-04T10:00:47Z</time></trkpt><trkpt lat="42.12270631893903" lon="13.185162279374207"><ele>934.5</ele><time>2026-04-04T10:00:48Z</time></trkpt><trkpt lat="42.122679739743944" lon="13.185543891619101"><ele>935.0</ele><time>2026-04-04T10:00:49Z</time></trkpt><trkpt lat="42.12260858476624" lon="13.185930471701868"><ele>935.0</ele><time>2026-04-04T10:00:50Z</time></trkpt><trkpt lat="42.122473554587295" lon="13.186301498657606"><ele>935.0</ele><time>2026-04-04T10:00:51Z</time></trkpt><trkpt lat="42.12228866797336" lon="13.186641610031694"><ele>935.0</ele><time>2026-04-04T10:00:52Z</time></trkpt><trkpt lat="42.122035618494955" lon="13.186948269257794"><ele>935.0</ele><time>2026-04-04T10:00:53Z</time></trkpt><trkpt lat="42.12170293684246" lon="13.187277799755847"><ele>939.0</ele><time>2026-04-04T10:00:54Z</time></trkpt><trkpt lat="42.12133049167082" lon="13.187634917067022"><ele>939.0</ele><time>2026-04-04T10:00:55Z</time></trkpt><trkpt lat="42.120988138881266" lon="13.187997219754655"><ele>939.0</ele><time>2026-04-04T10:00:56Z</time></trkpt><trkpt lat="42.12067794471581" lon="13.188335726157888"><ele>939.0</ele><time>2026-04-04T10:00:57Z</time></trkpt><trkpt lat="42.12039835686608" lon="13.188639745139001"><ele>939.0</ele><time>2026-04-04T10:00:58Z</time></trkpt><trkpt lat="42.120150360156835" lon="13.188898456698741"><ele>944.5</ele><time>2026-04-04T10:00:59Z</time></trkpt><trkpt lat="42.11989805371672" lon="13.189105399968021"><ele>950.0</ele><time>2026-04-04T10:01:00Z</time></trkpt><trkpt lat="42.11957830087255" lon="13.189237439260209"><ele>950.0</ele><time>2026-04-04T10:01:01Z</time></trkpt><trkpt lat="42.11917686339557" lon="13.189303348930116"><ele>950.0</ele><time>2026-04-04T10:01:02Z</time></trkpt><trkpt lat="42.11879013778873" lon="13.189327029909498"><ele>950.0</ele><time>2026-04-04T10:01:03Z</time></trkpt><trkpt lat="42.11846963525331" lon="13.189355594364221"><ele>950.0</ele><time>2026-04-04T10:01:04Z</time></trkpt><trkpt lat="42.118193208361454" lon="13.189415604696379"><ele>950.0</ele><time>2026-04-04T10:01:05Z</time></trkpt><trkpt lat="42.11796723053618" lon="13.18952896559573"><ele>950.0</ele><time>2026-04-04T10:01:06Z</time></trkpt><trkpt lat="42.117784328281374" lon="13.1897132308834"><ele>955.5</ele><time>2026-04-04T10:01:07Z</time></trkpt><trkpt lat="42.11766234004579" lon="13.18996573297104"><ele>961.0</ele><time>2026-04-04T10:01:08Z</time></trkpt><trkpt lat="42.117597401671524" lon="13.19031165089994"><ele>966.5</ele><time>2026-04-04T10:01:09Z</time></trkpt><trkpt lat="42.117561556143315" lon="13.190708491461157"><ele>972.0</ele><time>2026-04-04T10:01:10Z</time></trkpt><trkpt lat="42.117540451060044" lon="13.191231099563362"><ele>975.0</ele><time>2026-04-04T10:01:11Z</time></trkpt><trkpt lat="42.11746625633054" lon="13.191742352655302"><ele>978.0</ele><time>2026-04-04T10:01:12Z</time></trkpt><trkpt lat="42.11739290794879" lon="13.192170777926428"><ele>983.5</ele><time>2026-04-04T10:01:13Z</time></trkpt><trkpt lat="42.11726456975186" lon="13.192490140256709"><ele>989.0</ele><time>2026-04-04T10:01:14Z</time></trkpt><trkpt lat="42.11709267074639" lon="13.192735163158117"><ele>989.0</ele><time>2026-04-04T10:01:15Z</time></trkpt><trkpt lat="42.116876886762256" lon="13.192906643007488"><ele>989.0</ele><time>2026-04-04T10:01:16Z</time></trkpt><trkpt lat="42.11663518105342" lon="13.193084294476957"><ele>984.5</ele><time>2026-04-04T10:01:17Z</time></trkpt><trkpt lat="42.116263552870414" lon="13.193355846831023"><ele>980.0</ele><time>2026-04-04T10:01:18Z</time></trkpt><trkpt lat="42.11593272461467" lon="13.193589557964659"><ele>986.0</ele><time>2026-04-04T10:01:19Z</time></trkpt><trkpt lat="42.115633622946625" lon="13.193790685159062"><ele>992.0</ele><time>2026-04-04T10:01:20Z</time></trkpt><trkpt lat="42.115361822873105" lon="13.193908516418336"><ele>989.0</ele><time>2026-04-04T10:01:21Z</time></trkpt><trkpt lat="42.11518375986535" lon="13.194014523911763"><ele>986.0</ele><time>2026-04-04T10:01:22Z</time></trkpt><trkpt lat="42.11495982841991" lon="13.194115155263718"><ele>983.0</ele><time>2026-04-04T10:01:23Z</time></trkpt><trkpt lat="42.11479804931541" lon="13.194187959101136"><ele>983.0</ele><time>2026-04-04T10:01:24Z</time></trkpt><trkpt lat="42.11466068295291" lon="13.194266249293355"><ele>983.0</ele><time>2026-04-04T10:01:25Z</time></trkpt><trkpt lat="42.11453354452989" lon="13.194414696136684"><ele>983.0</ele><time>2026-04-04T10:01:26Z</time></trkpt><trkpt lat="42.114379392959634" lon="13.194658795973702"><ele>976.5</ele><time>2026-04-04T10:01:27Z</time></trkpt><trkpt lat="42.114275745232064" lon="13.19494948283706"><ele>970.0</ele><time>2026-04-04T10:01:28Z</time></trkpt><trkpt lat="42.114195347483296" lon="13.195308821050096"><ele>975.0</ele><time>2026-04-04T10:01:29Z</time></trkpt><trkpt lat="42.11405961514668" lon="13.195756970167901"><ele>980.0</ele><time>2026-04-04T10:01:30Z</time></trkpt><trkpt lat="42.113946256372145" lon="13.196078525384662"><ele>980.0</ele><time>2026-04-04T10:01:31Z</time></trkpt><trkpt lat="42.11381399757691" lon="13.196288570678238"><ele>980.0</ele><time>2026-04-04T10:01:32Z</time></trkpt><trkpt lat="42.113657603947814" lon="13.196432685757475"><ele>980.0</ele><time>2026-04-04T10:01:33Z</time></trkpt><trkpt lat="42.11347319245589" lon="13.196543045255972"><ele>972.6666666666667</ele><time>2026-04-04T10:01:34Z</time></trkpt><trkpt lat="42.11326832148674" lon="13.19659258529108"><ele>965.3333333333333</ele><time>2026-04-04T10:01:35Z</time></trkpt><trkpt lat="42.11309073729694" lon="13.196585976080117"><ele>958.0</ele><time>2026-04-04T10:01:36Z</time></trkpt><trkpt lat="42.112934643410114" lon="13.196531258097904"><ele>961.3333333333333</ele><time>2026-04-04T10:01:37Z</time></trkpt><trkpt lat="42.11280688493599" lon="13.196447292380805"><ele>964.6666666666667</ele><time>2026-04-04T10:01:38Z</time></trkpt><trkpt lat="42.11265769843719" lon="13.196341066499665"><ele>968.0</ele><time>2026-04-04T10:01:39Z</time></trkpt><trkpt lat="42.112493860670206" lon="13.19622089200698"><ele>961.0</ele><time>2026-04-04T10:01:40Z</time></trkpt><trkpt lat="42.11227559447461" lon="13.196056888384847"><ele>954.0</ele><time>2026-04-04T10:01:41Z</time></trkpt><trkpt lat="42.111985056266846" lon="13.195864137396741"><ele>958.5</ele><time>2026-04-04T10:01:42Z</time></trkpt><trkpt lat="42.111631235466305" lon="13.195669314732777"><ele>963.0</ele><time>2026-04-04T10:01:43Z</time></trkpt><trkpt lat="42.11130484541427" lon="13.195512434753562"><ele>963.0</ele><time>2026-04-04T10:01:44Z</time></trkpt><trkpt lat="42.11103073747088" lon="13.19533154958267"><ele>963.0</ele><time>2026-04-04T10:01:45Z</time></trkpt><trkpt lat="42.110848189346555" lon="13.19526246820931"><ele>968.0</ele><time>2026-04-04T10:01:46Z</time></trkpt><trkpt lat="42.110606308275" lon="13.195227500786718"><ele>973.0</ele><time>2026-04-04T10:01:47Z</time></trkpt><trkpt lat="42.110409786329825" lon="13.195276273494255"><ele>978.0</ele><time>2026-04-04T10:01:48Z</time></trkpt><trkpt lat="42.11021446181695" lon="13.19538994235449"><ele>978.0</ele><time>2026-04-04T10:01:49Z</time></trkpt><trkpt lat="42.109981814669055" lon="13.195568298337124"><ele>978.0</ele><time>2026-04-04T10:01:50Z</time></trkpt><trkpt lat="42.10972376802822" lon="13.195816590444878"><ele>974.0</ele><time>2026-04-04T10:01:51Z</time></trkpt><trkpt lat="42.10940727888084" lon="13.196186008751509"><ele>970.0</ele><time>2026-04-04T10:01:52Z</time></trkpt><trkpt lat="42.10909066619899" lon="13.196488889556008"><ele>963.0</ele><time>2026-04-04T10:01:53Z</time></trkpt><trkpt lat="42.10879206720285" lon="13.196714255748567"><ele>956.0</ele><time>2026-04-04T10:01:54Z</time></trkpt><trkpt lat="42.10849627189408" lon="13.196830791631774"><ele>960.5</ele><time>2026-04-04T10:01:55Z</time></trkpt><trkpt lat="42.10817127935341" lon="13.196900172048933"><ele>965.0</ele><time>2026-04-04T10:01:56Z</time></trkpt><trkpt lat="42.107773551396434" lon="13.196986080054348"><ele>959.5</ele><time>2026-04-04T10:01:57Z</time></trkpt><trkpt lat="42.107338788613845" lon="13.197122932276866"><ele>954.0</ele><time>2026-04-04T10:01:58Z</time></trkpt><trkpt lat="42.1069453243241" lon="13.197218333358325"><ele>951.0</ele><time>2026-04-04T10:01:59Z</time></trkpt><trkpt lat="42.10655860934933" lon="13.197307943929411"><ele>948.0</ele><time>2026-04-04T10:02:00Z</time></trkpt><trkpt lat="42.10619958399267" lon="13.197377616597503"><ele>947.5</ele><time>2026-04-04T10:02:01Z</time></trkpt><trkpt lat="42.10592082016828" lon="13.197364737938724"><ele>947.0</ele><time>2026-04-04T10:02:02Z</time></trkpt><trkpt lat="42.10563705463521" lon="13.197213745772526"><ele>947.0</ele><time>2026-04-04T10:02:03Z</time></trkpt><trkpt lat="42.10529183079863" lon="13.197004257206773"><ele>947.0</ele><time>2026-04-04T10:02:04Z</time></trkpt><trkpt lat="42.10487809950854" lon="13.196796828973174"><ele>946.0</ele><time>2026-04-04T10:02:05Z</time></trkpt><trkpt lat="42.104490637259154" lon="13.196616988579777"><ele>945.0</ele><time>2026-04-04T10:02:06Z</time></trkpt><trkpt lat="42.104142970002776" lon="13.19645049210709"><ele>945.0</ele><time>2026-04-04T10:02:07Z</time></trkpt><trkpt lat="42.103842522579114" lon="13.196307768478398"><ele>945.0</ele><time>2026-04-04T10:02:08Z</time></trkpt><trkpt lat="42.103563533768664" lon="13.196190878116973"><ele>945.0</ele><time>2026-04-04T10:02:09Z</time></trkpt><trkpt lat="42.10336972577147" lon="13.196186518522905"><ele>945.0</ele><time>2026-04-04T10:02:10Z</time></trkpt><trkpt lat="42.10312516796782" lon="13.196262637398812"><ele>945.0</ele><time>2026-04-04T10:02:11Z</time></trkpt><trkpt lat="42.10288282292932" lon="13.196435449332416"><ele>945.0</ele><time>2026-04-04T10:02:12Z</time></trkpt><trkpt lat="42.10267008516651" lon="13.196664787154374"><ele>945.0</ele><time>2026-04-04T10:02:13Z</time></trkpt><trkpt lat="42.10241583821211" lon="13.19703245284577"><ele>944.0</ele><time>2026-04-04T10:02:14Z</time></trkpt><trkpt lat="42.102160213104405" lon="13.1974634159308"><ele>943.0</ele><time>2026-04-04T10:02:15Z</time></trkpt><trkpt lat="42.101925132328816" lon="13.197819794256803"><ele>943.0</ele><time>2026-04-04T10:02:16Z</time></trkpt><trkpt lat="42.10169900106222" lon="13.198157395617324"><ele>943.0</ele><time>2026-04-04T10:02:17Z</time></trkpt><trkpt lat="42.101500617316105" lon="13.19846079264744"><ele>944.0</ele><time>2026-04-04T10:02:18Z</time></trkpt><trkpt lat="42.101289753944016" lon="13.19877002445628"><ele>945.0</ele><time>2026-04-04T10:02:19Z</time></trkpt><trkpt lat="42.10111723075452" lon="13.199026038254907"><ele>935.0</ele><time>2026-04-04T10:02:20Z</time></trkpt><trkpt lat="42.10094715936582" lon="13.199227030698767"><ele>925.0</ele><time>2026-04-04T10:02:21Z</time></trkpt><trkpt lat="42.10075858568238" lon="13.199395742317526"><ele>930.0</ele><time>2026-04-04T10:02:22Z</time></trkpt><trkpt lat="42.10047522917926" lon="13.199569592006156"><ele>935.0</ele><time>2026-04-04T10:02:23Z</time></trkpt><trkpt lat="42.100169607894614" lon="13.19970228387213"><ele>932.0</ele><time>2026-04-04T10:02:24Z</time></trkpt><trkpt lat="42.09981373451515" lon="13.19987681910526"><ele>929.0</ele><time>2026-04-04T10:02:25Z</time></trkpt><trkpt lat="42.09954173326301" lon="13.200068301761286"><ele>929.0</ele><time>2026-04-04T10:02:26Z</time></trkpt><trkpt lat="42.09927096595318" lon="13.200400388208807"><ele>929.0</ele><time>2026-04-04T10:02:27Z</time></trkpt><trkpt lat="42.09901531073759" lon="13.200791148299512"><ele>930.0</ele><time>2026-04-04T10:02:28Z</time></trkpt><trkpt lat="42.09875738935785" lon="13.201173749691689"><ele>931.0</ele><time>2026-04-04T10:02:29Z</time></trkpt><trkpt lat="42.09847670788501" lon="13.201468906736748"><ele>925.0</ele><time>2026-04-04T10:02:30Z</time></trkpt><trkpt lat="42.09808047568643" lon="13.20174215987921"><ele>919.0</ele><time>2026-04-04T10:02:31Z</time></trkpt><trkpt lat="42.0976839390714" lon="13.201990524263735"><ele>922.5</ele><time>2026-04-04T10:02:32Z</time></trkpt><trkpt lat="42.09731875478354" lon="13.202253109224655"><ele>926.0</ele><time>2026-04-04T10:02:33Z</time></trkpt><trkpt lat="42.09699926637055" lon="13.202507246245554"><ele>919.5</ele><time>2026-04-04T10:02:34Z</time></trkpt><trkpt lat="42.09668311403382" lon="13.202772478927956"><ele>913.0</ele><time>2026-04-04T10:02:35Z</time></trkpt><trkpt lat="42.09642492136725" lon="13.203031584891205"><ele>904.0</ele><time>2026-04-04T10:02:36Z</time></trkpt><trkpt lat="42.09619528074733" lon="13.203254231078505"><ele>895.0</ele><time>2026-04-04T10:02:37Z</time></trkpt><trkpt lat="42.096026608029206" lon="13.203378942620697"><ele>895.0</ele><time>2026-04-04T10:02:38Z</time></trkpt><trkpt lat="42.09578548904114" lon="13.203499382928566"><ele>895.0</ele><time>2026-04-04T10:02:39Z</time></trkpt><trkpt lat="42.09552158156339" lon="13.2034560498901"><ele>891.0</ele><time>2026-04-04T10:02:40Z</time></trkpt><trkpt lat="42.095240274785745" lon="13.203357822829439"><ele>887.0</ele><time>2026-04-04T10:02:41Z</time></trkpt><trkpt lat="42.09481726493964" lon="13.203134144331504"><ele>887.0</ele><time>2026-04-04T10:02:42Z</time></trkpt><trkpt lat="42.094404408540335" lon="13.202885464934985"><ele>884.5</ele><time>2026-04-04T10:02:43Z</time></trkpt><trkpt lat="42.09406356030252" lon="13.202704090901278"><ele>882.0</ele><time>2026-04-04T10:02:44Z</time></trkpt><trkpt lat="42.09372902543587" lon="13.202552398932903"><ele>882.0</ele><time>2026-04-04T10:02:45Z</time></trkpt><trkpt lat="42.09346778300733" lon="13.2024591294345"><ele>882.0</ele><time>2026-04-04T10:02:46Z</time></trkpt><trkpt lat="42.093174508582386" lon="13.202428315458306"><ele>882.0</ele><time>2026-04-04T10:02:47Z</time></trkpt><trkpt lat="42.092968573451394" lon="13.202481175024133"><ele>882.0</ele><time>2026-04-04T10:02:48Z</time></trkpt><trkpt lat="42.092783361971506" lon="13.20255601250569"><ele>882.0</ele><time>2026-04-04T10:02:49Z</time></trkpt><trkpt lat="42.092616646800955" lon="13.202645673227"><ele>882.0</ele><time>2026-04-04T10:02:50Z</time></trkpt><trkpt lat="42.092461345027424" lon="13.20276799550556"><ele>882.0</ele><time>2026-04-04T10:02:51Z</time></trkpt><trkpt lat="42.09226953593646" lon="13.202933062782703"><ele>882.0</ele><time>2026-04-04T10:02:52Z</time></trkpt><trkpt lat="42.09210760474375" lon="13.20315842639581"><ele>883.5</ele><time>2026-04-04T10:02:53Z</time></trkpt><trkpt lat="42.09186109627256" lon="13.20348213508287"><ele>885.0</ele><time>2026-04-04T10:02:54Z</time></trkpt><trkpt lat="42.09147932471898" lon="13.203934067653323"><ele>875.0</ele><time>2026-04-04T10:02:55Z</time></trkpt><trkpt lat="42.091106882788125" lon="13.20432624311165"><ele>875.0</ele><time>2026-04-04T10:02:56Z</time></trkpt><trkpt lat="42.09077010728533" lon="13.20471195620821"><ele>875.0</ele><time>2026-04-04T10:02:57Z</time></trkpt><trkpt lat="42.090469462576905" lon="13.2050684987195"><ele>872.0</ele><time>2026-04-04T10:02:58Z</time></trkpt><trkpt lat="42.09013674903395" lon="13.205350431973233"><ele>869.0</ele><time>2026-04-04T10:02:59Z</time></trkpt><trkpt lat="42.08970653791591" lon="13.205685741225883"><ele>863.0</ele><time>2026-04-04T10:03:00Z</time></trkpt><trkpt lat="42.089286158052886" lon="13.20601822020359"><ele>871.0</ele><time>2026-04-04T10:03:01Z</time></trkpt><trkpt lat="42.08889459760576" lon="13.206333081880048"><ele>864.0</ele><time>2026-04-04T10:03:02Z</time></trkpt><trkpt lat="42.088553411479346" lon="13.206619906813122"><ele>857.0</ele><time>2026-04-04T10:03:03Z</time></trkpt><trkpt lat="42.08821377065859" lon="13.206912017029792"><ele>857.0</ele><time>2026-04-04T10:03:04Z</time></trkpt><trkpt lat="42.087891375842894" lon="13.207167067024363"><ele>857.0</ele><time>2026-04-04T10:03:05Z</time></trkpt><trkpt lat="42.0876019984002" lon="13.207403823779416"><ele>857.0</ele><time>2026-04-04T10:03:06Z</time></trkpt><trkpt lat="42.087341246588146" lon="13.207605820874429"><ele>857.0</ele><time>2026-04-04T10:03:07Z</time></trkpt><trkpt lat="42.08712745176333" lon="13.207805910497376"><ele>857.0</ele><time>2026-04-04T10:03:08Z</time></trkpt><trkpt lat="42.08698003072639" lon="13.208076466256628"><ele>857.0</ele><time>2026-04-04T10:03:09Z</time></trkpt><trkpt lat="42.086895216583535" lon="13.208424012986443"><ele>856.0</ele><time>2026-04-04T10:03:10Z</time></trkpt><trkpt lat="42.08676232576682" lon="13.208733961603018"><ele>855.0</ele><time>2026-04-04T10:03:11Z</time></trkpt><trkpt lat="42.086939969259" lon="13.20904733238076"><ele>852.6666666666667</ele><time>2026-04-04T10:03:12Z</time></trkpt><trkpt lat="42.086915145311224" lon="13.209298929978052"><ele>850.3333333333334</ele><time>2026-04-04T10:03:13Z</time></trkpt><trkpt lat="42.086913366839134" lon="13.209491907747275"><ele>848.0</ele><time>2026-04-04T10:03:14Z</time></trkpt><trkpt lat="42.08693009858723" lon="13.209695141591649"><ele>845.0</ele><time>2026-04-04T10:03:15Z</time></trkpt><trkpt lat="42.08697388886787" lon="13.209912612767274"><ele>842.0</ele><time>2026-04-04T10:03:16Z</time></trkpt><trkpt lat="42.08705127304405" lon="13.210124527637221"><ele>839.0</ele><time>2026-04-04T10:03:17Z</time></trkpt><trkpt lat="42.087161342100146" lon="13.21029926142028"><ele>839.0</ele><time>2026-04-04T10:03:18Z</time></trkpt><trkpt lat="42.087307670989944" lon="13.210429100168183"><ele>839.0</ele><time>2026-04-04T10:03:19Z</time></trkpt><trkpt lat="42.08756388379548" lon="13.210644692524925"><ele>838.5</ele><time>2026-04-04T10:03:20Z</time></trkpt><trkpt lat="42.08784320534672" lon="13.21085622072652"><ele>838.0</ele><time>2026-04-04T10:03:21Z</time></trkpt><trkpt lat="42.08802671406021" lon="13.211008853954112"><ele>838.0</ele><time>2026-04-04T10:03:22Z</time></trkpt><trkpt lat="42.08816876177645" lon="13.211209670636315"><ele>838.0</ele><time>2026-04-04T10:03:23Z</time></trkpt><trkpt lat="42.0882678290228" lon="13.21141409778993"><ele>838.0</ele><time>2026-04-04T10:03:24Z</time></trkpt><trkpt lat="42.08834863850983" lon="13.211753015550489"><ele>835.5</ele><time>2026-04-04T10:03:25Z</time></trkpt><trkpt lat="42.088402710778176" lon="13.212115350783893"><ele>833.0</ele><time>2026-04-04T10:03:26Z</time></trkpt><trkpt lat="42.08840393751526" lon="13.212535800990272"><ele>833.0</ele><time>2026-04-04T10:03:27Z</time></trkpt><trkpt lat="42.088448140521464" lon="13.212916351173472"><ele>833.0</ele><time>2026-04-04T10:03:28Z</time></trkpt><trkpt lat="42.088545716448074" lon="13.21323929204739"><ele>833.0</ele><time>2026-04-04T10:03:29Z</time></trkpt><trkpt lat="42.08873570734689" lon="13.2135124641004"><ele>833.0</ele><time>2026-04-04T10:03:30Z</time></trkpt><trkpt lat="42.08893474792145" lon="13.213744352273682"><ele>830.5</ele><time>2026-04-04T10:03:31Z</time></trkpt><trkpt lat="42.08918928547687" lon="13.21392313600338"><ele>828.0</ele><time>2026-04-04T10:03:32Z</time></trkpt><trkpt lat="42.08945944705553" lon="13.214088106360505"><ele>828.0</ele><time>2026-04-04T10:03:33Z</time></trkpt><trkpt lat="42.08965842203195" lon="13.21438075104498"><ele>828.0</ele><time>2026-04-04T10:03:34Z</time></trkpt><trkpt lat="42.08981165654862" lon="13.21472069256135"><ele>831.5</ele><time>2026-04-04T10:03:35Z</time></trkpt><trkpt lat="42.08989040547412" lon="13.215057331638887"><ele>835.0</ele><time>2026-04-04T10:03:36Z</time></trkpt><trkpt lat="42.08994483898971" lon="13.215511344171704"><ele>825.5</ele><time>2026-04-04T10:03:37Z</time></trkpt><trkpt lat="42.089999591980664" lon="13.216084775720413"><ele>816.0</ele><time>2026-04-04T10:03:38Z</time></trkpt><trkpt lat="42.09004283144729" lon="13.216585805526176"><ele>816.0</ele><time>2026-04-04T10:03:39Z</time></trkpt><trkpt lat="42.09004369142806" lon="13.217025575071675"><ele>816.0</ele><time>2026-04-04T10:03:40Z</time></trkpt><trkpt lat="42.089998800582656" lon="13.217501967245529"><ele>814.0</ele><time>2026-04-04T10:03:41Z</time></trkpt><trkpt lat="42.089935480283174" lon="13.21806255552674"><ele>812.0</ele><time>2026-04-04T10:03:42Z</time></trkpt><trkpt lat="42.0898740882698" lon="13.218601690881888"><ele>815.5</ele><time>2026-04-04T10:03:43Z</time></trkpt><trkpt lat="42.08981482568948" lon="13.21907493387202"><ele>819.0</ele><time>2026-04-04T10:03:44Z</time></trkpt><trkpt lat="42.08973879351846" lon="13.21950622138793"><ele>814.5</ele><time>2026-04-04T10:03:45Z</time></trkpt><trkpt lat="42.08959101043039" lon="13.21992994038785"><ele>810.0</ele><time>2026-04-04T10:03:46Z</time></trkpt><trkpt lat="42.089379353780984" lon="13.220455594911446"><ele>804.0</ele><time>2026-04-04T10:03:47Z</time></trkpt><trkpt lat="42.08918626563676" lon="13.221013416938431"><ele>813.0</ele><time>2026-04-04T10:03:48Z</time></trkpt><trkpt lat="42.08898580944182" lon="13.221502402494746"><ele>822.0</ele><time>2026-04-04T10:03:49Z</time></trkpt><trkpt lat="42.08874882277282" lon="13.221954012019248"><ele>826.0</ele><time>2026-04-04T10:03:50Z</time></trkpt><trkpt lat="42.08847029078897" lon="13.22239313505975"><ele>830.0</ele><time>2026-04-04T10:03:51Z</time></trkpt><trkpt lat="42.088172825749915" lon="13.222820201510151"><ele>818.5</ele><time>2026-04-04T10:03:52Z</time></trkpt><trkpt lat="42.08786742894381" lon="13.223247301230915"><ele>807.0</ele><time>2026-04-04T10:03:53Z</time></trkpt><trkpt lat="42.0875136658921" lon="13.223685097623685"><ele>815.0</ele><time>2026-04-04T10:03:54Z</time></trkpt><trkpt lat="42.08712940344243" lon="13.224126003964528"><ele>815.0</ele><time>2026-04-04T10:03:55Z</time></trkpt><trkpt lat="42.08679510523791" lon="13.224519957664318"><ele>815.0</ele><time>2026-04-04T10:03:56Z</time></trkpt><trkpt lat="42.086485704178656" lon="13.224884249668543"><ele>818.0</ele><time>2026-04-04T10:03:57Z</time></trkpt><trkpt lat="42.08620687198609" lon="13.225221969368805"><ele>821.0</ele><time>2026-04-04T10:03:58Z</time></trkpt><trkpt lat="42.08593377412413" lon="13.225541990064302"><ele>815.0</ele><time>2026-04-04T10:03:59Z</time></trkpt><trkpt lat="42.08566959963937" lon="13.225816294813544"><ele>809.0</ele><time>2026-04-04T10:04:00Z</time></trkpt><trkpt lat="42.085387050530144" lon="13.226009014097317"><ele>809.0</ele><time>2026-04-04T10:04:01Z</time></trkpt><trkpt lat="42.08514910978261" lon="13.226218636730042"><ele>809.0</ele><time>2026-04-04T10:04:02Z</time></trkpt><trkpt lat="42.084912312433566" lon="13.226426731582514"><ele>808.0</ele><time>2026-04-04T10:04:03Z</time></trkpt><trkpt lat="42.08470890682737" lon="13.226717369424302"><ele>807.0</ele><time>2026-04-04T10:04:04Z</time></trkpt><trkpt lat="42.084551852455746" lon="13.227124694085063"><ele>804.0</ele><time>2026-04-04T10:04:05Z</time></trkpt><trkpt lat="42.08440411283356" lon="13.227630861115072"><ele>801.0</ele><time>2026-04-04T10:04:06Z</time></trkpt><trkpt lat="42.084234635739925" lon="13.228223023393378"><ele>816.0</ele><time>2026-04-04T10:04:07Z</time></trkpt><trkpt lat="42.08403472435948" lon="13.228845680560617"><ele>812.5</ele><time>2026-04-04T10:04:08Z</time></trkpt><trkpt lat="42.083844816447765" lon="13.229383177400075"><ele>809.0</ele><time>2026-04-04T10:04:09Z</time></trkpt><trkpt lat="42.0836820927608" lon="13.229867095682554"><ele>804.0</ele><time>2026-04-04T10:04:10Z</time></trkpt><trkpt lat="42.083534633077896" lon="13.230318304607316"><ele>799.0</ele><time>2026-04-04T10:04:11Z</time></trkpt><trkpt lat="42.08340662291162" lon="13.230756624178236"><ele>799.0</ele><time>2026-04-04T10:04:12Z</time></trkpt><trkpt lat="42.08334279494856" lon="13.231244341574529"><ele>799.0</ele><time>2026-04-04T10:04:13Z</time></trkpt><trkpt lat="42.08330471428643" lon="13.231815236448606"><ele>806.0</ele><time>2026-04-04T10:04:14Z</time></trkpt><trkpt lat="42.08322842434077" lon="13.232331699791827"><ele>813.0</ele><time>2026-04-04T10:04:15Z</time></trkpt><trkpt lat="42.0831702876436" lon="13.232790750645703"><ele>809.0</ele><time>2026-04-04T10:04:16Z</time></trkpt><trkpt lat="42.08309245065125" lon="13.233179834181492"><ele>805.0</ele><time>2026-04-04T10:04:17Z</time></trkpt><trkpt lat="42.08296109402386" lon="13.233534623811696"><ele>805.0</ele><time>2026-04-04T10:04:18Z</time></trkpt><trkpt lat="42.08275334309162" lon="13.233884702854699"><ele>805.0</ele><time>2026-04-04T10:04:19Z</time></trkpt><trkpt lat="42.082483457051474" lon="13.234293993313498"><ele>803.0</ele><time>2026-04-04T10:04:20Z</time></trkpt><trkpt lat="42.082206237477735" lon="13.234757199003695"><ele>801.0</ele><time>2026-04-04T10:04:21Z</time></trkpt><trkpt lat="42.08192600191795" lon="13.235137279648743"><ele>796.5</ele><time>2026-04-04T10:04:22Z</time></trkpt><trkpt lat="42.081674091277826" lon="13.23549427968322"><ele>792.0</ele><time>2026-04-04T10:04:23Z</time></trkpt><trkpt lat="42.081447067183426" lon="13.23583587882771"><ele>788.5</ele><time>2026-04-04T10:04:24Z</time></trkpt><trkpt lat="42.08125463530826" lon="13.2361546983912"><ele>785.0</ele><time>2026-04-04T10:04:25Z</time></trkpt><trkpt lat="42.081116392979666" lon="13.236483257111429"><ele>784.0</ele><time>2026-04-04T10:04:26Z</time></trkpt><trkpt lat="42.08105906532962" lon="13.236832305291864"><ele>783.0</ele><time>2026-04-04T10:04:27Z</time></trkpt><trkpt lat="42.08106208925468" lon="13.237222372098632"><ele>781.5</ele><time>2026-04-04T10:04:28Z</time></trkpt><trkpt lat="42.08114669881554" lon="13.237638587534516"><ele>780.0</ele><time>2026-04-04T10:04:29Z</time></trkpt><trkpt lat="42.08126665669742" lon="13.238089441180401"><ele>775.5</ele><time>2026-04-04T10:04:30Z</time></trkpt><trkpt lat="42.081354842183345" lon="13.23851133321008"><ele>771.0</ele><time>2026-04-04T10:04:31Z</time></trkpt><trkpt lat="42.08135280268819" lon="13.23890608514869"><ele>769.0</ele><time>2026-04-04T10:04:32Z</time></trkpt><trkpt lat="42.08129644987713" lon="13.239275773982964"><ele>767.0</ele><time>2026-04-04T10:04:33Z</time></trkpt><trkpt lat="42.08116411538182" lon="13.239660701763762"><ele>767.5</ele><time>2026-04-04T10:04:34Z</time></trkpt><trkpt lat="42.08100583972716" lon="13.240109474004496"><ele>768.0</ele><time>2026-04-04T10:04:35Z</time></trkpt><trkpt lat="42.08075767259678" lon="13.240576554617723"><ele>762.5</ele><time>2026-04-04T10:04:36Z</time></trkpt><trkpt lat="42.08052433305679" lon="13.241014077913926"><ele>757.0</ele><time>2026-04-04T10:04:37Z</time></trkpt><trkpt lat="42.08031237541647" lon="13.241378469112433"><ele>759.0</ele><time>2026-04-04T10:04:38Z</time></trkpt><trkpt lat="42.08006454657009" lon="13.24165427986411"><ele>761.0</ele><time>2026-04-04T10:04:39Z</time></trkpt><trkpt lat="42.07985619910963" lon="13.241949648635897"><ele>758.5</ele><time>2026-04-04T10:04:40Z</time></trkpt><trkpt lat="42.07959350528678" lon="13.242280598670776"><ele>756.0</ele><time>2026-04-04T10:04:41Z</time></trkpt><trkpt lat="42.07930346596801" lon="13.242665042133858"><ele>754.0</ele><time>2026-04-04T10:04:42Z</time></trkpt><trkpt lat="42.07904638275159" lon="13.243006180904452"><ele>752.0</ele><time>2026-04-04T10:04:43Z</time></trkpt><trkpt lat="42.07882810951673" lon="13.243311554153932"><ele>752.0</ele><time>2026-04-04T10:04:44Z</time></trkpt><trkpt lat="42.07864185860189" lon="13.243590272240052"><ele>752.0</ele><time>2026-04-04T10:04:45Z</time></trkpt><trkpt lat="42.07849645149411" lon="13.243840582383381"><ele>750.3333333333333</ele><time>2026-04-04T10:04:46Z</time></trkpt><trkpt lat="42.078381280427195" lon="13.244049642465681"><ele>748.6666666666666</ele><time>2026-04-04T10:04:47Z</time></trkpt><trkpt lat="42.07828240538678" lon="13.244210164318623"><ele>747.0</ele><time>2026-04-04T10:04:48Z</time></trkpt><trkpt lat="42.07819891157902" lon="13.244322826043865"><ele>747.0</ele><time>2026-04-04T10:04:49Z</time></trkpt><trkpt lat="42.07813120909219" lon="13.244385485919986"><ele>747.0</ele><time>2026-04-04T10:04:50Z</time></trkpt><trkpt lat="42.07805182104698" lon="13.244459600074668"><ele>747.0</ele><time>2026-04-04T10:04:52Z</time></trkpt><trkpt lat="42.07797727640752" lon="13.244472483116487"><ele>747.0</ele><time>2026-04-04T10:15:12Z</time></trkpt><trkpt lat="42.077872934666054" lon="13.244322694212984"><ele>747.0</ele><time>2026-04-04T10:15:14Z</time></trkpt><trkpt lat="42.077780438287725" lon="13.244171241629115"><ele>747.0</ele><time>2026-04-04T10:15:15Z</time></trkpt><trkpt lat="42.077642611960904" lon="13.244013994890146"><ele>747.0</ele><time>2026-04-04T10:15:16Z</time></trkpt><trkpt lat="42.07749497197375" lon="13.243828974345956"><ele>747.0</ele><time>2026-04-04T10:15:17Z</time></trkpt><trkpt lat="42.07732556197973" lon="13.243657618377835"><ele>747.3333333333334</ele><time>2026-04-04T10:15:18Z</time></trkpt><trkpt lat="42.077165198686984" lon="13.243494356231864"><ele>747.6666666666667</ele><time>2026-04-04T10:15:19Z</time></trkpt><trkpt lat="42.07703839933359" lon="13.243365413736349"><ele>748.0</ele><time>2026-04-04T10:15:20Z</time></trkpt><trkpt lat="42.07692901108302" lon="13.24325552600226"><ele>748.0</ele><time>2026-04-04T10:15:21Z</time></trkpt><trkpt lat="42.07681821199849" lon="13.243144221258465"><ele>748.0</ele><time>2026-04-04T10:15:22Z</time></trkpt><trkpt lat="42.07672765280434" lon="13.243050819856315"><ele>748.0</ele><time>2026-04-04T10:15:23Z</time></trkpt><trkpt lat="42.07664675044793" lon="13.242970484048175"><ele>748.0</ele><time>2026-04-04T10:15:24Z</time></trkpt><trkpt lat="42.076586004723225" lon="13.24291294485406"><ele>748.0</ele><time>2026-04-04T10:15:25Z</time></trkpt><trkpt lat="42.076525756783845" lon="13.242866969012093"><ele>752.0</ele><time>2026-04-04T10:15:26Z</time></trkpt><trkpt lat="42.07642852442626" lon="13.242887518653253"><ele>756.0</ele><time>2026-04-04T10:15:27Z</time></trkpt><trkpt lat="42.07634149287345" lon="13.242964465259128"><ele>760.0</ele><time>2026-04-04T10:15:28Z</time></trkpt><trkpt lat="42.07624925381256" lon="13.243073346006815"><ele>764.0</ele><time>2026-04-04T10:15:29Z</time></trkpt><trkpt lat="42.07613996854217" lon="13.243186058148336"><ele>764.0</ele><time>2026-04-04T10:15:30Z</time></trkpt><trkpt lat="42.07600792181844" lon="13.243322289635298"><ele>764.0</ele><time>2026-04-04T10:15:31Z</time></trkpt><trkpt lat="42.075873629981345" lon="13.243458771446358"><ele>764.0</ele><time>2026-04-04T10:15:32Z</time></trkpt><trkpt lat="42.0757397523469" lon="13.243592118345118"><ele>765.3333333333333</ele><time>2026-04-04T10:15:33Z</time></trkpt><trkpt lat="42.07559497630325" lon="13.243736209121323"><ele>766.6666666666666</ele><time>2026-04-04T10:15:34Z</time></trkpt><trkpt lat="42.07544639597147" lon="13.243887362711886"><ele>768.0</ele><time>2026-04-04T10:15:35Z</time></trkpt><trkpt lat="42.07529308456535" lon="13.244043906104833"><ele>768.0</ele><time>2026-04-04T10:15:36Z</time></trkpt><trkpt lat="42.075147700650284" lon="13.244193503214778"><ele>768.0</ele><time>2026-04-04T10:15:37Z</time></trkpt><trkpt lat="42.07499664261964" lon="13.244352438489408"><ele>768.0</ele><time>2026-04-04T10:15:38Z</time></trkpt><trkpt lat="42.074856354047405" lon="13.244500042916272"><ele>767.3333333333334</ele><time>2026-04-04T10:15:39Z</time></trkpt><trkpt lat="42.074718712766995" lon="13.244644861893073"><ele>766.6666666666667</ele><time>2026-04-04T10:15:40Z</time></trkpt><trkpt lat="42.07457315502838" lon="13.244791061144701"><ele>766.0</ele><time>2026-04-04T10:15:41Z</time></trkpt><trkpt lat="42.07443492044071" lon="13.244947055895096"><ele>766.0</ele><time>2026-04-04T10:15:42Z</time></trkpt><trkpt lat="42.074303343049756" lon="13.24517433217968"><ele>766.0</ele><time>2026-04-04T10:15:43Z</time></trkpt><trkpt lat="42.07419831432861" lon="13.245375153892196"><ele>766.0</ele><time>2026-04-04T10:15:44Z</time></trkpt><trkpt lat="42.074105787619196" lon="13.245616335564375"><ele>768.0</ele><time>2026-04-04T10:15:45Z</time></trkpt><trkpt lat="42.07400214996651" lon="13.245855457887341"><ele>770.0</ele><time>2026-04-04T10:15:46Z</time></trkpt><trkpt lat="42.07389098470844" lon="13.246085203376659"><ele>772.0</ele><time>2026-04-04T10:15:47Z</time></trkpt><trkpt lat="42.07377379967625" lon="13.246306014895458"><ele>769.0</ele><time>2026-04-04T10:15:48Z</time></trkpt><trkpt lat="42.07366623873969" lon="13.2465104521507"><ele>766.0</ele><time>2026-04-04T10:15:49Z</time></trkpt><trkpt lat="42.073575671824464" lon="13.24667714731797"><ele>763.0</ele><time>2026-04-04T10:15:50Z</time></trkpt><trkpt lat="42.0734991291989" lon="13.246803017076157"><ele>763.0</ele><time>2026-04-04T10:15:51Z</time></trkpt><trkpt lat="42.07343884901516" lon="13.246931003780547"><ele>763.0</ele><time>2026-04-04T10:15:52Z</time></trkpt><trkpt lat="42.073353885411564" lon="13.246986481836782"><ele>763.0</ele><time>2026-04-04T10:15:53Z</time></trkpt><trkpt lat="42.07325298885188" lon="13.246999407319002"><ele>763.0</ele><time>2026-04-04T10:15:55Z</time></trkpt><trkpt lat="42.07318504474594" lon="13.246948800666905"><ele>763.0</ele><time>2026-04-04T10:15:57Z</time></trkpt><trkpt lat="42.07311166485457" lon="13.246961464746056"><ele>762.6666666666667</ele><time>2026-04-04T10:15:58Z</time></trkpt><trkpt lat="42.072982684916106" lon="13.247075509036472"><ele>762.3333333333334</ele><time>2026-04-04T10:15:59Z</time></trkpt><trkpt lat="42.072965087291344" lon="13.247340047398083"><ele>762.0</ele><time>2026-04-04T10:16:00Z</time></trkpt><trkpt lat="42.07283046334465" lon="13.247506011425484"><ele>762.0</ele><time>2026-04-04T10:16:01Z</time></trkpt><trkpt lat="42.072707298847355" lon="13.247664535138973"><ele>762.0</ele><time>2026-04-04T10:16:02Z</time></trkpt><trkpt lat="42.07261593981393" lon="13.247830227812356"><ele>762.0</ele><time>2026-04-04T10:16:03Z</time></trkpt><trkpt lat="42.07249542988723" lon="13.24796410364849"><ele>762.3333333333334</ele><time>2026-04-04T10:16:04Z</time></trkpt><trkpt lat="42.072402735189456" lon="13.2481278637388"><ele>762.6666666666667</ele><time>2026-04-04T10:16:05Z</time></trkpt><trkpt lat="42.072303488547995" lon="13.248307330088396"><ele>763.0</ele><time>2026-04-04T10:16:06Z</time></trkpt><trkpt lat="42.07219537841713" lon="13.248495999318758"><ele>763.0</ele><time>2026-04-04T10:16:07Z</time></trkpt><trkpt lat="42.07208661630982" lon="13.248677907930116"><ele>763.0</ele><time>2026-04-04T10:16:08Z</time></trkpt><trkpt lat="42.07197591614382" lon="13.248864308191054"><ele>763.0</ele><time>2026-04-04T10:16:09Z</time></trkpt><trkpt lat="42.07187264033926" lon="13.249050045584895"><ele>760.3333333333334</ele><time>2026-04-04T10:16:10Z</time></trkpt><trkpt lat="42.07179185103219" lon="13.249253079225156"><ele>757.6666666666666</ele><time>2026-04-04T10:16:11Z</time></trkpt><trkpt lat="42.07171794811691" lon="13.249479042648542"><ele>755.0</ele><time>2026-04-04T10:16:12Z</time></trkpt><trkpt lat="42.07166999946598" lon="13.249711765880445"><ele>753.75</ele><time>2026-04-04T10:16:13Z</time></trkpt><trkpt lat="42.07160927037598" lon="13.249900698740886"><ele>752.5</ele><time>2026-04-04T10:16:14Z</time></trkpt><trkpt lat="42.07156185933139" lon="13.25007633671392"><ele>751.25</ele><time>2026-04-04T10:16:15Z</time></trkpt><trkpt lat="42.07150844722708" lon="13.25025724842388"><ele>750.0</ele><time>2026-04-04T10:16:16Z</time></trkpt><trkpt lat="42.07143676959133" lon="13.250411326075454"><ele>750.2</ele><time>2026-04-04T10:16:17Z</time></trkpt><trkpt lat="42.07135490621302" lon="13.250562658881293"><ele>750.4</ele><time>2026-04-04T10:16:18Z</time></trkpt><trkpt lat="42.07130943861358" lon="13.250647769369122"><ele>750.5999999999999</ele><time>2026-04-04T10:16:19Z</time></trkpt><trkpt lat="42.07126301968583" lon="13.250733738642403"><ele>750.8</ele><time>2026-04-04T10:16:20Z</time></trkpt><trkpt lat="42.07120815555103" lon="13.250831306092246"><ele>751.0</ele><time>2026-04-04T10:16:21Z</time></trkpt><trkpt lat="42.07113951225183" lon="13.250938621421032"><ele>751.0</ele><time>2026-04-04T10:16:22Z</time></trkpt><trkpt lat="42.071065262272235" lon="13.251035791612212"><ele>751.0</ele><time>2026-04-04T10:16:23Z</time></trkpt><trkpt lat="42.07100341534388" lon="13.251110605120932"><ele>751.0</ele><time>2026-04-04T10:16:24Z</time></trkpt><trkpt lat="42.0709455612119" lon="13.25120403279426"><ele>751.0</ele><time>2026-04-04T10:16:25Z</time></trkpt><trkpt lat="42.07086290180104" lon="13.251272335117505"><ele>751.0</ele><time>2026-04-04T10:16:26Z</time></trkpt><trkpt lat="42.07077308986217" lon="13.251370099731089"><ele>750.25</ele><time>2026-04-04T10:16:27Z</time></trkpt><trkpt lat="42.07066992719441" lon="13.251480096751743"><ele>749.5</ele><time>2026-04-04T10:16:28Z</time></trkpt><trkpt lat="42.070556243183375" lon="13.251601151540797"><ele>748.75</ele><time>2026-04-04T10:16:29Z</time></trkpt><trkpt lat="42.0704349164346" lon="13.251731982995768"><ele>748.0</ele><time>2026-04-04T10:16:30Z</time></trkpt><trkpt lat="42.07031630372435" lon="13.251861405076271"><ele>748.0</ele><time>2026-04-04T10:16:31Z</time></trkpt><trkpt lat="42.07019546630464" lon="13.251995032308658"><ele>748.0</ele><time>2026-04-04T10:16:32Z</time></trkpt><trkpt lat="42.070067077485575" lon="13.252135683369357"><ele>748.0</ele><time>2026-04-04T10:16:33Z</time></trkpt><trkpt lat="42.0699392821451" lon="13.252275684301827"><ele>747.6666666666667</ele><time>2026-04-04T10:16:34Z</time></trkpt><trkpt lat="42.06981467463653" lon="13.252412192927984"><ele>747.3333333333334</ele><time>2026-04-04T10:16:35Z</time></trkpt><trkpt lat="42.06969079225056" lon="13.252547907168319"><ele>747.0</ele><time>2026-04-04T10:16:36Z</time></trkpt><trkpt lat="42.069574109320726" lon="13.252675198879995"><ele>747.0</ele><time>2026-04-04T10:16:37Z</time></trkpt><trkpt lat="42.06946500453196" lon="13.25279414838301"><ele>747.0</ele><time>2026-04-04T10:16:38Z</time></trkpt><trkpt lat="42.06935891758233" lon="13.252909807798485"><ele>747.0</ele><time>2026-04-04T10:16:39Z</time></trkpt><trkpt lat="42.06926304594097" lon="13.253014330094675"><ele>747.0</ele><time>2026-04-04T10:16:40Z</time></trkpt><trkpt lat="42.069180036234144" lon="13.25310415312572"><ele>746.2</ele><time>2026-04-04T10:16:41Z</time></trkpt><trkpt lat="42.069105324684315" lon="13.253183641610363"><ele>745.4000000000001</ele><time>2026-04-04T10:16:42Z</time></trkpt><trkpt lat="42.06904662818125" lon="13.253246321146412"><ele>744.5999999999999</ele><time>2026-04-04T10:16:43Z</time></trkpt><trkpt lat="42.068998756205616" lon="13.253301542176308"><ele>743.8</ele><time>2026-04-04T10:16:46Z</time></trkpt><trkpt lat="42.068909371013554" lon="13.253409649277266"><ele>743.0</ele><time>2026-04-04T10:16:49Z</time></trkpt><trkpt lat="42.068828322427564" lon="13.253514893859865"><ele>743.0</ele><time>2026-04-04T10:16:51Z</time></trkpt><trkpt lat="42.06875670935606" lon="13.25360923130725"><ele>743.0</ele><time>2026-04-04T10:16:53Z</time></trkpt><trkpt lat="42.06867771390012" lon="13.253713293551385"><ele>743.0</ele><time>2026-04-04T10:16:55Z</time></trkpt><trkpt lat="42.06869732297765" lon="13.25384166216794"><ele>743.0</ele><time>2026-04-04T10:16:56Z</time></trkpt><trkpt lat="42.06869674645852" lon="13.253961531336603"><ele>743.0</ele><time>2026-04-04T10:16:58Z</time></trkpt><trkpt lat="42.06869596624493" lon="13.254048273014918"><ele>742.2</ele><time>2026-04-04T10:16:59Z</time></trkpt><trkpt lat="42.06869581112796" lon="13.25421911978633"><ele>741.4</ele><time>2026-04-04T10:17:01Z</time></trkpt><trkpt lat="42.068697889654544" lon="13.254361833599681"><ele>740.6</ele><time>2026-04-04T10:17:03Z</time></trkpt><trkpt lat="42.06869976827384" lon="13.254490821558589"><ele>739.8000000000001</ele><time>2026-04-04T10:17:05Z</time></trkpt><trkpt lat="42.06870216965598" lon="13.25461498911857"><ele>739.0</ele><time>2026-04-04T10:17:07Z</time></trkpt><trkpt lat="42.06870494009751" lon="13.254730904389183"><ele>738.5</ele><time>2026-04-04T10:17:09Z</time></trkpt><trkpt lat="42.06870758010785" lon="13.25482795642012"><ele>738.0</ele><time>2026-04-04T10:17:16Z</time></trkpt><trkpt lat="42.0687106313596" lon="13.254934353597083"><ele>737.5</ele><time>2026-04-04T10:17:18Z</time></trkpt><trkpt lat="42.068729657776515" lon="13.255046254183991"><ele>737.0</ele><time>2026-04-04T10:17:21Z</time></trkpt><trkpt lat="42.06873331387618" lon="13.255162881744942"><ele>736.5</ele><time>2026-04-04T10:17:23Z</time></trkpt><trkpt lat="42.06873451777897" lon="13.255283196157235"><ele>736.0</ele><time>2026-04-04T10:17:25Z</time></trkpt><trkpt lat="42.06873007688026" lon="13.255375949424819"><ele>736.0</ele><time>2026-04-04T10:17:27Z</time></trkpt><trkpt lat="42.06874336656235" lon="13.25547572076008"><ele>736.0</ele><time>2026-04-04T10:17:29Z</time></trkpt><trkpt lat="42.0687534953348" lon="13.255562796258845"><ele>736.0</ele><time>2026-04-04T10:17:31Z</time></trkpt><trkpt lat="42.06874623502718" lon="13.255665054115742"><ele>736.0</ele><time>2026-04-04T10:17:34Z</time></trkpt><trkpt lat="42.068763775170844" lon="13.255758903156897"><ele>736.0</ele><time>2026-04-04T10:17:36Z</time></trkpt><trkpt lat="42.0687657968965" lon="13.255865231642817"><ele>736.0</ele><time>2026-04-04T10:17:39Z</time></trkpt><trkpt lat="42.06877089663274" lon="13.255964188594909"><ele>736.0</ele><time>2026-04-04T10:17:42Z</time></trkpt><trkpt lat="42.06876708350883" lon="13.256058091345821"><ele>736.0</ele><time>2026-04-04T10:17:45Z</time></trkpt><trkpt lat="42.068757750028325" lon="13.256153040758344"><ele>736.0</ele><time>2026-04-04T10:19:12Z</time></trkpt></trkseg><trkseg><trkpt lat="42.078038079871156" lon="13.244380310967015"><ele>747.0</ele><time>2026-04-04T11:33:30Z</time></trkpt><trkpt lat="42.07795167599309" lon="13.244397611034056"><ele>747.0</ele><time>2026-04-04T11:33:33Z</time></trkpt><trkpt lat="42.07797965296427" lon="13.244512156577088"><ele>747.0</ele><time>2026-04-04T11:33:35Z</time></trkpt><trkpt lat="42.07800787280899" lon="13.244619041407804"><ele>747.0</ele><time>2026-04-04T11:33:37Z</time></trkpt><trkpt lat="42.07797682356392" lon="13.244736578674841"><ele>747.0</ele><time>2026-04-04T11:33:39Z</time></trkpt><trkpt lat="42.07792375550626" lon="13.244825660197144"><ele>747.0</ele><time>2026-04-04T11:33:40Z</time></trkpt><trkpt lat="42.07784366875763" lon="13.244954690267612"><ele>748.3333333333334</ele><time>2026-04-04T11:33:41Z</time></trkpt><trkpt lat="42.07775370763239" lon="13.245105861739258"><ele>749.6666666666667</ele><time>2026-04-04T11:33:42Z</time></trkpt><trkpt lat="42.07764820623772" lon="13.245292358293305"><ele>751.0</ele><time>2026-04-04T11:33:43Z</time></trkpt><trkpt lat="42.07752379225071" lon="13.245504407995403"><ele>749.0</ele><time>2026-04-04T11:33:44Z</time></trkpt><trkpt lat="42.07739188663895" lon="13.2457247388038"><ele>747.0</ele><time>2026-04-04T11:33:45Z</time></trkpt><trkpt lat="42.07725407278831" lon="13.24595590524082"><ele>745.0</ele><time>2026-04-04T11:33:46Z</time></trkpt><trkpt lat="42.07711839718982" lon="13.246185232164956"><ele>745.0</ele><time>2026-04-04T11:33:47Z</time></trkpt><trkpt lat="42.07697990111101" lon="13.246425969727204"><ele>745.0</ele><time>2026-04-04T11:33:48Z</time></trkpt><trkpt lat="42.07684002289938" lon="13.246667162865435"><ele>744.0</ele><time>2026-04-04T11:33:49Z</time></trkpt><trkpt lat="42.076694277050635" lon="13.246908948734848"><ele>743.0</ele><time>2026-04-04T11:33:50Z</time></trkpt><trkpt lat="42.076545292217965" lon="13.247151972755878"><ele>745.0</ele><time>2026-04-04T11:33:51Z</time></trkpt><trkpt lat="42.07639717484179" lon="13.247396596743567"><ele>747.0</ele><time>2026-04-04T11:33:52Z</time></trkpt><trkpt lat="42.07624648403768" lon="13.24763329749921"><ele>747.0</ele><time>2026-04-04T11:33:53Z</time></trkpt><trkpt lat="42.07609569678567" lon="13.247874042870784"><ele>747.0</ele><time>2026-04-04T11:33:54Z</time></trkpt><trkpt lat="42.07594189820343" lon="13.24810650865248"><ele>746.3333333333334</ele><time>2026-04-04T11:33:55Z</time></trkpt><trkpt lat="42.07579721340365" lon="13.248323040338674"><ele>745.6666666666667</ele><time>2026-04-04T11:33:56Z</time></trkpt><trkpt lat="42.07565115432541" lon="13.248544321206763"><ele>745.0</ele><time>2026-04-04T11:33:57Z</time></trkpt><trkpt lat="42.07550409755963" lon="13.24877057140129"><ele>746.0</ele><time>2026-04-04T11:33:58Z</time></trkpt><trkpt lat="42.07534975444535" lon="13.248989828635489"><ele>747.0</ele><time>2026-04-04T11:33:59Z</time></trkpt><trkpt lat="42.075200770847324" lon="13.249209362972685"><ele>748.0</ele><time>2026-04-04T11:34:00Z</time></trkpt><trkpt lat="42.0750573773473" lon="13.249420909817633"><ele>746.3333333333334</ele><time>2026-04-04T11:34:01Z</time></trkpt><trkpt lat="42.074927524262456" lon="13.249614648311049"><ele>744.6666666666666</ele><time>2026-04-04T11:34:02Z</time></trkpt><trkpt lat="42.07480070450599" lon="13.249793610917983"><ele>743.0</ele><time>2026-04-04T11:34:03Z</time></trkpt><trkpt lat="42.07468441621395" lon="13.249953300116267"><ele>743.0</ele><time>2026-04-04T11:34:04Z</time></trkpt><trkpt lat="42.074562753115266" lon="13.250103144479466"><ele>743.0</ele><time>2026-04-04T11:34:05Z</time></trkpt><trkpt lat="42.07443484740525" lon="13.250250664229565"><ele>743.0</ele><time>2026-04-04T11:34:06Z</time></trkpt><trkpt lat="42.07432768141366" lon="13.250390555186495"><ele>743.0</ele><time>2026-04-04T11:34:07Z</time></trkpt><trkpt lat="42.0742276815913" lon="13.250520884742997"><ele>743.0</ele><time>2026-04-04T11:34:08Z</time></trkpt><trkpt lat="42.07413614099981" lon="13.250639035532982"><ele>743.0</ele><time>2026-04-04T11:34:09Z</time></trkpt><trkpt lat="42.074036832870064" lon="13.25076267500337"><ele>743.0</ele><time>2026-04-04T11:34:10Z</time></trkpt><trkpt lat="42.073932804072165" lon="13.250893246391962"><ele>742.8</ele><time>2026-04-04T11:34:11Z</time></trkpt><trkpt lat="42.07384764588438" lon="13.250992094809254"><ele>742.5999999999999</ele><time>2026-04-04T11:34:12Z</time></trkpt><trkpt lat="42.07378079562698" lon="13.251077681598563"><ele>742.4000000000001</ele><time>2026-04-04T11:34:13Z</time></trkpt><trkpt lat="42.07378680746725" lon="13.25119151328997"><ele>742.2</ele><time>2026-04-04T11:34:15Z</time></trkpt><trkpt lat="42.073844022909306" lon="13.251242458971873"><ele>742.0</ele><time>2026-04-04T11:34:17Z</time></trkpt><trkpt lat="42.07393020138122" lon="13.251116901013509"><ele>742.0</ele><time>2026-04-04T11:34:20Z</time></trkpt><trkpt lat="42.073989897926985" lon="13.251028741810483"><ele>742.0</ele><time>2026-04-04T11:34:22Z</time></trkpt><trkpt lat="42.07407831859093" lon="13.250880513073104"><ele>742.0</ele><time>2026-04-04T11:38:02Z</time></trkpt><trkpt lat="42.074083338661836" lon="13.250782796548775"><ele>742.0</ele><time>2026-04-04T11:38:04Z</time></trkpt><trkpt lat="42.07415308717212" lon="13.250622812708912"><ele>742.0</ele><time>2026-04-04T11:39:23.001Z</time></trkpt><trkpt lat="42.07425141333101" lon="13.25051341845385"><ele>742.3333333333334</ele><time>2026-04-04T11:39:24.001Z</time></trkpt><trkpt lat="42.07437166540718" lon="13.250377862231776"><ele>742.6666666666666</ele><time>2026-04-04T11:39:25.001Z</time></trkpt><trkpt lat="42.074494512032864" lon="13.25022539925177"><ele>743.0</ele><time>2026-04-04T11:39:26Z</time></trkpt><trkpt lat="42.07462870707608" lon="13.25005161534189"><ele>743.0</ele><time>2026-04-04T11:39:27Z</time></trkpt><trkpt lat="42.07477262192438" lon="13.249864298886484"><ele>743.0</ele><time>2026-04-04T11:39:28Z</time></trkpt><trkpt lat="42.074931269674465" lon="13.24965715783175"><ele>743.0</ele><time>2026-04-04T11:39:29Z</time></trkpt><trkpt lat="42.075099837730825" lon="13.249416282327713"><ele>744.0</ele><time>2026-04-04T11:39:30Z</time></trkpt><trkpt lat="42.075269252570635" lon="13.24916044065266"><ele>745.0</ele><time>2026-04-04T11:39:31Z</time></trkpt><trkpt lat="42.07545317167932" lon="13.248878901477296"><ele>745.0</ele><time>2026-04-04T11:39:32Z</time></trkpt><trkpt lat="42.07565107298449" lon="13.248587878644186"><ele>745.0</ele><time>2026-04-04T11:39:33Z</time></trkpt><trkpt lat="42.07585019813437" lon="13.248295035919027"><ele>746.0</ele><time>2026-04-04T11:39:34Z</time></trkpt><trkpt lat="42.07604304196404" lon="13.24800401946054"><ele>747.0</ele><time>2026-04-04T11:39:35Z</time></trkpt><trkpt lat="42.07623641109414" lon="13.247703845902853"><ele>747.0</ele><time>2026-04-04T11:39:36Z</time></trkpt><trkpt lat="42.07642187375719" lon="13.247395668912727"><ele>747.0</ele><time>2026-04-04T11:39:37Z</time></trkpt><trkpt lat="42.07660255228347" lon="13.247089966112624"><ele>748.0</ele><time>2026-04-04T11:39:38Z</time></trkpt><trkpt lat="42.07679153642933" lon="13.246777836044204"><ele>749.0</ele><time>2026-04-04T11:39:39Z</time></trkpt><trkpt lat="42.07697097980776" lon="13.24648060472849"><ele>747.0</ele><time>2026-04-04T11:39:40Z</time></trkpt><trkpt lat="42.077137951927135" lon="13.24619741882952"><ele>745.0</ele><time>2026-04-04T11:39:41Z</time></trkpt><trkpt lat="42.077310476719425" lon="13.245900949448266"><ele>748.0</ele><time>2026-04-04T11:39:42Z</time></trkpt><trkpt lat="42.07748640797135" lon="13.245600229154148"><ele>751.0</ele><time>2026-04-04T11:39:43Z</time></trkpt><trkpt lat="42.07766500627392" lon="13.245297475713663"><ele>751.0</ele><time>2026-04-04T11:39:44Z</time></trkpt><trkpt lat="42.07784466908727" lon="13.244990914311764"><ele>751.0</ele><time>2026-04-04T11:39:45Z</time></trkpt><trkpt lat="42.07801891756897" lon="13.244696250645228"><ele>749.0</ele><time>2026-04-04T11:39:46Z</time></trkpt><trkpt lat="42.07817625164447" lon="13.244431451354895"><ele>747.0</ele><time>2026-04-04T11:39:47Z</time></trkpt><trkpt lat="42.078322753590626" lon="13.244187022807226"><ele>749.5</ele><time>2026-04-04T11:39:48Z</time></trkpt><trkpt lat="42.0784894879116" lon="13.243896661451123"><ele>752.0</ele><time>2026-04-04T11:39:49Z</time></trkpt><trkpt lat="42.07866005038367" lon="13.243605949985465"><ele>752.0</ele><time>2026-04-04T11:39:50Z</time></trkpt><trkpt lat="42.078802495958186" lon="13.243373043121963"><ele>752.0</ele><time>2026-04-04T11:39:51Z</time></trkpt><trkpt lat="42.078987789761676" lon="13.243135218422834"><ele>754.0</ele><time>2026-04-04T11:39:52Z</time></trkpt><trkpt lat="42.07920608851458" lon="13.242824638820764"><ele>756.0</ele><time>2026-04-04T11:39:53Z</time></trkpt><trkpt lat="42.07944698679456" lon="13.242522908481286"><ele>754.5</ele><time>2026-04-04T11:39:54Z</time></trkpt><trkpt lat="42.0796402884839" lon="13.242271890973226"><ele>753.0</ele><time>2026-04-04T11:39:55Z</time></trkpt><trkpt lat="42.079838747969994" lon="13.242010821394283"><ele>755.0</ele><time>2026-04-04T11:39:56Z</time></trkpt><trkpt lat="42.08008323068597" lon="13.241689616476908"><ele>757.0</ele><time>2026-04-04T11:39:57Z</time></trkpt><trkpt lat="42.08030216545372" lon="13.24139872149921"><ele>757.0</ele><time>2026-04-04T11:39:58Z</time></trkpt><trkpt lat="42.08047803995311" lon="13.241143474882826"><ele>757.0</ele><time>2026-04-04T11:39:59Z</time></trkpt><trkpt lat="42.08064560848253" lon="13.240848437825143"><ele>762.5</ele><time>2026-04-04T11:40:00Z</time></trkpt><trkpt lat="42.08080273774889" lon="13.240514945596878"><ele>768.0</ele><time>2026-04-04T11:40:01Z</time></trkpt><trkpt lat="42.080961908336334" lon="13.240174604231704"><ele>768.0</ele><time>2026-04-04T11:40:02Z</time></trkpt><trkpt lat="42.081117555816846" lon="13.239852717891317"><ele>768.0</ele><time>2026-04-04T11:40:03Z</time></trkpt><trkpt lat="42.08123627018284" lon="13.239599306970698"><ele>767.6666666666666</ele><time>2026-04-04T11:40:04Z</time></trkpt><trkpt lat="42.08132037393405" lon="13.239354854274477"><ele>767.3333333333333</ele><time>2026-04-04T11:40:05Z</time></trkpt><trkpt lat="42.081381827127714" lon="13.23907833902632"><ele>767.0</ele><time>2026-04-04T11:40:06Z</time></trkpt><trkpt lat="42.081409836911426" lon="13.2387719503543"><ele>769.0</ele><time>2026-04-04T11:40:07Z</time></trkpt><trkpt lat="42.08138425324273" lon="13.238448906554682"><ele>771.0</ele><time>2026-04-04T11:40:08Z</time></trkpt><trkpt lat="42.08130933002057" lon="13.238108787255152"><ele>775.5</ele><time>2026-04-04T11:40:09Z</time></trkpt><trkpt lat="42.08123819797463" lon="13.237787727115236"><ele>780.0</ele><time>2026-04-04T11:40:10Z</time></trkpt><trkpt lat="42.08116026129225" lon="13.237461263517813"><ele>781.5</ele><time>2026-04-04T11:40:11Z</time></trkpt><trkpt lat="42.08112743883141" lon="13.237132002186055"><ele>783.0</ele><time>2026-04-04T11:40:12Z</time></trkpt><trkpt lat="42.0811233972343" lon="13.236820565488243"><ele>783.0</ele><time>2026-04-04T11:40:13Z</time></trkpt><trkpt lat="42.08116801366207" lon="13.236544215422374"><ele>783.0</ele><time>2026-04-04T11:40:14Z</time></trkpt><trkpt lat="42.08124531114891" lon="13.236288374992084"><ele>783.0</ele><time>2026-04-04T11:40:15Z</time></trkpt><trkpt lat="42.081385821704345" lon="13.236018047946656"><ele>784.0</ele><time>2026-04-04T11:40:16Z</time></trkpt><trkpt lat="42.081575254884456" lon="13.235725910672492"><ele>785.0</ele><time>2026-04-04T11:40:17Z</time></trkpt><trkpt lat="42.0818173850493" lon="13.235344532804021"><ele>788.5</ele><time>2026-04-04T11:40:18Z</time></trkpt><trkpt lat="42.082108371643" lon="13.234927895020029"><ele>792.0</ele><time>2026-04-04T11:40:19Z</time></trkpt><trkpt lat="42.0824028895178" lon="13.234494001549356"><ele>793.0</ele><time>2026-04-04T11:40:20Z</time></trkpt><trkpt lat="42.08265576917213" lon="13.234119402194578"><ele>794.0</ele><time>2026-04-04T11:40:21Z</time></trkpt><trkpt lat="42.08286812201518" lon="13.233803229546288"><ele>799.5</ele><time>2026-04-04T11:40:22Z</time></trkpt><trkpt lat="42.08305001871524" lon="13.233487022776075"><ele>805.0</ele><time>2026-04-04T11:40:23Z</time></trkpt><trkpt lat="42.08316727016008" lon="13.233153854161374"><ele>809.0</ele><time>2026-04-04T11:40:24Z</time></trkpt><trkpt lat="42.08323100346153" lon="13.232791453052444"><ele>813.0</ele><time>2026-04-04T11:40:25Z</time></trkpt><trkpt lat="42.083263085630925" lon="13.232372400914143"><ele>806.0</ele><time>2026-04-04T11:40:26Z</time></trkpt><trkpt lat="42.08329712769538" lon="13.231933950741775"><ele>799.0</ele><time>2026-04-04T11:40:27Z</time></trkpt><trkpt lat="42.08335236504644" lon="13.231510843076354"><ele>799.0</ele><time>2026-04-04T11:40:28Z</time></trkpt><trkpt lat="42.083414183741084" lon="13.231086124961397"><ele>799.0</ele><time>2026-04-04T11:40:29Z</time></trkpt><trkpt lat="42.083471637900594" lon="13.230680467623761"><ele>799.0</ele><time>2026-04-04T11:40:30Z</time></trkpt><trkpt lat="42.083579318536145" lon="13.230275386531563"><ele>799.0</ele><time>2026-04-04T11:40:31Z</time></trkpt><trkpt lat="42.08373437466276" lon="13.2297939615072"><ele>804.0</ele><time>2026-04-04T11:40:32Z</time></trkpt><trkpt lat="42.08390035333129" lon="13.229246619299612"><ele>809.0</ele><time>2026-04-04T11:40:33Z</time></trkpt><trkpt lat="42.08409187878872" lon="13.228695157355393"><ele>805.0</ele><time>2026-04-04T11:40:34Z</time></trkpt><trkpt lat="42.084261570501894" lon="13.228186028115848"><ele>801.0</ele><time>2026-04-04T11:40:35Z</time></trkpt><trkpt lat="42.08440703315594" lon="13.227738307875853"><ele>801.0</ele><time>2026-04-04T11:40:36Z</time></trkpt><trkpt lat="42.08453409631919" lon="13.227350976405072"><ele>801.0</ele><time>2026-04-04T11:40:37Z</time></trkpt><trkpt lat="42.08464750465743" lon="13.22701820361869"><ele>804.0</ele><time>2026-04-04T11:40:38Z</time></trkpt><trkpt lat="42.084753342720965" lon="13.22671945750446"><ele>807.0</ele><time>2026-04-04T11:40:39Z</time></trkpt><trkpt lat="42.08490813693565" lon="13.226493630139649"><ele>808.0</ele><time>2026-04-04T11:40:40Z</time></trkpt><trkpt lat="42.085092078885125" lon="13.226299308100817"><ele>809.0</ele><time>2026-04-04T11:40:41Z</time></trkpt><trkpt lat="42.08532886040589" lon="13.226083114740838"><ele>809.0</ele><time>2026-04-04T11:40:42Z</time></trkpt><trkpt lat="42.08559567765542" lon="13.225888027335156"><ele>809.0</ele><time>2026-04-04T11:40:43Z</time></trkpt><trkpt lat="42.08586139074396" lon="13.225628760645847"><ele>815.0</ele><time>2026-04-04T11:40:44Z</time></trkpt><trkpt lat="42.08614212727036" lon="13.225296887169991"><ele>821.0</ele><time>2026-04-04T11:40:45Z</time></trkpt><trkpt lat="42.086439185748674" lon="13.224946985908025"><ele>818.0</ele><time>2026-04-04T11:40:46Z</time></trkpt><trkpt lat="42.08674547160743" lon="13.224599191821335"><ele>815.0</ele><time>2026-04-04T11:40:47Z</time></trkpt><trkpt lat="42.08704823058042" lon="13.224245373442894"><ele>811.0</ele><time>2026-04-04T11:40:48Z</time></trkpt><trkpt lat="42.08735817174616" lon="13.223879620836597"><ele>807.0</ele><time>2026-04-04T11:40:49Z</time></trkpt><trkpt lat="42.08767137043434" lon="13.223503670207341"><ele>818.5</ele><time>2026-04-04T11:40:50Z</time></trkpt><trkpt lat="42.087976989049416" lon="13.223120813339087"><ele>830.0</ele><time>2026-04-04T11:40:51Z</time></trkpt><trkpt lat="42.08825562596968" lon="13.222736597270897"><ele>826.0</ele><time>2026-04-04T11:40:52Z</time></trkpt><trkpt lat="42.08849630696103" lon="13.222365223139736"><ele>822.0</ele><time>2026-04-04T11:40:53Z</time></trkpt><trkpt lat="42.08870583771798" lon="13.22203159452428"><ele>822.0</ele><time>2026-04-04T11:40:54Z</time></trkpt><trkpt lat="42.0889157146421" lon="13.221689860899158"><ele>822.0</ele><time>2026-04-04T11:40:55Z</time></trkpt><trkpt lat="42.0891008769816" lon="13.221306297524604"><ele>816.0</ele><time>2026-04-04T11:40:56Z</time></trkpt><trkpt lat="42.08927375410589" lon="13.220872518250335"><ele>810.0</ele><time>2026-04-04T11:40:57Z</time></trkpt><trkpt lat="42.089443183389236" lon="13.22044324462672"><ele>810.0</ele><time>2026-04-04T11:40:58Z</time></trkpt><trkpt lat="42.08959674814256" lon="13.22004591850021"><ele>810.0</ele><time>2026-04-04T11:40:59Z</time></trkpt><trkpt lat="42.089741099581225" lon="13.219657572605934"><ele>814.5</ele><time>2026-04-04T11:41:00Z</time></trkpt><trkpt lat="42.089845029883215" lon="13.219261553248181"><ele>819.0</ele><time>2026-04-04T11:41:01Z</time></trkpt><trkpt lat="42.08990602639216" lon="13.21881098339212"><ele>815.5</ele><time>2026-04-04T11:41:02Z</time></trkpt><trkpt lat="42.08995882317129" lon="13.21830732700787"><ele>812.0</ele><time>2026-04-04T11:41:03Z</time></trkpt><trkpt lat="42.0900078957077" lon="13.217835629596737"><ele>812.0</ele><time>2026-04-04T11:41:04.001Z</time></trkpt><trkpt lat="42.09005680077632" lon="13.217394531813591"><ele>812.0</ele><time>2026-04-04T11:41:05.001Z</time></trkpt><trkpt lat="42.09009347503008" lon="13.216958386554044"><ele>813.5</ele><time>2026-04-04T11:41:06.001Z</time></trkpt><trkpt lat="42.09008940179637" lon="13.216520881650974"><ele>815.0</ele><time>2026-04-04T11:41:07.001Z</time></trkpt><trkpt lat="42.09004976442605" lon="13.216060539139457"><ele>815.5</ele><time>2026-04-04T11:41:08.001Z</time></trkpt><trkpt lat="42.09000106110693" lon="13.215612573711049"><ele>816.0</ele><time>2026-04-04T11:41:09.001Z</time></trkpt><trkpt lat="42.08995396033598" lon="13.215188399303127"><ele>822.0</ele><time>2026-04-04T11:41:10.001Z</time></trkpt><trkpt lat="42.089881174397945" lon="13.214798511257099"><ele>828.0</ele><time>2026-04-04T11:41:11.001Z</time></trkpt><trkpt lat="42.08977517539129" lon="13.21446996003021"><ele>828.0</ele><time>2026-04-04T11:41:12.001Z</time></trkpt><trkpt lat="42.08961127857497" lon="13.214176702916387"><ele>828.0</ele><time>2026-04-04T11:41:13.001Z</time></trkpt><trkpt lat="42.08939350942619" lon="13.213940395061671"><ele>830.5</ele><time>2026-04-04T11:41:14.001Z</time></trkpt><trkpt lat="42.08914641197531" lon="13.213750864798788"><ele>833.0</ele><time>2026-04-04T11:41:15.001Z</time></trkpt><trkpt lat="42.088911284408326" lon="13.21362622200733"><ele>833.0</ele><time>2026-04-04T11:41:16.001Z</time></trkpt><trkpt lat="42.08875597028344" lon="13.213434109405766"><ele>833.0</ele><time>2026-04-04T11:41:17.001Z</time></trkpt><trkpt lat="42.0886338717833" lon="13.213226810677835"><ele>833.0</ele><time>2026-04-04T11:41:18.001Z</time></trkpt><trkpt lat="42.088528770913165" lon="13.212971664986947"><ele>833.0</ele><time>2026-04-04T11:41:19.001Z</time></trkpt><trkpt lat="42.08846428012563" lon="13.212661651737946"><ele>833.0</ele><time>2026-04-04T11:41:20.001Z</time></trkpt><trkpt lat="42.08843471116886" lon="13.212315533681009"><ele>833.0</ele><time>2026-04-04T11:41:21.001Z</time></trkpt><trkpt lat="42.08840852346294" lon="13.21195420351822"><ele>833.0</ele><time>2026-04-04T11:41:22.001Z</time></trkpt><trkpt lat="42.08838316711599" lon="13.211621014872723"><ele>835.5</ele><time>2026-04-04T11:41:23.001Z</time></trkpt><trkpt lat="42.08830553464846" lon="13.211333391338108"><ele>838.0</ele><time>2026-04-04T11:41:24.001Z</time></trkpt><trkpt lat="42.088171432805254" lon="13.211086553502716"><ele>838.0</ele><time>2026-04-04T11:41:25.001Z</time></trkpt><trkpt lat="42.08797689394233" lon="13.210876696817676"><ele>838.0</ele><time>2026-04-04T11:41:26.001Z</time></trkpt><trkpt lat="42.08773183333135" lon="13.210710380015714"><ele>838.5</ele><time>2026-04-04T11:41:27.001Z</time></trkpt><trkpt lat="42.08748331861984" lon="13.210545135455487"><ele>839.0</ele><time>2026-04-04T11:41:28.001Z</time></trkpt><trkpt lat="42.087253176881056" lon="13.2103107587087"><ele>839.0</ele><time>2026-04-04T11:41:29.001Z</time></trkpt><trkpt lat="42.087088039396626" lon="13.210040201484274"><ele>839.0</ele><time>2026-04-04T11:41:30.001Z</time></trkpt><trkpt lat="42.086994438887174" lon="13.209748798784727"><ele>843.5</ele><time>2026-04-04T11:41:31.001Z</time></trkpt><trkpt lat="42.08696325321534" lon="13.209398656264888"><ele>848.0</ele><time>2026-04-04T11:41:32Z</time></trkpt><trkpt lat="42.08698881887188" lon="13.208986999712572"><ele>851.5</ele><time>2026-04-04T11:41:33Z</time></trkpt><trkpt lat="42.08700942102682" lon="13.208525636408535"><ele>855.0</ele><time>2026-04-04T11:41:34Z</time></trkpt><trkpt lat="42.08706512104655" lon="13.208165553180187"><ele>855.6666666666667</ele><time>2026-04-04T11:41:35Z</time></trkpt><trkpt lat="42.08717676313632" lon="13.20791299081101"><ele>856.3333333333334</ele><time>2026-04-04T11:41:36Z</time></trkpt><trkpt lat="42.087316167658294" lon="13.207698049560317"><ele>857.0</ele><time>2026-04-04T11:41:37Z</time></trkpt><trkpt lat="42.087493605901514" lon="13.207525301563226"><ele>857.0</ele><time>2026-04-04T11:41:38Z</time></trkpt><trkpt lat="42.0876803197837" lon="13.207373913006295"><ele>857.0</ele><time>2026-04-04T11:41:39Z</time></trkpt><trkpt lat="42.08791534176343" lon="13.207167833130582"><ele>857.0</ele><time>2026-04-04T11:41:40Z</time></trkpt><trkpt lat="42.088244587964795" lon="13.206929500612624"><ele>857.0</ele><time>2026-04-04T11:41:41Z</time></trkpt><trkpt lat="42.08860477086408" lon="13.20663305609428"><ele>871.0</ele><time>2026-04-04T11:41:42Z</time></trkpt><trkpt lat="42.0890077832021" lon="13.206293436501428"><ele>863.0</ele><time>2026-04-04T11:41:43Z</time></trkpt><trkpt lat="42.08943743437611" lon="13.205930921292095"><ele>874.0</ele><time>2026-04-04T11:41:44Z</time></trkpt><trkpt lat="42.08984535722493" lon="13.205589201596133"><ele>871.5</ele><time>2026-04-04T11:41:45Z</time></trkpt><trkpt lat="42.0901872288156" lon="13.20531262160769"><ele>869.0</ele><time>2026-04-04T11:41:46Z</time></trkpt><trkpt lat="42.090509685748934" lon="13.205034910385017"><ele>872.0</ele><time>2026-04-04T11:41:47Z</time></trkpt><trkpt lat="42.090850600139525" lon="13.204682855053399"><ele>875.0</ele><time>2026-04-04T11:41:48Z</time></trkpt><trkpt lat="42.091207135299754" lon="13.204260313201852"><ele>885.0</ele><time>2026-04-04T11:41:49Z</time></trkpt><trkpt lat="42.09154703000994" lon="13.203813610570434"><ele>884.0</ele><time>2026-04-04T11:41:50Z</time></trkpt><trkpt lat="42.09185808196305" lon="13.203431869593675"><ele>883.0</ele><time>2026-04-04T11:41:51Z</time></trkpt><trkpt lat="42.092141863978874" lon="13.2030950367379"><ele>883.0</ele><time>2026-04-04T11:41:52Z</time></trkpt><trkpt lat="42.092398841356435" lon="13.202815087220385"><ele>883.0</ele><time>2026-04-04T11:41:53Z</time></trkpt><trkpt lat="42.09266180302422" lon="13.202594902292816"><ele>882.5</ele><time>2026-04-04T11:41:54Z</time></trkpt><trkpt lat="42.092954880133085" lon="13.202470316197385"><ele>882.0</ele><time>2026-04-04T11:41:55Z</time></trkpt><trkpt lat="42.09327216202503" lon="13.202500667828113"><ele>882.0</ele><time>2026-04-04T11:41:56Z</time></trkpt><trkpt lat="42.09361076496536" lon="13.202554651183464"><ele>882.0</ele><time>2026-04-04T11:41:57Z</time></trkpt><trkpt lat="42.09395611963099" lon="13.202707363235815"><ele>884.5</ele><time>2026-04-04T11:41:58Z</time></trkpt><trkpt lat="42.09434504073896" lon="13.202887489662745"><ele>887.0</ele><time>2026-04-04T11:41:59Z</time></trkpt><trkpt lat="42.094728626053964" lon="13.203102846789648"><ele>887.0</ele><time>2026-04-04T11:42:00Z</time></trkpt><trkpt lat="42.09504959655308" lon="13.203268049853902"><ele>887.0</ele><time>2026-04-04T11:42:01Z</time></trkpt><trkpt lat="42.0953286319399" lon="13.203399976939053"><ele>887.0</ele><time>2026-04-04T11:42:02Z</time></trkpt><trkpt lat="42.0956032265199" lon="13.203494332142713"><ele>887.0</ele><time>2026-04-04T11:42:03Z</time></trkpt><trkpt lat="42.09586869510138" lon="13.203491116061079"><ele>891.0</ele><time>2026-04-04T11:42:04Z</time></trkpt><trkpt lat="42.096133086284496" lon="13.203379925304539"><ele>895.0</ele><time>2026-04-04T11:42:05Z</time></trkpt><trkpt lat="42.09637709240765" lon="13.203158663001629"><ele>900.5</ele><time>2026-04-04T11:42:06Z</time></trkpt><trkpt lat="42.096652299187774" lon="13.202841634372835"><ele>906.0</ele><time>2026-04-04T11:42:07Z</time></trkpt><trkpt lat="42.09699627908997" lon="13.202542579553286"><ele>926.0</ele><time>2026-04-04T11:42:08Z</time></trkpt><trkpt lat="42.0973718110287" lon="13.202202837939188"><ele>919.0</ele><time>2026-04-04T11:42:09Z</time></trkpt><trkpt lat="42.09778623867298" lon="13.201911685434265"><ele>919.0</ele><time>2026-04-04T11:42:10Z</time></trkpt><trkpt lat="42.09816794346292" lon="13.201687244736961"><ele>919.0</ele><time>2026-04-04T11:42:11Z</time></trkpt><trkpt lat="42.09850221349049" lon="13.201467983384072"><ele>925.0</ele><time>2026-04-04T11:42:12Z</time></trkpt><trkpt lat="42.09878832816642" lon="13.201208010263475"><ele>931.0</ele><time>2026-04-04T11:42:13Z</time></trkpt><trkpt lat="42.099044358391225" lon="13.200875578326567"><ele>930.0</ele><time>2026-04-04T11:42:14Z</time></trkpt><trkpt lat="42.099276737238654" lon="13.200463692226043"><ele>929.0</ele><time>2026-04-04T11:42:15Z</time></trkpt><trkpt lat="42.09955498795415" lon="13.200152426371657"><ele>929.0</ele><time>2026-04-04T11:42:16Z</time></trkpt><trkpt lat="42.099834005714136" lon="13.199934265792946"><ele>929.0</ele><time>2026-04-04T11:42:17Z</time></trkpt><trkpt lat="42.1001769849093" lon="13.199724204372558"><ele>927.0</ele><time>2026-04-04T11:42:18Z</time></trkpt><trkpt lat="42.10054572810932" lon="13.199508952156005"><ele>925.0</ele><time>2026-04-04T11:42:19Z</time></trkpt><trkpt lat="42.10086725636052" lon="13.199319164377192"><ele>925.0</ele><time>2026-04-04T11:42:20Z</time></trkpt><trkpt lat="42.1011510818069" lon="13.199059088608537"><ele>925.0</ele><time>2026-04-04T11:42:21Z</time></trkpt><trkpt lat="42.101415758566624" lon="13.198700450661299"><ele>927.0</ele><time>2026-04-04T11:42:22Z</time></trkpt><trkpt lat="42.10167298375811" lon="13.198253384547565"><ele>929.0</ele><time>2026-04-04T11:42:23Z</time></trkpt><trkpt lat="42.10195744627982" lon="13.197790586022354"><ele>936.0</ele><time>2026-04-04T11:42:24Z</time></trkpt><trkpt lat="42.10224070198066" lon="13.197375305445263"><ele>943.0</ele><time>2026-04-04T11:42:25Z</time></trkpt><trkpt lat="42.10250033172125" lon="13.197014416566114"><ele>944.0</ele><time>2026-04-04T11:42:26Z</time></trkpt><trkpt lat="42.10271850785424" lon="13.196704132376269"><ele>945.0</ele><time>2026-04-04T11:42:27Z</time></trkpt><trkpt lat="42.10290768003428" lon="13.196461250825163"><ele>945.0</ele><time>2026-04-04T11:42:28Z</time></trkpt><trkpt lat="42.103128923746176" lon="13.19632725738514"><ele>945.0</ele><time>2026-04-04T11:42:29Z</time></trkpt><trkpt lat="42.10338257768703" lon="13.196241935334772"><ele>945.0</ele><time>2026-04-04T11:42:30Z</time></trkpt><trkpt lat="42.103644466451776" lon="13.196280109113777"><ele>945.0</ele><time>2026-04-04T11:42:31Z</time></trkpt><trkpt lat="42.103917986402244" lon="13.19638827021266"><ele>940.5</ele><time>2026-04-04T11:42:32Z</time></trkpt><trkpt lat="42.104270538868015" lon="13.196551986539754"><ele>936.0</ele><time>2026-04-04T11:42:33Z</time></trkpt><trkpt lat="42.104658722942766" lon="13.19675434773887"><ele>947.0</ele><time>2026-04-04T11:42:34Z</time></trkpt><trkpt lat="42.1050909048262" lon="13.19695312911424"><ele>947.0</ele><time>2026-04-04T11:42:35Z</time></trkpt><trkpt lat="42.10549429428363" lon="13.197126952352383"><ele>947.0</ele><time>2026-04-04T11:42:36Z</time></trkpt><trkpt lat="42.105833329639516" lon="13.197286378275248"><ele>943.5</ele><time>2026-04-04T11:42:37Z</time></trkpt><trkpt lat="42.106131809039404" lon="13.197403255512164"><ele>940.0</ele><time>2026-04-04T11:42:38Z</time></trkpt><trkpt lat="42.106427004821334" lon="13.197439087299353"><ele>941.5</ele><time>2026-04-04T11:42:39Z</time></trkpt><trkpt lat="42.10672591150841" lon="13.19735704290891"><ele>943.0</ele><time>2026-04-04T11:42:40Z</time></trkpt><trkpt lat="42.10704565030167" lon="13.1973025829632"><ele>954.0</ele><time>2026-04-04T11:42:41Z</time></trkpt><trkpt lat="42.10744556883365" lon="13.19711074945515"><ele>965.0</ele><time>2026-04-04T11:42:42Z</time></trkpt><trkpt lat="42.107898728070914" lon="13.197006262818306"><ele>956.0</ele><time>2026-04-04T11:42:43Z</time></trkpt><trkpt lat="42.108665630277436" lon="13.196819575873674"><ele>956.0</ele><time>2026-04-04T11:42:45Z</time></trkpt><trkpt lat="42.108883316892204" lon="13.196742386300075"><ele>956.0</ele><time>2026-04-04T11:42:46Z</time></trkpt><trkpt lat="42.10911421019335" lon="13.196559570604567"><ele>963.0</ele><time>2026-04-04T11:42:47Z</time></trkpt><trkpt lat="42.109392894511366" lon="13.196270672067977"><ele>970.0</ele><time>2026-04-04T11:42:48Z</time></trkpt><trkpt lat="42.109680485466924" lon="13.195925933572836"><ele>974.0</ele><time>2026-04-04T11:42:49Z</time></trkpt><trkpt lat="42.10994182027478" lon="13.195672155718835"><ele>978.0</ele><time>2026-04-04T11:42:50Z</time></trkpt><trkpt lat="42.11019152829287" lon="13.19545136165949"><ele>978.0</ele><time>2026-04-04T11:42:51Z</time></trkpt><trkpt lat="42.1103949956239" lon="13.19534096995459"><ele>978.0</ele><time>2026-04-04T11:42:52Z</time></trkpt><trkpt lat="42.110640374467614" lon="13.195288545357187"><ele>970.5</ele><time>2026-04-04T11:42:53Z</time></trkpt><trkpt lat="42.11088638837787" lon="13.195331892486017"><ele>963.0</ele><time>2026-04-04T11:42:54Z</time></trkpt><trkpt lat="42.11115512228037" lon="13.195458082406935"><ele>963.0</ele><time>2026-04-04T11:42:55Z</time></trkpt><trkpt lat="42.11151628525408" lon="13.19565438888032"><ele>963.0</ele><time>2026-04-04T11:42:56Z</time></trkpt><trkpt lat="42.11190781490657" lon="13.195869854961039"><ele>965.5</ele><time>2026-04-04T11:42:57Z</time></trkpt><trkpt lat="42.11225790917341" lon="13.196094877494517"><ele>968.0</ele><time>2026-04-04T11:42:58Z</time></trkpt><trkpt lat="42.112571366534986" lon="13.19630905529787"><ele>968.0</ele><time>2026-04-04T11:42:59Z</time></trkpt><trkpt lat="42.112798764877525" lon="13.196496271576848"><ele>968.0</ele><time>2026-04-04T11:43:00Z</time></trkpt><trkpt lat="42.113069207131296" lon="13.196656126450161"><ele>964.6666666666667</ele><time>2026-04-04T11:43:01Z</time></trkpt><trkpt lat="42.11328602462145" lon="13.196674023322341"><ele>961.3333333333333</ele><time>2026-04-04T11:43:02Z</time></trkpt><trkpt lat="42.11349436361982" lon="13.196607990450586"><ele>958.0</ele><time>2026-04-04T11:43:03Z</time></trkpt><trkpt lat="42.1137110887661" lon="13.196464864774228"><ele>969.0</ele><time>2026-04-04T11:43:04Z</time></trkpt><trkpt lat="42.11390411314711" lon="13.19626238841591"><ele>980.0</ele><time>2026-04-04T11:43:05Z</time></trkpt><trkpt lat="42.11402026022964" lon="13.196027212301372"><ele>975.0</ele><time>2026-04-04T11:43:06Z</time></trkpt><trkpt lat="42.114095775482454" lon="13.195740379419336"><ele>970.0</ele><time>2026-04-04T11:43:07Z</time></trkpt><trkpt lat="42.11420747950779" lon="13.195373891801578"><ele>970.0</ele><time>2026-04-04T11:43:08Z</time></trkpt><trkpt lat="42.114280653306636" lon="13.195056982631524"><ele>970.0</ele><time>2026-04-04T11:43:09Z</time></trkpt><trkpt lat="42.11435347589475" lon="13.19482623455111"><ele>970.0</ele><time>2026-04-04T11:43:10Z</time></trkpt><trkpt lat="42.11443116480472" lon="13.194654322026649"><ele>973.25</ele><time>2026-04-04T11:43:11Z</time></trkpt><trkpt lat="42.114492938240254" lon="13.194551377844324"><ele>976.5</ele><time>2026-04-04T11:43:12Z</time></trkpt><trkpt lat="42.11458562756881" lon="13.194423495833064"><ele>979.75</ele><time>2026-04-04T11:43:13Z</time></trkpt><trkpt lat="42.11468642511141" lon="13.194319056434992"><ele>983.0</ele><time>2026-04-04T11:43:14Z</time></trkpt><trkpt lat="42.11481618035425" lon="13.194220945134663"><ele>986.0</ele><time>2026-04-04T11:43:15Z</time></trkpt><trkpt lat="42.11497431938446" lon="13.194139299502156"><ele>989.0</ele><time>2026-04-04T11:43:16Z</time></trkpt><trkpt lat="42.11519172769823" lon="13.194036883128208"><ele>992.0</ele><time>2026-04-04T11:43:17Z</time></trkpt><trkpt lat="42.11543246586641" lon="13.19392236912173"><ele>986.0</ele><time>2026-04-04T11:43:18Z</time></trkpt><trkpt lat="42.11577930235395" lon="13.1937185899237"><ele>980.0</ele><time>2026-04-04T11:43:19.001Z</time></trkpt><trkpt lat="42.11617015758817" lon="13.193476113362255"><ele>980.0</ele><time>2026-04-04T11:43:20.001Z</time></trkpt><trkpt lat="42.11651659961533" lon="13.193216407677863"><ele>980.0</ele><time>2026-04-04T11:43:21.001Z</time></trkpt><trkpt lat="42.11682651404152" lon="13.192995549745428"><ele>984.5</ele><time>2026-04-04T11:43:22.001Z</time></trkpt><trkpt lat="42.117117133182" lon="13.192779327354069"><ele>989.0</ele><time>2026-04-04T11:43:23.001Z</time></trkpt><trkpt lat="42.117310295315434" lon="13.192611817779214"><ele>983.5</ele><time>2026-04-04T11:43:24.001Z</time></trkpt><trkpt lat="42.11746094166326" lon="13.192337606881809"><ele>978.0</ele><time>2026-04-04T11:43:25.001Z</time></trkpt><trkpt lat="42.117525867443774" lon="13.191993339411455"><ele>978.0</ele><time>2026-04-04T11:43:26.001Z</time></trkpt><trkpt lat="42.11754085155514" lon="13.191574802257081"><ele>978.0</ele><time>2026-04-04T11:43:27.001Z</time></trkpt><trkpt lat="42.11757003722919" lon="13.191011985424048"><ele>969.5</ele><time>2026-04-04T11:43:28.001Z</time></trkpt><trkpt lat="42.11762294380963" lon="13.190569784374492"><ele>961.0</ele><time>2026-04-04T11:43:29.001Z</time></trkpt><trkpt lat="42.11765527526872" lon="13.190193337189655"><ele>961.0</ele><time>2026-04-04T11:43:30.001Z</time></trkpt><trkpt lat="42.117763634787025" lon="13.189904482330826"><ele>961.0</ele><time>2026-04-04T11:43:31.001Z</time></trkpt><trkpt lat="42.11787035950576" lon="13.18971367163598"><ele>961.0</ele><time>2026-04-04T11:43:32.001Z</time></trkpt><trkpt lat="42.118054145920986" lon="13.18953351468167"><ele>957.0</ele><time>2026-04-04T11:43:33.001Z</time></trkpt><trkpt lat="42.118260947005844" lon="13.189448272858037"><ele>953.0</ele><time>2026-04-04T11:43:34.001Z</time></trkpt><trkpt lat="42.11850615989035" lon="13.189396729769827"><ele>953.0</ele><time>2026-04-04T11:43:35.001Z</time></trkpt><trkpt lat="42.1188972737301" lon="13.189338836366256"><ele>953.0</ele><time>2026-04-04T11:43:36.001Z</time></trkpt><trkpt lat="42.11931137643345" lon="13.189260932343045"><ele>951.5</ele><time>2026-04-04T11:43:37.001Z</time></trkpt><trkpt lat="42.11966460190425" lon="13.189190736988174"><ele>950.0</ele><time>2026-04-04T11:43:38Z</time></trkpt><trkpt lat="42.11998722906312" lon="13.189065537406403"><ele>944.5</ele><time>2026-04-04T11:43:39Z</time></trkpt><trkpt lat="42.12025377541983" lon="13.188878583383172"><ele>939.0</ele><time>2026-04-04T11:43:40Z</time></trkpt><trkpt lat="42.120563774600214" lon="13.188524984086849"><ele>939.0</ele><time>2026-04-04T11:43:41Z</time></trkpt><trkpt lat="42.12091263469044" lon="13.188114889131407"><ele>939.0</ele><time>2026-04-04T11:43:42Z</time></trkpt><trkpt lat="42.121277902187416" lon="13.187710093542467"><ele>937.0</ele><time>2026-04-04T11:43:43Z</time></trkpt><trkpt lat="42.121603690626664" lon="13.187374106624592"><ele>935.0</ele><time>2026-04-04T11:43:44Z</time></trkpt><trkpt lat="42.12189299326706" lon="13.187071547506871"><ele>935.0</ele><time>2026-04-04T11:43:45Z</time></trkpt><trkpt lat="42.12214588592208" lon="13.186805967754564"><ele>935.0</ele><time>2026-04-04T11:43:46Z</time></trkpt><trkpt lat="42.12236999630334" lon="13.1865237008252"><ele>935.5</ele><time>2026-04-04T11:43:47Z</time></trkpt><trkpt lat="42.12260188220925" lon="13.186265925209048"><ele>936.0</ele><time>2026-04-04T11:43:48Z</time></trkpt><trkpt lat="42.12268159060676" lon="13.185809664671336"><ele>935.5</ele><time>2026-04-04T11:43:49Z</time></trkpt><trkpt lat="42.12273528749093" lon="13.18539908837092"><ele>935.0</ele><time>2026-04-04T11:43:50Z</time></trkpt><trkpt lat="42.12272571819494" lon="13.185008835625986"><ele>934.5</ele><time>2026-04-04T11:43:51Z</time></trkpt><trkpt lat="42.12264968582025" lon="13.184593134341101"><ele>934.0</ele><time>2026-04-04T11:43:52Z</time></trkpt><trkpt lat="42.12252624756506" lon="13.184137535820788"><ele>931.5</ele><time>2026-04-04T11:43:53Z</time></trkpt><trkpt lat="42.12233857147038" lon="13.183637308809917"><ele>929.0</ele><time>2026-04-04T11:43:54Z</time></trkpt><trkpt lat="42.12217641727143" lon="13.18320477611119"><ele>927.5</ele><time>2026-04-04T11:43:55Z</time></trkpt><trkpt lat="42.12205359419027" lon="13.182831233813808"><ele>926.0</ele><time>2026-04-04T11:43:56Z</time></trkpt><trkpt lat="42.12199228652016" lon="13.18252175854257"><ele>925.5</ele><time>2026-04-04T11:43:57Z</time></trkpt><trkpt lat="42.12198468465293" lon="13.182185177507082"><ele>925.0</ele><time>2026-04-04T11:43:58Z</time></trkpt><trkpt lat="42.12205591909005" lon="13.181824870110649"><ele>925.0</ele><time>2026-04-04T11:43:59Z</time></trkpt><trkpt lat="42.12220319730503" lon="13.181452043975183"><ele>925.0</ele><time>2026-04-04T11:44:00Z</time></trkpt><trkpt lat="42.12236969396269" lon="13.181043653078062"><ele>924.0</ele><time>2026-04-04T11:44:01Z</time></trkpt><trkpt lat="42.12255354903177" lon="13.18054843663989"><ele>923.0</ele><time>2026-04-04T11:44:02Z</time></trkpt><trkpt lat="42.12275216803021" lon="13.17999642817966"><ele>923.0</ele><time>2026-04-04T11:44:03Z</time></trkpt><trkpt lat="42.122964723344744" lon="13.179393639229232"><ele>925.0</ele><time>2026-04-04T11:44:04Z</time></trkpt><trkpt lat="42.123192857995114" lon="13.178755026803271"><ele>923.0</ele><time>2026-04-04T11:44:05Z</time></trkpt><trkpt lat="42.12340526659059" lon="13.178175965582845"><ele>923.0</ele><time>2026-04-04T11:44:06Z</time></trkpt><trkpt lat="42.123589431738" lon="13.177665341603221"><ele>923.0</ele><time>2026-04-04T11:44:07Z</time></trkpt><trkpt lat="42.1237588556585" lon="13.17720623215787"><ele>920.5</ele><time>2026-04-04T11:44:08Z</time></trkpt><trkpt lat="42.12391026032477" lon="13.17679397662769"><ele>918.0</ele><time>2026-04-04T11:44:09Z</time></trkpt><trkpt lat="42.12403977273495" lon="13.176420659038953"><ele>919.5</ele><time>2026-04-04T11:44:10Z</time></trkpt><trkpt lat="42.1241224441943" lon="13.176073620137249"><ele>921.0</ele><time>2026-04-04T11:44:11Z</time></trkpt><trkpt lat="42.124132226496926" lon="13.175728281178007"><ele>920.0</ele><time>2026-04-04T11:44:12Z</time></trkpt><trkpt lat="42.12406273577717" lon="13.17532460230431"><ele>919.0</ele><time>2026-04-04T11:44:13Z</time></trkpt><trkpt lat="42.12392987039071" lon="13.174857292983658"><ele>918.5</ele><time>2026-04-04T11:44:14Z</time></trkpt><trkpt lat="42.1237648117526" lon="13.174354285543702"><ele>918.0</ele><time>2026-04-04T11:44:15Z</time></trkpt><trkpt lat="42.12359539967977" lon="13.173793735552394"><ele>925.0</ele><time>2026-04-04T11:44:16Z</time></trkpt><trkpt lat="42.12342796859438" lon="13.173168691683765"><ele>925.0</ele><time>2026-04-04T11:44:17Z</time></trkpt><trkpt lat="42.12325795028399" lon="13.172529062250419"><ele>917.0</ele><time>2026-04-04T11:44:18Z</time></trkpt><trkpt lat="42.1231026037921" lon="13.17195584710514"><ele>918.5</ele><time>2026-04-04T11:44:19Z</time></trkpt><trkpt lat="42.122950121720294" lon="13.171425282956719"><ele>920.0</ele><time>2026-04-04T11:44:20Z</time></trkpt><trkpt lat="42.12276612213656" lon="13.170887348048511"><ele>922.5</ele><time>2026-04-04T11:44:21Z</time></trkpt><trkpt lat="42.12256737737405" lon="13.170361061519069"><ele>925.0</ele><time>2026-04-04T11:44:22Z</time></trkpt><trkpt lat="42.12239882280374" lon="13.169906762913719"><ele>917.5</ele><time>2026-04-04T11:44:23Z</time></trkpt><trkpt lat="42.122258385516346" lon="13.169489167755117"><ele>910.0</ele><time>2026-04-04T11:44:24Z</time></trkpt><trkpt lat="42.1221626990584" lon="13.169089173764434"><ele>910.0</ele><time>2026-04-04T11:44:25Z</time></trkpt><trkpt lat="42.12212405834394" lon="13.168641001720436"><ele>910.0</ele><time>2026-04-04T11:44:26Z</time></trkpt><trkpt lat="42.12211716754193" lon="13.16808626073694"><ele>909.5</ele><time>2026-04-04T11:44:27Z</time></trkpt><trkpt lat="42.12210855529844" lon="13.167482866938753"><ele>909.0</ele><time>2026-04-04T11:44:28Z</time></trkpt><trkpt lat="42.122095951167644" lon="13.16694254693751"><ele>907.5</ele><time>2026-04-04T11:44:29Z</time></trkpt><trkpt lat="42.12208313549225" lon="13.166467993782053"><ele>906.0</ele><time>2026-04-04T11:44:30Z</time></trkpt><trkpt lat="42.12211646563133" lon="13.165941927616736"><ele>907.0</ele><time>2026-04-04T11:44:31Z</time></trkpt><trkpt lat="42.122194490112996" lon="13.165409006119933"><ele>908.0</ele><time>2026-04-04T11:44:32Z</time></trkpt><trkpt lat="42.122326147160045" lon="13.16484055869711"><ele>908.0</ele><time>2026-04-04T11:44:33Z</time></trkpt><trkpt lat="42.12247735827449" lon="13.16429091120339"><ele>908.0</ele><time>2026-04-04T11:44:34Z</time></trkpt><trkpt lat="42.12260047050658" lon="13.163804509275236"><ele>908.0</ele><time>2026-04-04T11:44:35Z</time></trkpt><trkpt lat="42.12270294480179" lon="13.16335311506518"><ele>908.0</ele><time>2026-04-04T11:44:36Z</time></trkpt><trkpt lat="42.12279219494854" lon="13.16293128659339"><ele>907.0</ele><time>2026-04-04T11:44:37Z</time></trkpt><trkpt lat="42.122849798276235" lon="13.162506556663445"><ele>906.0</ele><time>2026-04-04T11:44:38Z</time></trkpt><trkpt lat="42.12284118541152" lon="13.162033229290715"><ele>906.5</ele><time>2026-04-04T11:44:39Z</time></trkpt><trkpt lat="42.1227863695541" lon="13.161469529493612"><ele>907.0</ele><time>2026-04-04T11:44:40Z</time></trkpt><trkpt lat="42.122702559866184" lon="13.160847523931908"><ele>906.0</ele><time>2026-04-04T11:44:41Z</time></trkpt><trkpt lat="42.122627384438914" lon="13.160193852513101"><ele>907.0</ele><time>2026-04-04T11:44:42Z</time></trkpt><trkpt lat="42.12256489001291" lon="13.159549893616513"><ele>907.5</ele><time>2026-04-04T11:44:43Z</time></trkpt><trkpt lat="42.12251277418181" lon="13.158983202082073"><ele>908.0</ele><time>2026-04-04T11:44:44Z</time></trkpt><trkpt lat="42.12246015212472" lon="13.158464500517825"><ele>906.5</ele><time>2026-04-04T11:44:45Z</time></trkpt><trkpt lat="42.12241328966174" lon="13.157971850911004"><ele>905.0</ele><time>2026-04-04T11:44:46Z</time></trkpt><trkpt lat="42.12237100001324" lon="13.157520854040264"><ele>905.5</ele><time>2026-04-04T11:44:47Z</time></trkpt><trkpt lat="42.12233652825787" lon="13.15712238973859"><ele>906.0</ele><time>2026-04-04T11:44:48Z</time></trkpt><trkpt lat="42.122318367998794" lon="13.156768602713877"><ele>908.5</ele><time>2026-04-04T11:44:49Z</time></trkpt><trkpt lat="42.12237187508978" lon="13.15642397867888"><ele>911.0</ele><time>2026-04-04T11:44:50Z</time></trkpt><trkpt lat="42.12251900090338" lon="13.156051346210862"><ele>911.5</ele><time>2026-04-04T11:44:51Z</time></trkpt><trkpt lat="42.122687676449004" lon="13.155622741524384"><ele>912.0</ele><time>2026-04-04T11:44:52Z</time></trkpt><trkpt lat="42.12286643816421" lon="13.155155117195426"><ele>912.5</ele><time>2026-04-04T11:44:53Z</time></trkpt><trkpt lat="42.123097207136425" lon="13.15468937852922"><ele>913.0</ele><time>2026-04-04T11:44:54Z</time></trkpt><trkpt lat="42.12333938020236" lon="13.154175121411715"><ele>918.0</ele><time>2026-04-04T11:44:55Z</time></trkpt><trkpt lat="42.12362930722322" lon="13.15364290397832"><ele>937.0</ele><time>2026-04-04T11:44:56Z</time></trkpt><trkpt lat="42.123893161594175" lon="13.153121950633961"><ele>937.5</ele><time>2026-04-04T11:44:57Z</time></trkpt><trkpt lat="42.12411841034367" lon="13.15266466050965"><ele>938.0</ele><time>2026-04-04T11:44:58Z</time></trkpt><trkpt lat="42.12433212292756" lon="13.152251204492563"><ele>938.0</ele><time>2026-04-04T11:44:59Z</time></trkpt><trkpt lat="42.12452678229392" lon="13.151869332117318"><ele>938.0</ele><time>2026-04-04T11:45:00Z</time></trkpt><trkpt lat="42.124710522219175" lon="13.151499806280734"><ele>935.0</ele><time>2026-04-04T11:45:01Z</time></trkpt><trkpt lat="42.124899999044786" lon="13.15112389137058"><ele>932.0</ele><time>2026-04-04T11:45:02Z</time></trkpt><trkpt lat="42.125110488806605" lon="13.15072761188838"><ele>941.5</ele><time>2026-04-04T11:45:03Z</time></trkpt><trkpt lat="42.12533532080239" lon="13.150335674292254"><ele>951.0</ele><time>2026-04-04T11:45:04Z</time></trkpt><trkpt lat="42.12560822636961" lon="13.14993503462498"><ele>943.0</ele><time>2026-04-04T11:45:05Z</time></trkpt><trkpt lat="42.125920291078295" lon="13.14951582017275"><ele>935.0</ele><time>2026-04-04T11:45:06Z</time></trkpt><trkpt lat="42.12623351343414" lon="13.149158420964014"><ele>935.0</ele><time>2026-04-04T11:45:07Z</time></trkpt><trkpt lat="42.12657027548629" lon="13.148921212379381"><ele>935.0</ele><time>2026-04-04T11:45:08Z</time></trkpt><trkpt lat="42.12685329550897" lon="13.148606748681193"><ele>935.0</ele><time>2026-04-04T11:45:09Z</time></trkpt><trkpt lat="42.1271202463476" lon="13.148238045376246"><ele>935.0</ele><time>2026-04-04T11:45:10Z</time></trkpt><trkpt lat="42.12737923143809" lon="13.147796756374165"><ele>934.0</ele><time>2026-04-04T11:45:11Z</time></trkpt><trkpt lat="42.12763621446568" lon="13.14738607841867"><ele>933.0</ele><time>2026-04-04T11:45:12Z</time></trkpt><trkpt lat="42.1278655010829" lon="13.147029374646094"><ele>933.0</ele><time>2026-04-04T11:45:13Z</time></trkpt><trkpt lat="42.12805718111365" lon="13.14665057200107"><ele>933.0</ele><time>2026-04-04T11:45:14Z</time></trkpt><trkpt lat="42.12821739246978" lon="13.146201270334348"><ele>927.0</ele><time>2026-04-04T11:45:15Z</time></trkpt><trkpt lat="42.128359311282296" lon="13.145700581918765"><ele>921.0</ele><time>2026-04-04T11:45:16Z</time></trkpt><trkpt lat="42.128494530854525" lon="13.145272040929454"><ele>921.0</ele><time>2026-04-04T11:45:17Z</time></trkpt><trkpt lat="42.128631879604896" lon="13.144908747851929"><ele>921.0</ele><time>2026-04-04T11:45:18Z</time></trkpt><trkpt lat="42.12882279163756" lon="13.144623633248447"><ele>916.0</ele><time>2026-04-04T11:45:19Z</time></trkpt><trkpt lat="42.129058960184125" lon="13.144390153136005"><ele>911.0</ele><time>2026-04-04T11:45:20Z</time></trkpt><trkpt lat="42.129359014710545" lon="13.144170864968705"><ele>912.5</ele><time>2026-04-04T11:45:21Z</time></trkpt><trkpt lat="42.12970072987064" lon="13.143915770557062"><ele>914.0</ele><time>2026-04-04T11:45:22Z</time></trkpt><trkpt lat="42.13010261464062" lon="13.143656239377954"><ele>914.0</ele><time>2026-04-04T11:45:23Z</time></trkpt><trkpt lat="42.130453668719625" lon="13.143416989893751"><ele>914.0</ele><time>2026-04-04T11:45:24Z</time></trkpt><trkpt lat="42.130757594354236" lon="13.143184753989873"><ele>911.5</ele><time>2026-04-04T11:45:25Z</time></trkpt><trkpt lat="42.13099915414918" lon="13.142937959951295"><ele>909.0</ele><time>2026-04-04T11:45:26Z</time></trkpt><trkpt lat="42.131168189549996" lon="13.142652527703149"><ele>910.5</ele><time>2026-04-04T11:45:27Z</time></trkpt><trkpt lat="42.131269608780094" lon="13.142312891936037"><ele>912.0</ele><time>2026-04-04T11:45:28Z</time></trkpt><trkpt lat="42.131333273663216" lon="13.141894238002246"><ele>915.0</ele><time>2026-04-04T11:45:29Z</time></trkpt><trkpt lat="42.13142813812622" lon="13.141411377048897"><ele>918.0</ele><time>2026-04-04T11:45:30Z</time></trkpt><trkpt lat="42.13154133277814" lon="13.140995916639861"><ele>914.0</ele><time>2026-04-04T11:45:31Z</time></trkpt><trkpt lat="42.131687672561874" lon="13.140606495128877"><ele>910.0</ele><time>2026-04-04T11:45:32Z</time></trkpt><trkpt lat="42.131916337594845" lon="13.140262778836162"><ele>910.0</ele><time>2026-04-04T11:45:33Z</time></trkpt><trkpt lat="42.13219368639471" lon="13.139891075125384"><ele>910.0</ele><time>2026-04-04T11:45:34Z</time></trkpt><trkpt lat="42.13252259055441" lon="13.139517080421177"><ele>908.0</ele><time>2026-04-04T11:45:35Z</time></trkpt><trkpt lat="42.13287892359985" lon="13.139119863978667"><ele>904.5</ele><time>2026-04-04T11:45:36Z</time></trkpt><trkpt lat="42.13319057098833" lon="13.138780421868983"><ele>901.0</ele><time>2026-04-04T11:45:37Z</time></trkpt><trkpt lat="42.133464903382524" lon="13.13846924606931"><ele>909.5</ele><time>2026-04-04T11:45:38Z</time></trkpt><trkpt lat="42.13369998133097" lon="13.138182738350428"><ele>918.0</ele><time>2026-04-04T11:45:39Z</time></trkpt><trkpt lat="42.13389587977458" lon="13.137893173471866"><ele>918.0</ele><time>2026-04-04T11:45:40.001Z</time></trkpt><trkpt lat="42.13405494071593" lon="13.137512329200057"><ele>918.0</ele><time>2026-04-04T11:45:41.001Z</time></trkpt><trkpt lat="42.134201417160924" lon="13.137023280052409"><ele>910.5</ele><time>2026-04-04T11:45:42.001Z</time></trkpt><trkpt lat="42.13435116610607" lon="13.136592116184945"><ele>903.0</ele><time>2026-04-04T11:45:43Z</time></trkpt><trkpt lat="42.13449294580534" lon="13.136232417053264"><ele>903.0</ele><time>2026-04-04T11:45:44Z</time></trkpt><trkpt lat="42.13461565065146" lon="13.135890898913843"><ele>903.0</ele><time>2026-04-04T11:45:45Z</time></trkpt><trkpt lat="42.13471796154017" lon="13.135575025551073"><ele>903.5</ele><time>2026-04-04T11:45:46Z</time></trkpt><trkpt lat="42.13478492466729" lon="13.13525639860845"><ele>904.0</ele><time>2026-04-04T11:45:47Z</time></trkpt><trkpt lat="42.13480612821113" lon="13.134912944161172"><ele>899.5</ele><time>2026-04-04T11:45:48Z</time></trkpt><trkpt lat="42.134772397731105" lon="13.134571559660287"><ele>895.0</ele><time>2026-04-04T11:45:49Z</time></trkpt><trkpt lat="42.13469382858742" lon="13.13420278702185"><ele>889.5</ele><time>2026-04-04T11:45:50Z</time></trkpt><trkpt lat="42.13458939158328" lon="13.133887256529107"><ele>884.0</ele><time>2026-04-04T11:45:51Z</time></trkpt><trkpt lat="42.134452625234104" lon="13.133597370595949"><ele>884.0</ele><time>2026-04-04T11:45:52Z</time></trkpt><trkpt lat="42.13428802674399" lon="13.133293569088142"><ele>884.0</ele><time>2026-04-04T11:45:53Z</time></trkpt><trkpt lat="42.134123692220626" lon="13.13297419876664"><ele>879.5</ele><time>2026-04-04T11:45:54Z</time></trkpt><trkpt lat="42.13397567107599" lon="13.132654923248563"><ele>875.0</ele><time>2026-04-04T11:45:55Z</time></trkpt><trkpt lat="42.133828050146406" lon="13.132331389074565"><ele>874.0</ele><time>2026-04-04T11:45:56Z</time></trkpt><trkpt lat="42.133676528282905" lon="13.132015154337646"><ele>873.0</ele><time>2026-04-04T11:45:57Z</time></trkpt><trkpt lat="42.13352540236329" lon="13.131715763766078"><ele>875.0</ele><time>2026-04-04T11:45:58Z</time></trkpt><trkpt lat="42.133371851457454" lon="13.131423572029316"><ele>877.0</ele><time>2026-04-04T11:45:59Z</time></trkpt><trkpt lat="42.13320175688682" lon="13.131166206980978"><ele>877.0</ele><time>2026-04-04T11:46:00Z</time></trkpt><trkpt lat="42.13300244882581" lon="13.13093595637275"><ele>877.0</ele><time>2026-04-04T11:46:01Z</time></trkpt><trkpt lat="42.1327962212505" lon="13.130700182390797"><ele>871.0</ele><time>2026-04-04T11:46:02Z</time></trkpt><trkpt lat="42.13260159780406" lon="13.130456676848988"><ele>865.0</ele><time>2026-04-04T11:46:03Z</time></trkpt><trkpt lat="42.132397045303456" lon="13.130206498967238"><ele>868.5</ele><time>2026-04-04T11:46:04Z</time></trkpt><trkpt lat="42.13218547001413" lon="13.129956207472167"><ele>872.0</ele><time>2026-04-04T11:46:05Z</time></trkpt><trkpt lat="42.13198060476023" lon="13.129701675387269"><ele>867.0</ele><time>2026-04-04T11:46:06Z</time></trkpt><trkpt lat="42.13177124827482" lon="13.1294277668209"><ele>862.0</ele><time>2026-04-04T11:46:07Z</time></trkpt><trkpt lat="42.13154483872931" lon="13.129159600637358"><ele>853.5</ele><time>2026-04-04T11:46:08Z</time></trkpt><trkpt lat="42.131306811733545" lon="13.128936549482768"><ele>845.0</ele><time>2026-04-04T11:46:09Z</time></trkpt><trkpt lat="42.13104541281739" lon="13.128759784774147"><ele>845.0</ele><time>2026-04-04T11:46:10Z</time></trkpt><trkpt lat="42.130763343238776" lon="13.128632987274816"><ele>845.0</ele><time>2026-04-04T11:46:11Z</time></trkpt><trkpt lat="42.130466857733914" lon="13.128545021627676"><ele>848.0</ele><time>2026-04-04T11:46:12Z</time></trkpt><trkpt lat="42.13016221798689" lon="13.128455819612409"><ele>851.0</ele><time>2026-04-04T11:46:13Z</time></trkpt><trkpt lat="42.12985910209304" lon="13.128349726620167"><ele>851.0</ele><time>2026-04-04T11:46:14Z</time></trkpt><trkpt lat="42.12955784698169" lon="13.12824229151915"><ele>851.0</ele><time>2026-04-04T11:46:15Z</time></trkpt><trkpt lat="42.129258949018485" lon="13.128123169872831"><ele>842.5</ele><time>2026-04-04T11:46:16Z</time></trkpt><trkpt lat="42.12896466781306" lon="13.128016270993232"><ele>834.0</ele><time>2026-04-04T11:46:17Z</time></trkpt><trkpt lat="42.12867447757692" lon="13.127904998554053"><ele>834.0</ele><time>2026-04-04T11:46:18Z</time></trkpt><trkpt lat="42.12840463720246" lon="13.127760941783553"><ele>834.0</ele><time>2026-04-04T11:46:19Z</time></trkpt><trkpt lat="42.12815715440258" lon="13.12756574818159"><ele>835.0</ele><time>2026-04-04T11:46:20Z</time></trkpt><trkpt lat="42.12793131418657" lon="13.127317360971897"><ele>836.0</ele><time>2026-04-04T11:46:21Z</time></trkpt><trkpt lat="42.1277359437428" lon="13.127010602909253"><ele>836.0</ele><time>2026-04-04T11:46:22Z</time></trkpt><trkpt lat="42.127564631933616" lon="13.12665825186185"><ele>836.0</ele><time>2026-04-04T11:46:23Z</time></trkpt><trkpt lat="42.12738085277715" lon="13.126296926120448"><ele>837.0</ele><time>2026-04-04T11:46:24Z</time></trkpt><trkpt lat="42.127220024694026" lon="13.125913627231327"><ele>838.0</ele><time>2026-04-04T11:46:25Z</time></trkpt><trkpt lat="42.12704870204679" lon="13.125534971441162"><ele>838.0</ele><time>2026-04-04T11:46:26Z</time></trkpt><trkpt lat="42.126873286164255" lon="13.125159434871623"><ele>838.0</ele><time>2026-04-04T11:46:27Z</time></trkpt><trkpt lat="42.12669440021764" lon="13.124782276063119"><ele>839.5</ele><time>2026-04-04T11:46:28Z</time></trkpt><trkpt lat="42.126512241512145" lon="13.124405805119737"><ele>841.0</ele><time>2026-04-04T11:46:29Z</time></trkpt><trkpt lat="42.12633276344008" lon="13.124039553111334"><ele>837.0</ele><time>2026-04-04T11:46:30Z</time></trkpt><trkpt lat="42.126161729805325" lon="13.123680604484631"><ele>833.0</ele><time>2026-04-04T11:46:31Z</time></trkpt><trkpt lat="42.12600396855612" lon="13.123348785688782"><ele>827.5</ele><time>2026-04-04T11:46:32Z</time></trkpt><trkpt lat="42.12585482796093" lon="13.12304943881977"><ele>822.0</ele><time>2026-04-04T11:46:33Z</time></trkpt><trkpt lat="42.12572039145573" lon="13.122766784116473"><ele>825.6666666666667</ele><time>2026-04-04T11:46:34Z</time></trkpt><trkpt lat="42.12561645921827" lon="13.122505007220044"><ele>829.3333333333334</ele><time>2026-04-04T11:46:35Z</time></trkpt><trkpt lat="42.125586578360604" lon="13.122236546092754"><ele>833.0</ele><time>2026-04-04T11:46:36Z</time></trkpt><trkpt lat="42.12561579748903" lon="13.121969257934428"><ele>833.0</ele><time>2026-04-04T11:46:37Z</time></trkpt><trkpt lat="42.12570868005561" lon="13.121694584743404"><ele>833.0</ele><time>2026-04-04T11:46:38Z</time></trkpt><trkpt lat="42.12585940913372" lon="13.12147276115547"><ele>833.0</ele><time>2026-04-04T11:46:39Z</time></trkpt><trkpt lat="42.1260414221087" lon="13.121368512814334"><ele>823.6666666666667</ele><time>2026-04-04T11:46:40Z</time></trkpt><trkpt lat="42.12623545535134" lon="13.121346633025498"><ele>814.3333333333333</ele><time>2026-04-04T11:46:41Z</time></trkpt><trkpt lat="42.126464705071065" lon="13.12140740671378"><ele>805.0</ele><time>2026-04-04T11:46:42Z</time></trkpt><trkpt lat="42.126654522123424" lon="13.121571555545136"><ele>805.0</ele><time>2026-04-04T11:46:43Z</time></trkpt><trkpt lat="42.12682270650199" lon="13.121811369476001"><ele>805.0</ele><time>2026-04-04T11:46:44Z</time></trkpt><trkpt lat="42.127028682121306" lon="13.122115897098983"><ele>802.0</ele><time>2026-04-04T11:46:45Z</time></trkpt><trkpt lat="42.12724106391279" lon="13.122449628307816"><ele>799.0</ele><time>2026-04-04T11:46:46Z</time></trkpt><trkpt lat="42.12747067996616" lon="13.122807435661256"><ele>799.0</ele><time>2026-04-04T11:46:47Z</time></trkpt><trkpt lat="42.12768668372507" lon="13.123144109088692"><ele>799.0</ele><time>2026-04-04T11:46:48Z</time></trkpt><trkpt lat="42.12788234138893" lon="13.123429095981521"><ele>803.0</ele><time>2026-04-04T11:46:49Z</time></trkpt><trkpt lat="42.12810390775049" lon="13.123665433243351"><ele>807.0</ele><time>2026-04-04T11:46:50Z</time></trkpt><trkpt lat="42.12839303844586" lon="13.123849756605805"><ele>802.0</ele><time>2026-04-04T11:46:51Z</time></trkpt><trkpt lat="42.128743819625804" lon="13.123987109358824"><ele>797.0</ele><time>2026-04-04T11:46:52Z</time></trkpt><trkpt lat="42.129123761293265" lon="13.124122005615257"><ele>797.0</ele><time>2026-04-04T11:46:53Z</time></trkpt><trkpt lat="42.12951328222641" lon="13.124274919022698"><ele>797.0</ele><time>2026-04-04T11:46:54Z</time></trkpt><trkpt lat="42.12986141164429" lon="13.124426014324714"><ele>794.0</ele><time>2026-04-04T11:46:55Z</time></trkpt><trkpt lat="42.13017618653988" lon="13.124561945119163"><ele>791.0</ele><time>2026-04-04T11:46:56Z</time></trkpt><trkpt lat="42.13046156549284" lon="13.12469595163635"><ele>789.5</ele><time>2026-04-04T11:46:57Z</time></trkpt><trkpt lat="42.130726173617326" lon="13.124831645061112"><ele>788.0</ele><time>2026-04-04T11:46:58Z</time></trkpt><trkpt lat="42.130976420642305" lon="13.124944170888577"><ele>788.0</ele><time>2026-04-04T11:46:59Z</time></trkpt><trkpt lat="42.13123213466402" lon="13.125007450155705"><ele>788.0</ele><time>2026-04-04T11:47:00Z</time></trkpt><trkpt lat="42.131489733475505" lon="13.125008399670493"><ele>782.0</ele><time>2026-04-04T11:47:01Z</time></trkpt><trkpt lat="42.13173751244904" lon="13.124908480899"><ele>776.0</ele><time>2026-04-04T11:47:02Z</time></trkpt><trkpt lat="42.13199445905719" lon="13.124792757246183"><ele>777.0</ele><time>2026-04-04T11:47:03Z</time></trkpt><trkpt lat="42.13224748816526" lon="13.124607783573662"><ele>778.0</ele><time>2026-04-04T11:47:04Z</time></trkpt><trkpt lat="42.13247314304962" lon="13.1243405497504"><ele>772.5</ele><time>2026-04-04T11:47:05Z</time></trkpt><trkpt lat="42.13265179553754" lon="13.124011314049396"><ele>767.0</ele><time>2026-04-04T11:47:06Z</time></trkpt><trkpt lat="42.13282476819014" lon="13.123626095964312"><ele>767.0</ele><time>2026-04-04T11:47:07Z</time></trkpt><trkpt lat="42.13295711953309" lon="13.123270252114104"><ele>767.0</ele><time>2026-04-04T11:47:08Z</time></trkpt><trkpt lat="42.13305940410107" lon="13.122960867575946"><ele>763.0</ele><time>2026-04-04T11:47:09Z</time></trkpt><trkpt lat="42.13310662904581" lon="13.1226537876892"><ele>759.0</ele><time>2026-04-04T11:47:10Z</time></trkpt><trkpt lat="42.133075302812415" lon="13.122342484254055"><ele>759.0</ele><time>2026-04-04T11:47:11Z</time></trkpt><trkpt lat="42.13297628356827" lon="13.122009513707827"><ele>759.0</ele><time>2026-04-04T11:47:12Z</time></trkpt><trkpt lat="42.132800132153704" lon="13.121702788906328"><ele>768.5</ele><time>2026-04-04T11:47:13Z</time></trkpt><trkpt lat="42.13257620568085" lon="13.121413073495518"><ele>778.0</ele><time>2026-04-04T11:47:14Z</time></trkpt><trkpt lat="42.13238443220675" lon="13.121089027315524"><ele>757.0</ele><time>2026-04-04T11:47:15Z</time></trkpt><trkpt lat="42.132301256200876" lon="13.120748729066603"><ele>736.0</ele><time>2026-04-04T11:47:16Z</time></trkpt><trkpt lat="42.13223596030283" lon="13.120340011911166"><ele>736.0</ele><time>2026-04-04T11:47:17Z</time></trkpt><trkpt lat="42.132164584888464" lon="13.119877729454421"><ele>736.0</ele><time>2026-04-04T11:47:18Z</time></trkpt><trkpt lat="42.13209551813515" lon="13.119383841326956"><ele>739.0</ele><time>2026-04-04T11:47:19Z</time></trkpt><trkpt lat="42.13200826398167" lon="13.11890074774826"><ele>742.0</ele><time>2026-04-04T11:47:20Z</time></trkpt><trkpt lat="42.131924555745044" lon="13.118465672667067"><ele>741.5</ele><time>2026-04-04T11:47:21Z</time></trkpt><trkpt lat="42.131882479920954" lon="13.11806180613055"><ele>741.0</ele><time>2026-04-04T11:47:22Z</time></trkpt><trkpt lat="42.13188913774001" lon="13.117658005463532"><ele>740.0</ele><time>2026-04-04T11:47:23Z</time></trkpt><trkpt lat="42.13191423682116" lon="13.117214761228428"><ele>739.0</ele><time>2026-04-04T11:47:24Z</time></trkpt><trkpt lat="42.13193455612522" lon="13.11677701394568"><ele>743.5</ele><time>2026-04-04T11:47:25Z</time></trkpt><trkpt lat="42.131909728556195" lon="13.11635882272816"><ele>748.0</ele><time>2026-04-04T11:47:26Z</time></trkpt><trkpt lat="42.131777471164725" lon="13.115940954677466"><ele>751.5</ele><time>2026-04-04T11:47:27Z</time></trkpt><trkpt lat="42.13162005042705" lon="13.115503193097025"><ele>755.0</ele><time>2026-04-04T11:47:28Z</time></trkpt><trkpt lat="42.13155833032174" lon="13.11506064996854"><ele>736.0</ele><time>2026-04-04T11:47:29Z</time></trkpt><trkpt lat="42.131505293061174" lon="13.114630331206907"><ele>717.0</ele><time>2026-04-04T11:47:30Z</time></trkpt><trkpt lat="42.13148711911318" lon="13.114228663497943"><ele>722.5</ele><time>2026-04-04T11:47:31Z</time></trkpt><trkpt lat="42.131435350406136" lon="13.113866082788501"><ele>728.0</ele><time>2026-04-04T11:47:32Z</time></trkpt><trkpt lat="42.131306712663495" lon="13.113543128916131"><ele>728.0</ele><time>2026-04-04T11:47:33Z</time></trkpt><trkpt lat="42.131103556684494" lon="13.113276558694105"><ele>728.0</ele><time>2026-04-04T11:47:34Z</time></trkpt><trkpt lat="42.13083586718067" lon="13.113073583195778"><ele>721.0</ele><time>2026-04-04T11:47:35Z</time></trkpt><trkpt lat="42.13061251398095" lon="13.112822548616583"><ele>714.0</ele><time>2026-04-04T11:47:36Z</time></trkpt><trkpt lat="42.13047424689206" lon="13.112547150814464"><ele>714.0</ele><time>2026-04-04T11:47:37Z</time></trkpt><trkpt lat="42.13042744427423" lon="13.112228915923748"><ele>714.0</ele><time>2026-04-04T11:47:38Z</time></trkpt><trkpt lat="42.13043528712147" lon="13.111874979460787"><ele>717.0</ele><time>2026-04-04T11:47:39Z</time></trkpt><trkpt lat="42.13045065899311" lon="13.111529137981655"><ele>720.0</ele><time>2026-04-04T11:47:40Z</time></trkpt><trkpt lat="42.13040921493524" lon="13.111232643170556"><ele>720.0</ele><time>2026-04-04T11:47:41Z</time></trkpt><trkpt lat="42.13027352541888" lon="13.110961787504008"><ele>720.0</ele><time>2026-04-04T11:47:42Z</time></trkpt><trkpt lat="42.13007365484106" lon="13.110756620184404"><ele>730.5</ele><time>2026-04-04T11:47:43Z</time></trkpt><trkpt lat="42.12983933641228" lon="13.110662660810997"><ele>741.0</ele><time>2026-04-04T11:47:44Z</time></trkpt><trkpt lat="42.12957746566033" lon="13.110660304165455"><ele>728.0</ele><time>2026-04-04T11:47:45Z</time></trkpt><trkpt lat="42.12928294832339" lon="13.110743455313203"><ele>715.0</ele><time>2026-04-04T11:47:46Z</time></trkpt><trkpt lat="42.12897007569396" lon="13.11085149780989"><ele>715.0</ele><time>2026-04-04T11:47:47Z</time></trkpt><trkpt lat="42.12862243114829" lon="13.110943805155294"><ele>715.0</ele><time>2026-04-04T11:47:48Z</time></trkpt><trkpt lat="42.12825115631408" lon="13.110966169646845"><ele>713.0</ele><time>2026-04-04T11:47:49Z</time></trkpt><trkpt lat="42.12787308439632" lon="13.110987681252926"><ele>711.0</ele><time>2026-04-04T11:47:50Z</time></trkpt><trkpt lat="42.12748075844626" lon="13.11099513991545"><ele>708.5</ele><time>2026-04-04T11:47:51Z</time></trkpt><trkpt lat="42.12709475005283" lon="13.111010994573089"><ele>706.0</ele><time>2026-04-04T11:47:52Z</time></trkpt><trkpt lat="42.12675163612986" lon="13.111008861996336"><ele>706.5</ele><time>2026-04-04T11:47:53Z</time></trkpt><trkpt lat="42.126427381548076" lon="13.111014192870211"><ele>707.0</ele><time>2026-04-04T11:47:54Z</time></trkpt><trkpt lat="42.12611863567459" lon="13.11101721998422"><ele>707.0</ele><time>2026-04-04T11:47:55Z</time></trkpt><trkpt lat="42.125831025315215" lon="13.111019137369128"><ele>707.0</ele><time>2026-04-04T11:47:56Z</time></trkpt><trkpt lat="42.12555472714824" lon="13.111021713286997"><ele>707.5</ele><time>2026-04-04T11:47:57Z</time></trkpt><trkpt lat="42.1252772334632" lon="13.111022607783818"><ele>708.0</ele><time>2026-04-04T11:47:58Z</time></trkpt><trkpt lat="42.12500370656718" lon="13.111025719785728"><ele>702.0</ele><time>2026-04-04T11:47:59Z</time></trkpt><trkpt lat="42.124703465853564" lon="13.1110303779969"><ele>696.0</ele><time>2026-04-04T11:48:00Z</time></trkpt><trkpt lat="42.12441357864046" lon="13.111008729359211"><ele>696.0</ele><time>2026-04-04T11:48:01Z</time></trkpt><trkpt lat="42.12413466974506" lon="13.111010574937522"><ele>696.0</ele><time>2026-04-04T11:48:02Z</time></trkpt><trkpt lat="42.12383920159292" lon="13.111013261820144"><ele>695.0</ele><time>2026-04-04T11:48:03Z</time></trkpt><trkpt lat="42.123539920513686" lon="13.111034149908187"><ele>694.0</ele><time>2026-04-04T11:48:04Z</time></trkpt><trkpt lat="42.12324559827614" lon="13.111010823699344"><ele>697.0</ele><time>2026-04-04T11:48:05Z</time></trkpt><trkpt lat="42.122953997792024" lon="13.11104597133205"><ele>700.0</ele><time>2026-04-04T11:48:06Z</time></trkpt><trkpt lat="42.12266920181543" lon="13.111147684160265"><ele>710.5</ele><time>2026-04-04T11:48:07Z</time></trkpt><trkpt lat="42.12238045537985" lon="13.111288581039156"><ele>721.0</ele><time>2026-04-04T11:48:08Z</time></trkpt><trkpt lat="42.12210662436503" lon="13.111478493216508"><ele>707.5</ele><time>2026-04-04T11:48:09Z</time></trkpt><trkpt lat="42.121833475160884" lon="13.111695832536979"><ele>694.0</ele><time>2026-04-04T11:48:10Z</time></trkpt><trkpt lat="42.12154598410278" lon="13.1118502677551"><ele>694.0</ele><time>2026-04-04T11:48:11Z</time></trkpt><trkpt lat="42.12126436574553" lon="13.111957752374146"><ele>694.0</ele><time>2026-04-04T11:48:12Z</time></trkpt><trkpt lat="42.12094681838654" lon="13.112003874182005"><ele>691.0</ele><time>2026-04-04T11:48:13Z</time></trkpt><trkpt lat="42.12061040288926" lon="13.112042318689939"><ele>688.0</ele><time>2026-04-04T11:48:14Z</time></trkpt><trkpt lat="42.1202721813933" lon="13.112072958378386"><ele>688.0</ele><time>2026-04-04T11:48:15Z</time></trkpt><trkpt lat="42.119964484431385" lon="13.112070117053754"><ele>688.0</ele><time>2026-04-04T11:48:16Z</time></trkpt><trkpt lat="42.11966152563144" lon="13.111999009048143"><ele>680.5</ele><time>2026-04-04T11:48:17Z</time></trkpt><trkpt lat="42.11933811091636" lon="13.11186073357821"><ele>673.0</ele><time>2026-04-04T11:48:18Z</time></trkpt><trkpt lat="42.11899931283501" lon="13.111703072646055"><ele>676.0</ele><time>2026-04-04T11:48:19Z</time></trkpt><trkpt lat="42.118679363998176" lon="13.111571187466168"><ele>679.0</ele><time>2026-04-04T11:48:20Z</time></trkpt><trkpt lat="42.11842804101201" lon="13.11138742653126"><ele>665.0</ele><time>2026-04-04T11:48:21Z</time></trkpt><trkpt lat="42.11822613154861" lon="13.111159631937477"><ele>651.0</ele><time>2026-04-04T11:48:22Z</time></trkpt><trkpt lat="42.11805546227332" lon="13.110851665550772"><ele>652.5</ele><time>2026-04-04T11:48:23Z</time></trkpt><trkpt lat="42.117874694138116" lon="13.11047992061089"><ele>654.0</ele><time>2026-04-04T11:48:24Z</time></trkpt><trkpt lat="42.11774496207316" lon="13.110016756816288"><ele>657.0</ele><time>2026-04-04T11:48:25Z</time></trkpt><trkpt lat="42.11759859917234" lon="13.109530187724209"><ele>660.0</ele><time>2026-04-04T11:48:26Z</time></trkpt><trkpt lat="42.117449723050115" lon="13.109084070864704"><ele>650.0</ele><time>2026-04-04T11:48:27Z</time></trkpt><trkpt lat="42.117332574885765" lon="13.108673954432215"><ele>640.0</ele><time>2026-04-04T11:48:28Z</time></trkpt><trkpt lat="42.11722230641374" lon="13.108304726105054"><ele>639.5</ele><time>2026-04-04T11:48:29Z</time></trkpt><trkpt lat="42.11715782355314" lon="13.107940039438969"><ele>639.0</ele><time>2026-04-04T11:48:30Z</time></trkpt><trkpt lat="42.11714193665269" lon="13.107536156094879"><ele>638.5</ele><time>2026-04-04T11:48:31Z</time></trkpt><trkpt lat="42.11714060764071" lon="13.107067197476328"><ele>638.0</ele><time>2026-04-04T11:48:32Z</time></trkpt><trkpt lat="42.11714154823685" lon="13.106528800361957"><ele>637.5</ele><time>2026-04-04T11:48:33Z</time></trkpt><trkpt lat="42.117184694345596" lon="13.10596948080721"><ele>637.0</ele><time>2026-04-04T11:48:34Z</time></trkpt><trkpt lat="42.11727486639709" lon="13.105395916929712"><ele>636.0</ele><time>2026-04-04T11:48:35Z</time></trkpt><trkpt lat="42.11737816438991" lon="13.104843217625826"><ele>635.0</ele><time>2026-04-04T11:48:36Z</time></trkpt><trkpt lat="42.11746530968602" lon="13.104366022129835"><ele>635.0</ele><time>2026-04-04T11:48:37Z</time></trkpt><trkpt lat="42.11752080681426" lon="13.103912432155896"><ele>635.0</ele><time>2026-04-04T11:48:38Z</time></trkpt><trkpt lat="42.11752837570756" lon="13.103417914531152"><ele>635.0</ele><time>2026-04-04T11:48:39Z</time></trkpt><trkpt lat="42.11750691983763" lon="13.10287045999712"><ele>635.0</ele><time>2026-04-04T11:48:40Z</time></trkpt><trkpt lat="42.11747366001247" lon="13.102332247881893"><ele>635.5</ele><time>2026-04-04T11:48:41Z</time></trkpt><trkpt lat="42.117460493775894" lon="13.10185495535656"><ele>636.0</ele><time>2026-04-04T11:48:42Z</time></trkpt><trkpt lat="42.11745476034619" lon="13.101406706918638"><ele>634.0</ele><time>2026-04-04T11:48:43Z</time></trkpt><trkpt lat="42.11748607094471" lon="13.100975645633554"><ele>632.0</ele><time>2026-04-04T11:48:44Z</time></trkpt><trkpt lat="42.11757998748133" lon="13.100537012028575"><ele>631.0</ele><time>2026-04-04T11:48:45Z</time></trkpt><trkpt lat="42.117732448536394" lon="13.100114537416813"><ele>630.0</ele><time>2026-04-04T11:48:46Z</time></trkpt><trkpt lat="42.11793936030594" lon="13.099718024246878"><ele>629.0</ele><time>2026-04-04T11:48:47Z</time></trkpt><trkpt lat="42.11817506531542" lon="13.09936283890247"><ele>628.0</ele><time>2026-04-04T11:48:48Z</time></trkpt><trkpt lat="42.118373900641686" lon="13.09901298153179"><ele>626.5</ele><time>2026-04-04T11:48:49Z</time></trkpt><trkpt lat="42.11854914547038" lon="13.098625065062356"><ele>625.0</ele><time>2026-04-04T11:48:50Z</time></trkpt><trkpt lat="42.118690874674755" lon="13.098191733276387"><ele>624.5</ele><time>2026-04-04T11:48:51Z</time></trkpt><trkpt lat="42.11879298861279" lon="13.097722907383849"><ele>624.0</ele><time>2026-04-04T11:48:52Z</time></trkpt><trkpt lat="42.11884356496706" lon="13.097243144970511"><ele>624.0</ele><time>2026-04-04T11:48:53Z</time></trkpt><trkpt lat="42.1188561274973" lon="13.096743135890295"><ele>624.0</ele><time>2026-04-04T11:48:54Z</time></trkpt><trkpt lat="42.11886226951627" lon="13.096226096080613"><ele>624.5</ele><time>2026-04-04T11:48:55Z</time></trkpt><trkpt lat="42.11887168194884" lon="13.095730343963117"><ele>625.0</ele><time>2026-04-04T11:48:56Z</time></trkpt><trkpt lat="42.118860970832785" lon="13.09525056614502"><ele>626.5</ele><time>2026-04-04T11:48:57Z</time></trkpt><trkpt lat="42.11878929958133" lon="13.094788755290242"><ele>628.0</ele><time>2026-04-04T11:48:58Z</time></trkpt><trkpt lat="42.11868432715111" lon="13.09430669312802"><ele>629.5</ele><time>2026-04-04T11:48:59Z</time></trkpt><trkpt lat="42.118582620441465" lon="13.09382216981896"><ele>631.0</ele><time>2026-04-04T11:49:00Z</time></trkpt><trkpt lat="42.11849352806028" lon="13.093361186023333"><ele>631.5</ele><time>2026-04-04T11:49:01Z</time></trkpt><trkpt lat="42.118400416979505" lon="13.092908329937968"><ele>632.0</ele><time>2026-04-04T11:49:02Z</time></trkpt><trkpt lat="42.11833002208057" lon="13.092453618466209"><ele>633.0</ele><time>2026-04-04T11:49:03Z</time></trkpt><trkpt lat="42.11824552447076" lon="13.092009964571949"><ele>634.0</ele><time>2026-04-04T11:49:04Z</time></trkpt><trkpt lat="42.11816181851539" lon="13.091553043838644"><ele>627.5</ele><time>2026-04-04T11:49:05Z</time></trkpt><trkpt lat="42.118085985173096" lon="13.091099078285161"><ele>621.0</ele><time>2026-04-04T11:49:06Z</time></trkpt><trkpt lat="42.117997505024476" lon="13.09066935107447"><ele>620.5</ele><time>2026-04-04T11:49:07Z</time></trkpt><trkpt lat="42.117877662824974" lon="13.090247544025463"><ele>620.0</ele><time>2026-04-04T11:49:08Z</time></trkpt><trkpt lat="42.11771161066719" lon="13.089822218851193"><ele>620.0</ele><time>2026-04-04T11:49:09Z</time></trkpt><trkpt lat="42.11752739032005" lon="13.08938664131083"><ele>620.0</ele><time>2026-04-04T11:49:10Z</time></trkpt><trkpt lat="42.11735129682641" lon="13.088944028892154"><ele>620.0</ele><time>2026-04-04T11:49:11Z</time></trkpt><trkpt lat="42.11718443258683" lon="13.08850518339114"><ele>620.0</ele><time>2026-04-04T11:49:12Z</time></trkpt><trkpt lat="42.117015001370774" lon="13.088069411329615"><ele>620.5</ele><time>2026-04-04T11:49:13Z</time></trkpt><trkpt lat="42.11684100421495" lon="13.087627557657738"><ele>621.0</ele><time>2026-04-04T11:49:14Z</time></trkpt><trkpt lat="42.116668077663476" lon="13.087169594513313"><ele>621.5</ele><time>2026-04-04T11:49:15Z</time></trkpt><trkpt lat="42.11649914772171" lon="13.086711761154632"><ele>622.0</ele><time>2026-04-04T11:49:16Z</time></trkpt><trkpt lat="42.116330461394114" lon="13.086270113920845"><ele>622.0</ele><time>2026-04-04T11:49:17Z</time></trkpt><trkpt lat="42.11616783666521" lon="13.085852296178944"><ele>622.0</ele><time>2026-04-04T11:49:18Z</time></trkpt><trkpt lat="42.11600539356734" lon="13.085446674406718"><ele>622.0</ele><time>2026-04-04T11:49:19Z</time></trkpt><trkpt lat="42.11582863967735" lon="13.085072231194511"><ele>622.0</ele><time>2026-04-04T11:49:20Z</time></trkpt><trkpt lat="42.11561179161266" lon="13.084729404838106"><ele>622.0</ele><time>2026-04-04T11:49:21Z</time></trkpt><trkpt lat="42.115348129853494" lon="13.084441939899108"><ele>622.0</ele><time>2026-04-04T11:49:22Z</time></trkpt><trkpt lat="42.11503634623258" lon="13.084181573801"><ele>621.0</ele><time>2026-04-04T11:49:23Z</time></trkpt><trkpt lat="42.11469821698628" lon="13.083933096279425"><ele>620.0</ele><time>2026-04-04T11:49:24Z</time></trkpt><trkpt lat="42.11435916106278" lon="13.083698892178406"><ele>617.5</ele><time>2026-04-04T11:49:25Z</time></trkpt><trkpt lat="42.11402949223666" lon="13.083488179654772"><ele>615.0</ele><time>2026-04-04T11:49:26Z</time></trkpt><trkpt lat="42.1136957037411" lon="13.083336194635452"><ele>618.5</ele><time>2026-04-04T11:49:27Z</time></trkpt><trkpt lat="42.11332664628866" lon="13.08324787789876"><ele>622.0</ele><time>2026-04-04T11:49:28Z</time></trkpt><trkpt lat="42.11293501245129" lon="13.083207421680658"><ele>622.5</ele><time>2026-04-04T11:49:29Z</time></trkpt><trkpt lat="42.11254670600381" lon="13.083225349165328"><ele>623.0</ele><time>2026-04-04T11:49:30Z</time></trkpt><trkpt lat="42.112160284666004" lon="13.083273135697045"><ele>623.0</ele><time>2026-04-04T11:49:31Z</time></trkpt><trkpt lat="42.11176638378698" lon="13.08331104628159"><ele>623.0</ele><time>2026-04-04T11:49:32Z</time></trkpt><trkpt lat="42.111350248288424" lon="13.083334477415438"><ele>624.5</ele><time>2026-04-04T11:49:33Z</time></trkpt><trkpt lat="42.11092541439398" lon="13.083339563671087"><ele>626.0</ele><time>2026-04-04T11:49:34Z</time></trkpt><trkpt lat="42.11049920629652" lon="13.083335199906482"><ele>626.0</ele><time>2026-04-04T11:49:35Z</time></trkpt><trkpt lat="42.11008222104727" lon="13.083347574132722"><ele>626.0</ele><time>2026-04-04T11:49:36Z</time></trkpt><trkpt lat="42.109672437098446" lon="13.083391574301698"><ele>624.0</ele><time>2026-04-04T11:49:37Z</time></trkpt><trkpt lat="42.10926783933821" lon="13.083458352027884"><ele>622.0</ele><time>2026-04-04T11:49:38Z</time></trkpt><trkpt lat="42.108849451338834" lon="13.083509908927995"><ele>622.0</ele><time>2026-04-04T11:49:39Z</time></trkpt><trkpt lat="42.10844621225471" lon="13.083549222672552"><ele>622.0</ele><time>2026-04-04T11:49:40Z</time></trkpt><trkpt lat="42.10808189356123" lon="13.083537482592702"><ele>621.5</ele><time>2026-04-04T11:49:41Z</time></trkpt><trkpt lat="42.10772011452611" lon="13.08344183134813"><ele>621.0</ele><time>2026-04-04T11:49:42Z</time></trkpt><trkpt lat="42.10737182837165" lon="13.08332387340109"><ele>620.0</ele><time>2026-04-04T11:49:43Z</time></trkpt><trkpt lat="42.10702033470221" lon="13.083267715462556"><ele>619.0</ele><time>2026-04-04T11:49:44Z</time></trkpt><trkpt lat="42.10669885550985" lon="13.0832872655322"><ele>620.5</ele><time>2026-04-04T11:49:45Z</time></trkpt><trkpt lat="42.10640013734803" lon="13.083336677859103"><ele>622.0</ele><time>2026-04-04T11:49:46Z</time></trkpt><trkpt lat="42.106123845558756" lon="13.08339295330749"><ele>622.0</ele><time>2026-04-04T11:49:47Z</time></trkpt><trkpt lat="42.105869296850884" lon="13.083458848968348"><ele>622.0</ele><time>2026-04-04T11:49:48Z</time></trkpt><trkpt lat="42.10564127872398" lon="13.083537925988683"><ele>626.0</ele><time>2026-04-04T11:49:49Z</time></trkpt><trkpt lat="42.10543223717218" lon="13.083634585311204"><ele>630.0</ele><time>2026-04-04T11:49:50Z</time></trkpt><trkpt lat="42.10525332083636" lon="13.083752229546233"><ele>634.0</ele><time>2026-04-04T11:49:51Z</time></trkpt><trkpt lat="42.10509604538392" lon="13.083871160524225"><ele>634.0</ele><time>2026-04-04T11:49:52Z</time></trkpt><trkpt lat="42.10495195859131" lon="13.083982496931561"><ele>634.0</ele><time>2026-04-04T11:49:53Z</time></trkpt><trkpt lat="42.104824426130534" lon="13.08407535845557"><ele>634.0</ele><time>2026-04-04T11:49:54Z</time></trkpt><trkpt lat="42.104713611377925" lon="13.084138811558626"><ele>634.0</ele><time>2026-04-04T11:49:55Z</time></trkpt><trkpt lat="42.10461201341938" lon="13.084199099843417"><ele>632.3333333333334</ele><time>2026-04-04T11:49:56Z</time></trkpt><trkpt lat="42.10453571845783" lon="13.084256681303764"><ele>630.6666666666667</ele><time>2026-04-04T11:49:57Z</time></trkpt><trkpt lat="42.10447806954315" lon="13.084292463012407"><ele>629.0</ele><time>2026-04-04T11:49:58Z</time></trkpt><trkpt lat="42.10441750663714" lon="13.084345818574993"><ele>627.3333333333334</ele><time>2026-04-04T11:53:59Z</time></trkpt><trkpt lat="42.10434419332916" lon="13.084405128192893"><ele>625.6666666666666</ele><time>2026-04-04T11:54:01Z</time></trkpt><trkpt lat="42.10428003614308" lon="13.084445131212714"><ele>624.0</ele><time>2026-04-04T11:54:02Z</time></trkpt><trkpt lat="42.10420583301113" lon="13.084480638853968"><ele>624.0</ele><time>2026-04-04T11:54:03Z</time></trkpt><trkpt lat="42.10411974892127" lon="13.08451963818814"><ele>624.0</ele><time>2026-04-04T11:54:04Z</time></trkpt><trkpt lat="42.10402771656038" lon="13.084556757850622"><ele>624.0</ele><time>2026-04-04T11:54:05Z</time></trkpt><trkpt lat="42.10392057110361" lon="13.08459394607602"><ele>624.0</ele><time>2026-04-04T11:54:06Z</time></trkpt><trkpt lat="42.103800671627695" lon="13.084624429703712"><ele>624.0</ele><time>2026-04-04T11:54:07Z</time></trkpt><trkpt lat="42.10367074778306" lon="13.0846386341158"><ele>624.3333333333334</ele><time>2026-04-04T11:54:08Z</time></trkpt><trkpt lat="42.10353288616934" lon="13.084671179109932"><ele>624.6666666666667</ele><time>2026-04-04T11:54:09Z</time></trkpt><trkpt lat="42.10338305150827" lon="13.084683307526833"><ele>625.0</ele><time>2026-04-04T11:54:10Z</time></trkpt><trkpt lat="42.103223194482965" lon="13.084682774662545"><ele>623.0</ele><time>2026-04-04T11:54:11Z</time></trkpt><trkpt lat="42.10305293653115" lon="13.084662593120836"><ele>621.0</ele><time>2026-04-04T11:54:12Z</time></trkpt><trkpt lat="42.10288302866821" lon="13.084616797654462"><ele>619.0</ele><time>2026-04-04T11:54:13Z</time></trkpt><trkpt lat="42.10271686660675" lon="13.08455361452205"><ele>619.0</ele><time>2026-04-04T11:54:14Z</time></trkpt><trkpt lat="42.10253941827549" lon="13.084475694938645"><ele>619.0</ele><time>2026-04-04T11:54:15Z</time></trkpt><trkpt lat="42.10236784929417" lon="13.084384267621529"><ele>619.0</ele><time>2026-04-04T11:54:16Z</time></trkpt><trkpt lat="42.10219812776468" lon="13.084285004653626"><ele>619.0</ele><time>2026-04-04T11:54:17Z</time></trkpt><trkpt lat="42.1020241417094" lon="13.08418564433782"><ele>619.0</ele><time>2026-04-04T11:54:18Z</time></trkpt><trkpt lat="42.10184319202908" lon="13.08409502175264"><ele>619.0</ele><time>2026-04-04T11:54:19Z</time></trkpt><trkpt lat="42.101657997252296" lon="13.08403417931866"><ele>619.3333333333334</ele><time>2026-04-04T11:54:20Z</time></trkpt><trkpt lat="42.10148306715872" lon="13.083999999508169"><ele>619.6666666666666</ele><time>2026-04-04T11:54:21Z</time></trkpt><trkpt lat="42.10128485883106" lon="13.083997417591162"><ele>620.0</ele><time>2026-04-04T11:54:22Z</time></trkpt><trkpt lat="42.10109039825377" lon="13.084004135771929"><ele>620.0</ele><time>2026-04-04T11:54:23Z</time></trkpt><trkpt lat="42.10088202794487" lon="13.083991905825895"><ele>620.0</ele><time>2026-04-04T11:54:24Z</time></trkpt><trkpt lat="42.10069748335895" lon="13.08401666830443"><ele>620.0</ele><time>2026-04-04T11:54:25Z</time></trkpt><trkpt lat="42.100502968738546" lon="13.0840171638102"><ele>619.3333333333333</ele><time>2026-04-04T11:54:26Z</time></trkpt><trkpt lat="42.10030135768483" lon="13.08401403433488"><ele>618.6666666666666</ele><time>2026-04-04T11:54:27Z</time></trkpt><trkpt lat="42.10009596002887" lon="13.084003151323646"><ele>618.0</ele><time>2026-04-04T11:54:28Z</time></trkpt><trkpt lat="42.09991248369705" lon="13.083947048284736"><ele>615.0</ele><time>2026-04-04T11:54:29Z</time></trkpt><trkpt lat="42.09972360505071" lon="13.083855376780077"><ele>612.0</ele><time>2026-04-04T11:54:30Z</time></trkpt><trkpt lat="42.09955023884243" lon="13.08369860658154"><ele>609.0</ele><time>2026-04-04T11:54:31Z</time></trkpt><trkpt lat="42.09937484660769" lon="13.083546216642658"><ele>609.0</ele><time>2026-04-04T11:54:32Z</time></trkpt><trkpt lat="42.09919245907646" lon="13.0833976731845"><ele>609.0</ele><time>2026-04-04T11:54:33Z</time></trkpt><trkpt lat="42.09901553169318" lon="13.083208830052518"><ele>609.0</ele><time>2026-04-04T11:54:34Z</time></trkpt><trkpt lat="42.09884178648111" lon="13.083011126087483"><ele>608.0</ele><time>2026-04-04T11:54:35Z</time></trkpt><trkpt lat="42.09866266549633" lon="13.082817612079666"><ele>607.0</ele><time>2026-04-04T11:54:36Z</time></trkpt><trkpt lat="42.098485560893174" lon="13.082644475026093"><ele>606.0</ele><time>2026-04-04T11:54:37Z</time></trkpt><trkpt lat="42.09831948260329" lon="13.08248159154555"><ele>604.6666666666666</ele><time>2026-04-04T11:54:38Z</time></trkpt><trkpt lat="42.09817594833712" lon="13.082339061260088"><ele>603.3333333333333</ele><time>2026-04-04T11:54:39Z</time></trkpt><trkpt lat="42.09805976095094" lon="13.08221840824362"><ele>602.0</ele><time>2026-04-04T11:54:40Z</time></trkpt><trkpt lat="42.09795705176374" lon="13.082113825622704"><ele>602.0</ele><time>2026-04-04T11:54:41Z</time></trkpt><trkpt lat="42.097851112737146" lon="13.082002199986631"><ele>602.0</ele><time>2026-04-04T11:54:42Z</time></trkpt><trkpt lat="42.097710007190216" lon="13.081852921574782"><ele>602.0</ele><time>2026-04-04T11:54:43Z</time></trkpt><trkpt lat="42.09751860194798" lon="13.081666229106684"><ele>602.0</ele><time>2026-04-04T11:54:44Z</time></trkpt><trkpt lat="42.09730601166957" lon="13.08144319548147"><ele>602.0</ele><time>2026-04-04T11:54:45Z</time></trkpt><trkpt lat="42.09711975375779" lon="13.081202205212369"><ele>602.0</ele><time>2026-04-04T11:54:46Z</time></trkpt><trkpt lat="42.096955155503736" lon="13.080937556498164"><ele>602.0</ele><time>2026-04-04T11:54:47Z</time></trkpt><trkpt lat="42.09679384966413" lon="13.080654829305015"><ele>602.0</ele><time>2026-04-04T11:54:48Z</time></trkpt><trkpt lat="42.09663424363258" lon="13.080374733437038"><ele>602.0</ele><time>2026-04-04T11:54:49Z</time></trkpt><trkpt lat="42.096478157951225" lon="13.080100564751246"><ele>605.0</ele><time>2026-04-04T11:54:50Z</time></trkpt><trkpt lat="42.09631923716592" lon="13.079822821845628"><ele>608.0</ele><time>2026-04-04T11:54:51Z</time></trkpt><trkpt lat="42.09611872728281" lon="13.079543544235309"><ele>608.0</ele><time>2026-04-04T11:54:52Z</time></trkpt><trkpt lat="42.09589501192349" lon="13.079291123678564"><ele>608.0</ele><time>2026-04-04T11:54:53Z</time></trkpt><trkpt lat="42.095644279647864" lon="13.079074220740274"><ele>608.5</ele><time>2026-04-04T11:54:54Z</time></trkpt><trkpt lat="42.09537825473304" lon="13.078877458275784"><ele>609.0</ele><time>2026-04-04T11:54:55Z</time></trkpt><trkpt lat="42.09510892201231" lon="13.078681533464248"><ele>606.5</ele><time>2026-04-04T11:54:56Z</time></trkpt><trkpt lat="42.09486838194392" lon="13.078493567360415"><ele>604.0</ele><time>2026-04-04T11:54:57Z</time></trkpt><trkpt lat="42.09465963280485" lon="13.078318222506867"><ele>608.5</ele><time>2026-04-04T11:54:58Z</time></trkpt><trkpt lat="42.094460612220715" lon="13.078129199571107"><ele>613.0</ele><time>2026-04-04T11:54:59Z</time></trkpt><trkpt lat="42.09427668035885" lon="13.077914478804875"><ele>613.0</ele><time>2026-04-04T11:55:00Z</time></trkpt><trkpt lat="42.09410811818697" lon="13.077659299522251"><ele>613.0</ele><time>2026-04-04T11:55:01Z</time></trkpt><trkpt lat="42.09395901690977" lon="13.077375549985037"><ele>607.5</ele><time>2026-04-04T11:55:02Z</time></trkpt><trkpt lat="42.0938226842336" lon="13.0770752934962"><ele>602.0</ele><time>2026-04-04T11:55:03Z</time></trkpt><trkpt lat="42.09371959522616" lon="13.076775960417379"><ele>601.5</ele><time>2026-04-04T11:55:04Z</time></trkpt><trkpt lat="42.09367476341939" lon="13.076449398498436"><ele>601.0</ele><time>2026-04-04T11:55:05Z</time></trkpt><trkpt lat="42.09364192736603" lon="13.076108916741525"><ele>600.0</ele><time>2026-04-04T11:55:06Z</time></trkpt><trkpt lat="42.09364628815105" lon="13.075747015176246"><ele>599.0</ele><time>2026-04-04T11:55:07Z</time></trkpt><trkpt lat="42.09366286033967" lon="13.075366004202305"><ele>599.0</ele><time>2026-04-04T11:55:08Z</time></trkpt><trkpt lat="42.09368251105464" lon="13.074975461638822"><ele>599.0</ele><time>2026-04-04T11:55:09Z</time></trkpt><trkpt lat="42.093689100818644" lon="13.074581936411425"><ele>599.0</ele><time>2026-04-04T11:55:10Z</time></trkpt><trkpt lat="42.09371837801003" lon="13.074184491929701"><ele>599.0</ele><time>2026-04-04T11:55:11Z</time></trkpt><trkpt lat="42.09374973243906" lon="13.073794722438686"><ele>599.0</ele><time>2026-04-04T11:55:12Z</time></trkpt><trkpt lat="42.093769408988564" lon="13.073409967048821"><ele>599.0</ele><time>2026-04-04T11:55:13Z</time></trkpt><trkpt lat="42.093772760527735" lon="13.073035922010014"><ele>599.0</ele><time>2026-04-04T11:55:14Z</time></trkpt><trkpt lat="42.09374078970488" lon="13.072686402336382"><ele>599.0</ele><time>2026-04-04T11:55:15Z</time></trkpt><trkpt lat="42.09366146269047" lon="13.072347201296157"><ele>598.0</ele><time>2026-04-04T11:55:16Z</time></trkpt><trkpt lat="42.093527232111576" lon="13.072035141427975"><ele>597.0</ele><time>2026-04-04T11:55:17Z</time></trkpt><trkpt lat="42.093369378306" lon="13.071762136426345"><ele>594.5</ele><time>2026-04-04T11:55:18Z</time></trkpt><trkpt lat="42.093186785070195" lon="13.071485813134867"><ele>592.0</ele><time>2026-04-04T11:55:19Z</time></trkpt><trkpt lat="42.093010738746074" lon="13.071215482118376"><ele>592.0</ele><time>2026-04-04T11:55:20Z</time></trkpt><trkpt lat="42.092839858859" lon="13.070941150141959"><ele>592.0</ele><time>2026-04-04T11:55:21Z</time></trkpt><trkpt lat="42.09269649414779" lon="13.070710593436553"><ele>591.3333333333334</ele><time>2026-04-04T11:55:22Z</time></trkpt><trkpt lat="42.09256504560004" lon="13.070504977492945"><ele>590.6666666666666</ele><time>2026-04-04T11:55:23Z</time></trkpt><trkpt lat="42.09244499748558" lon="13.070328342116428"><ele>590.0</ele><time>2026-04-04T11:55:24Z</time></trkpt><trkpt lat="42.092312878503925" lon="13.070155295860065"><ele>589.6666666666666</ele><time>2026-04-04T11:55:25Z</time></trkpt><trkpt lat="42.09216692418083" lon="13.069959969548837"><ele>589.3333333333334</ele><time>2026-04-04T11:55:26Z</time></trkpt><trkpt lat="42.09202657218673" lon="13.06970406882971"><ele>589.0</ele><time>2026-04-04T11:55:27Z</time></trkpt><trkpt lat="42.091895954561494" lon="13.069405902375808"><ele>590.0</ele><time>2026-04-04T11:55:28Z</time></trkpt><trkpt lat="42.09175589803386" lon="13.069100069957928"><ele>591.0</ele><time>2026-04-04T11:55:29Z</time></trkpt><trkpt lat="42.09160039567807" lon="13.068799567715617"><ele>589.0</ele><time>2026-04-04T11:55:30Z</time></trkpt><trkpt lat="42.09144099270328" lon="13.068499400574737"><ele>587.0</ele><time>2026-04-04T11:55:31Z</time></trkpt><trkpt lat="42.09128156418107" lon="13.06819257267591"><ele>587.0</ele><time>2026-04-04T11:55:32Z</time></trkpt><trkpt lat="42.09111977016714" lon="13.06788826689985"><ele>587.0</ele><time>2026-04-04T11:55:33Z</time></trkpt><trkpt lat="42.09095429147476" lon="13.067597011789823"><ele>586.5</ele><time>2026-04-04T11:55:34Z</time></trkpt><trkpt lat="42.09075873057133" lon="13.067331323909508"><ele>586.0</ele><time>2026-04-04T11:55:35Z</time></trkpt><trkpt lat="42.09051854944651" lon="13.0671163979308"><ele>585.5</ele><time>2026-04-04T11:55:36Z</time></trkpt><trkpt lat="42.09025753919807" lon="13.066936397495637"><ele>585.0</ele><time>2026-04-04T11:55:37Z</time></trkpt><trkpt lat="42.09001511536352" lon="13.066773315908234"><ele>585.0</ele><time>2026-04-04T11:55:38Z</time></trkpt><trkpt lat="42.08978476868746" lon="13.066613333521659"><ele>585.0</ele><time>2026-04-04T11:55:39Z</time></trkpt><trkpt lat="42.08954666228109" lon="13.06645640035012"><ele>584.0</ele><time>2026-04-04T11:55:40Z</time></trkpt><trkpt lat="42.08931581402512" lon="13.066312799391318"><ele>583.0</ele><time>2026-04-04T11:55:41Z</time></trkpt><trkpt lat="42.08911739994316" lon="13.06619492081148"><ele>583.6666666666667</ele><time>2026-04-04T11:55:42Z</time></trkpt><trkpt lat="42.08892608825049" lon="13.066068617383257"><ele>584.3333333333334</ele><time>2026-04-04T11:55:43Z</time></trkpt><trkpt lat="42.08873236432603" lon="13.065938844297518"><ele>585.0</ele><time>2026-04-04T11:55:44Z</time></trkpt><trkpt lat="42.08854613094624" lon="13.065816730245395"><ele>585.3333333333334</ele><time>2026-04-04T11:55:45Z</time></trkpt><trkpt lat="42.08837811513339" lon="13.06570412415484"><ele>585.6666666666667</ele><time>2026-04-04T11:55:46Z</time></trkpt><trkpt lat="42.08822922584513" lon="13.065600661291695"><ele>586.0</ele><time>2026-04-04T11:55:47Z</time></trkpt><trkpt lat="42.088075308101075" lon="13.06549203182976"><ele>586.6666666666667</ele><time>2026-04-04T11:55:48Z</time></trkpt><trkpt lat="42.08791031383574" lon="13.065377788181506"><ele>587.3333333333334</ele><time>2026-04-04T11:55:49Z</time></trkpt><trkpt lat="42.087733056998" lon="13.065256266632286"><ele>588.0</ele><time>2026-04-04T11:55:50Z</time></trkpt><trkpt lat="42.08754834358941" lon="13.06512495146727"><ele>588.3333333333334</ele><time>2026-04-04T11:55:51Z</time></trkpt><trkpt lat="42.08736824344117" lon="13.064980187740897"><ele>588.6666666666667</ele><time>2026-04-04T11:55:52Z</time></trkpt><trkpt lat="42.08718361444559" lon="13.064818649975445"><ele>589.0</ele><time>2026-04-04T11:55:53Z</time></trkpt><trkpt lat="42.087007570058994" lon="13.064659535984823"><ele>589.3333333333334</ele><time>2026-04-04T11:55:54Z</time></trkpt><trkpt lat="42.08684020485895" lon="13.064502244987594"><ele>589.6666666666666</ele><time>2026-04-04T11:55:55Z</time></trkpt><trkpt lat="42.08667148495474" lon="13.06433917688602"><ele>590.0</ele><time>2026-04-04T11:55:56Z</time></trkpt><trkpt lat="42.08650784086574" lon="13.064183581042851"><ele>590.3333333333333</ele><time>2026-04-04T11:55:57Z</time></trkpt><trkpt lat="42.08635615416939" lon="13.064039197161522"><ele>590.6666666666666</ele><time>2026-04-04T11:55:58Z</time></trkpt><trkpt lat="42.08621851702312" lon="13.063909059146399"><ele>591.0</ele><time>2026-04-04T11:55:59Z</time></trkpt><trkpt lat="42.08608076259709" lon="13.063781699786079"><ele>591.0</ele><time>2026-04-04T11:56:00Z</time></trkpt><trkpt lat="42.08594275920386" lon="13.063653736067863"><ele>591.0</ele><time>2026-04-04T11:56:01Z</time></trkpt><trkpt lat="42.08579536258988" lon="13.063519172260479"><ele>591.0</ele><time>2026-04-04T11:56:02Z</time></trkpt><trkpt lat="42.08564361156346" lon="13.063378603558188"><ele>591.0</ele><time>2026-04-04T11:56:03Z</time></trkpt><trkpt lat="42.08548680695487" lon="13.063228511579705"><ele>591.0</ele><time>2026-04-04T11:56:04Z</time></trkpt><trkpt lat="42.08533192865727" lon="13.06308149769964"><ele>591.0</ele><time>2026-04-04T11:56:05Z</time></trkpt><trkpt lat="42.08517417087355" lon="13.062933030476467"><ele>591.0</ele><time>2026-04-04T11:56:06Z</time></trkpt><trkpt lat="42.08501088493461" lon="13.062782139462287"><ele>591.0</ele><time>2026-04-04T11:56:07Z</time></trkpt><trkpt lat="42.08484358470154" lon="13.062626411600258"><ele>591.0</ele><time>2026-04-04T11:56:08Z</time></trkpt><trkpt lat="42.08469503237879" lon="13.062487555300379"><ele>591.0</ele><time>2026-04-04T11:56:09Z</time></trkpt><trkpt lat="42.08454700627267" lon="13.062351300475385"><ele>591.0</ele><time>2026-04-04T11:56:10Z</time></trkpt><trkpt lat="42.084399992849725" lon="13.062212267114194"><ele>591.0</ele><time>2026-04-04T11:56:11Z</time></trkpt><trkpt lat="42.08424162828289" lon="13.062067744490314"><ele>591.3333333333334</ele><time>2026-04-04T11:56:12Z</time></trkpt><trkpt lat="42.08408182715024" lon="13.06191704941929"><ele>591.6666666666667</ele><time>2026-04-04T11:56:13Z</time></trkpt><trkpt lat="42.08391497061784" lon="13.061761450785784"><ele>592.0</ele><time>2026-04-04T11:56:14Z</time></trkpt><trkpt lat="42.08374754865008" lon="13.061599200785299"><ele>592.0</ele><time>2026-04-04T11:56:15Z</time></trkpt><trkpt lat="42.08358023483118" lon="13.061432822701716"><ele>592.0</ele><time>2026-04-04T11:56:16Z</time></trkpt><trkpt lat="42.083414046499634" lon="13.061266016992189"><ele>592.0</ele><time>2026-04-04T11:56:17Z</time></trkpt><trkpt lat="42.083245484218544" lon="13.061109536539846"><ele>593.0</ele><time>2026-04-04T11:56:18Z</time></trkpt><trkpt lat="42.08309455486363" lon="13.060964469327349"><ele>594.0</ele><time>2026-04-04T11:56:19Z</time></trkpt><trkpt lat="42.08294869668243" lon="13.0608137700964"><ele>595.0</ele><time>2026-04-04T11:56:20Z</time></trkpt><trkpt lat="42.082786490532754" lon="13.06065987962905"><ele>595.0</ele><time>2026-04-04T11:56:21Z</time></trkpt><trkpt lat="42.082615705267266" lon="13.060493175816903"><ele>595.0</ele><time>2026-04-04T11:56:22Z</time></trkpt><trkpt lat="42.08245168945103" lon="13.060332458479829"><ele>595.0</ele><time>2026-04-04T11:56:23Z</time></trkpt><trkpt lat="42.082274937391595" lon="13.06016790292178"><ele>594.6666666666667</ele><time>2026-04-04T11:56:24Z</time></trkpt><trkpt lat="42.08210835949923" lon="13.060007718760778"><ele>594.3333333333334</ele><time>2026-04-04T11:56:25Z</time></trkpt><trkpt lat="42.08194405772614" lon="13.059848872051234"><ele>594.0</ele><time>2026-04-04T11:56:26Z</time></trkpt><trkpt lat="42.081793914247406" lon="13.05970694146754"><ele>594.0</ele><time>2026-04-04T11:56:27Z</time></trkpt><trkpt lat="42.0816375944716" lon="13.05956533504821"><ele>594.0</ele><time>2026-04-04T11:56:28Z</time></trkpt><trkpt lat="42.081494714736664" lon="13.05943588759228"><ele>594.0</ele><time>2026-04-04T11:56:29Z</time></trkpt><trkpt lat="42.08137099817169" lon="13.059308941161927"><ele>594.75</ele><time>2026-04-04T11:56:30Z</time></trkpt><trkpt lat="42.08126798942281" lon="13.05917895912337"><ele>595.5</ele><time>2026-04-04T11:56:31Z</time></trkpt><trkpt lat="42.0811976540483" lon="13.059041371873358"><ele>596.25</ele><time>2026-04-04T11:56:32Z</time></trkpt><trkpt lat="42.081172530658975" lon="13.058888715986571"><ele>597.0</ele><time>2026-04-04T11:56:33Z</time></trkpt><trkpt lat="42.08119434238601" lon="13.058738814608738"><ele>597.0</ele><time>2026-04-04T11:56:34Z</time></trkpt><trkpt lat="42.08124629723622" lon="13.058597154278836"><ele>597.0</ele><time>2026-04-04T11:56:35Z</time></trkpt><trkpt lat="42.08128415414316" lon="13.058450919513641"><ele>597.0</ele><time>2026-04-04T11:56:36Z</time></trkpt><trkpt lat="42.08127598219275" lon="13.05829200480366"><ele>597.0</ele><time>2026-04-04T11:56:37Z</time></trkpt><trkpt lat="42.08122526489991" lon="13.058128421719012"><ele>596.75</ele><time>2026-04-04T11:56:38Z</time></trkpt><trkpt lat="42.08113824925104" lon="13.057986972044244"><ele>596.5</ele><time>2026-04-04T11:56:39Z</time></trkpt><trkpt lat="42.08102144025771" lon="13.05786245825808"><ele>596.25</ele><time>2026-04-04T11:56:40Z</time></trkpt><trkpt lat="42.08088557354528" lon="13.057752284519038"><ele>596.0</ele><time>2026-04-04T11:56:41Z</time></trkpt><trkpt lat="42.08074353335441" lon="13.05764132919332"><ele>596.0</ele><time>2026-04-04T11:56:42Z</time></trkpt><trkpt lat="42.08060819404111" lon="13.057528740216497"><ele>596.0</ele><time>2026-04-04T11:56:43Z</time></trkpt><trkpt lat="42.08046309582344" lon="13.057407251383003"><ele>596.0</ele><time>2026-04-04T11:56:44Z</time></trkpt><trkpt lat="42.08032257776399" lon="13.057285666710488"><ele>596.0</ele><time>2026-04-04T11:56:45Z</time></trkpt><trkpt lat="42.08018357016481" lon="13.057177710560186"><ele>596.0</ele><time>2026-04-04T11:56:46Z</time></trkpt><trkpt lat="42.08005572222839" lon="13.05712109277411"><ele>596.0</ele><time>2026-04-04T11:56:47Z</time></trkpt><trkpt lat="42.079933505100655" lon="13.057119351841902"><ele>596.0</ele><time>2026-04-04T11:56:48Z</time></trkpt><trkpt lat="42.07979655741357" lon="13.057157439732045"><ele>596.6666666666666</ele><time>2026-04-04T11:56:49Z</time></trkpt><trkpt lat="42.07965302722765" lon="13.057193652388614"><ele>597.3333333333334</ele><time>2026-04-04T11:56:50Z</time></trkpt><trkpt lat="42.07950352218371" lon="13.05716700679955"><ele>598.0</ele><time>2026-04-04T11:56:51Z</time></trkpt><trkpt lat="42.079343576760756" lon="13.057062600132296"><ele>598.0</ele><time>2026-04-04T11:56:52Z</time></trkpt><trkpt lat="42.079182736222364" lon="13.056961372727292"><ele>598.0</ele><time>2026-04-04T11:56:53Z</time></trkpt><trkpt lat="42.07900829820889" lon="13.056927947941634"><ele>598.0</ele><time>2026-04-04T11:56:54Z</time></trkpt><trkpt lat="42.07880495078075" lon="13.056919301592556"><ele>598.0</ele><time>2026-04-04T11:56:55Z</time></trkpt><trkpt lat="42.078608714534305" lon="13.056847879193679"><ele>598.0</ele><time>2026-04-04T11:56:56Z</time></trkpt><trkpt lat="42.07842300238767" lon="13.056706577777282"><ele>598.0</ele><time>2026-04-04T11:56:57Z</time></trkpt><trkpt lat="42.07825492044211" lon="13.056537844581019"><ele>598.6666666666667</ele><time>2026-04-04T11:56:58Z</time></trkpt><trkpt lat="42.078081937023306" lon="13.056361845604137"><ele>599.3333333333334</ele><time>2026-04-04T11:56:59Z</time></trkpt><trkpt lat="42.07790491256575" lon="13.056183489630001"><ele>600.0</ele><time>2026-04-04T11:57:00Z</time></trkpt><trkpt lat="42.07772337542022" lon="13.056012701376002"><ele>600.0</ele><time>2026-04-04T11:57:01Z</time></trkpt><trkpt lat="42.07753523567472" lon="13.055838368725283"><ele>600.0</ele><time>2026-04-04T11:57:02Z</time></trkpt><trkpt lat="42.07734870069888" lon="13.055662734511255"><ele>599.6666666666666</ele><time>2026-04-04T11:57:03Z</time></trkpt><trkpt lat="42.07716648592313" lon="13.055490934650434"><ele>599.3333333333333</ele><time>2026-04-04T11:57:04Z</time></trkpt><trkpt lat="42.0769876897156" lon="13.055322664582317"><ele>599.0</ele><time>2026-04-04T11:57:05Z</time></trkpt><trkpt lat="42.07680460468776" lon="13.055163112986769"><ele>599.0</ele><time>2026-04-04T11:57:06Z</time></trkpt><trkpt lat="42.07661884055079" lon="13.054995866545406"><ele>599.0</ele><time>2026-04-04T11:57:07Z</time></trkpt><trkpt lat="42.076432124767685" lon="13.054817970345297"><ele>601.5</ele><time>2026-04-04T11:57:08Z</time></trkpt><trkpt lat="42.076242072170494" lon="13.054634893051363"><ele>604.0</ele><time>2026-04-04T11:57:09Z</time></trkpt><trkpt lat="42.076056271043576" lon="13.054447298226773"><ele>604.0</ele><time>2026-04-04T11:57:10Z</time></trkpt><trkpt lat="42.07587241424257" lon="13.054263667784449"><ele>604.0</ele><time>2026-04-04T11:57:11Z</time></trkpt><trkpt lat="42.075688136664795" lon="13.054083698918417"><ele>604.0</ele><time>2026-04-04T11:57:12Z</time></trkpt><trkpt lat="42.07550409224311" lon="13.053908012933226"><ele>604.0</ele><time>2026-04-04T11:57:13Z</time></trkpt><trkpt lat="42.075324732390605" lon="13.05373676484828"><ele>604.0</ele><time>2026-04-04T11:57:14Z</time></trkpt><trkpt lat="42.07514066991879" lon="13.053559721381566"><ele>604.0</ele><time>2026-04-04T11:57:15Z</time></trkpt><trkpt lat="42.07495288592375" lon="13.053380201347473"><ele>604.0</ele><time>2026-04-04T11:57:16Z</time></trkpt><trkpt lat="42.074766670203076" lon="13.053203287287026"><ele>604.5</ele><time>2026-04-04T11:57:17Z</time></trkpt><trkpt lat="42.07457714899571" lon="13.05302446995584"><ele>605.0</ele><time>2026-04-04T11:57:18Z</time></trkpt><trkpt lat="42.07438398654621" lon="13.052846618256876"><ele>605.0</ele><time>2026-04-04T11:57:19Z</time></trkpt><trkpt lat="42.07418710976952" lon="13.052659799749403"><ele>605.0</ele><time>2026-04-04T11:57:20Z</time></trkpt><trkpt lat="42.07399186950183" lon="13.05246998230295"><ele>606.0</ele><time>2026-04-04T11:57:21Z</time></trkpt><trkpt lat="42.07379904021749" lon="13.052281495178901"><ele>607.0</ele><time>2026-04-04T11:57:22Z</time></trkpt><trkpt lat="42.073617893242044" lon="13.052108003357269"><ele>607.0</ele><time>2026-04-04T11:57:23Z</time></trkpt><trkpt lat="42.07343838700328" lon="13.051939346453043"><ele>607.0</ele><time>2026-04-04T11:57:24Z</time></trkpt><trkpt lat="42.07327208497586" lon="13.051780819825796"><ele>607.0</ele><time>2026-04-04T11:57:25Z</time></trkpt><trkpt lat="42.07310269700427" lon="13.051622341738344"><ele>606.6666666666667</ele><time>2026-04-04T11:57:26Z</time></trkpt><trkpt lat="42.07293128961057" lon="13.051462505310765"><ele>606.3333333333334</ele><time>2026-04-04T11:57:27Z</time></trkpt><trkpt lat="42.07276250712162" lon="13.051307128711391"><ele>606.0</ele><time>2026-04-04T11:57:28Z</time></trkpt><trkpt lat="42.07258711661611" lon="13.051139678459396"><ele>606.6666666666666</ele><time>2026-04-04T11:57:29Z</time></trkpt><trkpt lat="42.0724095893388" lon="13.05097058809461"><ele>607.3333333333333</ele><time>2026-04-04T11:57:30Z</time></trkpt><trkpt lat="42.072224095261575" lon="13.050798617518971"><ele>608.0</ele><time>2026-04-04T11:57:31Z</time></trkpt><trkpt lat="42.072036262473944" lon="13.050621978031892"><ele>608.0</ele><time>2026-04-04T11:57:32Z</time></trkpt><trkpt lat="42.07185878401779" lon="13.050452031812831"><ele>608.0</ele><time>2026-04-04T11:57:33Z</time></trkpt><trkpt lat="42.071690654501246" lon="13.050290715235857"><ele>608.0</ele><time>2026-04-04T11:57:34Z</time></trkpt><trkpt lat="42.07153596672921" lon="13.050142650605759"><ele>607.6666666666666</ele><time>2026-04-04T11:57:35Z</time></trkpt><trkpt lat="42.071394278485876" lon="13.050005912340861"><ele>607.3333333333334</ele><time>2026-04-04T11:57:36Z</time></trkpt><trkpt lat="42.071257714360286" lon="13.04987154247251"><ele>607.0</ele><time>2026-04-04T11:57:37Z</time></trkpt><trkpt lat="42.07114359858773" lon="13.049750937491927"><ele>607.6666666666667</ele><time>2026-04-04T11:57:38Z</time></trkpt><trkpt lat="42.07104383280204" lon="13.04963800279033"><ele>608.3333333333334</ele><time>2026-04-04T11:57:39Z</time></trkpt><trkpt lat="42.07092605135563" lon="13.049515427487611"><ele>609.0</ele><time>2026-04-04T11:57:40Z</time></trkpt><trkpt lat="42.070783807265116" lon="13.049387386568181"><ele>608.6666666666666</ele><time>2026-04-04T11:57:41Z</time></trkpt><trkpt lat="42.070630043720136" lon="13.049260713191526"><ele>608.3333333333333</ele><time>2026-04-04T11:57:42Z</time></trkpt><trkpt lat="42.07045734607463" lon="13.049117333691616"><ele>608.0</ele><time>2026-04-04T11:57:43Z</time></trkpt><trkpt lat="42.0702870949262" lon="13.048963794492481"><ele>608.0</ele><time>2026-04-04T11:57:44Z</time></trkpt><trkpt lat="42.070118019014366" lon="13.048803792059866"><ele>608.0</ele><time>2026-04-04T11:57:45Z</time></trkpt><trkpt lat="42.069949289408505" lon="13.04864012166708"><ele>608.0</ele><time>2026-04-04T11:57:46Z</time></trkpt><trkpt lat="42.0697751739212" lon="13.04846954873995"><ele>608.6666666666666</ele><time>2026-04-04T11:57:47Z</time></trkpt><trkpt lat="42.06960103381167" lon="13.048302223442068"><ele>609.3333333333334</ele><time>2026-04-04T11:57:48Z</time></trkpt><trkpt lat="42.06942508410383" lon="13.04813447882885"><ele>610.0</ele><time>2026-04-04T11:57:49Z</time></trkpt><trkpt lat="42.06925188869271" lon="13.047968022995876"><ele>610.0</ele><time>2026-04-04T11:57:50Z</time></trkpt><trkpt lat="42.0690842630172" lon="13.047808717023797"><ele>610.0</ele><time>2026-04-04T11:57:51Z</time></trkpt><trkpt lat="42.068915484916296" lon="13.04764687727726"><ele>610.0</ele><time>2026-04-04T11:57:52Z</time></trkpt><trkpt lat="42.06875197177559" lon="13.047489295330939"><ele>610.0</ele><time>2026-04-04T11:57:53Z</time></trkpt><trkpt lat="42.06859083271025" lon="13.04733134743512"><ele>610.0</ele><time>2026-04-04T11:57:54Z</time></trkpt><trkpt lat="42.06842609884763" lon="13.04717473405668"><ele>610.0</ele><time>2026-04-04T11:57:55Z</time></trkpt><trkpt lat="42.06825666428147" lon="13.047015256541165"><ele>610.0</ele><time>2026-04-04T11:57:56Z</time></trkpt><trkpt lat="42.06807795403334" lon="13.046847196967825"><ele>610.0</ele><time>2026-04-04T11:57:57Z</time></trkpt><trkpt lat="42.06789888785894" lon="13.046679195089922"><ele>610.0</ele><time>2026-04-04T11:57:58Z</time></trkpt><trkpt lat="42.06771359744077" lon="13.046507536705498"><ele>611.6666666666667</ele><time>2026-04-04T11:57:59Z</time></trkpt><trkpt lat="42.067530465506195" lon="13.046349024388567"><ele>613.3333333333334</ele><time>2026-04-04T11:58:00Z</time></trkpt><trkpt lat="42.06733445456375" lon="13.046206843688886"><ele>615.0</ele><time>2026-04-04T11:58:01Z</time></trkpt><trkpt lat="42.06713440603269" lon="13.046072402161325"><ele>615.0</ele><time>2026-04-04T11:58:02Z</time></trkpt><trkpt lat="42.06693611499201" lon="13.045945660929032"><ele>615.0</ele><time>2026-04-04T11:58:03Z</time></trkpt><trkpt lat="42.066739291582344" lon="13.045825727229962"><ele>615.0</ele><time>2026-04-04T11:58:04Z</time></trkpt><trkpt lat="42.066536861603595" lon="13.045699432381683"><ele>616.3333333333334</ele><time>2026-04-04T11:58:05Z</time></trkpt><trkpt lat="42.06634184752722" lon="13.045584586097945"><ele>617.6666666666667</ele><time>2026-04-04T11:58:06Z</time></trkpt><trkpt lat="42.06615273899467" lon="13.04544594859452"><ele>619.0</ele><time>2026-04-04T11:58:07Z</time></trkpt><trkpt lat="42.065957588866034" lon="13.045351684271617"><ele>619.0</ele><time>2026-04-04T11:58:08Z</time></trkpt><trkpt lat="42.065785097619745" lon="13.045229138158618"><ele>619.0</ele><time>2026-04-04T11:58:09Z</time></trkpt><trkpt lat="42.06562110162046" lon="13.045099141671159"><ele>619.0</ele><time>2026-04-04T11:58:10Z</time></trkpt><trkpt lat="42.06548624078272" lon="13.04495996946155"><ele>620.0</ele><time>2026-04-04T11:58:11Z</time></trkpt><trkpt lat="42.06538325793348" lon="13.044760360931074"><ele>621.0</ele><time>2026-04-04T11:58:12Z</time></trkpt><trkpt lat="42.06526641369043" lon="13.044570095902339"><ele>622.0</ele><time>2026-04-04T11:58:13Z</time></trkpt><trkpt lat="42.06517032935402" lon="13.044320004868599"><ele>622.3333333333334</ele><time>2026-04-04T11:58:14Z</time></trkpt><trkpt lat="42.06506342031263" lon="13.044069015377495"><ele>622.6666666666666</ele><time>2026-04-04T11:58:15Z</time></trkpt><trkpt lat="42.064952418278324" lon="13.043835492149475"><ele>623.0</ele><time>2026-04-04T11:58:16Z</time></trkpt><trkpt lat="42.064861458448306" lon="13.043639588591919"><ele>623.0</ele><time>2026-04-04T11:58:17Z</time></trkpt><trkpt lat="42.064787377699346" lon="13.043465168694674"><ele>623.0</ele><time>2026-04-04T11:58:18Z</time></trkpt><trkpt lat="42.064723859332155" lon="13.04331276575969"><ele>623.0</ele><time>2026-04-04T11:58:19Z</time></trkpt><trkpt lat="42.0646863147599" lon="13.043171067558392"><ele>623.0</ele><time>2026-04-04T11:58:20Z</time></trkpt><trkpt lat="42.06467207342276" lon="13.043026154980053"><ele>623.0</ele><time>2026-04-04T11:58:21Z</time></trkpt><trkpt lat="42.064636899837026" lon="13.042905638534352"><ele>623.0</ele><time>2026-04-04T11:58:22Z</time></trkpt><trkpt lat="42.06457060447809" lon="13.042823099099378"><ele>623.0</ele><time>2026-04-04T11:58:23Z</time></trkpt><trkpt lat="42.06449420026964" lon="13.042786797303615"><ele>623.0</ele><time>2026-04-04T11:58:24Z</time></trkpt><trkpt lat="42.064419197717015" lon="13.042781652614627"><ele>623.0</ele><time>2026-04-04T11:58:25Z</time></trkpt><trkpt lat="42.06434576041313" lon="13.042759547237706"><ele>623.0</ele><time>2026-04-04T11:58:26Z</time></trkpt><trkpt lat="42.06425904883794" lon="13.042709820879553"><ele>623.0</ele><time>2026-04-04T11:58:27Z</time></trkpt><trkpt lat="42.06416402547337" lon="13.042633102587564"><ele>623.0</ele><time>2026-04-04T11:58:28Z</time></trkpt><trkpt lat="42.064058875946905" lon="13.042528745389326"><ele>623.0</ele><time>2026-04-04T11:58:29Z</time></trkpt><trkpt lat="42.06393773398738" lon="13.042412029538555"><ele>623.0</ele><time>2026-04-04T11:58:30Z</time></trkpt><trkpt lat="42.063802108657924" lon="13.042290873098107"><ele>624.0</ele><time>2026-04-04T11:58:31Z</time></trkpt><trkpt lat="42.063660218701834" lon="13.042166409754493"><ele>625.0</ele><time>2026-04-04T11:58:32Z</time></trkpt><trkpt lat="42.063501939024675" lon="13.042023775608406"><ele>626.0</ele><time>2026-04-04T11:58:33Z</time></trkpt><trkpt lat="42.063330248172335" lon="13.041872050475426"><ele>626.0</ele><time>2026-04-04T11:58:34Z</time></trkpt><trkpt lat="42.063149985458416" lon="13.041712614105059"><ele>626.0</ele><time>2026-04-04T11:58:35Z</time></trkpt><trkpt lat="42.06295163981221" lon="13.041530654027875"><ele>626.0</ele><time>2026-04-04T11:58:36Z</time></trkpt><trkpt lat="42.06274347725822" lon="13.041347960666531"><ele>626.0</ele><time>2026-04-04T11:58:37Z</time></trkpt><trkpt lat="42.06253625504931" lon="13.041159072493233"><ele>626.5</ele><time>2026-04-04T11:58:38Z</time></trkpt><trkpt lat="42.062341802666104" lon="13.040964621754327"><ele>627.0</ele><time>2026-04-04T11:58:39Z</time></trkpt><trkpt lat="42.06216410837664" lon="13.040739474316107"><ele>625.0</ele><time>2026-04-04T11:58:40Z</time></trkpt><trkpt lat="42.06200820871524" lon="13.040479073324384"><ele>623.0</ele><time>2026-04-04T11:58:41Z</time></trkpt><trkpt lat="42.06186204558674" lon="13.040201047176714"><ele>622.0</ele><time>2026-04-04T11:58:42Z</time></trkpt><trkpt lat="42.06173061243985" lon="13.039905516407682"><ele>621.0</ele><time>2026-04-04T11:58:43Z</time></trkpt><trkpt lat="42.061619970218565" lon="13.039598903421126"><ele>617.5</ele><time>2026-04-04T11:58:44Z</time></trkpt><trkpt lat="42.06152495774077" lon="13.039283024852766"><ele>614.0</ele><time>2026-04-04T11:58:45Z</time></trkpt><trkpt lat="42.06144901693718" lon="13.03896239315827"><ele>613.0</ele><time>2026-04-04T11:58:46Z</time></trkpt><trkpt lat="42.06139010910215" lon="13.038620856808851"><ele>612.0</ele><time>2026-04-04T11:58:47Z</time></trkpt><trkpt lat="42.06135313665328" lon="13.038263351984481"><ele>611.5</ele><time>2026-04-04T11:58:48Z</time></trkpt><trkpt lat="42.06133472391388" lon="13.037899707040506"><ele>611.0</ele><time>2026-04-04T11:58:49Z</time></trkpt><trkpt lat="42.061332380673804" lon="13.037516439136313"><ele>610.5</ele><time>2026-04-04T11:58:50Z</time></trkpt><trkpt lat="42.061326340563184" lon="13.037136844841815"><ele>610.0</ele><time>2026-04-04T11:58:51Z</time></trkpt><trkpt lat="42.06131324252915" lon="13.036754270346744"><ele>610.0</ele><time>2026-04-04T11:58:52Z</time></trkpt><trkpt lat="42.061296599793884" lon="13.036366095540343"><ele>610.0</ele><time>2026-04-04T11:58:53Z</time></trkpt><trkpt lat="42.06127856881293" lon="13.035981170699452"><ele>610.0</ele><time>2026-04-04T11:58:54Z</time></trkpt><trkpt lat="42.061246492900715" lon="13.03559371118192"><ele>610.0</ele><time>2026-04-04T11:58:55Z</time></trkpt><trkpt lat="42.06118963874413" lon="13.035208555040741"><ele>611.0</ele><time>2026-04-04T11:58:56Z</time></trkpt><trkpt lat="42.06111460681555" lon="13.03483809816344"><ele>612.0</ele><time>2026-04-04T11:58:57Z</time></trkpt><trkpt lat="42.061034331165736" lon="13.034473621502809"><ele>612.5</ele><time>2026-04-04T11:58:58Z</time></trkpt><trkpt lat="42.06096138841337" lon="13.034100633336754"><ele>613.0</ele><time>2026-04-04T11:58:59Z</time></trkpt><trkpt lat="42.06089908012089" lon="13.033734038595764"><ele>613.0</ele><time>2026-04-04T11:59:00Z</time></trkpt><trkpt lat="42.060837639263916" lon="13.033375280712162"><ele>613.0</ele><time>2026-04-04T11:59:01Z</time></trkpt><trkpt lat="42.06077696967463" lon="13.033023170443823"><ele>619.5</ele><time>2026-04-04T11:59:02Z</time></trkpt><trkpt lat="42.06073634868912" lon="13.03266362769181"><ele>626.0</ele><time>2026-04-04T11:59:03Z</time></trkpt><trkpt lat="42.06072615593837" lon="13.032299277089432"><ele>628.0</ele><time>2026-04-04T11:59:04Z</time></trkpt><trkpt lat="42.0607452417388" lon="13.031935265820161"><ele>630.0</ele><time>2026-04-04T11:59:05Z</time></trkpt><trkpt lat="42.06078319227839" lon="13.03157006992928"><ele>620.5</ele><time>2026-04-04T11:59:06Z</time></trkpt><trkpt lat="42.060822731949216" lon="13.031210982072452"><ele>611.0</ele><time>2026-04-04T11:59:07Z</time></trkpt><trkpt lat="42.0608584719189" lon="13.030845426804307"><ele>613.0</ele><time>2026-04-04T11:59:08Z</time></trkpt><trkpt lat="42.060891582166114" lon="13.03048446811143"><ele>615.0</ele><time>2026-04-04T11:59:09Z</time></trkpt><trkpt lat="42.06092432018082" lon="13.03012562099024"><ele>615.5</ele><time>2026-04-04T11:59:10Z</time></trkpt><trkpt lat="42.060954225313125" lon="13.029760729910523"><ele>616.0</ele><time>2026-04-04T11:59:11Z</time></trkpt><trkpt lat="42.060980028192716" lon="13.029398613319517"><ele>614.0</ele><time>2026-04-04T11:59:12Z</time></trkpt><trkpt lat="42.060979837320836" lon="13.02902213069864"><ele>612.0</ele><time>2026-04-04T11:59:13Z</time></trkpt><trkpt lat="42.06094850399807" lon="13.02863740505331"><ele>611.5</ele><time>2026-04-04T11:59:14Z</time></trkpt><trkpt lat="42.060879642913875" lon="13.02825449405057"><ele>611.0</ele><time>2026-04-04T11:59:15Z</time></trkpt><trkpt lat="42.06078638740929" lon="13.027882764644131"><ele>616.0</ele><time>2026-04-04T11:59:16Z</time></trkpt><trkpt lat="42.06069118269868" lon="13.027495144912706"><ele>621.0</ele><time>2026-04-04T11:59:17Z</time></trkpt><trkpt lat="42.060590824961956" lon="13.027095546563881"><ele>621.0</ele><time>2026-04-04T11:59:18Z</time></trkpt><trkpt lat="42.06049263980394" lon="13.02666622847053"><ele>621.0</ele><time>2026-04-04T11:59:19Z</time></trkpt><trkpt lat="42.060393753395786" lon="13.026218718428039"><ele>617.0</ele><time>2026-04-04T11:59:20Z</time></trkpt><trkpt lat="42.06029340664317" lon="13.025767545876594"><ele>613.0</ele><time>2026-04-04T11:59:21Z</time></trkpt><trkpt lat="42.06019058243508" lon="13.02532174149965"><ele>614.5</ele><time>2026-04-04T11:59:22Z</time></trkpt><trkpt lat="42.06008278615264" lon="13.024874158825554"><ele>616.0</ele><time>2026-04-04T11:59:23Z</time></trkpt><trkpt lat="42.05997937986299" lon="13.0244281425036"><ele>615.5</ele><time>2026-04-04T11:59:24Z</time></trkpt><trkpt lat="42.059882863932735" lon="13.023990606450337"><ele>615.0</ele><time>2026-04-04T11:59:25Z</time></trkpt><trkpt lat="42.059792177618974" lon="13.023577350778144"><ele>611.5</ele><time>2026-04-04T11:59:26Z</time></trkpt><trkpt lat="42.05970535011107" lon="13.02317914771371"><ele>608.0</ele><time>2026-04-04T11:59:27Z</time></trkpt><trkpt lat="42.059641351665014" lon="13.022780721103857"><ele>606.5</ele><time>2026-04-04T11:59:28Z</time></trkpt><trkpt lat="42.059627532548355" lon="13.02236279008611"><ele>605.0</ele><time>2026-04-04T11:59:29Z</time></trkpt><trkpt lat="42.059606424850934" lon="13.02194369865992"><ele>605.5</ele><time>2026-04-04T11:59:30Z</time></trkpt><trkpt lat="42.0596027933528" lon="13.021509643058222"><ele>606.0</ele><time>2026-04-04T11:59:31Z</time></trkpt><trkpt lat="42.059593200393664" lon="13.021097799160177"><ele>606.0</ele><time>2026-04-04T11:59:32Z</time></trkpt><trkpt lat="42.05958822437858" lon="13.02068332735256"><ele>606.0</ele><time>2026-04-04T11:59:33Z</time></trkpt><trkpt lat="42.05960034078153" lon="13.020265582103844"><ele>607.0</ele><time>2026-04-04T11:59:34Z</time></trkpt><trkpt lat="42.05963987810747" lon="13.019832386287568"><ele>608.0</ele><time>2026-04-04T11:59:35Z</time></trkpt><trkpt lat="42.05969189467351" lon="13.019397576588018"><ele>609.0</ele><time>2026-04-04T11:59:36Z</time></trkpt><trkpt lat="42.059746397488404" lon="13.018951692184615"><ele>610.0</ele><time>2026-04-04T11:59:37Z</time></trkpt><trkpt lat="42.059796431711476" lon="13.018511085092834"><ele>616.5</ele><time>2026-04-04T11:59:38Z</time></trkpt><trkpt lat="42.05983448096333" lon="13.018077600160765"><ele>623.0</ele><time>2026-04-04T11:59:39Z</time></trkpt><trkpt lat="42.05987067604541" lon="13.017666668118425"><ele>624.5</ele><time>2026-04-04T11:59:40Z</time></trkpt><trkpt lat="42.05990842463763" lon="13.017287690779352"><ele>626.0</ele><time>2026-04-04T11:59:41Z</time></trkpt><trkpt lat="42.05994050610989" lon="13.016928156232495"><ele>617.0</ele><time>2026-04-04T11:59:42Z</time></trkpt><trkpt lat="42.05994480594916" lon="13.016580874860596"><ele>608.0</ele><time>2026-04-04T11:59:43Z</time></trkpt><trkpt lat="42.059881224071795" lon="13.016250664819278"><ele>608.0</ele><time>2026-04-04T11:59:44Z</time></trkpt><trkpt lat="42.05977419186903" lon="13.015955010305179"><ele>608.0</ele><time>2026-04-04T11:59:45Z</time></trkpt><trkpt lat="42.0596171950437" lon="13.015672494891918"><ele>602.0</ele><time>2026-04-04T11:59:46Z</time></trkpt><trkpt lat="42.059428438998175" lon="13.015450929319753"><ele>596.0</ele><time>2026-04-04T11:59:47Z</time></trkpt><trkpt lat="42.05921460295707" lon="13.015302018011543"><ele>594.5</ele><time>2026-04-04T11:59:48Z</time></trkpt><trkpt lat="42.05898138230683" lon="13.015221178223104"><ele>593.0</ele><time>2026-04-04T11:59:49Z</time></trkpt><trkpt lat="42.058719968075415" lon="13.01520156043892"><ele>593.0</ele><time>2026-04-04T11:59:50Z</time></trkpt><trkpt lat="42.05844624128065" lon="13.015235992332281"><ele>593.0</ele><time>2026-04-04T11:59:51Z</time></trkpt><trkpt lat="42.05816137311318" lon="13.015287744605875"><ele>587.5</ele><time>2026-04-04T11:59:52Z</time></trkpt><trkpt lat="42.05787783047903" lon="13.015325964052154"><ele>582.0</ele><time>2026-04-04T11:59:53Z</time></trkpt><trkpt lat="42.05759568021267" lon="13.015326605376009"><ele>578.5</ele><time>2026-04-04T11:59:54Z</time></trkpt><trkpt lat="42.05730717082297" lon="13.015376166500813"><ele>575.0</ele><time>2026-04-04T11:59:55Z</time></trkpt><trkpt lat="42.057003967367436" lon="13.015395719160647"><ele>575.0</ele><time>2026-04-04T11:59:56Z</time></trkpt><trkpt lat="42.05670068373234" lon="13.01541498212652"><ele>575.0</ele><time>2026-04-04T11:59:57Z</time></trkpt><trkpt lat="42.05639438617114" lon="13.015440647757998"><ele>573.0</ele><time>2026-04-04T11:59:58Z</time></trkpt><trkpt lat="42.05609855049457" lon="13.015480994050735"><ele>571.0</ele><time>2026-04-04T11:59:59Z</time></trkpt><trkpt lat="42.05580389124857" lon="13.015523775769207"><ele>570.5</ele><time>2026-04-04T12:00:00Z</time></trkpt><trkpt lat="42.055508265481414" lon="13.015546422791985"><ele>570.0</ele><time>2026-04-04T12:00:01Z</time></trkpt><trkpt lat="42.05521780936289" lon="13.01550242826343"><ele>570.5</ele><time>2026-04-04T12:00:02Z</time></trkpt><trkpt lat="42.054937581542" lon="13.015449771563217"><ele>571.0</ele><time>2026-04-04T12:00:03Z</time></trkpt><trkpt lat="42.05467680622154" lon="13.01538406042879"><ele>571.0</ele><time>2026-04-04T12:00:04Z</time></trkpt><trkpt lat="42.05435505903566" lon="13.01524095862678"><ele>571.0</ele><time>2026-04-04T12:00:05Z</time></trkpt><trkpt lat="42.053971143286425" lon="13.015049130139806"><ele>569.0</ele><time>2026-04-04T12:00:06Z</time></trkpt><trkpt lat="42.05352376596213" lon="13.014805154974498"><ele>566.0</ele><time>2026-04-04T12:00:07Z</time></trkpt><trkpt lat="42.053063082080634" lon="13.01455732687657"><ele>566.0</ele><time>2026-04-04T12:00:08Z</time></trkpt><trkpt lat="42.05267215708156" lon="13.014352550923922"><ele>566.0</ele><time>2026-04-04T12:00:09Z</time></trkpt><trkpt lat="42.0523400557392" lon="13.014180955557554"><ele>571.5</ele><time>2026-04-04T12:00:10Z</time></trkpt><trkpt lat="42.05205994074462" lon="13.014021340232398"><ele>577.0</ele><time>2026-04-04T12:00:11Z</time></trkpt><trkpt lat="42.051839092498376" lon="13.013816996488234"><ele>577.0</ele><time>2026-04-04T12:00:12Z</time></trkpt><trkpt lat="42.051657219099205" lon="13.013570768916974"><ele>577.0</ele><time>2026-04-04T12:00:13Z</time></trkpt><trkpt lat="42.05147313223404" lon="13.013300329892937"><ele>581.5</ele><time>2026-04-04T12:00:14Z</time></trkpt><trkpt lat="42.051288047332825" lon="13.013067606715921"><ele>586.0</ele><time>2026-04-04T12:00:15Z</time></trkpt><trkpt lat="42.05101525914245" lon="13.012883348193492"><ele>583.0</ele><time>2026-04-04T12:00:16Z</time></trkpt><trkpt lat="42.05073256965772" lon="13.0127664441717"><ele>580.0</ele><time>2026-04-04T12:00:17Z</time></trkpt><trkpt lat="42.050485937157646" lon="13.012691797284935"><ele>580.0</ele><time>2026-04-04T12:00:18Z</time></trkpt><trkpt lat="42.05023482464542" lon="13.012593185689969"><ele>580.0</ele><time>2026-04-04T12:00:19Z</time></trkpt><trkpt lat="42.04997714958544" lon="13.012543078440817"><ele>580.5</ele><time>2026-04-04T12:00:20Z</time></trkpt><trkpt lat="42.04974024658389" lon="13.01253573288073"><ele>581.0</ele><time>2026-04-04T12:00:21Z</time></trkpt><trkpt lat="42.04950813518448" lon="13.012584313498081"><ele>581.0</ele><time>2026-04-04T12:00:22Z</time></trkpt><trkpt lat="42.04928289294303" lon="13.012748302332446"><ele>581.0</ele><time>2026-04-04T12:00:23Z</time></trkpt><trkpt lat="42.04906230032383" lon="13.012912315111214"><ele>582.5</ele><time>2026-04-04T12:00:24Z</time></trkpt><trkpt lat="42.048874248904035" lon="13.013111559393613"><ele>584.0</ele><time>2026-04-04T12:00:25Z</time></trkpt><trkpt lat="42.04862919874508" lon="13.013217603330476"><ele>584.0</ele><time>2026-04-04T12:00:26Z</time></trkpt><trkpt lat="42.04838296383378" lon="13.013316417116535"><ele>584.0</ele><time>2026-04-04T12:00:27Z</time></trkpt><trkpt lat="42.048150841304775" lon="13.013393591381867"><ele>574.6666666666666</ele><time>2026-04-04T12:00:28Z</time></trkpt><trkpt lat="42.04796053698209" lon="13.013501379487936"><ele>565.3333333333334</ele><time>2026-04-04T12:00:29Z</time></trkpt><trkpt lat="42.0478066140438" lon="13.013677532642793"><ele>556.0</ele><time>2026-04-04T12:00:30Z</time></trkpt><trkpt lat="42.0476944504636" lon="13.013906135182983"><ele>556.0</ele><time>2026-04-04T12:00:31Z</time></trkpt><trkpt lat="42.04758099921906" lon="13.01410113962336"><ele>556.0</ele><time>2026-04-04T12:00:32Z</time></trkpt><trkpt lat="42.04746568635911" lon="13.01426594565734"><ele>556.0</ele><time>2026-04-04T12:00:33Z</time></trkpt><trkpt lat="42.04738101283184" lon="13.014391611193"><ele>554.6</ele><time>2026-04-04T12:00:34Z</time></trkpt><trkpt lat="42.047285611131485" lon="13.014444479525729"><ele>553.2</ele><time>2026-04-04T12:00:35Z</time></trkpt><trkpt lat="42.04719113301791" lon="13.014454046141285"><ele>551.8</ele><time>2026-04-04T12:00:36Z</time></trkpt><trkpt lat="42.04710419214457" lon="13.014372791896351"><ele>550.4</ele><time>2026-04-04T12:00:37Z</time></trkpt><trkpt lat="42.047036234391555" lon="13.014293986983418"><ele>549.0</ele><time>2026-04-04T12:00:38Z</time></trkpt><trkpt lat="42.0469128667673" lon="13.01389185051977"><ele>549.0</ele><time>2026-04-04T12:00:39Z</time></trkpt><trkpt lat="42.0467956038215" lon="13.013668220385316"><ele>549.0</ele><time>2026-04-04T12:00:40Z</time></trkpt><trkpt lat="42.046668344047745" lon="13.013526474186907"><ele>549.0</ele><time>2026-04-04T12:00:41Z</time></trkpt><trkpt lat="42.04652180577337" lon="13.013450745268326"><ele>549.0</ele><time>2026-04-04T12:00:42Z</time></trkpt><trkpt lat="42.04638492382439" lon="13.013487531894619"><ele>549.0</ele><time>2026-04-04T12:00:43Z</time></trkpt><trkpt lat="42.046261898060244" lon="13.01361790156069"><ele>549.0</ele><time>2026-04-04T12:00:44Z</time></trkpt><trkpt lat="42.04618808539143" lon="13.013794878378933"><ele>549.0</ele><time>2026-04-04T12:00:45Z</time></trkpt><trkpt lat="42.04607999209963" lon="13.01406693215862"><ele>546.0</ele><time>2026-04-04T12:00:46Z</time></trkpt><trkpt lat="42.04598655124132" lon="13.014332706850922"><ele>543.0</ele><time>2026-04-04T12:00:47Z</time></trkpt><trkpt lat="42.04593006168567" lon="13.01455533941635"><ele>540.0</ele><time>2026-04-04T12:00:48Z</time></trkpt><trkpt lat="42.0458917563512" lon="13.014794741668956"><ele>537.5</ele><time>2026-04-04T12:00:49Z</time></trkpt><trkpt lat="42.04584187568195" lon="13.014999905042915"><ele>535.0</ele><time>2026-04-04T12:00:50Z</time></trkpt><trkpt lat="42.045769607974954" lon="13.015070004358016"><ele>532.5</ele><time>2026-04-04T12:00:51Z</time></trkpt><trkpt lat="42.045633456038544" lon="13.015106917646158"><ele>530.0</ele><time>2026-04-04T12:00:52Z</time></trkpt><trkpt lat="42.04545680199309" lon="13.015042347680955"><ele>529.6666666666666</ele><time>2026-04-04T12:00:53Z</time></trkpt><trkpt lat="42.04521299330512" lon="13.014988397428661"><ele>529.3333333333334</ele><time>2026-04-04T12:00:54Z</time></trkpt><trkpt lat="42.045059737576906" lon="13.014840623116159"><ele>529.0</ele><time>2026-04-04T12:00:55Z</time></trkpt><trkpt lat="42.04487858691161" lon="13.01473387124114"><ele>529.0</ele><time>2026-04-04T12:00:56Z</time></trkpt><trkpt lat="42.04468603056546" lon="13.014688834120403"><ele>529.0</ele><time>2026-04-04T12:00:57Z</time></trkpt><trkpt lat="42.04447243735766" lon="13.014738658442937"><ele>529.0</ele><time>2026-04-04T12:00:58Z</time></trkpt><trkpt lat="42.04427237406633" lon="13.014779752709797"><ele>528.0</ele><time>2026-04-04T12:00:59Z</time></trkpt><trkpt lat="42.044098963505505" lon="13.014780855160602"><ele>527.0</ele><time>2026-04-04T12:01:00Z</time></trkpt><trkpt lat="42.04397134943925" lon="13.0147115674368"><ele>526.0</ele><time>2026-04-04T12:01:01Z</time></trkpt><trkpt lat="42.043873139741095" lon="13.014609460630615"><ele>525.0</ele><time>2026-04-04T12:01:02Z</time></trkpt><trkpt lat="42.04367482867647" lon="13.014435301347367"><ele>525.0</ele><time>2026-04-04T12:01:03Z</time></trkpt><trkpt lat="42.04346259582124" lon="13.01428489003483"><ele>525.0</ele><time>2026-04-04T12:01:04Z</time></trkpt><trkpt lat="42.04324614424979" lon="13.014230032559748"><ele>522.5</ele><time>2026-04-04T12:01:05Z</time></trkpt><trkpt lat="42.04300654390664" lon="13.014204578775871"><ele>520.0</ele><time>2026-04-04T12:01:06Z</time></trkpt><trkpt lat="42.04278107177297" lon="13.014234889382982"><ele>520.0</ele><time>2026-04-04T12:01:07Z</time></trkpt><trkpt lat="42.04257143017386" lon="13.014347052053486"><ele>520.0</ele><time>2026-04-04T12:01:08Z</time></trkpt><trkpt lat="42.04240766288736" lon="13.014299805350793"><ele>520.0</ele><time>2026-04-04T12:01:09Z</time></trkpt><trkpt lat="42.04221541080139" lon="13.014214324931583"><ele>519.6666666666667</ele><time>2026-04-04T12:01:10Z</time></trkpt><trkpt lat="42.042000199886914" lon="13.014167290136921"><ele>519.3333333333334</ele><time>2026-04-04T12:01:11Z</time></trkpt><trkpt lat="42.04177431140785" lon="13.014210318996723"><ele>519.0</ele><time>2026-04-04T12:01:12Z</time></trkpt><trkpt lat="42.041603808785645" lon="13.014249332949477"><ele>523.0</ele><time>2026-04-04T12:01:13Z</time></trkpt><trkpt lat="42.041443441992335" lon="13.014284624666075"><ele>527.0</ele><time>2026-04-04T12:01:14Z</time></trkpt><trkpt lat="42.04130117734084" lon="13.014365146143014"><ele>531.0</ele><time>2026-04-04T12:01:15Z</time></trkpt><trkpt lat="42.0411759580408" lon="13.014522602998051"><ele>531.0</ele><time>2026-04-04T12:01:16Z</time></trkpt><trkpt lat="42.04106477962522" lon="13.014691762837789"><ele>531.0</ele><time>2026-04-04T12:01:17Z</time></trkpt><trkpt lat="42.04097049383279" lon="13.014832478796388"><ele>531.0</ele><time>2026-04-04T12:01:18Z</time></trkpt><trkpt lat="42.04087019608724" lon="13.014949864940155"><ele>531.0</ele><time>2026-04-04T12:01:19Z</time></trkpt><trkpt lat="42.0407576448453" lon="13.01504482647843"><ele>524.0</ele><time>2026-04-04T12:01:20Z</time></trkpt><trkpt lat="42.04062044596134" lon="13.01508753293332"><ele>517.0</ele><time>2026-04-04T12:01:21Z</time></trkpt><trkpt lat="42.040458701813456" lon="13.015110569393807"><ele>510.0</ele><time>2026-04-04T12:01:22Z</time></trkpt><trkpt lat="42.04029612119178" lon="13.015174265492035"><ele>510.0</ele><time>2026-04-04T12:01:23Z</time></trkpt><trkpt lat="42.0401298961559" lon="13.015326362166132"><ele>510.0</ele><time>2026-04-04T12:01:24Z</time></trkpt><trkpt lat="42.03999271061181" lon="13.015460344810112"><ele>510.0</ele><time>2026-04-04T12:01:25Z</time></trkpt><trkpt lat="42.0398658512072" lon="13.01551714155393"><ele>506.4</ele><time>2026-04-04T12:01:26Z</time></trkpt><trkpt lat="42.039741810793664" lon="13.015538059443031"><ele>502.8</ele><time>2026-04-04T12:01:27Z</time></trkpt><trkpt lat="42.03962427584815" lon="13.015508892154017"><ele>499.20000000000005</ele><time>2026-04-04T12:01:28Z</time></trkpt><trkpt lat="42.03953288670094" lon="13.015456929823703"><ele>495.6</ele><time>2026-04-04T12:01:29Z</time></trkpt><trkpt lat="42.03946063227529" lon="13.015361111471478"><ele>492.0</ele><time>2026-04-04T12:01:30Z</time></trkpt><trkpt lat="42.03938173059174" lon="13.015245167346327"><ele>492.0</ele><time>2026-04-04T12:01:31Z</time></trkpt><trkpt lat="42.03930975852738" lon="13.015120008103311"><ele>492.00000000000006</ele><time>2026-04-04T12:01:32Z</time></trkpt><trkpt lat="42.03924606024822" lon="13.015017530486073"><ele>492.00000000000006</ele><time>2026-04-04T12:01:33Z</time></trkpt><trkpt lat="42.03919973696007" lon="13.01491768052486"><ele>492.0</ele><time>2026-04-04T12:01:34Z</time></trkpt><trkpt lat="42.039167797789524" lon="13.014821380292277"><ele>492.0</ele><time>2026-04-04T12:01:35Z</time></trkpt><trkpt lat="42.039127702086006" lon="13.014727288118303"><ele>491.8333333333333</ele><time>2026-04-04T12:01:36Z</time></trkpt><trkpt lat="42.03907681506479" lon="13.014654116198694"><ele>491.66666666666663</ele><time>2026-04-04T12:01:37Z</time></trkpt><trkpt lat="42.039011041071134" lon="13.014620954792415"><ele>491.5</ele><time>2026-04-04T12:01:38Z</time></trkpt><trkpt lat="42.03894076685027" lon="13.014651120281355"><ele>491.3333333333333</ele><time>2026-04-04T12:01:39Z</time></trkpt><trkpt lat="42.03888678505461" lon="13.014725428892158"><ele>491.16666666666663</ele><time>2026-04-04T12:01:40Z</time></trkpt><trkpt lat="42.038876854234786" lon="13.014820435321397"><ele>491.0</ele><time>2026-04-04T12:01:41Z</time></trkpt><trkpt lat="42.03890818846091" lon="13.014925906653211"><ele>491.20000000000005</ele><time>2026-04-04T12:01:42Z</time></trkpt><trkpt lat="42.03896534683482" lon="13.015049106338186"><ele>491.40000000000003</ele><time>2026-04-04T12:01:43Z</time></trkpt><trkpt lat="42.03903512923855" lon="13.015177767307858"><ele>491.6</ele><time>2026-04-04T12:01:44Z</time></trkpt><trkpt lat="42.03909244472343" lon="13.015312379773082"><ele>491.8</ele><time>2026-04-04T12:01:45Z</time></trkpt><trkpt lat="42.039148464063096" lon="13.015435127348423"><ele>492.0</ele><time>2026-04-04T12:01:46Z</time></trkpt><trkpt lat="42.0392023767477" lon="13.015548816891354"><ele>492.0</ele><time>2026-04-04T12:01:47Z</time></trkpt><trkpt lat="42.03925761700848" lon="13.015663114972678"><ele>492.00000000000006</ele><time>2026-04-04T12:01:48Z</time></trkpt><trkpt lat="42.03931443958687" lon="13.01577926341069"><ele>492.00000000000006</ele><time>2026-04-04T12:01:49Z</time></trkpt><trkpt lat="42.039379579587546" lon="13.015907297049974"><ele>492.0</ele><time>2026-04-04T12:01:50Z</time></trkpt><trkpt lat="42.03944853690451" lon="13.016022004785519"><ele>492.0</ele><time>2026-04-04T12:01:51Z</time></trkpt><trkpt lat="42.039533565373645" lon="13.016099962639446"><ele>490.20000000000005</ele><time>2026-04-04T12:01:52Z</time></trkpt><trkpt lat="42.0396295282201" lon="13.016128771616174"><ele>488.40000000000003</ele><time>2026-04-04T12:01:53Z</time></trkpt><trkpt lat="42.03972876008923" lon="13.016127051345741"><ele>486.59999999999997</ele><time>2026-04-04T12:01:54Z</time></trkpt><trkpt lat="42.03982226888205" lon="13.016105358402056"><ele>484.79999999999995</ele><time>2026-04-04T12:01:55Z</time></trkpt><trkpt lat="42.03992830173162" lon="13.016081674289724"><ele>483.0</ele><time>2026-04-04T12:01:56Z</time></trkpt><trkpt lat="42.04002524136404" lon="13.016065012473002"><ele>483.0</ele><time>2026-04-04T12:01:57Z</time></trkpt><trkpt lat="42.040114605069476" lon="13.016018672752075"><ele>482.99999999999994</ele><time>2026-04-04T12:01:58Z</time></trkpt><trkpt lat="42.04018870513658" lon="13.015949752858832"><ele>482.99999999999994</ele><time>2026-04-04T12:01:59Z</time></trkpt><trkpt lat="42.04025472276028" lon="13.01586618984829"><ele>483.0</ele><time>2026-04-04T12:02:00Z</time></trkpt><trkpt lat="42.04033335986851" lon="13.015819073692322"><ele>483.0</ele><time>2026-04-04T12:02:01Z</time></trkpt><trkpt lat="42.04043189455059" lon="13.015797008128775"><ele>487.79999999999995</ele><time>2026-04-04T12:02:02Z</time></trkpt><trkpt lat="42.04052158901003" lon="13.01579340714426"><ele>492.59999999999997</ele><time>2026-04-04T12:02:03Z</time></trkpt><trkpt lat="42.040612207280006" lon="13.015789681643552"><ele>497.40000000000003</ele><time>2026-04-04T12:02:04Z</time></trkpt><trkpt lat="42.04070811319324" lon="13.01578003701494"><ele>502.20000000000005</ele><time>2026-04-04T12:02:05Z</time></trkpt><trkpt lat="42.040799698117326" lon="13.015773362181074"><ele>507.0</ele><time>2026-04-04T12:02:06Z</time></trkpt><trkpt lat="42.040888968301296" lon="13.015772178313135"><ele>507.0</ele><time>2026-04-04T12:02:07Z</time></trkpt><trkpt lat="42.040966533080336" lon="13.015770934195087"><ele>507.0</ele><time>2026-04-04T12:02:08Z</time></trkpt><trkpt lat="42.041041738047724" lon="13.015768358082624"><ele>507.0</ele><time>2026-04-04T12:02:09Z</time></trkpt><trkpt lat="42.04110529129643" lon="13.015771551107493"><ele>507.0</ele><time>2026-04-04T12:02:10Z</time></trkpt><trkpt lat="42.04121447794103" lon="13.015824656017584"><ele>507.0</ele><time>2026-04-04T12:02:12Z</time></trkpt><trkpt lat="42.0412547510388" lon="13.015914156081442"><ele>507.0</ele><time>2026-04-04T12:02:14Z</time></trkpt><trkpt lat="42.04120885380038" lon="13.01603129579747"><ele>502.20000000000005</ele><time>2026-04-04T12:02:17Z</time></trkpt><trkpt lat="42.04111247681422" lon="13.016052169152442"><ele>497.40000000000003</ele><time>2026-04-04T12:02:19Z</time></trkpt><trkpt lat="42.04100260703683" lon="13.01604403359429"><ele>492.59999999999997</ele><time>2026-04-04T12:02:21Z</time></trkpt><trkpt lat="42.04093993500054" lon="13.016053642834025"><ele>487.79999999999995</ele><time>2026-04-04T12:02:22Z</time></trkpt><trkpt lat="42.04082528461263" lon="13.01606958637662"><ele>483.0</ele><time>2026-04-04T12:02:24Z</time></trkpt><trkpt lat="42.04068708920954" lon="13.016099274976284"><ele>483.0</ele><time>2026-04-04T12:02:26Z</time></trkpt><trkpt lat="42.04060575463445" lon="13.016114793299009"><ele>482.99999999999994</ele><time>2026-04-04T12:02:27Z</time></trkpt><trkpt lat="42.04051714791865" lon="13.016132013259522"><ele>482.99999999999994</ele><time>2026-04-04T12:02:28Z</time></trkpt><trkpt lat="42.04042681681039" lon="13.016130369690067"><ele>483.0</ele><time>2026-04-04T12:02:29Z</time></trkpt><trkpt lat="42.04032295341971" lon="13.016155062059335"><ele>483.0</ele><time>2026-04-04T12:02:30Z</time></trkpt><trkpt lat="42.04016360369838" lon="13.016214910250419"><ele>480.5</ele><time>2026-04-04T12:02:31Z</time></trkpt><trkpt lat="42.03995222140412" lon="13.016344471922851"><ele>478.0</ele><time>2026-04-04T12:02:32Z</time></trkpt><trkpt lat="42.039748971125874" lon="13.016473410766963"><ele>478.0</ele><time>2026-04-04T12:02:33Z</time></trkpt><trkpt lat="42.039547289006435" lon="13.016550194489549"><ele>478.0</ele><time>2026-04-04T12:02:34Z</time></trkpt><trkpt lat="42.039365342301124" lon="13.01657145786354"><ele>478.0</ele><time>2026-04-04T12:02:35Z</time></trkpt><trkpt lat="42.03919017380496" lon="13.016517556060293"><ele>467.0</ele><time>2026-04-04T12:02:36Z</time></trkpt><trkpt lat="42.03895741464419" lon="13.016404679814865"><ele>456.0</ele><time>2026-04-04T12:02:37Z</time></trkpt><trkpt lat="42.03870190976221" lon="13.016330521755764"><ele>456.0</ele><time>2026-04-04T12:02:38Z</time></trkpt><trkpt lat="42.038541012190755" lon="13.016255440696396"><ele>456.0</ele><time>2026-04-04T12:02:39Z</time></trkpt><trkpt lat="42.038443152078884" lon="13.016161093255961"><ele>456.0</ele><time>2026-04-04T12:02:40Z</time></trkpt><trkpt lat="42.038407862449795" lon="13.015974834594928"><ele>456.0</ele><time>2026-04-04T12:02:41Z</time></trkpt><trkpt lat="42.03836556428192" lon="13.015733912811966"><ele>454.66666666666663</ele><time>2026-04-04T12:02:42Z</time></trkpt><trkpt lat="42.03825422159375" lon="13.015529423844248"><ele>453.3333333333333</ele><time>2026-04-04T12:02:43Z</time></trkpt><trkpt lat="42.038078676560716" lon="13.01533629458008"><ele>452.0</ele><time>2026-04-04T12:02:44Z</time></trkpt><trkpt lat="42.037933855683626" lon="13.01520197372655"><ele>452.0</ele><time>2026-04-04T12:02:45Z</time></trkpt><trkpt lat="42.03777747599997" lon="13.015151407920465"><ele>452.0</ele><time>2026-04-04T12:02:46Z</time></trkpt><trkpt lat="42.0375603920373" lon="13.015164595382373"><ele>452.0</ele><time>2026-04-04T12:02:47Z</time></trkpt><trkpt lat="42.03737436781578" lon="13.015133079300494"><ele>451.3333333333333</ele><time>2026-04-04T12:02:48Z</time></trkpt><trkpt lat="42.037243951272345" lon="13.01500894530256"><ele>450.66666666666663</ele><time>2026-04-04T12:02:49Z</time></trkpt><trkpt lat="42.037152772035434" lon="13.014816796875749"><ele>450.0</ele><time>2026-04-04T12:02:50Z</time></trkpt><trkpt lat="42.03697973983299" lon="13.014473002052153"><ele>450.0</ele><time>2026-04-04T12:02:51Z</time></trkpt><trkpt lat="42.0368526261836" lon="13.01422101502888"><ele>450.0</ele><time>2026-04-04T12:02:52Z</time></trkpt><trkpt lat="42.036731692043816" lon="13.014115128737444"><ele>450.0</ele><time>2026-04-04T12:02:53Z</time></trkpt><trkpt lat="42.03656369295811" lon="13.014081041080779"><ele>446.0</ele><time>2026-04-04T12:02:54Z</time></trkpt><trkpt lat="42.0363914302669" lon="13.01416071492701"><ele>442.0</ele><time>2026-04-04T12:02:55Z</time></trkpt><trkpt lat="42.03615547937436" lon="13.014282567273115"><ele>438.0</ele><time>2026-04-04T12:02:56Z</time></trkpt><trkpt lat="42.03594043530856" lon="13.014333986243281"><ele>438.0</ele><time>2026-04-04T12:02:57Z</time></trkpt><trkpt lat="42.03574782880077" lon="13.014265310503582"><ele>438.0</ele><time>2026-04-04T12:02:58Z</time></trkpt><trkpt lat="42.035527425150676" lon="13.014171309125873"><ele>438.0</ele><time>2026-04-04T12:02:59Z</time></trkpt><trkpt lat="42.035288144199825" lon="13.01402675058424"><ele>438.0</ele><time>2026-04-04T12:03:00Z</time></trkpt><trkpt lat="42.03515234280866" lon="13.013847951348675"><ele>438.0</ele><time>2026-04-04T12:03:01Z</time></trkpt><trkpt lat="42.03491359894668" lon="13.013588136523374"><ele>437.5</ele><time>2026-04-04T12:03:02Z</time></trkpt><trkpt lat="42.03469375317682" lon="13.013323695371707"><ele>437.0</ele><time>2026-04-04T12:03:03Z</time></trkpt><trkpt lat="42.0344654332857" lon="13.0131135809162"><ele>437.0</ele><time>2026-04-04T12:03:04Z</time></trkpt><trkpt lat="42.0342784544368" lon="13.012930687266696"><ele>437.0</ele><time>2026-04-04T12:03:05Z</time></trkpt><trkpt lat="42.03409703883764" lon="13.012764819183706"><ele>436.75</ele><time>2026-04-04T12:03:06Z</time></trkpt><trkpt lat="42.033966803760215" lon="13.01275117718164"><ele>436.5</ele><time>2026-04-04T12:03:07Z</time></trkpt><trkpt lat="42.03385043793219" lon="13.012828621904262"><ele>436.25</ele><time>2026-04-04T12:03:08Z</time></trkpt><trkpt lat="42.0337208286717" lon="13.012965204239364"><ele>436.0</ele><time>2026-04-04T12:03:09Z</time></trkpt><trkpt lat="42.03348138811951" lon="13.01319328559167"><ele>427.5</ele><time>2026-04-04T12:03:10Z</time></trkpt><trkpt lat="42.03326616518513" lon="13.013344462747192"><ele>419.0</ele><time>2026-04-04T12:03:11Z</time></trkpt><trkpt lat="42.03303670914914" lon="13.013401718748105"><ele>419.0</ele><time>2026-04-04T12:03:12Z</time></trkpt><trkpt lat="42.03269488509262" lon="13.013431642277858"><ele>419.0</ele><time>2026-04-04T12:03:13Z</time></trkpt><trkpt lat="42.03239286275178" lon="13.013461734453461"><ele>422.5</ele><time>2026-04-04T12:03:14Z</time></trkpt><trkpt lat="42.03211281316298" lon="13.013547991541442"><ele>426.0</ele><time>2026-04-04T12:03:15Z</time></trkpt><trkpt lat="42.03182892583251" lon="13.013713537215985"><ele>421.5</ele><time>2026-04-04T12:03:16Z</time></trkpt><trkpt lat="42.0314933360433" lon="13.013982930113656"><ele>417.0</ele><time>2026-04-04T12:03:17Z</time></trkpt><trkpt lat="42.03119754370102" lon="13.014229029018372"><ele>417.0</ele><time>2026-04-04T12:03:18Z</time></trkpt><trkpt lat="42.03093672647505" lon="13.014435615475467"><ele>417.0</ele><time>2026-04-04T12:03:19Z</time></trkpt><trkpt lat="42.03071112612186" lon="13.014603036875306"><ele>419.33333333333337</ele><time>2026-04-04T12:03:20Z</time></trkpt><trkpt lat="42.0305132828294" lon="13.014647322783382"><ele>421.6666666666667</ele><time>2026-04-04T12:03:21Z</time></trkpt><trkpt lat="42.03029315259539" lon="13.014706317163403"><ele>424.0</ele><time>2026-04-04T12:03:22Z</time></trkpt><trkpt lat="42.03007657770362" lon="13.014762656235984"><ele>416.0</ele><time>2026-04-04T12:03:23Z</time></trkpt><trkpt lat="42.02994294459635" lon="13.014988253482688"><ele>408.0</ele><time>2026-04-04T12:03:24Z</time></trkpt><trkpt lat="42.02978951695535" lon="13.015327292016183"><ele>408.0</ele><time>2026-04-04T12:03:25Z</time></trkpt><trkpt lat="42.0295707675623" lon="13.015659459422103"><ele>408.0</ele><time>2026-04-04T12:03:26Z</time></trkpt><trkpt lat="42.02933135826033" lon="13.015906205804825"><ele>399.0</ele><time>2026-04-04T12:03:27Z</time></trkpt><trkpt lat="42.02909775632652" lon="13.01614326108725"><ele>390.0</ele><time>2026-04-04T12:03:28Z</time></trkpt><trkpt lat="42.02894767240587" lon="13.016269665469476"><ele>390.0</ele><time>2026-04-04T12:03:29Z</time></trkpt><trkpt lat="42.02875201918695" lon="13.016346257196076"><ele>390.0</ele><time>2026-04-04T12:03:30Z</time></trkpt><trkpt lat="42.028599302083066" lon="13.01635868702985"><ele>390.0</ele><time>2026-04-04T12:03:31Z</time></trkpt><trkpt lat="42.02845473175887" lon="13.016205633073895"><ele>385.5</ele><time>2026-04-04T12:03:32Z</time></trkpt><trkpt lat="42.02827883481508" lon="13.015938734945722"><ele>381.0</ele><time>2026-04-04T12:03:33Z</time></trkpt><trkpt lat="42.02805521138662" lon="13.015832833329474"><ele>381.0</ele><time>2026-04-04T12:03:34Z</time></trkpt><trkpt lat="42.02784314084722" lon="13.015817577355364"><ele>381.0</ele><time>2026-04-04T12:03:35Z</time></trkpt><trkpt lat="42.027620831459416" lon="13.01591055042111"><ele>381.0</ele><time>2026-04-04T12:03:36Z</time></trkpt><trkpt lat="42.02739905622361" lon="13.016107316070928"><ele>379.3333333333333</ele><time>2026-04-04T12:03:37Z</time></trkpt><trkpt lat="42.02717040080096" lon="13.016195342319888"><ele>377.66666666666663</ele><time>2026-04-04T12:03:38Z</time></trkpt><trkpt lat="42.026963311158525" lon="13.016170434803895"><ele>376.0</ele><time>2026-04-04T12:03:39Z</time></trkpt><trkpt lat="42.02675640877107" lon="13.01611579987816"><ele>373.3333333333333</ele><time>2026-04-04T12:03:40Z</time></trkpt><trkpt lat="42.02660872415724" lon="13.016000654189277"><ele>370.6666666666667</ele><time>2026-04-04T12:03:41Z</time></trkpt><trkpt lat="42.02646470291929" lon="13.015830484505265"><ele>368.0</ele><time>2026-04-04T12:03:42Z</time></trkpt><trkpt lat="42.02630736361404" lon="13.01562794890081"><ele>368.0</ele><time>2026-04-04T12:03:43Z</time></trkpt><trkpt lat="42.02610209783064" lon="13.015403739074088"><ele>368.0</ele><time>2026-04-04T12:03:44Z</time></trkpt><trkpt lat="42.02592947423837" lon="13.015298640875455"><ele>364.33333333333337</ele><time>2026-04-04T12:03:45Z</time></trkpt><trkpt lat="42.025735610932266" lon="13.015285638892209"><ele>360.6666666666667</ele><time>2026-04-04T12:03:46Z</time></trkpt><trkpt lat="42.02558899482169" lon="13.015408354025814"><ele>357.0</ele><time>2026-04-04T12:03:47Z</time></trkpt><trkpt lat="42.02544581309055" lon="13.015628254782083"><ele>357.0</ele><time>2026-04-04T12:03:48Z</time></trkpt><trkpt lat="42.025221226894914" lon="13.015747418790491"><ele>357.0</ele><time>2026-04-04T12:03:49Z</time></trkpt><trkpt lat="42.024989551438296" lon="13.01577670249817"><ele>354.5</ele><time>2026-04-04T12:03:50Z</time></trkpt><trkpt lat="42.02473240984912" lon="13.015812445033273"><ele>352.0</ele><time>2026-04-04T12:03:51Z</time></trkpt><trkpt lat="42.02450065525044" lon="13.015857714239038"><ele>352.0</ele><time>2026-04-04T12:03:52Z</time></trkpt><trkpt lat="42.02438913708592" lon="13.015836257079968"><ele>352.0</ele><time>2026-04-04T12:03:53Z</time></trkpt><trkpt lat="42.02428647668659" lon="13.015771661156155"><ele>352.0</ele><time>2026-04-04T12:03:54Z</time></trkpt><trkpt lat="42.024334468437814" lon="13.015555590611697"><ele>352.0</ele><time>2026-04-04T12:03:56Z</time></trkpt><trkpt lat="42.024476146697246" lon="13.015486654899146"><ele>350.66666666666663</ele><time>2026-04-04T12:03:57Z</time></trkpt><trkpt lat="42.024649212347555" lon="13.015390672772034"><ele>349.3333333333333</ele><time>2026-04-04T12:03:58Z</time></trkpt><trkpt lat="42.02476441793704" lon="13.015274572089627"><ele>348.0</ele><time>2026-04-04T12:03:59Z</time></trkpt><trkpt lat="42.024874455287055" lon="13.015138136588101"><ele>347.6666666666667</ele><time>2026-04-04T12:04:00Z</time></trkpt><trkpt lat="42.024932877581016" lon="13.014857084748689"><ele>347.33333333333337</ele><time>2026-04-04T12:04:01Z</time></trkpt><trkpt lat="42.02494188414898" lon="13.014555768794796"><ele>347.0</ele><time>2026-04-04T12:04:02Z</time></trkpt><trkpt lat="42.02487801417759" lon="13.014305195628275"><ele>348.0</ele><time>2026-04-04T12:04:03Z</time></trkpt><trkpt lat="42.02473151878732" lon="13.014114086680161"><ele>349.0</ele><time>2026-04-04T12:04:04Z</time></trkpt><trkpt lat="42.02450578240313" lon="13.013917497299621"><ele>349.0</ele><time>2026-04-04T12:04:05Z</time></trkpt><trkpt lat="42.024235765301" lon="13.013710324079074"><ele>349.0</ele><time>2026-04-04T12:04:06Z</time></trkpt><trkpt lat="42.02409684018232" lon="13.013453922665379"><ele>344.0</ele><time>2026-04-04T12:04:07Z</time></trkpt><trkpt lat="42.02395436605194" lon="13.013163120347036"><ele>339.0</ele><time>2026-04-04T12:04:08Z</time></trkpt><trkpt lat="42.02380519964508" lon="13.012945301415291"><ele>339.0</ele><time>2026-04-04T12:04:09Z</time></trkpt><trkpt lat="42.02356067151844" lon="13.01276767341341"><ele>339.0</ele><time>2026-04-04T12:04:10Z</time></trkpt><trkpt lat="42.02333661433243" lon="13.012538888134507"><ele>335.0</ele><time>2026-04-04T12:04:11Z</time></trkpt><trkpt lat="42.02316599932981" lon="13.012248587236083"><ele>331.0</ele><time>2026-04-04T12:04:12Z</time></trkpt><trkpt lat="42.02293682440011" lon="13.011831618444887"><ele>332.0</ele><time>2026-04-04T12:04:13Z</time></trkpt><trkpt lat="42.022720462814654" lon="13.011372044123577"><ele>333.0</ele><time>2026-04-04T12:04:14Z</time></trkpt><trkpt lat="42.02254023509801" lon="13.010989680493585"><ele>329.5</ele><time>2026-04-04T12:04:15Z</time></trkpt><trkpt lat="42.02236942197312" lon="13.010645535797751"><ele>326.0</ele><time>2026-04-04T12:04:16Z</time></trkpt><trkpt lat="42.02224974119652" lon="13.010463600699993"><ele>326.0</ele><time>2026-04-04T12:04:17Z</time></trkpt><trkpt lat="42.02208491177736" lon="13.01024310796352"><ele>326.0</ele><time>2026-04-04T12:04:18Z</time></trkpt><trkpt lat="42.021941678660035" lon="13.010054288596235"><ele>326.0</ele><time>2026-04-04T12:04:19Z</time></trkpt><trkpt lat="42.02180886980086" lon="13.009862732297211"><ele>327.0</ele><time>2026-04-04T12:04:20Z</time></trkpt><trkpt lat="42.02167553354716" lon="13.00966655614769"><ele>328.0</ele><time>2026-04-04T12:04:21Z</time></trkpt><trkpt lat="42.02158476231583" lon="13.009441641498052"><ele>329.0</ele><time>2026-04-04T12:04:22Z</time></trkpt><trkpt lat="42.02153679120759" lon="13.009212411739663"><ele>327.0</ele><time>2026-04-04T12:04:23Z</time></trkpt><trkpt lat="42.02154933612766" lon="13.008980188356144"><ele>325.0</ele><time>2026-04-04T12:04:24Z</time></trkpt><trkpt lat="42.021531439239844" lon="13.00873102452011"><ele>323.0</ele><time>2026-04-04T12:04:25Z</time></trkpt><trkpt lat="42.02149219232888" lon="13.008486923810981"><ele>323.33333333333337</ele><time>2026-04-04T12:04:26Z</time></trkpt><trkpt lat="42.02142231164676" lon="13.008247909546043"><ele>323.6666666666667</ele><time>2026-04-04T12:04:27Z</time></trkpt><trkpt lat="42.02133326993058" lon="13.007996311683872"><ele>324.0</ele><time>2026-04-04T12:04:28Z</time></trkpt><trkpt lat="42.021219340494405" lon="13.007753678982354"><ele>324.0</ele><time>2026-04-04T12:04:29Z</time></trkpt><trkpt lat="42.02109318300354" lon="13.007515057024975"><ele>324.0</ele><time>2026-04-04T12:04:30Z</time></trkpt><trkpt lat="42.02097199861089" lon="13.007278597614462"><ele>324.0</ele><time>2026-04-04T12:04:31Z</time></trkpt><trkpt lat="42.02084665294281" lon="13.007027643211572"><ele>324.6666666666667</ele><time>2026-04-04T12:04:32Z</time></trkpt><trkpt lat="42.02074458538755" lon="13.006793940489645"><ele>325.33333333333337</ele><time>2026-04-04T12:04:33Z</time></trkpt><trkpt lat="42.020620255691355" lon="13.006543038553385"><ele>326.0</ele><time>2026-04-04T12:04:34Z</time></trkpt><trkpt lat="42.0204844892053" lon="13.00627128295928"><ele>326.0</ele><time>2026-04-04T12:04:35Z</time></trkpt><trkpt lat="42.020345163637195" lon="13.005998365542203"><ele>326.0</ele><time>2026-04-04T12:04:36Z</time></trkpt><trkpt lat="42.02019897622407" lon="13.005719419492912"><ele>326.0</ele><time>2026-04-04T12:04:37Z</time></trkpt><trkpt lat="42.020050111881304" lon="13.00543439245337"><ele>326.0</ele><time>2026-04-04T12:04:38Z</time></trkpt><trkpt lat="42.019901122414765" lon="13.005138835573314"><ele>326.5</ele><time>2026-04-04T12:04:39Z</time></trkpt><trkpt lat="42.0197490468617" lon="13.004851013181877"><ele>327.0</ele><time>2026-04-04T12:04:40Z</time></trkpt><trkpt lat="42.019603798488" lon="13.004559774921336"><ele>327.0</ele><time>2026-04-04T12:04:41Z</time></trkpt><trkpt lat="42.019466146308446" lon="13.004272188637207"><ele>327.0</ele><time>2026-04-04T12:04:42Z</time></trkpt><trkpt lat="42.019325981289704" lon="13.003997661169866"><ele>326.5</ele><time>2026-04-04T12:04:43Z</time></trkpt><trkpt lat="42.01919448705993" lon="13.003743515565699"><ele>326.0</ele><time>2026-04-04T12:04:44Z</time></trkpt><trkpt lat="42.01907155116981" lon="13.003493203087812"><ele>326.33333333333337</ele><time>2026-04-04T12:04:45Z</time></trkpt><trkpt lat="42.018950135170144" lon="13.003251505061497"><ele>326.6666666666667</ele><time>2026-04-04T12:04:46Z</time></trkpt><trkpt lat="42.01882938499617" lon="13.002993252985549"><ele>327.0</ele><time>2026-04-04T12:04:47Z</time></trkpt><trkpt lat="42.018753679713235" lon="13.002706351929357"><ele>327.0</ele><time>2026-04-04T12:04:48Z</time></trkpt><trkpt lat="42.01868686268477" lon="13.0024187883283"><ele>327.0</ele><time>2026-04-04T12:04:49Z</time></trkpt><trkpt lat="42.018632396633606" lon="13.002124112648138"><ele>327.0</ele><time>2026-04-04T12:04:50Z</time></trkpt><trkpt lat="42.01861579216197" lon="13.001826379988998"><ele>327.0</ele><time>2026-04-04T12:04:51Z</time></trkpt><trkpt lat="42.0186216182359" lon="13.00151341075951"><ele>327.0</ele><time>2026-04-04T12:04:52Z</time></trkpt><trkpt lat="42.01865842531488" lon="13.00120950509356"><ele>327.0</ele><time>2026-04-04T12:04:53Z</time></trkpt><trkpt lat="42.01871813505607" lon="13.00091606632438"><ele>327.0</ele><time>2026-04-04T12:04:54Z</time></trkpt><trkpt lat="42.01878023229244" lon="13.000611883986473"><ele>327.5</ele><time>2026-04-04T12:04:55Z</time></trkpt><trkpt lat="42.018847062700765" lon="13.000305851490198"><ele>328.0</ele><time>2026-04-04T12:04:56Z</time></trkpt><trkpt lat="42.01892025826379" lon="12.999994337787006"><ele>328.0</ele><time>2026-04-04T12:04:57Z</time></trkpt><trkpt lat="42.018996175549844" lon="12.999673832542804"><ele>328.0</ele><time>2026-04-04T12:04:58Z</time></trkpt><trkpt lat="42.019065236651656" lon="12.99936839160838"><ele>328.0</ele><time>2026-04-04T12:04:59Z</time></trkpt><trkpt lat="42.01913874269147" lon="12.999052346206685"><ele>328.0</ele><time>2026-04-04T12:05:00Z</time></trkpt><trkpt lat="42.01921054205365" lon="12.998743896382624"><ele>329.5</ele><time>2026-04-04T12:05:01Z</time></trkpt><trkpt lat="42.01928718443821" lon="12.998425718027113"><ele>331.0</ele><time>2026-04-04T12:05:02Z</time></trkpt><trkpt lat="42.01936048765613" lon="12.998112538570972"><ele>331.0</ele><time>2026-04-04T12:05:03Z</time></trkpt><trkpt lat="42.01943452904291" lon="12.997798670129821"><ele>331.0</ele><time>2026-04-04T12:05:04Z</time></trkpt><trkpt lat="42.0195213857334" lon="12.997462165568248"><ele>330.0</ele><time>2026-04-04T12:05:05Z</time></trkpt><trkpt lat="42.01961645317493" lon="12.99712957148545"><ele>329.0</ele><time>2026-04-04T12:05:06Z</time></trkpt><trkpt lat="42.01972379984363" lon="12.99679523428346"><ele>327.5</ele><time>2026-04-04T12:05:07Z</time></trkpt><trkpt lat="42.019840630096674" lon="12.996467621913995"><ele>326.0</ele><time>2026-04-04T12:05:08Z</time></trkpt><trkpt lat="42.01996638684147" lon="12.996154945266872"><ele>327.5</ele><time>2026-04-04T12:05:09Z</time></trkpt><trkpt lat="42.020089174984996" lon="12.995862680225219"><ele>329.0</ele><time>2026-04-04T12:05:10Z</time></trkpt><trkpt lat="42.02021932284389" lon="12.995561594221263"><ele>329.0</ele><time>2026-04-04T12:05:11Z</time></trkpt><trkpt lat="42.02035600967852" lon="12.995262332489352"><ele>329.0</ele><time>2026-04-04T12:05:12Z</time></trkpt><trkpt lat="42.02049881291258" lon="12.994966599052931"><ele>327.5</ele><time>2026-04-04T12:05:13Z</time></trkpt><trkpt lat="42.020651007200335" lon="12.994661542876553"><ele>326.0</ele><time>2026-04-04T12:05:14Z</time></trkpt><trkpt lat="42.020800963287876" lon="12.994352049558698"><ele>328.0</ele><time>2026-04-04T12:05:15Z</time></trkpt><trkpt lat="42.02095302464966" lon="12.994037059747418"><ele>330.0</ele><time>2026-04-04T12:05:16Z</time></trkpt><trkpt lat="42.02110053455314" lon="12.993727111448633"><ele>330.0</ele><time>2026-04-04T12:05:17Z</time></trkpt><trkpt lat="42.02125140820615" lon="12.993404149533191"><ele>330.0</ele><time>2026-04-04T12:05:18Z</time></trkpt><trkpt lat="42.02140061245952" lon="12.993079919126885"><ele>330.5</ele><time>2026-04-04T12:05:19Z</time></trkpt><trkpt lat="42.02154698682947" lon="12.992761228553025"><ele>331.0</ele><time>2026-04-04T12:05:20Z</time></trkpt><trkpt lat="42.02169199817006" lon="12.992454008128442"><ele>331.0</ele><time>2026-04-04T12:05:21Z</time></trkpt><trkpt lat="42.021836490100355" lon="12.992145478155084"><ele>331.0</ele><time>2026-04-04T12:05:22Z</time></trkpt><trkpt lat="42.0219767179576" lon="12.991854016781774"><ele>328.0</ele><time>2026-04-04T12:05:23Z</time></trkpt><trkpt lat="42.022113427312" lon="12.991561026873775"><ele>325.0</ele><time>2026-04-04T12:05:24Z</time></trkpt><trkpt lat="42.02225139296171" lon="12.99126192474198"><ele>325.0</ele><time>2026-04-04T12:05:25Z</time></trkpt><trkpt lat="42.02238704651898" lon="12.990965552545408"><ele>325.0</ele><time>2026-04-04T12:05:26Z</time></trkpt><trkpt lat="42.02252165793382" lon="12.990680097283933"><ele>331.0</ele><time>2026-04-04T12:05:27Z</time></trkpt><trkpt lat="42.02266074287515" lon="12.9903857774318"><ele>337.0</ele><time>2026-04-04T12:05:28Z</time></trkpt><trkpt lat="42.02280517523162" lon="12.99010956560253"><ele>332.5</ele><time>2026-04-04T12:05:29Z</time></trkpt><trkpt lat="42.0229597759542" lon="12.989884267327174"><ele>328.0</ele><time>2026-04-04T12:05:30Z</time></trkpt><trkpt lat="42.02315457387055" lon="12.989663428877629"><ele>332.0</ele><time>2026-04-04T12:05:31Z</time></trkpt><trkpt lat="42.02336458804321" lon="12.98944010100556"><ele>336.0</ele><time>2026-04-04T12:05:32Z</time></trkpt><trkpt lat="42.0235856290644" lon="12.989187375645685"><ele>332.5</ele><time>2026-04-04T12:05:33Z</time></trkpt><trkpt lat="42.023800975255746" lon="12.988936039820752"><ele>329.0</ele><time>2026-04-04T12:05:34Z</time></trkpt><trkpt lat="42.02399377388513" lon="12.988669478173538"><ele>329.0</ele><time>2026-04-04T12:05:35Z</time></trkpt><trkpt lat="42.0241398261753" lon="12.988369077818982"><ele>329.0</ele><time>2026-04-04T12:05:36Z</time></trkpt><trkpt lat="42.024240366603244" lon="12.988043913060485"><ele>328.5</ele><time>2026-04-04T12:05:37Z</time></trkpt><trkpt lat="42.02429653411207" lon="12.98769245092341"><ele>328.0</ele><time>2026-04-04T12:05:38Z</time></trkpt><trkpt lat="42.02431808648712" lon="12.987326064434798"><ele>328.0</ele><time>2026-04-04T12:05:39Z</time></trkpt><trkpt lat="42.02433277444264" lon="12.986956229756263"><ele>328.0</ele><time>2026-04-04T12:05:40Z</time></trkpt><trkpt lat="42.024346752986666" lon="12.98657159079023"><ele>328.0</ele><time>2026-04-04T12:05:41Z</time></trkpt><trkpt lat="42.024393259317705" lon="12.98618345058686"><ele>328.0</ele><time>2026-04-04T12:05:42Z</time></trkpt><trkpt lat="42.02441896051166" lon="12.985779607487522"><ele>328.0</ele><time>2026-04-04T12:05:43Z</time></trkpt><trkpt lat="42.02446885910159" lon="12.985393256022236"><ele>328.0</ele><time>2026-04-04T12:05:44Z</time></trkpt><trkpt lat="42.02453437748694" lon="12.985047918903756"><ele>326.0</ele><time>2026-04-04T12:05:45Z</time></trkpt><trkpt lat="42.024625997133626" lon="12.984683805030071"><ele>324.0</ele><time>2026-04-04T12:05:46Z</time></trkpt><trkpt lat="42.02475873218812" lon="12.984294185376003"><ele>321.0</ele><time>2026-04-04T12:05:47Z</time></trkpt><trkpt lat="42.02495685625092" lon="12.983890754652778"><ele>318.0</ele><time>2026-04-04T12:05:48Z</time></trkpt><trkpt lat="42.02518936689113" lon="12.98350370767461"><ele>321.0</ele><time>2026-04-04T12:05:49Z</time></trkpt><trkpt lat="42.02548725065215" lon="12.983070440728453"><ele>324.0</ele><time>2026-04-04T12:05:50Z</time></trkpt><trkpt lat="42.02582648570265" lon="12.982568603713629"><ele>323.0</ele><time>2026-04-04T12:05:51Z</time></trkpt><trkpt lat="42.02614602365444" lon="12.982086947564788"><ele>323.0</ele><time>2026-04-04T12:05:52Z</time></trkpt><trkpt lat="42.026446757545614" lon="12.981684825905694"><ele>323.0</ele><time>2026-04-04T12:05:53Z</time></trkpt><trkpt lat="42.02670711310398" lon="12.981301678558737"><ele>322.5</ele><time>2026-04-04T12:05:54Z</time></trkpt><trkpt lat="42.0269381856406" lon="12.980905305721844"><ele>322.0</ele><time>2026-04-04T12:05:55Z</time></trkpt><trkpt lat="42.02712219214965" lon="12.980473374011831"><ele>320.5</ele><time>2026-04-04T12:05:56Z</time></trkpt><trkpt lat="42.02726149344324" lon="12.97999850742382"><ele>319.0</ele><time>2026-04-04T12:05:57Z</time></trkpt><trkpt lat="42.027350485750446" lon="12.979468615748367"><ele>319.5</ele><time>2026-04-04T12:05:58Z</time></trkpt><trkpt lat="42.02740229496163" lon="12.97887230399129"><ele>320.0</ele><time>2026-04-04T12:05:59Z</time></trkpt><trkpt lat="42.02742757199149" lon="12.978311814494235"><ele>320.0</ele><time>2026-04-04T12:06:00Z</time></trkpt><trkpt lat="42.02746336738868" lon="12.977814577610076"><ele>320.0</ele><time>2026-04-04T12:06:01Z</time></trkpt><trkpt lat="42.027519232895415" lon="12.97738933177796"><ele>323.5</ele><time>2026-04-04T12:06:02Z</time></trkpt><trkpt lat="42.02756208761314" lon="12.9770228547887"><ele>327.0</ele><time>2026-04-04T12:06:03Z</time></trkpt><trkpt lat="42.02763955008026" lon="12.976711598464439"><ele>325.5</ele><time>2026-04-04T12:06:04Z</time></trkpt><trkpt lat="42.027778825964866" lon="12.97644305623954"><ele>324.0</ele><time>2026-04-04T12:06:05Z</time></trkpt><trkpt lat="42.027964594138226" lon="12.97622557689981"><ele>324.0</ele><time>2026-04-04T12:06:06Z</time></trkpt><trkpt lat="42.02818636130658" lon="12.976040401642305"><ele>324.0</ele><time>2026-04-04T12:06:07Z</time></trkpt><trkpt lat="42.028502026383556" lon="12.975925910638159"><ele>325.0</ele><time>2026-04-04T12:06:08Z</time></trkpt><trkpt lat="42.02874709836479" lon="12.975753504632365"><ele>326.0</ele><time>2026-04-04T12:06:09Z</time></trkpt><trkpt lat="42.02902689235576" lon="12.975738046191038"><ele>333.5</ele><time>2026-04-04T12:06:10Z</time></trkpt><trkpt lat="42.02925427691586" lon="12.975514340648179"><ele>341.0</ele><time>2026-04-04T12:06:11Z</time></trkpt><trkpt lat="42.02946644991336" lon="12.97518193171308"><ele>332.0</ele><time>2026-04-04T12:06:12Z</time></trkpt><trkpt lat="42.029635890312925" lon="12.974801896277807"><ele>323.0</ele><time>2026-04-04T12:06:13Z</time></trkpt><trkpt lat="42.02975281333892" lon="12.974451031750807"><ele>323.0</ele><time>2026-04-04T12:06:14Z</time></trkpt><trkpt lat="42.029926628348456" lon="12.974181944618467"><ele>323.0</ele><time>2026-04-04T12:06:15Z</time></trkpt><trkpt lat="42.0302279007716" lon="12.973971887904078"><ele>326.0</ele><time>2026-04-04T12:06:16Z</time></trkpt><trkpt lat="42.03055493893551" lon="12.973767051070578"><ele>329.0</ele><time>2026-04-04T12:06:17Z</time></trkpt><trkpt lat="42.03083130457577" lon="12.973551499540216"><ele>326.5</ele><time>2026-04-04T12:06:18Z</time></trkpt><trkpt lat="42.03105961196201" lon="12.973269999624701"><ele>324.0</ele><time>2026-04-04T12:06:19Z</time></trkpt><trkpt lat="42.03123868590205" lon="12.972946211254762"><ele>324.0</ele><time>2026-04-04T12:06:20Z</time></trkpt><trkpt lat="42.0313921422562" lon="12.972668646198828"><ele>324.0</ele><time>2026-04-04T12:06:21Z</time></trkpt><trkpt lat="42.03156107324487" lon="12.9723666174799"><ele>325.5</ele><time>2026-04-04T12:06:22Z</time></trkpt><trkpt lat="42.03172989712005" lon="12.971981889086203"><ele>327.0</ele><time>2026-04-04T12:06:23Z</time></trkpt><trkpt lat="42.03188053227338" lon="12.971562872528558"><ele>324.0</ele><time>2026-04-04T12:06:24Z</time></trkpt><trkpt lat="42.03202299748529" lon="12.97121601803259"><ele>321.0</ele><time>2026-04-04T12:06:25Z</time></trkpt><trkpt lat="42.03215739094653" lon="12.970959536981788"><ele>319.5</ele><time>2026-04-04T12:06:26Z</time></trkpt><trkpt lat="42.03233466399388" lon="12.970773059558123"><ele>318.0</ele><time>2026-04-04T12:06:27Z</time></trkpt><trkpt lat="42.03258816663331" lon="12.970657060877446"><ele>318.0</ele><time>2026-04-04T12:06:28Z</time></trkpt><trkpt lat="42.0328855562704" lon="12.97051429269446"><ele>318.0</ele><time>2026-04-04T12:06:29Z</time></trkpt><trkpt lat="42.03318685949295" lon="12.970282042167817"><ele>319.0</ele><time>2026-04-04T12:06:30Z</time></trkpt><trkpt lat="42.033431792103656" lon="12.970060503098495"><ele>320.0</ele><time>2026-04-04T12:06:31Z</time></trkpt><trkpt lat="42.033626586950746" lon="12.96986395369142"><ele>320.0</ele><time>2026-04-04T12:06:32Z</time></trkpt><trkpt lat="42.0337892280381" lon="12.969631144952219"><ele>320.0</ele><time>2026-04-04T12:06:33Z</time></trkpt><trkpt lat="42.03388356422846" lon="12.969342665544623"><ele>319.5</ele><time>2026-04-04T12:06:34Z</time></trkpt><trkpt lat="42.03389950225119" lon="12.969041406018684"><ele>319.0</ele><time>2026-04-04T12:06:35Z</time></trkpt><trkpt lat="42.03383828768839" lon="12.968672359469341"><ele>320.5</ele><time>2026-04-04T12:06:36Z</time></trkpt><trkpt lat="42.03372199752919" lon="12.968191761476483"><ele>322.0</ele><time>2026-04-04T12:06:37Z</time></trkpt><trkpt lat="42.03361271939187" lon="12.967697823830063"><ele>323.5</ele><time>2026-04-04T12:06:38Z</time></trkpt><trkpt lat="42.033515063537514" lon="12.967262383279147"><ele>325.0</ele><time>2026-04-04T12:06:39Z</time></trkpt><trkpt lat="42.03345996302022" lon="12.966876464750493"><ele>324.0</ele><time>2026-04-04T12:06:40Z</time></trkpt><trkpt lat="42.03347321920672" lon="12.96650885642839"><ele>323.0</ele><time>2026-04-04T12:06:41Z</time></trkpt><trkpt lat="42.033528579102004" lon="12.966150836841907"><ele>322.5</ele><time>2026-04-04T12:06:42Z</time></trkpt><trkpt lat="42.03359347482867" lon="12.965789362781678"><ele>322.0</ele><time>2026-04-04T12:06:43Z</time></trkpt><trkpt lat="42.03370771524466" lon="12.965399383774571"><ele>322.5</ele><time>2026-04-04T12:06:44Z</time></trkpt><trkpt lat="42.033877120389214" lon="12.964952752830193"><ele>323.0</ele><time>2026-04-04T12:06:45Z</time></trkpt><trkpt lat="42.03404440913044" lon="12.964525243248401"><ele>323.0</ele><time>2026-04-04T12:06:46Z</time></trkpt><trkpt lat="42.03418849690007" lon="12.964061363870389"><ele>323.0</ele><time>2026-04-04T12:06:47Z</time></trkpt><trkpt lat="42.034317418225974" lon="12.963560278554375"><ele>322.5</ele><time>2026-04-04T12:06:48Z</time></trkpt><trkpt lat="42.03442395779303" lon="12.963091272840014"><ele>322.0</ele><time>2026-04-04T12:06:49Z</time></trkpt><trkpt lat="42.03449999079448" lon="12.962675713104316"><ele>320.5</ele><time>2026-04-04T12:06:50Z</time></trkpt><trkpt lat="42.034514960158035" lon="12.962295549232268"><ele>319.0</ele><time>2026-04-04T12:06:51Z</time></trkpt><trkpt lat="42.03449204111955" lon="12.961943487351771"><ele>320.0</ele><time>2026-04-04T12:06:52Z</time></trkpt><trkpt lat="42.03450595863778" lon="12.96161509242046"><ele>321.0</ele><time>2026-04-04T12:06:53Z</time></trkpt><trkpt lat="42.03461099695006" lon="12.961291050271093"><ele>321.0</ele><time>2026-04-04T12:06:54Z</time></trkpt><trkpt lat="42.03478810077633" lon="12.960966796908851"><ele>321.0</ele><time>2026-04-04T12:06:55Z</time></trkpt><trkpt lat="42.03496386680976" lon="12.960646708394258"><ele>323.5</ele><time>2026-04-04T12:06:56Z</time></trkpt><trkpt lat="42.03510388316316" lon="12.96034472557321"><ele>326.0</ele><time>2026-04-04T12:06:57Z</time></trkpt><trkpt lat="42.03523340066644" lon="12.960087882114452"><ele>324.33333333333337</ele><time>2026-04-04T12:06:58Z</time></trkpt><trkpt lat="42.035364839050004" lon="12.959876433450253"><ele>322.6666666666667</ele><time>2026-04-04T12:06:59Z</time></trkpt><trkpt lat="42.03552535780532" lon="12.959730602199249"><ele>321.0</ele><time>2026-04-04T12:07:00Z</time></trkpt><trkpt lat="42.035735926471716" lon="12.959599882857008"><ele>325.5</ele><time>2026-04-04T12:07:01Z</time></trkpt><trkpt lat="42.03601170802789" lon="12.959488228096294"><ele>330.0</ele><time>2026-04-04T12:07:02Z</time></trkpt><trkpt lat="42.03634715281305" lon="12.959373037632421"><ele>333.5</ele><time>2026-04-04T12:07:03Z</time></trkpt><trkpt lat="42.036677701546125" lon="12.959273754739169"><ele>337.0</ele><time>2026-04-04T12:07:04Z</time></trkpt><trkpt lat="42.036948247215896" lon="12.959162690092848"><ele>328.5</ele><time>2026-04-04T12:07:05Z</time></trkpt><trkpt lat="42.037189927536964" lon="12.95895497827479"><ele>320.0</ele><time>2026-04-04T12:07:06Z</time></trkpt><trkpt lat="42.037467336363875" lon="12.958637463163196"><ele>320.0</ele><time>2026-04-04T12:07:07Z</time></trkpt><trkpt lat="42.0377286641672" lon="12.958369848652103"><ele>320.0</ele><time>2026-04-04T12:07:08Z</time></trkpt><trkpt lat="42.037919267379024" lon="12.958135736072265"><ele>320.0</ele><time>2026-04-04T12:07:09Z</time></trkpt><trkpt lat="42.03804456637629" lon="12.957882519209063"><ele>320.0</ele><time>2026-04-04T12:07:10Z</time></trkpt><trkpt lat="42.03811292957728" lon="12.957587956265826"><ele>319.0</ele><time>2026-04-04T12:07:11Z</time></trkpt><trkpt lat="42.038130712664255" lon="12.95725176622055"><ele>318.0</ele><time>2026-04-04T12:07:12Z</time></trkpt><trkpt lat="42.038051570593446" lon="12.956870247394729"><ele>317.5</ele><time>2026-04-04T12:07:13Z</time></trkpt><trkpt lat="42.03790901959735" lon="12.956473852163576"><ele>317.0</ele><time>2026-04-04T12:07:14Z</time></trkpt><trkpt lat="42.037736011704744" lon="12.956090073191815"><ele>319.0</ele><time>2026-04-04T12:07:15Z</time></trkpt><trkpt lat="42.03762465907866" lon="12.955752442676372"><ele>321.0</ele><time>2026-04-04T12:07:16Z</time></trkpt><trkpt lat="42.03753006441585" lon="12.955483325501321"><ele>319.0</ele><time>2026-04-04T12:07:17Z</time></trkpt><trkpt lat="42.037412017799944" lon="12.955232418142808"><ele>317.0</ele><time>2026-04-04T12:07:18Z</time></trkpt><trkpt lat="42.03726494478613" lon="12.954966043889003"><ele>317.0</ele><time>2026-04-04T12:07:19Z</time></trkpt><trkpt lat="42.03711498364277" lon="12.954660869183826"><ele>317.0</ele><time>2026-04-04T12:07:20Z</time></trkpt><trkpt lat="42.03695440047842" lon="12.954313168676986"><ele>317.5</ele><time>2026-04-04T12:07:21Z</time></trkpt><trkpt lat="42.03679688542679" lon="12.953981129175437"><ele>318.0</ele><time>2026-04-04T12:07:22Z</time></trkpt><trkpt lat="42.0366581432248" lon="12.95369866093393"><ele>317.0</ele><time>2026-04-04T12:07:23Z</time></trkpt><trkpt lat="42.036529543052055" lon="12.953428490608252"><ele>316.0</ele><time>2026-04-04T12:07:24Z</time></trkpt><trkpt lat="42.03640748654964" lon="12.953178227562553"><ele>316.0</ele><time>2026-04-04T12:07:25Z</time></trkpt><trkpt lat="42.036296597439765" lon="12.95295216666768"><ele>316.0</ele><time>2026-04-04T12:07:26Z</time></trkpt><trkpt lat="42.03618965491825" lon="12.952736251160989"><ele>316.0</ele><time>2026-04-04T12:07:27Z</time></trkpt><trkpt lat="42.03608757260406" lon="12.952527168363014"><ele>315.3333333333333</ele><time>2026-04-04T12:07:28Z</time></trkpt><trkpt lat="42.035973569505984" lon="12.952305552677522"><ele>314.6666666666667</ele><time>2026-04-04T12:07:29Z</time></trkpt><trkpt lat="42.03584504059441" lon="12.952072315737773"><ele>314.0</ele><time>2026-04-04T12:07:30Z</time></trkpt><trkpt lat="42.035706738151745" lon="12.95183208773599"><ele>313.0</ele><time>2026-04-04T12:07:31Z</time></trkpt><trkpt lat="42.03555521995461" lon="12.95157684791433"><ele>312.0</ele><time>2026-04-04T12:07:32Z</time></trkpt><trkpt lat="42.03540078238996" lon="12.951292482329292"><ele>312.0</ele><time>2026-04-04T12:07:33Z</time></trkpt><trkpt lat="42.035228081459735" lon="12.95101251838571"><ele>312.0</ele><time>2026-04-04T12:07:34Z</time></trkpt><trkpt lat="42.03504941928356" lon="12.950720678731331"><ele>312.0</ele><time>2026-04-04T12:07:35Z</time></trkpt><trkpt lat="42.034874749842594" lon="12.950432795284886"><ele>312.0</ele><time>2026-04-04T12:07:36Z</time></trkpt><trkpt lat="42.034750116404915" lon="12.950085259810516"><ele>313.5</ele><time>2026-04-04T12:07:37Z</time></trkpt><trkpt lat="42.034656681203806" lon="12.949710781076796"><ele>315.0</ele><time>2026-04-04T12:07:38Z</time></trkpt><trkpt lat="42.03458176957064" lon="12.949308632350709"><ele>315.0</ele><time>2026-04-04T12:07:39Z</time></trkpt><trkpt lat="42.03450950747497" lon="12.948909060482425"><ele>315.0</ele><time>2026-04-04T12:07:40Z</time></trkpt><trkpt lat="42.03442656930975" lon="12.948487028610108"><ele>316.5</ele><time>2026-04-04T12:07:41Z</time></trkpt><trkpt lat="42.034312172465945" lon="12.948073689723424"><ele>318.0</ele><time>2026-04-04T12:07:42Z</time></trkpt><trkpt lat="42.034191696595116" lon="12.947707611908594"><ele>314.0</ele><time>2026-04-04T12:07:43Z</time></trkpt><trkpt lat="42.03411514307748" lon="12.947356196906675"><ele>310.0</ele><time>2026-04-04T12:07:44Z</time></trkpt><trkpt lat="42.03406632963687" lon="12.947019121835508"><ele>311.0</ele><time>2026-04-04T12:07:45Z</time></trkpt><trkpt lat="42.03403546079095" lon="12.9467101683409"><ele>312.0</ele><time>2026-04-04T12:07:46Z</time></trkpt><trkpt lat="42.03392733790958" lon="12.946418047026931"><ele>312.0</ele><time>2026-04-04T12:07:47Z</time></trkpt><trkpt lat="42.033759197631944" lon="12.946178689282982"><ele>312.0</ele><time>2026-04-04T12:07:48Z</time></trkpt><trkpt lat="42.03356489756626" lon="12.945999077919264"><ele>312.0</ele><time>2026-04-04T12:07:49Z</time></trkpt><trkpt lat="42.03336518144518" lon="12.945901023153464"><ele>312.0</ele><time>2026-04-04T12:07:50Z</time></trkpt><trkpt lat="42.03313291848053" lon="12.9458585343844"><ele>312.0</ele><time>2026-04-04T12:07:51Z</time></trkpt><trkpt lat="42.032869373193805" lon="12.945806578583186"><ele>313.0</ele><time>2026-04-04T12:07:52Z</time></trkpt><trkpt lat="42.03258898527321" lon="12.94575772287176"><ele>314.0</ele><time>2026-04-04T12:07:53Z</time></trkpt><trkpt lat="42.03235305425582" lon="12.945637693943453"><ele>311.5</ele><time>2026-04-04T12:07:54Z</time></trkpt><trkpt lat="42.03214918728852" lon="12.945503014356461"><ele>309.0</ele><time>2026-04-04T12:07:55Z</time></trkpt><trkpt lat="42.031941760092515" lon="12.945293978335236"><ele>309.0</ele><time>2026-04-04T12:07:56Z</time></trkpt><trkpt lat="42.031702539637706" lon="12.945062351111496"><ele>309.0</ele><time>2026-04-04T12:07:57Z</time></trkpt><trkpt lat="42.031456406855156" lon="12.944857611052306"><ele>310.0</ele><time>2026-04-04T12:07:58Z</time></trkpt><trkpt lat="42.03117521071924" lon="12.94472424690793"><ele>311.0</ele><time>2026-04-04T12:07:59Z</time></trkpt><trkpt lat="42.03085250042537" lon="12.944632342653174"><ele>309.5</ele><time>2026-04-04T12:08:00Z</time></trkpt><trkpt lat="42.030536608002166" lon="12.944536097576727"><ele>308.0</ele><time>2026-04-04T12:08:01Z</time></trkpt><trkpt lat="42.03025508664947" lon="12.944418280160038"><ele>307.5</ele><time>2026-04-04T12:08:02Z</time></trkpt><trkpt lat="42.029974161826274" lon="12.944289584191248"><ele>307.0</ele><time>2026-04-04T12:08:03Z</time></trkpt><trkpt lat="42.02969668638692" lon="12.944136986344766"><ele>307.0</ele><time>2026-04-04T12:08:04Z</time></trkpt><trkpt lat="42.02945984983406" lon="12.943973559910347"><ele>307.0</ele><time>2026-04-04T12:08:05Z</time></trkpt><trkpt lat="42.029223512738106" lon="12.943813000430206"><ele>306.66666666666663</ele><time>2026-04-04T12:08:06Z</time></trkpt><trkpt lat="42.029027245973005" lon="12.943641099180944"><ele>306.3333333333333</ele><time>2026-04-04T12:08:07Z</time></trkpt><trkpt lat="42.028860503865516" lon="12.943469340935442"><ele>306.0</ele><time>2026-04-04T12:08:08Z</time></trkpt><trkpt lat="42.02871516240033" lon="12.943215951545213"><ele>306.0</ele><time>2026-04-04T12:08:09Z</time></trkpt><trkpt lat="42.028582933838244" lon="12.94291138234434"><ele>306.0</ele><time>2026-04-04T12:08:10Z</time></trkpt><trkpt lat="42.028529875451554" lon="12.942545692508597"><ele>304.0</ele><time>2026-04-04T12:08:11Z</time></trkpt><trkpt lat="42.02848925141711" lon="12.942158656454163"><ele>302.0</ele><time>2026-04-04T12:08:12Z</time></trkpt><trkpt lat="42.028460259038376" lon="12.94174808733529"><ele>301.5</ele><time>2026-04-04T12:08:13Z</time></trkpt><trkpt lat="42.02841556485712" lon="12.941320351005725"><ele>301.0</ele><time>2026-04-04T12:08:14Z</time></trkpt><trkpt lat="42.02840581222812" lon="12.94087156817983"><ele>301.0</ele><time>2026-04-04T12:08:15Z</time></trkpt><trkpt lat="42.02838302845982" lon="12.940431958079248"><ele>301.0</ele><time>2026-04-04T12:08:16Z</time></trkpt><trkpt lat="42.028348170941136" lon="12.940007535000293"><ele>301.0</ele><time>2026-04-04T12:08:17Z</time></trkpt><trkpt lat="42.02830585485691" lon="12.939590200662668"><ele>301.0</ele><time>2026-04-04T12:08:18Z</time></trkpt><trkpt lat="42.02825887865465" lon="12.9391741023383"><ele>301.0</ele><time>2026-04-04T12:08:19Z</time></trkpt><trkpt lat="42.028198700717084" lon="12.938764559822111"><ele>301.0</ele><time>2026-04-04T12:08:20Z</time></trkpt><trkpt lat="42.0281371965429" lon="12.938362352478473"><ele>302.0</ele><time>2026-04-04T12:08:21Z</time></trkpt><trkpt lat="42.02799960320436" lon="12.937976494581536"><ele>303.0</ele><time>2026-04-04T12:08:22Z</time></trkpt><trkpt lat="42.027864599015984" lon="12.937585750200409"><ele>303.5</ele><time>2026-04-04T12:08:23Z</time></trkpt><trkpt lat="42.02771090507483" lon="12.9371948554785"><ele>304.0</ele><time>2026-04-04T12:08:24Z</time></trkpt><trkpt lat="42.02753860548032" lon="12.936810340857031"><ele>304.0</ele><time>2026-04-04T12:08:25Z</time></trkpt><trkpt lat="42.027343931047945" lon="12.936438578142383"><ele>304.0</ele><time>2026-04-04T12:08:26Z</time></trkpt><trkpt lat="42.0271227872109" lon="12.936054164840318"><ele>304.5</ele><time>2026-04-04T12:08:27Z</time></trkpt><trkpt lat="42.02689433919395" lon="12.935664497842534"><ele>305.0</ele><time>2026-04-04T12:08:28Z</time></trkpt><trkpt lat="42.026670667116505" lon="12.935266940546464"><ele>305.5</ele><time>2026-04-04T12:08:29Z</time></trkpt><trkpt lat="42.02644929878676" lon="12.934869491382821"><ele>306.0</ele><time>2026-04-04T12:08:30Z</time></trkpt><trkpt lat="42.02622842194129" lon="12.934482373609905"><ele>308.0</ele><time>2026-04-04T12:08:31Z</time></trkpt><trkpt lat="42.02600215815751" lon="12.934091363052344"><ele>310.0</ele><time>2026-04-04T12:08:32Z</time></trkpt><trkpt lat="42.02577544625623" lon="12.93369656630436"><ele>306.5</ele><time>2026-04-04T12:08:33Z</time></trkpt><trkpt lat="42.025552090421776" lon="12.933295065753518"><ele>303.0</ele><time>2026-04-04T12:08:34Z</time></trkpt><trkpt lat="42.02533572516384" lon="12.932903193203087"><ele>305.5</ele><time>2026-04-04T12:08:35Z</time></trkpt><trkpt lat="42.02512058465059" lon="12.932520891631972"><ele>308.0</ele><time>2026-04-04T12:08:36Z</time></trkpt><trkpt lat="42.02490596891116" lon="12.932150124680497"><ele>305.0</ele><time>2026-04-04T12:08:37Z</time></trkpt><trkpt lat="42.02468808898114" lon="12.931786189242182"><ele>302.0</ele><time>2026-04-04T12:08:38Z</time></trkpt><trkpt lat="42.02448347297301" lon="12.931453885392353"><ele>302.0</ele><time>2026-04-04T12:08:39Z</time></trkpt><trkpt lat="42.024273163388635" lon="12.931124626588584"><ele>302.0</ele><time>2026-04-04T12:08:40Z</time></trkpt><trkpt lat="42.0240532349086" lon="12.930813668076672"><ele>300.5</ele><time>2026-04-04T12:08:41Z</time></trkpt><trkpt lat="42.02382585889182" lon="12.930513530364738"><ele>299.0</ele><time>2026-04-04T12:08:42Z</time></trkpt><trkpt lat="42.023579495990944" lon="12.93022160819344"><ele>297.5</ele><time>2026-04-04T12:08:43Z</time></trkpt><trkpt lat="42.023349671593" lon="12.929959411996531"><ele>296.0</ele><time>2026-04-04T12:08:44Z</time></trkpt><trkpt lat="42.02312332354185" lon="12.929711423282608"><ele>296.0</ele><time>2026-04-04T12:08:45Z</time></trkpt><trkpt lat="42.02288414116031" lon="12.929472199046593"><ele>296.0</ele><time>2026-04-04T12:08:46Z</time></trkpt><trkpt lat="42.02264978224371" lon="12.929263656615488"><ele>297.0</ele><time>2026-04-04T12:08:47Z</time></trkpt><trkpt lat="42.02242506587776" lon="12.929079501097666"><ele>298.0</ele><time>2026-04-04T12:08:48Z</time></trkpt><trkpt lat="42.02219498752743" lon="12.92889823534359"><ele>298.0</ele><time>2026-04-04T12:08:49Z</time></trkpt><trkpt lat="42.02195705193548" lon="12.928722380007377"><ele>298.0</ele><time>2026-04-04T12:08:50Z</time></trkpt><trkpt lat="42.021709705418075" lon="12.928533015732228"><ele>300.0</ele><time>2026-04-04T12:08:51Z</time></trkpt><trkpt lat="42.02145925652916" lon="12.928347377191399"><ele>302.0</ele><time>2026-04-04T12:08:52Z</time></trkpt><trkpt lat="42.021201900588004" lon="12.92815821038631"><ele>302.0</ele><time>2026-04-04T12:08:53Z</time></trkpt><trkpt lat="42.02093722602192" lon="12.927956953384397"><ele>302.0</ele><time>2026-04-04T12:08:54Z</time></trkpt><trkpt lat="42.020673287217896" lon="12.927747091786172"><ele>300.5</ele><time>2026-04-04T12:08:55Z</time></trkpt><trkpt lat="42.02041174668531" lon="12.927534543587708"><ele>299.0</ele><time>2026-04-04T12:08:56Z</time></trkpt><trkpt lat="42.02015721025582" lon="12.92732788860258"><ele>296.5</ele><time>2026-04-04T12:08:57Z</time></trkpt><trkpt lat="42.01989670361327" lon="12.927117156185536"><ele>294.0</ele><time>2026-04-04T12:08:58Z</time></trkpt><trkpt lat="42.019638890637445" lon="12.92690546892809"><ele>295.0</ele><time>2026-04-04T12:08:59Z</time></trkpt><trkpt lat="42.019392135381715" lon="12.926705098964678"><ele>296.0</ele><time>2026-04-04T12:09:00Z</time></trkpt><trkpt lat="42.01914021784236" lon="12.926499731354411"><ele>296.0</ele><time>2026-04-04T12:09:01Z</time></trkpt><trkpt lat="42.01890710975227" lon="12.926303337055339"><ele>296.0</ele><time>2026-04-04T12:09:02Z</time></trkpt><trkpt lat="42.01870207884044" lon="12.926117140629543"><ele>296.0</ele><time>2026-04-04T12:09:03Z</time></trkpt><trkpt lat="42.018523013116564" lon="12.925922547742298"><ele>296.0</ele><time>2026-04-04T12:09:04Z</time></trkpt><trkpt lat="42.01835137119297" lon="12.925698322327984"><ele>297.5</ele><time>2026-04-04T12:09:05Z</time></trkpt><trkpt lat="42.0181826926572" lon="12.925468965217428"><ele>299.0</ele><time>2026-04-04T12:09:06Z</time></trkpt><trkpt lat="42.01802250959472" lon="12.92523242190622"><ele>300.5</ele><time>2026-04-04T12:09:07Z</time></trkpt><trkpt lat="42.01789250847963" lon="12.924985239924238"><ele>302.0</ele><time>2026-04-04T12:09:08Z</time></trkpt><trkpt lat="42.017784408029705" lon="12.92470527150838"><ele>302.0</ele><time>2026-04-04T12:09:09Z</time></trkpt><trkpt lat="42.01769153407765" lon="12.924392003245169"><ele>302.0</ele><time>2026-04-04T12:09:10Z</time></trkpt><trkpt lat="42.0176228952206" lon="12.924070469286407"><ele>300.5</ele><time>2026-04-04T12:09:11Z</time></trkpt><trkpt lat="42.017550385345075" lon="12.92374136618161"><ele>299.0</ele><time>2026-04-04T12:09:12Z</time></trkpt><trkpt lat="42.01746776883438" lon="12.923423297591619"><ele>299.6666666666667</ele><time>2026-04-04T12:09:13Z</time></trkpt><trkpt lat="42.017395314578735" lon="12.923145748467764"><ele>300.3333333333333</ele><time>2026-04-04T12:09:14Z</time></trkpt><trkpt lat="42.01732070718448" lon="12.922856186861761"><ele>301.0</ele><time>2026-04-04T12:09:15Z</time></trkpt><trkpt lat="42.01724254829956" lon="12.922562705309371"><ele>302.0</ele><time>2026-04-04T12:09:16Z</time></trkpt><trkpt lat="42.01715840074643" lon="12.922261377161101"><ele>303.0</ele><time>2026-04-04T12:09:17Z</time></trkpt><trkpt lat="42.01709512625172" lon="12.921955699661265"><ele>304.5</ele><time>2026-04-04T12:09:18Z</time></trkpt><trkpt lat="42.01701749169719" lon="12.92165693149021"><ele>306.0</ele><time>2026-04-04T12:09:19Z</time></trkpt><trkpt lat="42.016930411009014" lon="12.921361419656252"><ele>306.0</ele><time>2026-04-04T12:09:20Z</time></trkpt><trkpt lat="42.016959650629005" lon="12.921025002673133"><ele>306.0</ele><time>2026-04-04T12:09:21Z</time></trkpt><trkpt lat="42.01678371758905" lon="12.920766462729079"><ele>306.6666666666667</ele><time>2026-04-04T12:09:22Z</time></trkpt><trkpt lat="42.01670711365371" lon="12.920492712976792"><ele>307.33333333333337</ele><time>2026-04-04T12:09:23Z</time></trkpt><trkpt lat="42.016640771482365" lon="12.920242753320261"><ele>308.0</ele><time>2026-04-04T12:09:24Z</time></trkpt><trkpt lat="42.01656930862107" lon="12.919984118036037"><ele>307.6666666666667</ele><time>2026-04-04T12:09:25Z</time></trkpt><trkpt lat="42.01649432926019" lon="12.919714140278394"><ele>307.3333333333333</ele><time>2026-04-04T12:09:26Z</time></trkpt><trkpt lat="42.01642788951008" lon="12.91946021659787"><ele>307.0</ele><time>2026-04-04T12:09:27Z</time></trkpt><trkpt lat="42.01636746810291" lon="12.919228756953204"><ele>307.0</ele><time>2026-04-04T12:09:28Z</time></trkpt><trkpt lat="42.016305966744994" lon="12.91900912050581"><ele>307.0</ele><time>2026-04-04T12:09:29Z</time></trkpt><trkpt lat="42.01625223596667" lon="12.918795952159932"><ele>307.0</ele><time>2026-04-04T12:09:30Z</time></trkpt><trkpt lat="42.016203077846264" lon="12.918591068381716"><ele>308.66666666666663</ele><time>2026-04-04T12:09:31Z</time></trkpt><trkpt lat="42.01614767332459" lon="12.91838549109865"><ele>310.3333333333333</ele><time>2026-04-04T12:09:32Z</time></trkpt><trkpt lat="42.016090981080346" lon="12.918184990518954"><ele>312.0</ele><time>2026-04-04T12:09:33Z</time></trkpt><trkpt lat="42.016032561829086" lon="12.91797286866656"><ele>312.0</ele><time>2026-04-04T12:09:34Z</time></trkpt><trkpt lat="42.015975126374215" lon="12.917758404412949"><ele>312.0</ele><time>2026-04-04T12:09:35Z</time></trkpt><trkpt lat="42.01592140324882" lon="12.917552395218975"><ele>312.0</ele><time>2026-04-04T12:09:36Z</time></trkpt><trkpt lat="42.01586719188622" lon="12.91734105561384"><ele>310.3333333333333</ele><time>2026-04-04T12:09:37Z</time></trkpt><trkpt lat="42.015807647125406" lon="12.917119139972462"><ele>308.66666666666663</ele><time>2026-04-04T12:09:38Z</time></trkpt><trkpt lat="42.015735067448375" lon="12.916862499165628"><ele>307.0</ele><time>2026-04-04T12:09:39Z</time></trkpt><trkpt lat="42.01567801428396" lon="12.916573564695032"><ele>307.0</ele><time>2026-04-04T12:09:40Z</time></trkpt><trkpt lat="42.015591242803865" lon="12.916255142585115"><ele>307.0</ele><time>2026-04-04T12:09:41Z</time></trkpt><trkpt lat="42.015486715854955" lon="12.915930801308129"><ele>309.5</ele><time>2026-04-04T12:09:42Z</time></trkpt><trkpt lat="42.01541607882341" lon="12.91557718099581"><ele>312.0</ele><time>2026-04-04T12:09:43Z</time></trkpt><trkpt lat="42.01532061065491" lon="12.915247161795646"><ele>317.5</ele><time>2026-04-04T12:09:44Z</time></trkpt><trkpt lat="42.01525247540826" lon="12.914917769583708"><ele>323.0</ele><time>2026-04-04T12:09:45Z</time></trkpt><trkpt lat="42.01519681814029" lon="12.914608969321053"><ele>323.0</ele><time>2026-04-04T12:09:46Z</time></trkpt><trkpt lat="42.01514958198377" lon="12.914293266082133"><ele>323.0</ele><time>2026-04-04T12:09:47Z</time></trkpt><trkpt lat="42.015166929984076" lon="12.913962675510426"><ele>325.5</ele><time>2026-04-04T12:09:48Z</time></trkpt><trkpt lat="42.01518047619085" lon="12.91362052218663"><ele>328.0</ele><time>2026-04-04T12:09:49Z</time></trkpt><trkpt lat="42.01523022362031" lon="12.913313171069127"><ele>330.0</ele><time>2026-04-04T12:09:50Z</time></trkpt><trkpt lat="42.01529637920298" lon="12.912994460138023"><ele>332.0</ele><time>2026-04-04T12:09:51Z</time></trkpt><trkpt lat="42.015370679559105" lon="12.912694600483134"><ele>334.0</ele><time>2026-04-04T12:09:52Z</time></trkpt><trkpt lat="42.015441503743965" lon="12.912398195077062"><ele>336.0</ele><time>2026-04-04T12:09:53Z</time></trkpt><trkpt lat="42.015528333989145" lon="12.912093506258405"><ele>336.0</ele><time>2026-04-04T12:09:54Z</time></trkpt><trkpt lat="42.015607848972024" lon="12.911781870809293"><ele>336.0</ele><time>2026-04-04T12:09:55Z</time></trkpt><trkpt lat="42.01568494358261" lon="12.911466300225772"><ele>336.5</ele><time>2026-04-04T12:09:56Z</time></trkpt><trkpt lat="42.01575095200163" lon="12.911154349650827"><ele>337.0</ele><time>2026-04-04T12:09:57Z</time></trkpt><trkpt lat="42.015825080574025" lon="12.910873941882084"><ele>337.5</ele><time>2026-04-04T12:09:58Z</time></trkpt><trkpt lat="42.01589537981803" lon="12.910580935546136"><ele>338.0</ele><time>2026-04-04T12:09:59Z</time></trkpt><trkpt lat="42.01596739880577" lon="12.910278758181802"><ele>338.0</ele><time>2026-04-04T12:10:00Z</time></trkpt><trkpt lat="42.01604961680986" lon="12.90998710829796"><ele>338.0</ele><time>2026-04-04T12:10:01Z</time></trkpt><trkpt lat="42.016140575745126" lon="12.909707557118445"><ele>338.0</ele><time>2026-04-04T12:10:02Z</time></trkpt><trkpt lat="42.016248016927996" lon="12.9094282420731"><ele>338.0</ele><time>2026-04-04T12:10:03Z</time></trkpt><trkpt lat="42.01635761011389" lon="12.909160200114785"><ele>332.6666666666667</ele><time>2026-04-04T12:10:04Z</time></trkpt><trkpt lat="42.01645229613828" lon="12.90891606376524"><ele>327.3333333333333</ele><time>2026-04-04T12:10:05Z</time></trkpt><trkpt lat="42.01654677410912" lon="12.908695302249173"><ele>322.0</ele><time>2026-04-04T12:10:06Z</time></trkpt><trkpt lat="42.01664624849598" lon="12.908511135667158"><ele>326.3333333333333</ele><time>2026-04-04T12:10:07Z</time></trkpt><trkpt lat="42.01676341671226" lon="12.908368053677282"><ele>330.6666666666667</ele><time>2026-04-04T12:10:08Z</time></trkpt><trkpt lat="42.016910405313375" lon="12.90823655242643"><ele>335.0</ele><time>2026-04-04T12:10:09Z</time></trkpt><trkpt lat="42.017081693923295" lon="12.908132951891352"><ele>335.0</ele><time>2026-04-04T12:10:10Z</time></trkpt><trkpt lat="42.01725888168054" lon="12.908043906991544"><ele>335.0</ele><time>2026-04-04T12:10:11Z</time></trkpt><trkpt lat="42.01743503942494" lon="12.907944432042598"><ele>335.0</ele><time>2026-04-04T12:10:12Z</time></trkpt><trkpt lat="42.01761217313329" lon="12.907816569108633"><ele>336.33333333333337</ele><time>2026-04-04T12:10:13Z</time></trkpt><trkpt lat="42.01777054260603" lon="12.907655155213849"><ele>337.6666666666667</ele><time>2026-04-04T12:10:14Z</time></trkpt><trkpt lat="42.01789598340602" lon="12.907451994295029"><ele>339.0</ele><time>2026-04-04T12:10:15Z</time></trkpt><trkpt lat="42.01800519531938" lon="12.907212436894865"><ele>339.0</ele><time>2026-04-04T12:10:16Z</time></trkpt><trkpt lat="42.018113121275654" lon="12.90695236306509"><ele>339.0</ele><time>2026-04-04T12:10:17Z</time></trkpt><trkpt lat="42.01822948722025" lon="12.906693047304165"><ele>339.0</ele><time>2026-04-04T12:10:18Z</time></trkpt><trkpt lat="42.018351453187776" lon="12.906435048992348"><ele>339.6666666666667</ele><time>2026-04-04T12:10:19Z</time></trkpt><trkpt lat="42.018471976913816" lon="12.906193872055773"><ele>340.33333333333337</ele><time>2026-04-04T12:10:20Z</time></trkpt><trkpt lat="42.01857652211568" lon="12.905987422705786"><ele>341.0</ele><time>2026-04-04T12:10:21Z</time></trkpt><trkpt lat="42.01867145739142" lon="12.90578575374009"><ele>338.6666666666667</ele><time>2026-04-04T12:10:22Z</time></trkpt><trkpt lat="42.01876718981981" lon="12.905585677065917"><ele>336.3333333333333</ele><time>2026-04-04T12:10:23Z</time></trkpt><trkpt lat="42.01886857962111" lon="12.9053769349244"><ele>334.0</ele><time>2026-04-04T12:10:24Z</time></trkpt><trkpt lat="42.01896910713242" lon="12.905179982566745"><ele>336.66666666666663</ele><time>2026-04-04T12:10:25Z</time></trkpt><trkpt lat="42.01906527811391" lon="12.905002474398698"><ele>339.3333333333333</ele><time>2026-04-04T12:10:26Z</time></trkpt><trkpt lat="42.01916225433392" lon="12.904815958939006"><ele>342.0</ele><time>2026-04-04T12:10:27Z</time></trkpt><trkpt lat="42.01927914139598" lon="12.904599200507068"><ele>342.0</ele><time>2026-04-04T12:10:28Z</time></trkpt><trkpt lat="42.01941620070817" lon="12.904367898169495"><ele>342.0</ele><time>2026-04-04T12:10:29Z</time></trkpt><trkpt lat="42.019575670295424" lon="12.904142095727805"><ele>336.0</ele><time>2026-04-04T12:10:30Z</time></trkpt><trkpt lat="42.01974130647367" lon="12.903914395899152"><ele>330.0</ele><time>2026-04-04T12:10:31Z</time></trkpt><trkpt lat="42.01991011918865" lon="12.903683108485609"><ele>333.0</ele><time>2026-04-04T12:10:32Z</time></trkpt><trkpt lat="42.020042899821796" lon="12.903494580526926"><ele>336.0</ele><time>2026-04-04T12:10:33Z</time></trkpt><trkpt lat="42.02012271813262" lon="12.903282516319441"><ele>339.0</ele><time>2026-04-04T12:10:34Z</time></trkpt><trkpt lat="42.02013549836312" lon="12.903034823070023"><ele>339.0</ele><time>2026-04-04T12:10:35Z</time></trkpt><trkpt lat="42.02005909141389" lon="12.902788843995676"><ele>339.0</ele><time>2026-04-04T12:10:36Z</time></trkpt><trkpt lat="42.01990313156002" lon="12.902577928010668"><ele>339.0</ele><time>2026-04-04T12:10:37Z</time></trkpt><trkpt lat="42.019692590114225" lon="12.902397611333988"><ele>337.3333333333333</ele><time>2026-04-04T12:10:38Z</time></trkpt><trkpt lat="42.01949236164535" lon="12.902320872739468"><ele>335.66666666666663</ele><time>2026-04-04T12:10:39Z</time></trkpt><trkpt lat="42.01928219297776" lon="12.902338203324062"><ele>334.0</ele><time>2026-04-04T12:10:40Z</time></trkpt><trkpt lat="42.01906338046944" lon="12.90244286577959"><ele>332.0</ele><time>2026-04-04T12:10:41Z</time></trkpt><trkpt lat="42.01884272949641" lon="12.902528720436601"><ele>330.0</ele><time>2026-04-04T12:10:42Z</time></trkpt><trkpt lat="42.01864767970524" lon="12.902553249719459"><ele>328.0</ele><time>2026-04-04T12:10:43Z</time></trkpt><trkpt lat="42.01847744334145" lon="12.902518419648674"><ele>319.66666666666663</ele><time>2026-04-04T12:10:44Z</time></trkpt><trkpt lat="42.01830827399545" lon="12.902370496781316"><ele>311.3333333333333</ele><time>2026-04-04T12:10:45Z</time></trkpt><trkpt lat="42.01810956931574" lon="12.90221938786984"><ele>303.0</ele><time>2026-04-04T12:10:46Z</time></trkpt><trkpt lat="42.01797190010716" lon="12.902022163724515"><ele>303.0</ele><time>2026-04-04T12:10:47Z</time></trkpt><trkpt lat="42.0178446325018" lon="12.901841713664618"><ele>303.0</ele><time>2026-04-04T12:10:48Z</time></trkpt><trkpt lat="42.017737794961604" lon="12.901680634331775"><ele>303.0</ele><time>2026-04-04T12:10:49Z</time></trkpt><trkpt lat="42.01769413971799" lon="12.901520411152482"><ele>304.4</ele><time>2026-04-04T12:10:50Z</time></trkpt><trkpt lat="42.017690582809266" lon="12.901411388653768"><ele>305.8</ele><time>2026-04-04T12:10:51Z</time></trkpt><trkpt lat="42.017718756250915" lon="12.901300736074994"><ele>307.2</ele><time>2026-04-04T12:10:52Z</time></trkpt><trkpt lat="42.01781687151847" lon="12.90122828954583"><ele>308.6</ele><time>2026-04-04T12:10:53Z</time></trkpt><trkpt lat="42.01793364899231" lon="12.901189974192455"><ele>310.0</ele><time>2026-04-04T12:10:54Z</time></trkpt><trkpt lat="42.01807772957204" lon="12.901156373099404"><ele>310.0</ele><time>2026-04-04T12:10:55Z</time></trkpt><trkpt lat="42.018241138375544" lon="12.901157135075337"><ele>310.0</ele><time>2026-04-04T12:10:56Z</time></trkpt><trkpt lat="42.01839761318819" lon="12.901130371678923"><ele>310.0</ele><time>2026-04-04T12:10:57Z</time></trkpt><trkpt lat="42.0185416479394" lon="12.901085187596905"><ele>313.0</ele><time>2026-04-04T12:10:58Z</time></trkpt><trkpt lat="42.01869062374604" lon="12.900984084555404"><ele>316.0</ele><time>2026-04-04T12:10:59Z</time></trkpt><trkpt lat="42.01880800161956" lon="12.900806367758793"><ele>319.0</ele><time>2026-04-04T12:11:00Z</time></trkpt><trkpt lat="42.01887790909496" lon="12.900574846620476"><ele>319.0</ele><time>2026-04-04T12:11:01Z</time></trkpt><trkpt lat="42.01893338405348" lon="12.900297878084137"><ele>319.0</ele><time>2026-04-04T12:11:02Z</time></trkpt><trkpt lat="42.019011343616995" lon="12.900009075409356"><ele>319.0</ele><time>2026-04-04T12:11:03Z</time></trkpt><trkpt lat="42.01911425613048" lon="12.89979777666513"><ele>318.66666666666663</ele><time>2026-04-04T12:11:04Z</time></trkpt><trkpt lat="42.01927512271436" lon="12.899711760891897"><ele>318.3333333333333</ele><time>2026-04-04T12:11:05Z</time></trkpt><trkpt lat="42.01942493029437" lon="12.899629904026579"><ele>318.0</ele><time>2026-04-04T12:11:06Z</time></trkpt><trkpt lat="42.019571641780495" lon="12.899539200927375"><ele>318.0</ele><time>2026-04-04T12:11:07Z</time></trkpt><trkpt lat="42.01974862095721" lon="12.899458309678554"><ele>318.0</ele><time>2026-04-04T12:11:08Z</time></trkpt><trkpt lat="42.01988469373831" lon="12.899412378401271"><ele>318.0</ele><time>2026-04-04T12:11:09Z</time></trkpt><trkpt lat="42.019985874584904" lon="12.899372857635973"><ele>318.0</ele><time>2026-04-04T12:11:10Z</time></trkpt><trkpt lat="42.02005123357657" lon="12.899323638631753"><ele>317.8</ele><time>2026-04-04T12:11:11Z</time></trkpt><trkpt lat="42.02009663466191" lon="12.899254302324"><ele>317.6</ele><time>2026-04-04T12:11:12Z</time></trkpt><trkpt lat="42.02011226872065" lon="12.89916516848035"><ele>317.4</ele><time>2026-04-04T12:11:13Z</time></trkpt><trkpt lat="42.02008747699759" lon="12.899053802834548"><ele>317.2</ele><time>2026-04-04T12:11:14Z</time></trkpt><trkpt lat="42.020004280817595" lon="12.898947675781548"><ele>317.0</ele><time>2026-04-04T12:11:15Z</time></trkpt><trkpt lat="42.019861028583676" lon="12.89890505300224"><ele>314.0</ele><time>2026-04-04T12:11:16Z</time></trkpt><trkpt lat="42.01963638670092" lon="12.898918753956973"><ele>311.0</ele><time>2026-04-04T12:11:17Z</time></trkpt><trkpt lat="42.019323553302605" lon="12.898974290024197"><ele>311.5</ele><time>2026-04-04T12:11:18Z</time></trkpt><trkpt lat="42.01898566511474" lon="12.89900820205639"><ele>312.0</ele><time>2026-04-04T12:11:19Z</time></trkpt><trkpt lat="42.01862867263224" lon="12.899044969322224"><ele>311.5</ele><time>2026-04-04T12:11:20Z</time></trkpt><trkpt lat="42.01827757346638" lon="12.899079960150791"><ele>311.0</ele><time>2026-04-04T12:11:21Z</time></trkpt><trkpt lat="42.017849927035726" lon="12.899130659756894"><ele>311.0</ele><time>2026-04-04T12:11:22Z</time></trkpt><trkpt lat="42.01750597159874" lon="12.89916377941667"><ele>311.0</ele><time>2026-04-04T12:11:23Z</time></trkpt><trkpt lat="42.01718248557051" lon="12.899205469516655"><ele>310.0</ele><time>2026-04-04T12:11:24Z</time></trkpt><trkpt lat="42.01692806727057" lon="12.899241325600935"><ele>309.0</ele><time>2026-04-04T12:11:25Z</time></trkpt><trkpt lat="42.01670645484017" lon="12.899209599144905"><ele>301.0</ele><time>2026-04-04T12:11:26Z</time></trkpt><trkpt lat="42.01657523526586" lon="12.899136857463974"><ele>293.0</ele><time>2026-04-04T12:11:27Z</time></trkpt><trkpt lat="42.01643501637715" lon="12.898959669104624"><ele>285.0</ele><time>2026-04-04T12:11:28Z</time></trkpt><trkpt lat="42.01637717008056" lon="12.898752237869102"><ele>285.0</ele><time>2026-04-04T12:11:29Z</time></trkpt><trkpt lat="42.01633905526569" lon="12.898498015301417"><ele>285.0</ele><time>2026-04-04T12:11:30Z</time></trkpt><trkpt lat="42.01628475705635" lon="12.89808218762381"><ele>288.0</ele><time>2026-04-04T12:11:31Z</time></trkpt><trkpt lat="42.0162539850001" lon="12.89762565291589"><ele>291.0</ele><time>2026-04-04T12:11:32Z</time></trkpt><trkpt lat="42.01621328509471" lon="12.897261756772835"><ele>293.0</ele><time>2026-04-04T12:11:33Z</time></trkpt><trkpt lat="42.016185404860835" lon="12.896900469317437"><ele>295.0</ele><time>2026-04-04T12:11:34Z</time></trkpt><trkpt lat="42.0161445158698" lon="12.8965895504956"><ele>295.0</ele><time>2026-04-04T12:11:35Z</time></trkpt><trkpt lat="42.01614019470324" lon="12.896303305221435"><ele>295.0</ele><time>2026-04-04T12:11:36Z</time></trkpt><trkpt lat="42.01614755176867" lon="12.896133182850546"><ele>295.0</ele><time>2026-04-04T12:11:37Z</time></trkpt><trkpt lat="42.01614642586056" lon="12.895892954002377"><ele>295.5</ele><time>2026-04-04T12:11:38Z</time></trkpt><trkpt lat="42.016140822743075" lon="12.895557976308234"><ele>296.0</ele><time>2026-04-04T12:11:39Z</time></trkpt><trkpt lat="42.016090715792195" lon="12.895204856770295"><ele>297.5</ele><time>2026-04-04T12:11:40Z</time></trkpt><trkpt lat="42.01601633620539" lon="12.894864154153735"><ele>299.0</ele><time>2026-04-04T12:11:41Z</time></trkpt><trkpt lat="42.01588103145687" lon="12.894533025122707"><ele>289.0</ele><time>2026-04-04T12:11:42Z</time></trkpt><trkpt lat="42.01565396444329" lon="12.89408053966164"><ele>279.0</ele><time>2026-04-04T12:11:43Z</time></trkpt><trkpt lat="42.01547925638916" lon="12.893719211189739"><ele>290.5</ele><time>2026-04-04T12:11:44Z</time></trkpt><trkpt lat="42.01532849634544" lon="12.893400296222808"><ele>302.0</ele><time>2026-04-04T12:11:45Z</time></trkpt><trkpt lat="42.015152422612786" lon="12.893150125491417"><ele>291.0</ele><time>2026-04-04T12:11:46Z</time></trkpt><trkpt lat="42.014944959851434" lon="12.892956771043126"><ele>280.0</ele><time>2026-04-04T12:11:47Z</time></trkpt><trkpt lat="42.01469612770214" lon="12.892816106894037"><ele>280.0</ele><time>2026-04-04T12:11:48Z</time></trkpt><trkpt lat="42.01445521039805" lon="12.892734292220126"><ele>280.0</ele><time>2026-04-04T12:11:49Z</time></trkpt><trkpt lat="42.01420862643142" lon="12.892701883528968"><ele>277.66666666666663</ele><time>2026-04-04T12:11:50Z</time></trkpt><trkpt lat="42.01406215787066" lon="12.892680513614328"><ele>275.3333333333333</ele><time>2026-04-04T12:11:51Z</time></trkpt><trkpt lat="42.01387124868872" lon="12.89265705431135"><ele>273.0</ele><time>2026-04-04T12:11:52Z</time></trkpt><trkpt lat="42.01371202141389" lon="12.892608703654666"><ele>277.6666666666667</ele><time>2026-04-04T12:11:53Z</time></trkpt><trkpt lat="42.013554399922675" lon="12.892541908493047"><ele>282.33333333333337</ele><time>2026-04-04T12:11:54Z</time></trkpt><trkpt lat="42.01344511008298" lon="12.892395247543433"><ele>287.0</ele><time>2026-04-04T12:11:55Z</time></trkpt><trkpt lat="42.0133686649167" lon="12.892147916031954"><ele>287.0</ele><time>2026-04-04T12:11:56Z</time></trkpt><trkpt lat="42.0133921579484" lon="12.891875775282003"><ele>287.0</ele><time>2026-04-04T12:11:57Z</time></trkpt><trkpt lat="42.01339222759462" lon="12.891537216604267"><ele>285.5</ele><time>2026-04-04T12:11:58Z</time></trkpt><trkpt lat="42.0134257887408" lon="12.891214130275516"><ele>284.0</ele><time>2026-04-04T12:11:59Z</time></trkpt><trkpt lat="42.013469254171945" lon="12.890900147994532"><ele>284.0</ele><time>2026-04-04T12:12:00Z</time></trkpt><trkpt lat="42.013498873580595" lon="12.890599046377288"><ele>284.0</ele><time>2026-04-04T12:12:01Z</time></trkpt><trkpt lat="42.013496697406204" lon="12.890299058945693"><ele>284.0</ele><time>2026-04-04T12:12:02Z</time></trkpt><trkpt lat="42.01347342704647" lon="12.890041141729386"><ele>280.6666666666667</ele><time>2026-04-04T12:12:03Z</time></trkpt><trkpt lat="42.01343265416996" lon="12.889770416197436"><ele>277.3333333333333</ele><time>2026-04-04T12:12:04Z</time></trkpt><trkpt lat="42.01339171360926" lon="12.889549345965815"><ele>274.0</ele><time>2026-04-04T12:12:05Z</time></trkpt><trkpt lat="42.01326714967405" lon="12.889376773493975"><ele>272.66666666666663</ele><time>2026-04-04T12:12:06Z</time></trkpt><trkpt lat="42.013086824026296" lon="12.889221247853062"><ele>271.3333333333333</ele><time>2026-04-04T12:12:07Z</time></trkpt><trkpt lat="42.012905085216886" lon="12.889045406024342"><ele>270.0</ele><time>2026-04-04T12:12:08Z</time></trkpt><trkpt lat="42.01276957809569" lon="12.88884136118908"><ele>270.0</ele><time>2026-04-04T12:12:09Z</time></trkpt><trkpt lat="42.01263193268961" lon="12.888624780610032"><ele>270.0</ele><time>2026-04-04T12:12:10Z</time></trkpt><trkpt lat="42.01251618053264" lon="12.888354821865544"><ele>270.0</ele><time>2026-04-04T12:12:11Z</time></trkpt><trkpt lat="42.01238802955101" lon="12.888039690832104"><ele>270.0</ele><time>2026-04-04T12:12:12Z</time></trkpt><trkpt lat="42.01224839388829" lon="12.887728086951803"><ele>270.0</ele><time>2026-04-04T12:12:13Z</time></trkpt><trkpt lat="42.012099233249295" lon="12.887418704214808"><ele>270.0</ele><time>2026-04-04T12:12:14Z</time></trkpt><trkpt lat="42.01194230103478" lon="12.887115213338104"><ele>270.0</ele><time>2026-04-04T12:12:15Z</time></trkpt><trkpt lat="42.01180014146077" lon="12.886837308528218"><ele>273.0</ele><time>2026-04-04T12:12:16Z</time></trkpt><trkpt lat="42.011714142043935" lon="12.886519036090688"><ele>276.0</ele><time>2026-04-04T12:12:17Z</time></trkpt><trkpt lat="42.011619942973034" lon="12.886183100755861"><ele>271.0</ele><time>2026-04-04T12:12:18Z</time></trkpt><trkpt lat="42.01151163257808" lon="12.88581071734926"><ele>266.0</ele><time>2026-04-04T12:12:19Z</time></trkpt><trkpt lat="42.01136835400601" lon="12.885443645693977"><ele>269.5</ele><time>2026-04-04T12:12:20Z</time></trkpt><trkpt lat="42.011200499274715" lon="12.88507183560574"><ele>273.0</ele><time>2026-04-04T12:12:21Z</time></trkpt><trkpt lat="42.01097566014853" lon="12.884680441272351"><ele>269.0</ele><time>2026-04-04T12:12:22Z</time></trkpt><trkpt lat="42.01070160130722" lon="12.884246593991389"><ele>265.0</ele><time>2026-04-04T12:12:23Z</time></trkpt><trkpt lat="42.01040480322688" lon="12.883793171493402"><ele>265.0</ele><time>2026-04-04T12:12:24Z</time></trkpt><trkpt lat="42.01009690529323" lon="12.883371564477503"><ele>265.0</ele><time>2026-04-04T12:12:25Z</time></trkpt><trkpt lat="42.00976177923488" lon="12.882986764864222"><ele>265.0</ele><time>2026-04-04T12:12:26Z</time></trkpt><trkpt lat="42.009442060164275" lon="12.882652837174684"><ele>265.0</ele><time>2026-04-04T12:12:27Z</time></trkpt><trkpt lat="42.00915123840795" lon="12.882368611918878"><ele>264.0</ele><time>2026-04-04T12:12:28Z</time></trkpt><trkpt lat="42.008887853062745" lon="12.882122447113026"><ele>263.0</ele><time>2026-04-04T12:12:29Z</time></trkpt><trkpt lat="42.00863499446238" lon="12.881934548437961"><ele>263.0</ele><time>2026-04-04T12:12:30Z</time></trkpt><trkpt lat="42.00835059466385" lon="12.881832710329377"><ele>263.0</ele><time>2026-04-04T12:12:31Z</time></trkpt><trkpt lat="42.00801383685958" lon="12.881835104991076"><ele>263.0</ele><time>2026-04-04T12:12:32Z</time></trkpt><trkpt lat="42.00766686236939" lon="12.881789367852294"><ele>263.0</ele><time>2026-04-04T12:12:33Z</time></trkpt><trkpt lat="42.00737812394979" lon="12.881692969783309"><ele>263.0</ele><time>2026-04-04T12:12:34Z</time></trkpt><trkpt lat="42.007144231625155" lon="12.881518562147894"><ele>263.0</ele><time>2026-04-04T12:12:35Z</time></trkpt><trkpt lat="42.006900813100074" lon="12.881269580614811"><ele>263.0</ele><time>2026-04-04T12:12:36Z</time></trkpt><trkpt lat="42.00665210155343" lon="12.880963943791995"><ele>263.0</ele><time>2026-04-04T12:12:37Z</time></trkpt><trkpt lat="42.0064475077885" lon="12.88066813305175"><ele>263.0</ele><time>2026-04-04T12:12:38Z</time></trkpt><trkpt lat="42.00628409076732" lon="12.880354309689361"><ele>263.0</ele><time>2026-04-04T12:12:39Z</time></trkpt><trkpt lat="42.00619591746197" lon="12.880023484927232"><ele>263.5</ele><time>2026-04-04T12:12:40Z</time></trkpt><trkpt lat="42.00611954092936" lon="12.879642786270791"><ele>264.0</ele><time>2026-04-04T12:12:41Z</time></trkpt><trkpt lat="42.006028209585" lon="12.879230546484912"><ele>263.5</ele><time>2026-04-04T12:12:42Z</time></trkpt><trkpt lat="42.005864652081726" lon="12.87882904029533"><ele>263.0</ele><time>2026-04-04T12:12:43Z</time></trkpt><trkpt lat="42.00571634873607" lon="12.87845995945609"><ele>264.0</ele><time>2026-04-04T12:12:44Z</time></trkpt><trkpt lat="42.00560447612118" lon="12.878147124277099"><ele>265.0</ele><time>2026-04-04T12:12:45Z</time></trkpt><trkpt lat="42.00553115254445" lon="12.877858819795486"><ele>267.0</ele><time>2026-04-04T12:12:46Z</time></trkpt><trkpt lat="42.00549090302515" lon="12.87758691650181"><ele>269.0</ele><time>2026-04-04T12:12:47Z</time></trkpt><trkpt lat="42.00546127368605" lon="12.877360034810746"><ele>271.0</ele><time>2026-04-04T12:12:48Z</time></trkpt><trkpt lat="42.005399892711715" lon="12.87718004609023"><ele>271.0</ele><time>2026-04-04T12:12:49Z</time></trkpt><trkpt lat="42.00531192091442" lon="12.877094583924185"><ele>271.0</ele><time>2026-04-04T12:12:50Z</time></trkpt><trkpt lat="42.0052061187002" lon="12.877063526489705"><ele>271.0</ele><time>2026-04-04T12:12:51Z</time></trkpt><trkpt lat="42.00511273448981" lon="12.877061402601713"><ele>271.0</ele><time>2026-04-04T12:12:52Z</time></trkpt><trkpt lat="42.00501550260322" lon="12.877057851421446"><ele>271.0</ele><time>2026-04-04T12:12:53Z</time></trkpt><trkpt lat="42.00486906293215" lon="12.877066188885895"><ele>269.3333333333333</ele><time>2026-04-04T12:12:54Z</time></trkpt><trkpt lat="42.004653913410266" lon="12.877057516540862"><ele>267.6666666666667</ele><time>2026-04-04T12:12:55Z</time></trkpt><trkpt lat="42.00445452219793" lon="12.877027261129038"><ele>266.0</ele><time>2026-04-04T12:12:56Z</time></trkpt><trkpt lat="42.00428313415787" lon="12.876963772903078"><ele>266.33333333333337</ele><time>2026-04-04T12:12:57Z</time></trkpt><trkpt lat="42.00410891471772" lon="12.876863586592986"><ele>266.6666666666667</ele><time>2026-04-04T12:12:58Z</time></trkpt><trkpt lat="42.00387921093874" lon="12.876720002379953"><ele>267.0</ele><time>2026-04-04T12:12:59Z</time></trkpt><trkpt lat="42.00366226399371" lon="12.876600389496849"><ele>267.0</ele><time>2026-04-04T12:13:00Z</time></trkpt><trkpt lat="42.00348473010157" lon="12.876511807222055"><ele>267.0</ele><time>2026-04-04T12:13:01Z</time></trkpt><trkpt lat="42.00327476661882" lon="12.876495908844229"><ele>267.0</ele><time>2026-04-04T12:13:02Z</time></trkpt><trkpt lat="42.00303955635645" lon="12.876562555343865"><ele>264.5</ele><time>2026-04-04T12:13:03Z</time></trkpt><trkpt lat="42.0028073230376" lon="12.876705113048567"><ele>262.0</ele><time>2026-04-04T12:13:04Z</time></trkpt><trkpt lat="42.002572831709124" lon="12.876885000699584"><ele>261.66666666666663</ele><time>2026-04-04T12:13:05Z</time></trkpt><trkpt lat="42.00235864040328" lon="12.876996327891014"><ele>261.3333333333333</ele><time>2026-04-04T12:13:06Z</time></trkpt><trkpt lat="42.00217062809267" lon="12.877070337315807"><ele>261.0</ele><time>2026-04-04T12:13:07Z</time></trkpt><trkpt lat="42.001944886713396" lon="12.87707854758059"><ele>262.0</ele><time>2026-04-04T12:13:08Z</time></trkpt><trkpt lat="42.001639250876025" lon="12.87705392470268"><ele>263.0</ele><time>2026-04-04T12:13:09Z</time></trkpt><trkpt lat="42.001275715634165" lon="12.877031579996553"><ele>263.0</ele><time>2026-04-04T12:13:10Z</time></trkpt><trkpt lat="42.00094317566867" lon="12.877013406723472"><ele>263.0</ele><time>2026-04-04T12:13:11Z</time></trkpt><trkpt lat="42.00062916090836" lon="12.877138243498043"><ele>263.0</ele><time>2026-04-04T12:13:12Z</time></trkpt><trkpt lat="42.00034130914199" lon="12.877118470384033"><ele>263.0</ele><time>2026-04-04T12:13:13Z</time></trkpt><trkpt lat="41.99998174991273" lon="12.877087809286007"><ele>263.0</ele><time>2026-04-04T12:13:14Z</time></trkpt><trkpt lat="41.999574704748355" lon="12.877024717492878"><ele>263.0</ele><time>2026-04-04T12:13:15Z</time></trkpt><trkpt lat="41.99917802090649" lon="12.876919831848227"><ele>268.0</ele><time>2026-04-04T12:13:16Z</time></trkpt><trkpt lat="41.998800993339486" lon="12.876757922761763"><ele>273.0</ele><time>2026-04-04T12:13:17Z</time></trkpt><trkpt lat="41.998422393268655" lon="12.876574720001127"><ele>268.0</ele><time>2026-04-04T12:13:18Z</time></trkpt><trkpt lat="41.99805252234939" lon="12.87639904489978"><ele>263.0</ele><time>2026-04-04T12:13:19Z</time></trkpt><trkpt lat="41.997753557860065" lon="12.876213175391566"><ele>263.0</ele><time>2026-04-04T12:13:20Z</time></trkpt><trkpt lat="41.997504165804266" lon="12.876010778510242"><ele>263.0</ele><time>2026-04-04T12:13:21Z</time></trkpt><trkpt lat="41.997183178500855" lon="12.875722343623638"><ele>265.0</ele><time>2026-04-04T12:13:22Z</time></trkpt><trkpt lat="41.99687467803065" lon="12.875421619231528"><ele>267.0</ele><time>2026-04-04T12:13:23Z</time></trkpt><trkpt lat="41.99661909840715" lon="12.875124853291084"><ele>269.0</ele><time>2026-04-04T12:13:24Z</time></trkpt><trkpt lat="41.99633377749945" lon="12.874812022526779"><ele>271.0</ele><time>2026-04-04T12:13:25Z</time></trkpt><trkpt lat="41.996039812173116" lon="12.874406227784435"><ele>269.5</ele><time>2026-04-04T12:13:26Z</time></trkpt><trkpt lat="41.99579902044086" lon="12.874062761840547"><ele>268.0</ele><time>2026-04-04T12:13:27Z</time></trkpt><trkpt lat="41.99564485075957" lon="12.873793342816722"><ele>268.0</ele><time>2026-04-04T12:13:28Z</time></trkpt><trkpt lat="41.99546063788547" lon="12.873645626203977"><ele>268.0</ele><time>2026-04-04T12:13:29Z</time></trkpt><trkpt lat="41.9952123672614" lon="12.873545207869695"><ele>272.0</ele><time>2026-04-04T12:13:30Z</time></trkpt><trkpt lat="41.99495613006639" lon="12.873501931421869"><ele>276.0</ele><time>2026-04-04T12:13:31Z</time></trkpt><trkpt lat="41.99478229598633" lon="12.873357370633004"><ele>276.0</ele><time>2026-04-04T12:13:32Z</time></trkpt><trkpt lat="41.99461315516054" lon="12.873158186996521"><ele>276.0</ele><time>2026-04-04T12:13:33Z</time></trkpt><trkpt lat="41.9944400923625" lon="12.872836659862905"><ele>282.5</ele><time>2026-04-04T12:13:34Z</time></trkpt><trkpt lat="41.994267664004425" lon="12.872485605222582"><ele>289.0</ele><time>2026-04-04T12:13:35Z</time></trkpt><trkpt lat="41.994173315821335" lon="12.87218043243278"><ele>290.0</ele><time>2026-04-04T12:13:36Z</time></trkpt><trkpt lat="41.99414303030679" lon="12.871865698934974"><ele>291.0</ele><time>2026-04-04T12:13:37Z</time></trkpt><trkpt lat="41.994182287812315" lon="12.871500826462041"><ele>291.0</ele><time>2026-04-04T12:13:38Z</time></trkpt><trkpt lat="41.994210898370284" lon="12.871103201148236"><ele>291.0</ele><time>2026-04-04T12:13:39Z</time></trkpt><trkpt lat="41.99425119800638" lon="12.870744956639523"><ele>287.5</ele><time>2026-04-04T12:13:40Z</time></trkpt><trkpt lat="41.99420968496413" lon="12.870370642423662"><ele>284.0</ele><time>2026-04-04T12:13:41Z</time></trkpt><trkpt lat="41.99409681382958" lon="12.869984713587241"><ele>276.0</ele><time>2026-04-04T12:13:42Z</time></trkpt><trkpt lat="41.99398412171663" lon="12.869635041666449"><ele>268.0</ele><time>2026-04-04T12:13:43Z</time></trkpt><trkpt lat="41.99387801659352" lon="12.869357171076446"><ele>269.3333333333333</ele><time>2026-04-04T12:13:44Z</time></trkpt><trkpt lat="41.99374558097785" lon="12.869122235891183"><ele>270.6666666666667</ele><time>2026-04-04T12:13:45Z</time></trkpt><trkpt lat="41.99358420089414" lon="12.86891364438297"><ele>272.0</ele><time>2026-04-04T12:13:46Z</time></trkpt><trkpt lat="41.993383245739885" lon="12.868687064695273"><ele>268.5</ele><time>2026-04-04T12:13:47Z</time></trkpt><trkpt lat="41.9931402318443" lon="12.868470572694779"><ele>265.0</ele><time>2026-04-04T12:13:48Z</time></trkpt><trkpt lat="41.99281854455122" lon="12.868169777024782"><ele>264.5</ele><time>2026-04-04T12:13:49Z</time></trkpt><trkpt lat="41.99245861972452" lon="12.867856183581356"><ele>264.0</ele><time>2026-04-04T12:13:50Z</time></trkpt><trkpt lat="41.992080905262256" lon="12.867661868064696"><ele>263.5</ele><time>2026-04-04T12:13:51Z</time></trkpt><trkpt lat="41.991759410732115" lon="12.867467878182108"><ele>263.0</ele><time>2026-04-04T12:13:52Z</time></trkpt><trkpt lat="41.99148705958169" lon="12.86728771617842"><ele>263.0</ele><time>2026-04-04T12:13:53Z</time></trkpt><trkpt lat="41.9912045629457" lon="12.86719490422484"><ele>263.0</ele><time>2026-04-04T12:13:54Z</time></trkpt><trkpt lat="41.99080246180936" lon="12.867064377440592"><ele>262.0</ele><time>2026-04-04T12:13:55Z</time></trkpt><trkpt lat="41.990484641368994" lon="12.866929802640852"><ele>261.0</ele><time>2026-04-04T12:13:56Z</time></trkpt><trkpt lat="41.99019885443892" lon="12.86679270984775"><ele>266.0</ele><time>2026-04-04T12:13:57Z</time></trkpt><trkpt lat="41.99001771363959" lon="12.866639572459247"><ele>271.0</ele><time>2026-04-04T12:13:58Z</time></trkpt><trkpt lat="41.98976655336944" lon="12.86638469107938"><ele>271.0</ele><time>2026-04-04T12:13:59Z</time></trkpt><trkpt lat="41.98955179501045" lon="12.866132389948286"><ele>271.0</ele><time>2026-04-04T12:14:00Z</time></trkpt><trkpt lat="41.98938710171647" lon="12.865820833417438"><ele>276.5</ele><time>2026-04-04T12:14:01Z</time></trkpt><trkpt lat="41.98923962150806" lon="12.865415524263723"><ele>282.0</ele><time>2026-04-04T12:14:02Z</time></trkpt><trkpt lat="41.98909391541455" lon="12.864999314875366"><ele>282.0</ele><time>2026-04-04T12:14:03Z</time></trkpt><trkpt lat="41.98896850917905" lon="12.864618269474697"><ele>282.0</ele><time>2026-04-04T12:14:04Z</time></trkpt><trkpt lat="41.98879347663667" lon="12.864287556278532"><ele>277.5</ele><time>2026-04-04T12:14:05Z</time></trkpt><trkpt lat="41.98854830266597" lon="12.864002557062166"><ele>273.0</ele><time>2026-04-04T12:14:06Z</time></trkpt><trkpt lat="41.98824327751264" lon="12.86375195328303"><ele>273.0</ele><time>2026-04-04T12:14:07Z</time></trkpt><trkpt lat="41.98797865126543" lon="12.863495147966244"><ele>273.0</ele><time>2026-04-04T12:14:08Z</time></trkpt><trkpt lat="41.98774311233441" lon="12.863295469389149"><ele>276.5</ele><time>2026-04-04T12:14:09Z</time></trkpt><trkpt lat="41.987500399453985" lon="12.863180049873401"><ele>280.0</ele><time>2026-04-04T12:14:10Z</time></trkpt><trkpt lat="41.987204635878456" lon="12.863153617990273"><ele>280.0</ele><time>2026-04-04T12:14:11Z</time></trkpt><trkpt lat="41.98692478542337" lon="12.86312833584895"><ele>280.0</ele><time>2026-04-04T12:14:12Z</time></trkpt><trkpt lat="41.986678937739" lon="12.863090831152991"><ele>280.0</ele><time>2026-04-04T12:14:13Z</time></trkpt><trkpt lat="41.98648502498412" lon="12.862976234517681"><ele>280.0</ele><time>2026-04-04T12:14:14Z</time></trkpt><trkpt lat="41.98633228730758" lon="12.86276185275782"><ele>280.0</ele><time>2026-04-04T12:14:15Z</time></trkpt><trkpt lat="41.986256865262966" lon="12.862471854160376"><ele>280.0</ele><time>2026-04-04T12:14:16Z</time></trkpt><trkpt lat="41.98624824006692" lon="12.862166684082476"><ele>280.0</ele><time>2026-04-04T12:14:17Z</time></trkpt><trkpt lat="41.98634944364007" lon="12.861890904754864"><ele>278.5</ele><time>2026-04-04T12:14:18Z</time></trkpt><trkpt lat="41.98647802681412" lon="12.861562826251317"><ele>277.0</ele><time>2026-04-04T12:14:19Z</time></trkpt><trkpt lat="41.986606916612345" lon="12.861183131561408"><ele>279.5</ele><time>2026-04-04T12:14:20Z</time></trkpt><trkpt lat="41.9867148510926" lon="12.860840750755315"><ele>282.0</ele><time>2026-04-04T12:14:21Z</time></trkpt><trkpt lat="41.98674088352601" lon="12.860489388762256"><ele>284.5</ele><time>2026-04-04T12:14:22Z</time></trkpt><trkpt lat="41.98670933279074" lon="12.86008079227949"><ele>287.0</ele><time>2026-04-04T12:14:23Z</time></trkpt><trkpt lat="41.986618469052615" lon="12.859676173171579"><ele>282.0</ele><time>2026-04-04T12:14:24Z</time></trkpt><trkpt lat="41.98645296820681" lon="12.859264708529448"><ele>277.0</ele><time>2026-04-04T12:14:25Z</time></trkpt><trkpt lat="41.986249950026924" lon="12.858821248785986"><ele>277.0</ele><time>2026-04-04T12:14:26Z</time></trkpt><trkpt lat="41.98608495618557" lon="12.858463782666702"><ele>277.0</ele><time>2026-04-04T12:14:27Z</time></trkpt><trkpt lat="41.98589222042597" lon="12.85816299971501"><ele>277.5</ele><time>2026-04-04T12:14:28Z</time></trkpt><trkpt lat="41.98563897446002" lon="12.85785690302039"><ele>278.0</ele><time>2026-04-04T12:14:29Z</time></trkpt><trkpt lat="41.98535257772426" lon="12.85754324372791"><ele>278.0</ele><time>2026-04-04T12:14:30Z</time></trkpt><trkpt lat="41.985065297407786" lon="12.857275362581191"><ele>278.0</ele><time>2026-04-04T12:14:31Z</time></trkpt><trkpt lat="41.98481038424635" lon="12.857035688838982"><ele>274.0</ele><time>2026-04-04T12:14:32Z</time></trkpt><trkpt lat="41.98459276754897" lon="12.856819994434154"><ele>270.0</ele><time>2026-04-04T12:14:33Z</time></trkpt><trkpt lat="41.98438679620912" lon="12.85661719772744"><ele>270.0</ele><time>2026-04-04T12:14:34Z</time></trkpt><trkpt lat="41.98420246644378" lon="12.856433404460926"><ele>270.0</ele><time>2026-04-04T12:14:35Z</time></trkpt><trkpt lat="41.98403122129726" lon="12.856262067484217"><ele>270.0</ele><time>2026-04-04T12:14:36Z</time></trkpt><trkpt lat="41.98390049421968" lon="12.856061482347132"><ele>266.5</ele><time>2026-04-04T12:14:37Z</time></trkpt><trkpt lat="41.98379478809994" lon="12.855795515585998"><ele>263.0</ele><time>2026-04-04T12:14:38Z</time></trkpt><trkpt lat="41.98375688339051" lon="12.85549638922052"><ele>263.0</ele><time>2026-04-04T12:14:39Z</time></trkpt><trkpt lat="41.98377486084556" lon="12.855173091136935"><ele>263.0</ele><time>2026-04-04T12:14:40Z</time></trkpt><trkpt lat="41.98382391549154" lon="12.854819085826444"><ele>260.5</ele><time>2026-04-04T12:14:41Z</time></trkpt><trkpt lat="41.98386378473321" lon="12.854447281824626"><ele>258.0</ele><time>2026-04-04T12:14:42Z</time></trkpt><trkpt lat="41.983888934940865" lon="12.854076271182642"><ele>256.5</ele><time>2026-04-04T12:14:43Z</time></trkpt><trkpt lat="41.983926529693505" lon="12.85375798225183"><ele>255.0</ele><time>2026-04-04T12:14:44Z</time></trkpt><trkpt lat="41.98400270864439" lon="12.853486631266053"><ele>254.5</ele><time>2026-04-04T12:14:45Z</time></trkpt><trkpt lat="41.984146147382354" lon="12.853220653108227"><ele>254.0</ele><time>2026-04-04T12:14:46Z</time></trkpt><trkpt lat="41.98437077986613" lon="12.852958104276953"><ele>256.5</ele><time>2026-04-04T12:14:47Z</time></trkpt><trkpt lat="41.984636145811955" lon="12.852684915751233"><ele>259.0</ele><time>2026-04-04T12:14:48Z</time></trkpt><trkpt lat="41.98490803398756" lon="12.852392651316306"><ele>267.0</ele><time>2026-04-04T12:14:49Z</time></trkpt><trkpt lat="41.985158875542794" lon="12.852097775306545"><ele>275.0</ele><time>2026-04-04T12:14:50Z</time></trkpt><trkpt lat="41.98537758401803" lon="12.851825749938362"><ele>269.0</ele><time>2026-04-04T12:14:51Z</time></trkpt><trkpt lat="41.98558833676685" lon="12.851541108408703"><ele>263.0</ele><time>2026-04-04T12:14:52Z</time></trkpt><trkpt lat="41.98577293530088" lon="12.851222453834733"><ele>263.0</ele><time>2026-04-04T12:14:53Z</time></trkpt><trkpt lat="41.98592826982421" lon="12.850887889083896"><ele>263.0</ele><time>2026-04-04T12:14:54Z</time></trkpt><trkpt lat="41.986027267698745" lon="12.850553066737945"><ele>263.0</ele><time>2026-04-04T12:14:55Z</time></trkpt><trkpt lat="41.98606727661704" lon="12.850160369916166"><ele>263.0</ele><time>2026-04-04T12:14:56Z</time></trkpt><trkpt lat="41.986067115035134" lon="12.849734951829381"><ele>262.5</ele><time>2026-04-04T12:14:57Z</time></trkpt><trkpt lat="41.986059148185745" lon="12.849380291564305"><ele>262.0</ele><time>2026-04-04T12:14:58Z</time></trkpt><trkpt lat="41.986077334960605" lon="12.849076171114737"><ele>261.5</ele><time>2026-04-04T12:14:59Z</time></trkpt><trkpt lat="41.98617888059071" lon="12.848825593419088"><ele>261.0</ele><time>2026-04-04T12:15:00Z</time></trkpt><trkpt lat="41.986364279278284" lon="12.848572232435565"><ele>260.0</ele><time>2026-04-04T12:15:01Z</time></trkpt><trkpt lat="41.98655383858654" lon="12.848285805497232"><ele>259.0</ele><time>2026-04-04T12:15:02Z</time></trkpt><trkpt lat="41.986681345462806" lon="12.847998429849474"><ele>259.0</ele><time>2026-04-04T12:15:03Z</time></trkpt><trkpt lat="41.98673625502299" lon="12.847678185058673"><ele>259.0</ele><time>2026-04-04T12:15:04Z</time></trkpt><trkpt lat="41.98669930057215" lon="12.847336447708424"><ele>258.5</ele><time>2026-04-04T12:15:05Z</time></trkpt><trkpt lat="41.98661105259738" lon="12.847009309240278"><ele>258.0</ele><time>2026-04-04T12:15:06Z</time></trkpt><trkpt lat="41.98648509438919" lon="12.846717733054007"><ele>257.5</ele><time>2026-04-04T12:15:07Z</time></trkpt><trkpt lat="41.98635363032" lon="12.84641527747317"><ele>257.0</ele><time>2026-04-04T12:15:08Z</time></trkpt><trkpt lat="41.986239259468505" lon="12.846151255748152"><ele>256.0</ele><time>2026-04-04T12:15:09Z</time></trkpt><trkpt lat="41.98613339826665" lon="12.845899180684727"><ele>255.0</ele><time>2026-04-04T12:15:10Z</time></trkpt><trkpt lat="41.986029672215004" lon="12.845654606729338"><ele>254.0</ele><time>2026-04-04T12:15:11Z</time></trkpt><trkpt lat="41.985920469471004" lon="12.845434537858164"><ele>254.66666666666669</ele><time>2026-04-04T12:15:12Z</time></trkpt><trkpt lat="41.98578564659639" lon="12.845213247862205"><ele>255.33333333333331</ele><time>2026-04-04T12:15:13Z</time></trkpt><trkpt lat="41.985635314061376" lon="12.845003215149406"><ele>256.0</ele><time>2026-04-04T12:15:14Z</time></trkpt><trkpt lat="41.98548524242783" lon="12.844834326374356"><ele>256.0</ele><time>2026-04-04T12:15:15Z</time></trkpt><trkpt lat="41.9853111428672" lon="12.844673854548232"><ele>256.0</ele><time>2026-04-04T12:15:16Z</time></trkpt><trkpt lat="41.985136622543095" lon="12.844529082750173"><ele>256.0</ele><time>2026-04-04T12:15:17Z</time></trkpt><trkpt lat="41.98496106073632" lon="12.844396835415798"><ele>256.3333333333333</ele><time>2026-04-04T12:15:18Z</time></trkpt><trkpt lat="41.984792760630334" lon="12.844289368108212"><ele>256.6666666666667</ele><time>2026-04-04T12:15:19Z</time></trkpt><trkpt lat="41.98464003539753" lon="12.844215957839044"><ele>257.0</ele><time>2026-04-04T12:15:20Z</time></trkpt><trkpt lat="41.9844727649596" lon="12.84415969815962"><ele>257.0</ele><time>2026-04-04T12:15:21Z</time></trkpt><trkpt lat="41.984286143091516" lon="12.844110475931856"><ele>257.0</ele><time>2026-04-04T12:15:22Z</time></trkpt><trkpt lat="41.9840794175411" lon="12.84406752274011"><ele>257.0</ele><time>2026-04-04T12:15:23Z</time></trkpt><trkpt lat="41.98386852577707" lon="12.844045061492809"><ele>256.0</ele><time>2026-04-04T12:15:24Z</time></trkpt><trkpt lat="41.9836561111501" lon="12.844056600304599"><ele>255.0</ele><time>2026-04-04T12:15:25Z</time></trkpt><trkpt lat="41.983445040964966" lon="12.844092845854068"><ele>254.0</ele><time>2026-04-04T12:15:26Z</time></trkpt><trkpt lat="41.98323176953314" lon="12.844121362089233"><ele>254.0</ele><time>2026-04-04T12:15:27Z</time></trkpt><trkpt lat="41.98295213313334" lon="12.844169361122905"><ele>254.0</ele><time>2026-04-04T12:15:28Z</time></trkpt><trkpt lat="41.982574987154024" lon="12.844235644308773"><ele>246.0</ele><time>2026-04-04T12:15:29Z</time></trkpt><trkpt lat="41.98222897570894" lon="12.844325329428209"><ele>238.0</ele><time>2026-04-04T12:15:30Z</time></trkpt><trkpt lat="41.981944649457816" lon="12.844360352918194"><ele>238.0</ele><time>2026-04-04T12:15:31Z</time></trkpt><trkpt lat="41.98170991892658" lon="12.84435836531586"><ele>238.0</ele><time>2026-04-04T12:15:32Z</time></trkpt><trkpt lat="41.98145374471566" lon="12.84426729129672"><ele>247.0</ele><time>2026-04-04T12:15:33Z</time></trkpt><trkpt lat="41.9811952902643" lon="12.844052913840883"><ele>256.0</ele><time>2026-04-04T12:15:34Z</time></trkpt><trkpt lat="41.980968515088435" lon="12.843834401386502"><ele>255.5</ele><time>2026-04-04T12:15:35Z</time></trkpt><trkpt lat="41.98079661745992" lon="12.843576944981132"><ele>255.0</ele><time>2026-04-04T12:15:36Z</time></trkpt><trkpt lat="41.98067614823727" lon="12.843283204696354"><ele>255.0</ele><time>2026-04-04T12:15:37Z</time></trkpt><trkpt lat="41.98058285337039" lon="12.842910594208972"><ele>255.0</ele><time>2026-04-04T12:15:38Z</time></trkpt><trkpt lat="41.98047767893799" lon="12.842488526232641"><ele>256.5</ele><time>2026-04-04T12:15:39Z</time></trkpt><trkpt lat="41.98034685220487" lon="12.842054696949692"><ele>258.0</ele><time>2026-04-04T12:15:40Z</time></trkpt><trkpt lat="41.98014561298569" lon="12.841645948936463"><ele>260.0</ele><time>2026-04-04T12:15:41Z</time></trkpt><trkpt lat="41.97989574755732" lon="12.841268828648591"><ele>262.0</ele><time>2026-04-04T12:15:42Z</time></trkpt><trkpt lat="41.979618096422854" lon="12.840936057581544"><ele>262.0</ele><time>2026-04-04T12:15:43Z</time></trkpt><trkpt lat="41.97935360035739" lon="12.8406953939271"><ele>262.0</ele><time>2026-04-04T12:15:44Z</time></trkpt><trkpt lat="41.97913849989524" lon="12.840487435230129"><ele>258.0</ele><time>2026-04-04T12:15:45Z</time></trkpt><trkpt lat="41.97900492921315" lon="12.840241573095025"><ele>254.0</ele><time>2026-04-04T12:15:46Z</time></trkpt><trkpt lat="41.97897612548314" lon="12.839918219805718"><ele>254.0</ele><time>2026-04-04T12:15:47Z</time></trkpt><trkpt lat="41.97896508313976" lon="12.839579876883402"><ele>254.0</ele><time>2026-04-04T12:15:48Z</time></trkpt><trkpt lat="41.979024151982195" lon="12.839249977353665"><ele>254.0</ele><time>2026-04-04T12:15:49Z</time></trkpt><trkpt lat="41.979152998044476" lon="12.838929385878751"><ele>254.0</ele><time>2026-04-04T12:15:50Z</time></trkpt><trkpt lat="41.97930618140376" lon="12.838582233240656"><ele>258.5</ele><time>2026-04-04T12:15:51Z</time></trkpt><trkpt lat="41.97945830448033" lon="12.838296278465496"><ele>263.0</ele><time>2026-04-04T12:15:52Z</time></trkpt><trkpt lat="41.97953375249995" lon="12.837978841649026"><ele>260.0</ele><time>2026-04-04T12:15:53Z</time></trkpt><trkpt lat="41.979525004995814" lon="12.837607627667886"><ele>257.0</ele><time>2026-04-04T12:15:54Z</time></trkpt><trkpt lat="41.979447032905604" lon="12.837212815542546"><ele>257.0</ele><time>2026-04-04T12:15:55Z</time></trkpt><trkpt lat="41.979319947768346" lon="12.836851903606005"><ele>257.0</ele><time>2026-04-04T12:15:56Z</time></trkpt><trkpt lat="41.97918381621211" lon="12.836565226653567"><ele>256.5</ele><time>2026-04-04T12:15:57Z</time></trkpt><trkpt lat="41.97896920021206" lon="12.836314039670793"><ele>256.0</ele><time>2026-04-04T12:15:58Z</time></trkpt><trkpt lat="41.978710441305836" lon="12.836106449547044"><ele>261.0</ele><time>2026-04-04T12:15:59Z</time></trkpt><trkpt lat="41.97852584668731" lon="12.835876877348797"><ele>266.0</ele><time>2026-04-04T12:16:00Z</time></trkpt><trkpt lat="41.97837084908703" lon="12.8355810082091"><ele>263.0</ele><time>2026-04-04T12:16:01Z</time></trkpt><trkpt lat="41.97818221540119" lon="12.835190070742232"><ele>260.0</ele><time>2026-04-04T12:16:02Z</time></trkpt><trkpt lat="41.97797844029381" lon="12.834767933636126"><ele>260.0</ele><time>2026-04-04T12:16:03Z</time></trkpt><trkpt lat="41.97778925776566" lon="12.834374484882385"><ele>260.0</ele><time>2026-04-04T12:16:04Z</time></trkpt><trkpt lat="41.97758971636106" lon="12.83405587719194"><ele>258.5</ele><time>2026-04-04T12:16:05Z</time></trkpt><trkpt lat="41.97734993004666" lon="12.83377541687208"><ele>257.0</ele><time>2026-04-04T12:16:06Z</time></trkpt><trkpt lat="41.97708926510082" lon="12.833586290519381"><ele>259.0</ele><time>2026-04-04T12:16:07Z</time></trkpt><trkpt lat="41.97680616674662" lon="12.833441170094037"><ele>261.0</ele><time>2026-04-04T12:16:08Z</time></trkpt><trkpt lat="41.976493102595605" lon="12.833280202093675"><ele>261.0</ele><time>2026-04-04T12:16:09Z</time></trkpt><trkpt lat="41.97616293852878" lon="12.833151420422764"><ele>261.0</ele><time>2026-04-04T12:16:10Z</time></trkpt><trkpt lat="41.975842867173824" lon="12.833019856253204"><ele>259.0</ele><time>2026-04-04T12:16:11Z</time></trkpt><trkpt lat="41.9755435131051" lon="12.832887799454795"><ele>257.0</ele><time>2026-04-04T12:16:12Z</time></trkpt><trkpt lat="41.97525073224653" lon="12.832763963289077"><ele>257.5</ele><time>2026-04-04T12:16:13Z</time></trkpt><trkpt lat="41.974944439668015" lon="12.83265256188386"><ele>258.0</ele><time>2026-04-04T12:16:14Z</time></trkpt><trkpt lat="41.97461982125405" lon="12.832557349725791"><ele>260.5</ele><time>2026-04-04T12:16:15Z</time></trkpt><trkpt lat="41.974311897964036" lon="12.832487625543138"><ele>263.0</ele><time>2026-04-04T12:16:16Z</time></trkpt><trkpt lat="41.973987469378386" lon="12.832424379144891"><ele>263.0</ele><time>2026-04-04T12:16:17Z</time></trkpt><trkpt lat="41.973659126086936" lon="12.832363252432245"><ele>263.0</ele><time>2026-04-04T12:16:18Z</time></trkpt><trkpt lat="41.97332288123457" lon="12.83231111727943"><ele>261.0</ele><time>2026-04-04T12:16:19Z</time></trkpt><trkpt lat="41.97299162610674" lon="12.83225637472426"><ele>259.0</ele><time>2026-04-04T12:16:20Z</time></trkpt><trkpt lat="41.972672483777" lon="12.832137627008057"><ele>257.5</ele><time>2026-04-04T12:16:21Z</time></trkpt><trkpt lat="41.972346772128446" lon="12.832039714246086"><ele>256.0</ele><time>2026-04-04T12:16:22Z</time></trkpt><trkpt lat="41.97201173787406" lon="12.831882667260656"><ele>253.5</ele><time>2026-04-04T12:16:23Z</time></trkpt><trkpt lat="41.97167830116392" lon="12.83166158281793"><ele>251.0</ele><time>2026-04-04T12:16:24Z</time></trkpt><trkpt lat="41.97134703555564" lon="12.831391629901095"><ele>251.0</ele><time>2026-04-04T12:16:25Z</time></trkpt><trkpt lat="41.97102025336908" lon="12.83110193833634"><ele>251.0</ele><time>2026-04-04T12:16:26Z</time></trkpt><trkpt lat="41.97072322056051" lon="12.830865498906476"><ele>253.5</ele><time>2026-04-04T12:16:27Z</time></trkpt><trkpt lat="41.97046456651051" lon="12.830632760183645"><ele>256.0</ele><time>2026-04-04T12:16:28Z</time></trkpt><trkpt lat="41.97021675852031" lon="12.830418181279887"><ele>256.5</ele><time>2026-04-04T12:16:29Z</time></trkpt><trkpt lat="41.96997811772448" lon="12.830206872979087"><ele>257.0</ele><time>2026-04-04T12:16:30Z</time></trkpt><trkpt lat="41.96975783565289" lon="12.829999097377417"><ele>258.5</ele><time>2026-04-04T12:16:31Z</time></trkpt><trkpt lat="41.96955430291435" lon="12.829751940816065"><ele>260.0</ele><time>2026-04-04T12:16:32Z</time></trkpt><trkpt lat="41.969342173142294" lon="12.829493187072204"><ele>261.5</ele><time>2026-04-04T12:16:33Z</time></trkpt><trkpt lat="41.96913815021792" lon="12.829219905970872"><ele>263.0</ele><time>2026-04-04T12:16:34Z</time></trkpt><trkpt lat="41.968970513127" lon="12.82888576542405"><ele>263.0</ele><time>2026-04-04T12:16:35Z</time></trkpt><trkpt lat="41.96878489757929" lon="12.828563467871312"><ele>263.0</ele><time>2026-04-04T12:16:36Z</time></trkpt><trkpt lat="41.96863397368893" lon="12.828202136463984"><ele>263.0</ele><time>2026-04-04T12:16:37Z</time></trkpt><trkpt lat="41.96850133927504" lon="12.827858306433225"><ele>263.0</ele><time>2026-04-04T12:16:38Z</time></trkpt><trkpt lat="41.96835492516902" lon="12.827519899680302"><ele>262.0</ele><time>2026-04-04T12:16:39Z</time></trkpt><trkpt lat="41.96818882758395" lon="12.82718505166902"><ele>261.0</ele><time>2026-04-04T12:16:40Z</time></trkpt><trkpt lat="41.96801034007258" lon="12.82687375268095"><ele>262.0</ele><time>2026-04-04T12:16:41Z</time></trkpt><trkpt lat="41.96780804859657" lon="12.82656332702943"><ele>263.0</ele><time>2026-04-04T12:16:42Z</time></trkpt><trkpt lat="41.967587200746316" lon="12.826261949948302"><ele>261.0</ele><time>2026-04-04T12:16:43Z</time></trkpt><trkpt lat="41.96735581485744" lon="12.826004552135283"><ele>259.0</ele><time>2026-04-04T12:16:44Z</time></trkpt><trkpt lat="41.96710909173" lon="12.825789448617902"><ele>259.0</ele><time>2026-04-04T12:16:45Z</time></trkpt><trkpt lat="41.9668525422484" lon="12.82559910480055"><ele>259.0</ele><time>2026-04-04T12:16:46Z</time></trkpt><trkpt lat="41.966581824327896" lon="12.825435759444272"><ele>259.5</ele><time>2026-04-04T12:16:47Z</time></trkpt><trkpt lat="41.966296213218634" lon="12.825280545314342"><ele>260.0</ele><time>2026-04-04T12:16:48Z</time></trkpt><trkpt lat="41.966006989540155" lon="12.82512871881971"><ele>258.5</ele><time>2026-04-04T12:16:49Z</time></trkpt><trkpt lat="41.965700074777644" lon="12.824958087642838"><ele>257.0</ele><time>2026-04-04T12:16:50Z</time></trkpt><trkpt lat="41.965406128184256" lon="12.824790685757202"><ele>257.0</ele><time>2026-04-04T12:16:51Z</time></trkpt><trkpt lat="41.96512420791474" lon="12.824637399789562"><ele>257.0</ele><time>2026-04-04T12:16:52Z</time></trkpt><trkpt lat="41.96485440766923" lon="12.824486065729047"><ele>257.5</ele><time>2026-04-04T12:16:53Z</time></trkpt><trkpt lat="41.964575737199475" lon="12.824327968553135"><ele>258.0</ele><time>2026-04-04T12:16:54Z</time></trkpt><trkpt lat="41.96427544962277" lon="12.824152414891058"><ele>258.5</ele><time>2026-04-04T12:16:55Z</time></trkpt><trkpt lat="41.96398099123141" lon="12.82396878616647"><ele>259.0</ele><time>2026-04-04T12:16:56Z</time></trkpt><trkpt lat="41.96369971808377" lon="12.823776869439781"><ele>259.0</ele><time>2026-04-04T12:16:57Z</time></trkpt><trkpt lat="41.96341421538058" lon="12.823550757833564"><ele>259.0</ele><time>2026-04-04T12:16:58Z</time></trkpt><trkpt lat="41.96313993439123" lon="12.823304204210762"><ele>259.0</ele><time>2026-04-04T12:16:59Z</time></trkpt><trkpt lat="41.96287231281368" lon="12.823089218022233"><ele>259.0</ele><time>2026-04-04T12:17:00Z</time></trkpt><trkpt lat="41.96260972691523" lon="12.822912874284782"><ele>257.5</ele><time>2026-04-04T12:17:01Z</time></trkpt><trkpt lat="41.962330592920864" lon="12.822763382003204"><ele>256.0</ele><time>2026-04-04T12:17:02Z</time></trkpt><trkpt lat="41.96204495647199" lon="12.822650430943703"><ele>259.5</ele><time>2026-04-04T12:17:03Z</time></trkpt><trkpt lat="41.96175106757337" lon="12.822554853830917"><ele>263.0</ele><time>2026-04-04T12:17:04Z</time></trkpt><trkpt lat="41.96145176212984" lon="12.822456329925362"><ele>263.0</ele><time>2026-04-04T12:17:05Z</time></trkpt><trkpt lat="41.96117377645958" lon="12.82235270876913"><ele>263.0</ele><time>2026-04-04T12:17:06Z</time></trkpt><trkpt lat="41.9608991109138" lon="12.822260634806982"><ele>261.0</ele><time>2026-04-04T12:17:07Z</time></trkpt><trkpt lat="41.96065064462455" lon="12.822176240132848"><ele>259.0</ele><time>2026-04-04T12:17:08Z</time></trkpt><trkpt lat="41.96041978631553" lon="12.822092655303402"><ele>259.0</ele><time>2026-04-04T12:17:09Z</time></trkpt><trkpt lat="41.96020432538384" lon="12.822007292716513"><ele>259.0</ele><time>2026-04-04T12:17:10Z</time></trkpt><trkpt lat="41.95998582624822" lon="12.821917862004788"><ele>258.0</ele><time>2026-04-04T12:17:11Z</time></trkpt><trkpt lat="41.95975638518502" lon="12.821821875269965"><ele>257.0</ele><time>2026-04-04T12:17:12Z</time></trkpt><trkpt lat="41.95954418476561" lon="12.821719251230418"><ele>258.33333333333337</ele><time>2026-04-04T12:17:13Z</time></trkpt><trkpt lat="41.95935749067123" lon="12.821605060805815"><ele>259.6666666666667</ele><time>2026-04-04T12:17:14Z</time></trkpt><trkpt lat="41.95919179619999" lon="12.82149551375838"><ele>261.0</ele><time>2026-04-04T12:17:15Z</time></trkpt><trkpt lat="41.95901821463228" lon="12.821357181376275"><ele>261.0</ele><time>2026-04-04T12:17:16Z</time></trkpt><trkpt lat="41.95884081064841" lon="12.821259503343178"><ele>261.0</ele><time>2026-04-04T12:17:17Z</time></trkpt><trkpt lat="41.95868300729401" lon="12.821147692339995"><ele>261.0</ele><time>2026-04-04T12:17:18Z</time></trkpt><trkpt lat="41.95854944705436" lon="12.821055300347307"><ele>261.0</ele><time>2026-04-04T12:17:19Z</time></trkpt><trkpt lat="41.9584182404468" lon="12.820964872409746"><ele>261.0</ele><time>2026-04-04T12:17:20Z</time></trkpt><trkpt lat="41.958266553086105" lon="12.820858808875915"><ele>261.0</ele><time>2026-04-04T12:17:21Z</time></trkpt><trkpt lat="41.958094809768546" lon="12.820739590145081"><ele>261.0</ele><time>2026-04-04T12:17:22Z</time></trkpt><trkpt lat="41.957923030672944" lon="12.82058606453278"><ele>261.0</ele><time>2026-04-04T12:17:23Z</time></trkpt><trkpt lat="41.95774388525871" lon="12.82042831225897"><ele>261.0</ele><time>2026-04-04T12:17:24Z</time></trkpt><trkpt lat="41.95757774186278" lon="12.820245568167602"><ele>260.6666666666667</ele><time>2026-04-04T12:17:25Z</time></trkpt><trkpt lat="41.95742768084211" lon="12.820053315179935"><ele>260.33333333333337</ele><time>2026-04-04T12:17:26Z</time></trkpt><trkpt lat="41.95728656604799" lon="12.819839493301023"><ele>260.0</ele><time>2026-04-04T12:17:27Z</time></trkpt><trkpt lat="41.95715830921587" lon="12.81960579500467"><ele>260.0</ele><time>2026-04-04T12:17:28Z</time></trkpt><trkpt lat="41.957019263967425" lon="12.81936097462579"><ele>260.0</ele><time>2026-04-04T12:17:29Z</time></trkpt><trkpt lat="41.956885936548986" lon="12.819080590196373"><ele>258.5</ele><time>2026-04-04T12:17:30Z</time></trkpt><trkpt lat="41.95674358542472" lon="12.818805913909975"><ele>257.0</ele><time>2026-04-04T12:17:31Z</time></trkpt><trkpt lat="41.956570224080046" lon="12.818526202466636"><ele>259.5</ele><time>2026-04-04T12:17:32Z</time></trkpt><trkpt lat="41.956396902835685" lon="12.818293832139693"><ele>262.0</ele><time>2026-04-04T12:17:33Z</time></trkpt><trkpt lat="41.95622320310543" lon="12.818092632618683"><ele>262.0</ele><time>2026-04-04T12:17:34Z</time></trkpt><trkpt lat="41.956074703982765" lon="12.817880958545103"><ele>262.0</ele><time>2026-04-04T12:17:35Z</time></trkpt><trkpt lat="41.9559624011118" lon="12.81765145212097"><ele>262.0</ele><time>2026-04-04T12:17:36Z</time></trkpt><trkpt lat="41.95586620732141" lon="12.817404170441284"><ele>262.0</ele><time>2026-04-04T12:17:37Z</time></trkpt><trkpt lat="41.95578948719069" lon="12.81716107062508"><ele>262.0</ele><time>2026-04-04T12:17:38Z</time></trkpt><trkpt lat="41.95571016908807" lon="12.816900542094768"><ele>262.0</ele><time>2026-04-04T12:17:39Z</time></trkpt><trkpt lat="41.955631338066205" lon="12.816632493814016"><ele>262.0</ele><time>2026-04-04T12:17:40Z</time></trkpt><trkpt lat="41.95557381220521" lon="12.81635239596328"><ele>262.0</ele><time>2026-04-04T12:17:41Z</time></trkpt><trkpt lat="41.95551741403002" lon="12.816042388701021"><ele>262.0</ele><time>2026-04-04T12:17:42Z</time></trkpt><trkpt lat="41.95546025517227" lon="12.815726756645143"><ele>262.0</ele><time>2026-04-04T12:17:43Z</time></trkpt><trkpt lat="41.95542693754911" lon="12.81546175975779"><ele>262.0</ele><time>2026-04-04T12:17:44Z</time></trkpt><trkpt lat="41.9554198292159" lon="12.81518464554006"><ele>263.0</ele><time>2026-04-04T12:17:45Z</time></trkpt><trkpt lat="41.95547003921138" lon="12.814927970820666"><ele>264.0</ele><time>2026-04-04T12:17:46Z</time></trkpt><trkpt lat="41.955528108561566" lon="12.814670670646539"><ele>265.0</ele><time>2026-04-04T12:17:47Z</time></trkpt><trkpt lat="41.955586034689524" lon="12.814403195845909"><ele>265.0</ele><time>2026-04-04T12:17:48Z</time></trkpt><trkpt lat="41.9556581418673" lon="12.814145895352617"><ele>265.0</ele><time>2026-04-04T12:17:49Z</time></trkpt><trkpt lat="41.95570626407475" lon="12.81389379174776"><ele>265.0</ele><time>2026-04-04T12:17:50Z</time></trkpt><trkpt lat="41.95573184590822" lon="12.813654590579523"><ele>264.3333333333333</ele><time>2026-04-04T12:17:51Z</time></trkpt><trkpt lat="41.955745448298316" lon="12.813436997331157"><ele>263.6666666666667</ele><time>2026-04-04T12:17:52Z</time></trkpt><trkpt lat="41.9557697869829" lon="12.813237599682248"><ele>263.0</ele><time>2026-04-04T12:17:53Z</time></trkpt><trkpt lat="41.955825106055116" lon="12.813052495965398"><ele>265.75</ele><time>2026-04-04T12:17:54Z</time></trkpt><trkpt lat="41.95590259786171" lon="12.81290789341611"><ele>268.5</ele><time>2026-04-04T12:17:55Z</time></trkpt><trkpt lat="41.95598446433113" lon="12.812770089231673"><ele>271.25</ele><time>2026-04-04T12:17:56Z</time></trkpt><trkpt lat="41.956079647452405" lon="12.81260302820985"><ele>274.0</ele><time>2026-04-04T12:17:57Z</time></trkpt><trkpt lat="41.95616371294655" lon="12.812395003377599"><ele>274.0</ele><time>2026-04-04T12:17:58Z</time></trkpt><trkpt lat="41.956234366402086" lon="12.8121188106982"><ele>274.0</ele><time>2026-04-04T12:17:59Z</time></trkpt><trkpt lat="41.95630313911015" lon="12.811791312486086"><ele>271.3333333333333</ele><time>2026-04-04T12:18:00Z</time></trkpt><trkpt lat="41.95637201846166" lon="12.811527736151708"><ele>268.6666666666667</ele><time>2026-04-04T12:18:01Z</time></trkpt><trkpt lat="41.95642534133079" lon="12.811329314031457"><ele>266.0</ele><time>2026-04-04T12:18:02Z</time></trkpt><trkpt lat="41.95646196794475" lon="12.811177794726532"><ele>266.0</ele><time>2026-04-04T12:18:03Z</time></trkpt><trkpt lat="41.956503886367514" lon="12.81104274308195"><ele>266.0</ele><time>2026-04-04T12:18:04Z</time></trkpt><trkpt lat="41.95656163398846" lon="12.810904787898096"><ele>266.0</ele><time>2026-04-04T12:18:05Z</time></trkpt><trkpt lat="41.956669761406786" lon="12.810753634108405"><ele>266.0</ele><time>2026-04-04T12:18:06Z</time></trkpt><trkpt lat="41.95681148418863" lon="12.810547712581291"><ele>265.0</ele><time>2026-04-04T12:18:07Z</time></trkpt><trkpt lat="41.956986973921964" lon="12.810268199435276"><ele>264.0</ele><time>2026-04-04T12:18:08Z</time></trkpt><trkpt lat="41.95718617013625" lon="12.809974821707772"><ele>258.0</ele><time>2026-04-04T12:18:09Z</time></trkpt><trkpt lat="41.957366921235774" lon="12.80967405597134"><ele>252.0</ele><time>2026-04-04T12:18:10Z</time></trkpt><trkpt lat="41.95754267542329" lon="12.809375187580198"><ele>257.0</ele><time>2026-04-04T12:18:11Z</time></trkpt><trkpt lat="41.95771951716037" lon="12.809073122269478"><ele>262.0</ele><time>2026-04-04T12:18:12Z</time></trkpt><trkpt lat="41.95789472771838" lon="12.808774104404105"><ele>255.0</ele><time>2026-04-04T12:18:13Z</time></trkpt><trkpt lat="41.95806718541136" lon="12.808489247631538"><ele>248.0</ele><time>2026-04-04T12:18:14Z</time></trkpt><trkpt lat="41.95824737417036" lon="12.808206468773834"><ele>261.0</ele><time>2026-04-04T12:18:15Z</time></trkpt><trkpt lat="41.95842228952517" lon="12.80793703405669"><ele>274.0</ele><time>2026-04-04T12:18:16Z</time></trkpt><trkpt lat="41.95858651735875" lon="12.807677135379457"><ele>264.5</ele><time>2026-04-04T12:18:17Z</time></trkpt><trkpt lat="41.958753141786886" lon="12.807416010614743"><ele>255.0</ele><time>2026-04-04T12:18:18Z</time></trkpt><trkpt lat="41.958910291676524" lon="12.80716556525563"><ele>255.0</ele><time>2026-04-04T12:18:19Z</time></trkpt><trkpt lat="41.95906268059427" lon="12.806914752326968"><ele>255.0</ele><time>2026-04-04T12:18:20Z</time></trkpt><trkpt lat="41.959205356351966" lon="12.806690475828843"><ele>256.0</ele><time>2026-04-04T12:18:21Z</time></trkpt><trkpt lat="41.959351544959304" lon="12.806483353252508"><ele>257.0</ele><time>2026-04-04T12:18:22Z</time></trkpt><trkpt lat="41.95954042897408" lon="12.806317063826096"><ele>258.0</ele><time>2026-04-04T12:18:23Z</time></trkpt><trkpt lat="41.959705956904074" lon="12.80614947808427"><ele>258.0</ele><time>2026-04-04T12:18:24Z</time></trkpt><trkpt lat="41.95988942547803" lon="12.80603344786243"><ele>258.0</ele><time>2026-04-04T12:18:25Z</time></trkpt><trkpt lat="41.9600987322643" lon="12.805944615559094"><ele>258.0</ele><time>2026-04-04T12:18:26Z</time></trkpt><trkpt lat="41.96032880898352" lon="12.805886844827226"><ele>248.5</ele><time>2026-04-04T12:18:27Z</time></trkpt><trkpt lat="41.960576621791326" lon="12.805862510977796"><ele>239.0</ele><time>2026-04-04T12:18:28Z</time></trkpt><trkpt lat="41.96083557219429" lon="12.805861529815319"><ele>239.5</ele><time>2026-04-04T12:18:29Z</time></trkpt><trkpt lat="41.96108150068767" lon="12.805840245878318"><ele>240.0</ele><time>2026-04-04T12:18:30Z</time></trkpt><trkpt lat="41.961313441108494" lon="12.805825359083599"><ele>240.0</ele><time>2026-04-04T12:18:31Z</time></trkpt><trkpt lat="41.96151596306166" lon="12.805784386479816"><ele>240.0</ele><time>2026-04-04T12:18:32.001Z</time></trkpt><trkpt lat="41.96170197721404" lon="12.805712804396276"><ele>240.0</ele><time>2026-04-04T12:18:33.001Z</time></trkpt><trkpt lat="41.96188579328722" lon="12.805617109556783"><ele>244.66666666666669</ele><time>2026-04-04T12:18:34.001Z</time></trkpt><trkpt lat="41.96208528121245" lon="12.805509156076619"><ele>249.33333333333334</ele><time>2026-04-04T12:18:35.001Z</time></trkpt><trkpt lat="41.96229464819995" lon="12.80539496897724"><ele>254.0</ele><time>2026-04-04T12:18:36.001Z</time></trkpt><trkpt lat="41.962497987576654" lon="12.805286513490609"><ele>251.66666666666669</ele><time>2026-04-04T12:18:37.001Z</time></trkpt><trkpt lat="41.962687877299814" lon="12.80519647728295"><ele>249.33333333333331</ele><time>2026-04-04T12:18:38.001Z</time></trkpt><trkpt lat="41.962890061048334" lon="12.805085394726017"><ele>247.0</ele><time>2026-04-04T12:18:39.001Z</time></trkpt><trkpt lat="41.96307940428014" lon="12.804931626982809"><ele>247.0</ele><time>2026-04-04T12:18:40.001Z</time></trkpt><trkpt lat="41.9632418305153" lon="12.804779955137827"><ele>247.0</ele><time>2026-04-04T12:18:41.001Z</time></trkpt><trkpt lat="41.963371770037675" lon="12.804634355165478"><ele>247.0</ele><time>2026-04-04T12:18:42.001Z</time></trkpt><trkpt lat="41.963473716428396" lon="12.804498101387425"><ele>250.66666666666666</ele><time>2026-04-04T12:18:43.001Z</time></trkpt><trkpt lat="41.96356936145413" lon="12.804321204774501"><ele>254.33333333333331</ele><time>2026-04-04T12:18:44.001Z</time></trkpt><trkpt lat="41.963645749187094" lon="12.804130998300733"><ele>258.0</ele><time>2026-04-04T12:18:45.001Z</time></trkpt><trkpt lat="41.96372138171736" lon="12.803962914972944"><ele>258.0</ele><time>2026-04-04T12:18:46.001Z</time></trkpt><trkpt lat="41.96380089901444" lon="12.803824694728059"><ele>258.0</ele><time>2026-04-04T12:18:47.001Z</time></trkpt><trkpt lat="41.96385355837137" lon="12.803704644303853"><ele>258.0</ele><time>2026-04-04T12:18:48.001Z</time></trkpt><trkpt lat="41.96389291917292" lon="12.803603441895207"><ele>258.0</ele><time>2026-04-04T12:18:49.001Z</time></trkpt><trkpt lat="41.96394209086318" lon="12.803500450614912"><ele>258.0</ele><time>2026-04-04T12:18:50.001Z</time></trkpt><trkpt lat="41.9639900566423" lon="12.80341084176763"><ele>257.0</ele><time>2026-04-04T12:18:51.001Z</time></trkpt><trkpt lat="41.96403850537828" lon="12.803311417413415"><ele>256.0</ele><time>2026-04-04T12:18:52.001Z</time></trkpt><trkpt lat="41.96409082558035" lon="12.803209955233378"><ele>255.0</ele><time>2026-04-04T12:18:53.001Z</time></trkpt><trkpt lat="41.964157366911955" lon="12.803098885511279"><ele>254.0</ele><time>2026-04-04T12:18:54.001Z</time></trkpt><trkpt lat="41.964240084806896" lon="12.802991865514661"><ele>253.0</ele><time>2026-04-04T12:18:55.001Z</time></trkpt><trkpt lat="41.964341156231335" lon="12.80286409630244"><ele>253.0</ele><time>2026-04-04T12:18:56.001Z</time></trkpt><trkpt lat="41.96444467937463" lon="12.802729392799753"><ele>253.0</ele><time>2026-04-04T12:18:57.001Z</time></trkpt><trkpt lat="41.964560081142785" lon="12.802591597772565"><ele>253.0</ele><time>2026-04-04T12:18:58.001Z</time></trkpt><trkpt lat="41.964676276835036" lon="12.802464979638476"><ele>253.0</ele><time>2026-04-04T12:18:59.001Z</time></trkpt><trkpt lat="41.96476773235386" lon="12.802353221715567"><ele>248.8</ele><time>2026-04-04T12:19:00.001Z</time></trkpt><trkpt lat="41.96484760514395" lon="12.802254015432457"><ele>244.60000000000002</ele><time>2026-04-04T12:19:01.001Z</time></trkpt><trkpt lat="41.964918932956486" lon="12.802159923141547"><ele>240.39999999999998</ele><time>2026-04-04T12:19:02.001Z</time></trkpt><trkpt lat="41.964981698650256" lon="12.802088942763113"><ele>236.2</ele><time>2026-04-04T12:19:03.001Z</time></trkpt><trkpt lat="41.96504207468749" lon="12.802036493691585"><ele>232.0</ele><time>2026-04-04T12:19:04.001Z</time></trkpt><trkpt lat="41.96515657572806" lon="12.801978043124517"><ele>230.99999999999997</ele><time>2026-04-04T12:19:06.001Z</time></trkpt><trkpt lat="41.965256234076435" lon="12.80193221036184"><ele>230.0</ele><time>2026-04-04T12:19:08.001Z</time></trkpt><trkpt lat="41.965292642268906" lon="12.801860347093582"><ele>229.0</ele><time>2026-04-04T12:19:09.001Z</time></trkpt><trkpt lat="41.965296961691074" lon="12.801747881299947"><ele>228.0</ele><time>2026-04-04T12:19:11.001Z</time></trkpt><trkpt lat="41.965288623537276" lon="12.801644102607723"><ele>226.99999999999997</ele><time>2026-04-04T12:19:14.001Z</time></trkpt><trkpt lat="41.965307731179756" lon="12.801527092829872"><ele>226.0</ele><time>2026-04-04T12:19:16.001Z</time></trkpt><trkpt lat="41.96531667394795" lon="12.801399581150566"><ele>215.0</ele><time>2026-04-04T12:19:18.001Z</time></trkpt><trkpt lat="41.96518586784892" lon="12.801316012541204"><ele>215.0</ele><time>2026-04-04T12:19:22.001Z</time></trkpt><trkpt lat="41.96515503337452" lon="12.801399909132156"><ele>215.0</ele><time>2026-04-04T12:19:25.001Z</time></trkpt></trkseg></trk></gpx>